<?xml version="1.0" encoding="UTF-8" standalone="no" ?>
<gpx xmlns="http://www.topografix.com/GPX/1/1" xmlns:xsi="http://www.w3.org/2001/XMLSchema-instance" xsi:schemaLocation="http://www.topografix.com/GPX/1/1 http://www.topografix.com/GPX/1/1/gpx.xsd" version="1.1" creator="VisuGPX - https://www.visugpx.com">
  <metadata>
    <name>Raid Gueules Noires 95 KM V5</name>
  </metadata>
  <wpt lat="50.57697" lon="2.22969">
    <ele>95.2</ele>
    <name><![CDATA[Ravito 1 Raid]]></name>
    <type><![CDATA[user]]></type>
  </wpt>
  <wpt lat="50.48667" lon="2.37612">
    <ele>104</ele>
    <name><![CDATA[Ravito 3 Raid]]></name>
    <type><![CDATA[user]]></type>
  </wpt>
  <wpt lat="50.5381" lon="2.46002">
    <ele>59.6</ele>
    <name><![CDATA[Ravito 4 bis Raid]]></name>
    <type><![CDATA[user]]></type>
  </wpt>
  <wpt lat="50.55358" lon="2.42168">
    <ele>45.1</ele>
    <name><![CDATA[Ravito 5 Raid]]></name>
    <type><![CDATA[user]]></type>
  </wpt>
  <wpt lat="50.54127" lon="2.31512">
    <ele>127.9</ele>
    <name><![CDATA[Ravito2 Raid]]></name>
    <type><![CDATA[user]]></type>
  </wpt>
  <trk>
    <name><![CDATA[Raid Gueules Noires 95 KM V5]]></name>
    <trkseg>
      <trkpt lat="50.58702" lon="2.29249">
        <ele>84.38687</ele>
        <time>2023-02-09T19:27:18Z</time>
      </trkpt>
      <trkpt lat="50.58709" lon="2.29273">
        <ele>81.9</ele>
      </trkpt>
      <trkpt lat="50.58714" lon="2.29281">
        <ele>81.7</ele>
      </trkpt>
      <trkpt lat="50.58725" lon="2.29307">
        <ele>84.007403</ele>
        <time>2023-02-09T19:27:20Z</time>
      </trkpt>
      <trkpt lat="50.58764" lon="2.29413">
        <ele>82.097447</ele>
        <time>2023-02-09T19:27:33Z</time>
      </trkpt>
      <trkpt lat="50.5877" lon="2.29428">
        <ele>81.823916</ele>
        <time>2023-02-09T19:27:34Z</time>
      </trkpt>
      <trkpt lat="50.58785" lon="2.29458">
        <ele>81.209096</ele>
        <time>2023-02-09T19:27:38Z</time>
      </trkpt>
      <trkpt lat="50.58803" lon="2.29486">
        <ele>80.441072</ele>
        <time>2023-02-09T19:27:42Z</time>
      </trkpt>
      <trkpt lat="50.58858" lon="2.29545">
        <ele>76.3</ele>
      </trkpt>
      <trkpt lat="50.58882" lon="2.29572">
        <ele>75.8</ele>
      </trkpt>
      <trkpt lat="50.58903" lon="2.29599">
        <ele>76.664679</ele>
        <time>2023-02-09T19:28:01Z</time>
      </trkpt>
      <trkpt lat="50.58921" lon="2.29629">
        <ele>75.866917</ele>
        <time>2023-02-09T19:28:05Z</time>
      </trkpt>
      <trkpt lat="50.58936" lon="2.2966">
        <ele>74.958252</ele>
        <time>2023-02-09T19:28:09Z</time>
      </trkpt>
      <trkpt lat="50.58967" lon="2.29743">
        <ele>72.645554</ele>
        <time>2023-02-09T19:28:18Z</time>
      </trkpt>
      <trkpt lat="50.58992" lon="2.29819">
        <ele>70.565015</ele>
        <time>2023-02-09T19:28:26Z</time>
      </trkpt>
      <trkpt lat="50.59003" lon="2.29872">
        <ele>69.219663</ele>
        <time>2023-02-09T19:28:31Z</time>
      </trkpt>
      <trkpt lat="50.59018" lon="2.29959">
        <ele>66.99064</ele>
        <time>2023-02-09T19:28:40Z</time>
      </trkpt>
      <trkpt lat="50.59021" lon="2.29969">
        <ele>66.722766</ele>
        <time>2023-02-09T19:28:41Z</time>
      </trkpt>
      <trkpt lat="50.5903" lon="2.29981">
        <ele>66.249043</ele>
        <time>2023-02-09T19:28:42Z</time>
      </trkpt>
      <trkpt lat="50.59042" lon="2.29984">
        <ele>65.806218</ele>
        <time>2023-02-09T19:28:44Z</time>
      </trkpt>
      <trkpt lat="50.59068" lon="2.29982">
        <ele>64.764828</ele>
        <time>2023-02-09T19:28:48Z</time>
      </trkpt>
      <trkpt lat="50.59082" lon="2.29975">
        <ele>57.4</ele>
      </trkpt>
      <trkpt lat="50.59113" lon="2.2996">
        <ele>56.4</ele>
      </trkpt>
      <trkpt lat="50.59124" lon="2.29951">
        <ele>55.6</ele>
      </trkpt>
      <trkpt lat="50.59141" lon="2.29939">
        <ele>54.9</ele>
      </trkpt>
      <trkpt lat="50.5917" lon="2.29917">
        <ele>54</ele>
      </trkpt>
      <trkpt lat="50.59198" lon="2.29901">
        <ele>60.679008</ele>
        <time>2023-02-09T19:29:09Z</time>
      </trkpt>
      <trkpt lat="50.59257" lon="2.29888">
        <ele>59.674842</ele>
        <time>2023-02-09T19:29:18Z</time>
      </trkpt>
      <trkpt lat="50.59267" lon="2.29872">
        <ele>59.44025</ele>
        <time>2023-02-09T19:29:21Z</time>
      </trkpt>
      <trkpt lat="50.59294" lon="2.29812">
        <ele>58.897631</ele>
        <time>2023-02-09T19:29:30Z</time>
      </trkpt>
      <trkpt lat="50.59286" lon="2.29793">
        <ele>59.021415</ele>
        <time>2023-02-09T19:29:35Z</time>
      </trkpt>
      <trkpt lat="50.59275" lon="2.29776">
        <ele>59.149095</ele>
        <time>2023-02-09T19:29:40Z</time>
      </trkpt>
      <trkpt lat="50.59251" lon="2.29748">
        <ele>59.409126</ele>
        <time>2023-02-09T19:29:51Z</time>
      </trkpt>
      <trkpt lat="50.59245" lon="2.29738">
        <ele>59.481412</ele>
        <time>2023-02-09T19:29:54Z</time>
      </trkpt>
      <trkpt lat="50.59224" lon="2.29647">
        <ele>65.6</ele>
      </trkpt>
      <trkpt lat="50.59215" lon="2.29582">
        <ele>60.351341</ele>
        <time>2023-02-09T19:30:34Z</time>
      </trkpt>
      <trkpt lat="50.59187" lon="2.29519">
        <ele>60.578833</ele>
        <time>2023-02-09T19:30:51Z</time>
      </trkpt>
      <trkpt lat="50.59166" lon="2.29454">
        <ele>60.78979</ele>
        <time>2023-02-09T19:31:07Z</time>
      </trkpt>
      <trkpt lat="50.59123" lon="2.29352">
        <ele>61.148914</ele>
        <time>2023-02-09T19:31:32Z</time>
      </trkpt>
      <trkpt lat="50.59106" lon="2.29296">
        <ele>61.168226</ele>
        <time>2023-02-09T19:31:45Z</time>
      </trkpt>
      <trkpt lat="50.59076" lon="2.29214">
        <ele>61.157788</ele>
        <time>2023-02-09T19:32:04Z</time>
      </trkpt>
      <trkpt lat="50.59032" lon="2.29133">
        <ele>67.6</ele>
      </trkpt>
      <trkpt lat="50.59018" lon="2.29107">
        <ele>65.8</ele>
      </trkpt>
      <trkpt lat="50.58999" lon="2.29059">
        <ele>65.3</ele>
      </trkpt>
      <trkpt lat="50.58993" lon="2.29041">
        <ele>64.5</ele>
      </trkpt>
      <trkpt lat="50.58961" lon="2.28951">
        <ele>59.7</ele>
      </trkpt>
      <trkpt lat="50.58943" lon="2.2891">
        <ele>58.5</ele>
      </trkpt>
      <trkpt lat="50.58932" lon="2.28881">
        <ele>59</ele>
      </trkpt>
      <trkpt lat="50.58914" lon="2.2882">
        <ele>58.5</ele>
      </trkpt>
      <trkpt lat="50.58896" lon="2.2879">
        <ele>65.399204</ele>
        <time>2023-02-09T19:34:03Z</time>
      </trkpt>
      <trkpt lat="50.58893" lon="2.288">
        <ele>65.669241</ele>
        <time>2023-02-09T19:34:05Z</time>
      </trkpt>
      <trkpt lat="50.58886" lon="2.2881">
        <ele>66.066865</ele>
        <time>2023-02-09T19:34:09Z</time>
      </trkpt>
      <trkpt lat="50.58867" lon="2.28826">
        <ele>66.909331</ele>
        <time>2023-02-09T19:34:18Z</time>
      </trkpt>
      <trkpt lat="50.58833" lon="2.28845">
        <ele>59.4</ele>
      </trkpt>
      <trkpt lat="50.58801" lon="2.28862">
        <ele>61.2</ele>
      </trkpt>
      <trkpt lat="50.58784" lon="2.28869">
        <ele>70.453329</ele>
        <time>2023-02-09T19:34:59Z</time>
      </trkpt>
      <trkpt lat="50.58746" lon="2.28888">
        <ele>72.168939</ele>
        <time>2023-02-09T19:35:18Z</time>
      </trkpt>
      <trkpt lat="50.58722" lon="2.28894">
        <ele>73.224522</ele>
        <time>2023-02-09T19:35:29Z</time>
      </trkpt>
      <trkpt lat="50.58718" lon="2.28878">
        <ele>73.708392</ele>
        <time>2023-02-09T19:35:34Z</time>
      </trkpt>
      <trkpt lat="50.58701" lon="2.28839">
        <ele>75.011605</ele>
        <time>2023-02-09T19:35:49Z</time>
      </trkpt>
      <trkpt lat="50.5867" lon="2.28803">
        <ele>76.721376</ele>
        <time>2023-02-09T19:36:07Z</time>
      </trkpt>
      <trkpt lat="50.58644" lon="2.28755">
        <ele>77.755771</ele>
        <time>2023-02-09T19:36:23Z</time>
      </trkpt>
      <trkpt lat="50.58609" lon="2.28718">
        <ele>77.08118</ele>
        <time>2023-02-09T19:36:36Z</time>
      </trkpt>
      <trkpt lat="50.58589" lon="2.287">
        <ele>76.696256</ele>
        <time>2023-02-09T19:36:42Z</time>
      </trkpt>
      <trkpt lat="50.58591" lon="2.28675">
        <ele>76.438704</ele>
        <time>2023-02-09T19:36:44Z</time>
      </trkpt>
      <trkpt lat="50.58691" lon="2.28651">
        <ele>74.477609</ele>
        <time>2023-02-09T19:36:59Z</time>
      </trkpt>
      <trkpt lat="50.58735" lon="2.28634">
        <ele>72.708374</ele>
        <time>2023-02-09T19:37:05Z</time>
      </trkpt>
      <trkpt lat="50.58763" lon="2.28628">
        <ele>71.622148</ele>
        <time>2023-02-09T19:37:09Z</time>
      </trkpt>
      <trkpt lat="50.58798" lon="2.28645">
        <ele>70.199038</ele>
        <time>2023-02-09T19:37:14Z</time>
      </trkpt>
      <trkpt lat="50.58813" lon="2.28655">
        <ele>59.7</ele>
      </trkpt>
      <trkpt lat="50.58843" lon="2.28663">
        <ele>58.7</ele>
      </trkpt>
      <trkpt lat="50.58864" lon="2.28668">
        <ele>58.7</ele>
      </trkpt>
      <trkpt lat="50.58874" lon="2.28668">
        <ele>60.8</ele>
      </trkpt>
      <trkpt lat="50.58875" lon="2.28666">
        <ele>60.9</ele>
      </trkpt>
      <trkpt lat="50.58876" lon="2.28664">
        <ele>61.1</ele>
      </trkpt>
      <trkpt lat="50.58876" lon="2.28659">
        <ele>61.2</ele>
      </trkpt>
      <trkpt lat="50.58877" lon="2.28657">
        <ele>61.2</ele>
      </trkpt>
      <trkpt lat="50.58878" lon="2.28653">
        <ele>61.3</ele>
      </trkpt>
      <trkpt lat="50.58879" lon="2.2865">
        <ele>61.5</ele>
      </trkpt>
      <trkpt lat="50.5888" lon="2.28647">
        <ele>61.6</ele>
      </trkpt>
      <trkpt lat="50.5888" lon="2.28645">
        <ele>61.6</ele>
      </trkpt>
      <trkpt lat="50.58881" lon="2.28643">
        <ele>61.6</ele>
      </trkpt>
      <trkpt lat="50.58881" lon="2.28641">
        <ele>61.7</ele>
      </trkpt>
      <trkpt lat="50.58882" lon="2.28638">
        <ele>61.8</ele>
      </trkpt>
      <trkpt lat="50.58883" lon="2.28636">
        <ele>61.9</ele>
      </trkpt>
      <trkpt lat="50.58883" lon="2.28632">
        <ele>62.1</ele>
      </trkpt>
      <trkpt lat="50.58883" lon="2.28629">
        <ele>62.1</ele>
      </trkpt>
      <trkpt lat="50.58884" lon="2.28625">
        <ele>62.3</ele>
      </trkpt>
      <trkpt lat="50.58885" lon="2.28621">
        <ele>62.4</ele>
      </trkpt>
      <trkpt lat="50.58885" lon="2.28619">
        <ele>62.5</ele>
      </trkpt>
      <trkpt lat="50.58886" lon="2.28617">
        <ele>62.6</ele>
      </trkpt>
      <trkpt lat="50.58888" lon="2.28616">
        <ele>62.9</ele>
      </trkpt>
      <trkpt lat="50.58889" lon="2.2862">
        <ele>63</ele>
      </trkpt>
      <trkpt lat="50.58889" lon="2.28625">
        <ele>63</ele>
      </trkpt>
      <trkpt lat="50.5889" lon="2.28629">
        <ele>63.2</ele>
      </trkpt>
      <trkpt lat="50.58891" lon="2.28631">
        <ele>63.3</ele>
      </trkpt>
      <trkpt lat="50.58892" lon="2.28633">
        <ele>63.5</ele>
      </trkpt>
      <trkpt lat="50.58894" lon="2.28636">
        <ele>63.8</ele>
      </trkpt>
      <trkpt lat="50.58895" lon="2.28638">
        <ele>63.9</ele>
      </trkpt>
      <trkpt lat="50.58896" lon="2.2864">
        <ele>64.1</ele>
      </trkpt>
      <trkpt lat="50.58898" lon="2.28642">
        <ele>64.3</ele>
      </trkpt>
      <trkpt lat="50.58899" lon="2.28643">
        <ele>64.5</ele>
      </trkpt>
      <trkpt lat="50.589" lon="2.28645">
        <ele>64.7</ele>
      </trkpt>
      <trkpt lat="50.58902" lon="2.28646">
        <ele>65</ele>
      </trkpt>
      <trkpt lat="50.58903" lon="2.28648">
        <ele>65.2</ele>
      </trkpt>
      <trkpt lat="50.58905" lon="2.28649">
        <ele>65.4</ele>
      </trkpt>
      <trkpt lat="50.58905" lon="2.28652">
        <ele>65.5</ele>
      </trkpt>
      <trkpt lat="50.58909" lon="2.28656">
        <ele>66</ele>
      </trkpt>
      <trkpt lat="50.5891" lon="2.28657">
        <ele>66.2</ele>
      </trkpt>
      <trkpt lat="50.58911" lon="2.28659">
        <ele>66.3</ele>
      </trkpt>
      <trkpt lat="50.58912" lon="2.2866">
        <ele>66.5</ele>
      </trkpt>
      <trkpt lat="50.58913" lon="2.28661">
        <ele>66.6</ele>
      </trkpt>
      <trkpt lat="50.58915" lon="2.28663">
        <ele>66.8</ele>
      </trkpt>
      <trkpt lat="50.58916" lon="2.28664">
        <ele>66.9</ele>
      </trkpt>
      <trkpt lat="50.58917" lon="2.28666">
        <ele>67.1</ele>
      </trkpt>
      <trkpt lat="50.58919" lon="2.28667">
        <ele>67.4</ele>
      </trkpt>
      <trkpt lat="50.5892" lon="2.28667">
        <ele>67.6</ele>
      </trkpt>
      <trkpt lat="50.58922" lon="2.28668">
        <ele>67.9</ele>
      </trkpt>
      <trkpt lat="50.58924" lon="2.28668">
        <ele>68.2</ele>
      </trkpt>
      <trkpt lat="50.58925" lon="2.28667">
        <ele>68.6</ele>
      </trkpt>
      <trkpt lat="50.58927" lon="2.28667">
        <ele>68.9</ele>
      </trkpt>
      <trkpt lat="50.58929" lon="2.28667">
        <ele>69.2</ele>
      </trkpt>
      <trkpt lat="50.5893" lon="2.28667">
        <ele>69.4</ele>
      </trkpt>
      <trkpt lat="50.58932" lon="2.28667">
        <ele>69.7</ele>
      </trkpt>
      <trkpt lat="50.58933" lon="2.28667">
        <ele>70</ele>
      </trkpt>
      <trkpt lat="50.58935" lon="2.28666">
        <ele>70.3</ele>
      </trkpt>
      <trkpt lat="50.58936" lon="2.28665">
        <ele>70.5</ele>
      </trkpt>
      <trkpt lat="50.58938" lon="2.28664">
        <ele>70.8</ele>
      </trkpt>
      <trkpt lat="50.58939" lon="2.28662">
        <ele>71.1</ele>
      </trkpt>
      <trkpt lat="50.58941" lon="2.28661">
        <ele>71.4</ele>
      </trkpt>
      <trkpt lat="50.58942" lon="2.28661">
        <ele>71.6</ele>
      </trkpt>
      <trkpt lat="50.58944" lon="2.2866">
        <ele>71.9</ele>
      </trkpt>
      <trkpt lat="50.58947" lon="2.28659">
        <ele>72.5</ele>
      </trkpt>
      <trkpt lat="50.58949" lon="2.28659">
        <ele>72.8</ele>
      </trkpt>
      <trkpt lat="50.58951" lon="2.28659">
        <ele>73.1</ele>
      </trkpt>
      <trkpt lat="50.58953" lon="2.28659">
        <ele>73.4</ele>
      </trkpt>
      <trkpt lat="50.58954" lon="2.28658">
        <ele>73.7</ele>
      </trkpt>
      <trkpt lat="50.58956" lon="2.28657">
        <ele>74</ele>
      </trkpt>
      <trkpt lat="50.58958" lon="2.28657">
        <ele>74.3</ele>
      </trkpt>
      <trkpt lat="50.58959" lon="2.28656">
        <ele>74.6</ele>
      </trkpt>
      <trkpt lat="50.58961" lon="2.28655">
        <ele>74.9</ele>
      </trkpt>
      <trkpt lat="50.58981" lon="2.28658">
        <ele>78.6</ele>
      </trkpt>
      <trkpt lat="50.59004" lon="2.28662">
        <ele>83.6</ele>
      </trkpt>
      <trkpt lat="50.59023" lon="2.28664">
        <ele>85.5</ele>
      </trkpt>
      <trkpt lat="50.59023" lon="2.28661">
        <ele>74.174646</ele>
        <time>2023-02-09T19:38:52Z</time>
      </trkpt>
      <trkpt lat="50.59078" lon="2.28639">
        <ele>75.268582</ele>
        <time>2023-02-09T19:39:16Z</time>
      </trkpt>
      <trkpt lat="50.59066" lon="2.28638">
        <ele>87</ele>
      </trkpt>
      <trkpt lat="50.59038" lon="2.28614">
        <ele>86.4</ele>
      </trkpt>
      <trkpt lat="50.59018" lon="2.28591">
        <ele>76.576387</ele>
        <time>2023-02-09T19:39:45Z</time>
      </trkpt>
      <trkpt lat="50.59018" lon="2.28592">
        <ele>76.58782</ele>
        <time>2023-02-09T19:39:45Z</time>
      </trkpt>
      <trkpt lat="50.59007" lon="2.28582">
        <ele>76.824956</ele>
        <time>2023-02-09T19:39:47Z</time>
      </trkpt>
      <trkpt lat="50.58978" lon="2.28544">
        <ele>76.293589</ele>
        <time>2023-02-09T19:39:55Z</time>
      </trkpt>
      <trkpt lat="50.58931" lon="2.28495">
        <ele>75.104213</ele>
        <time>2023-02-09T19:40:07Z</time>
      </trkpt>
      <trkpt lat="50.58927" lon="2.28483">
        <ele>74.922853</ele>
        <time>2023-02-09T19:40:08Z</time>
      </trkpt>
      <trkpt lat="50.58923" lon="2.28463">
        <ele>74.638865</ele>
        <time>2023-02-09T19:40:11Z</time>
      </trkpt>
      <trkpt lat="50.58921" lon="2.28397">
        <ele>73.753408</ele>
        <time>2023-02-09T19:40:18Z</time>
      </trkpt>
      <trkpt lat="50.58919" lon="2.28365">
        <ele>73.322565</ele>
        <time>2023-02-09T19:40:21Z</time>
      </trkpt>
      <trkpt lat="50.58916" lon="2.28353">
        <ele>73.1588</ele>
        <time>2023-02-09T19:40:23Z</time>
      </trkpt>
      <trkpt lat="50.58902" lon="2.28281">
        <ele>72.349139</ele>
        <time>2023-02-09T19:40:31Z</time>
      </trkpt>
      <trkpt lat="50.58892" lon="2.28269">
        <ele>72.131992</ele>
        <time>2023-02-09T19:40:33Z</time>
      </trkpt>
      <trkpt lat="50.58889" lon="2.28235">
        <ele>71.757256</ele>
        <time>2023-02-09T19:40:37Z</time>
      </trkpt>
      <trkpt lat="50.5889" lon="2.28195">
        <ele>71.331828</ele>
        <time>2023-02-09T19:40:41Z</time>
      </trkpt>
      <trkpt lat="50.58815" lon="2.28218">
        <ele>70.098313</ele>
        <time>2023-02-09T19:40:53Z</time>
      </trkpt>
      <trkpt lat="50.58772" lon="2.28229">
        <ele>67.2</ele>
      </trkpt>
      <trkpt lat="50.5875" lon="2.28228">
        <ele>69.67596</ele>
        <time>2023-02-09T19:41:03Z</time>
      </trkpt>
      <trkpt lat="50.58726" lon="2.28231">
        <ele>69.523538</ele>
        <time>2023-02-09T19:41:07Z</time>
      </trkpt>
      <trkpt lat="50.58694" lon="2.28247">
        <ele>69.305366</ele>
        <time>2023-02-09T19:41:13Z</time>
      </trkpt>
      <trkpt lat="50.58623" lon="2.28331">
        <ele>70.22439</ele>
        <time>2023-02-09T19:41:36Z</time>
      </trkpt>
      <trkpt lat="50.58598" lon="2.28343">
        <ele>71.098277</ele>
        <time>2023-02-09T19:41:46Z</time>
      </trkpt>
      <trkpt lat="50.58572" lon="2.28345">
        <ele>71.995746</ele>
        <time>2023-02-09T19:41:54Z</time>
      </trkpt>
      <trkpt lat="50.58572" lon="2.28353">
        <ele>72.171763</ele>
        <time>2023-02-09T19:41:57Z</time>
      </trkpt>
      <trkpt lat="50.58565" lon="2.28419">
        <ele>73.603431</ele>
        <time>2023-02-09T19:42:13Z</time>
      </trkpt>
      <trkpt lat="50.58567" lon="2.28432">
        <ele>73.885807</ele>
        <time>2023-02-09T19:42:17Z</time>
      </trkpt>
      <trkpt lat="50.5857" lon="2.28458">
        <ele>74.444937</ele>
        <time>2023-02-09T19:42:24Z</time>
      </trkpt>
      <trkpt lat="50.58598" lon="2.28603">
        <ele>78.767071</ele>
        <time>2023-02-09T19:43:07Z</time>
      </trkpt>
      <trkpt lat="50.58596" lon="2.28642">
        <ele>79.947551</ele>
        <time>2023-02-09T19:43:17Z</time>
      </trkpt>
      <trkpt lat="50.58591" lon="2.28675">
        <ele>80.967498</ele>
        <time>2023-02-09T19:43:26Z</time>
      </trkpt>
      <trkpt lat="50.58481" lon="2.28672">
        <ele>85.730132</ele>
        <time>2023-02-09T19:44:15Z</time>
      </trkpt>
      <trkpt lat="50.58409" lon="2.28654">
        <ele>88.581748</ele>
        <time>2023-02-09T19:44:44Z</time>
      </trkpt>
      <trkpt lat="50.58373" lon="2.28629">
        <ele>90.111076</ele>
        <time>2023-02-09T19:44:58Z</time>
      </trkpt>
      <trkpt lat="50.58345" lon="2.28607">
        <ele>91.062227</ele>
        <time>2023-02-09T19:45:13Z</time>
      </trkpt>
      <trkpt lat="50.58329" lon="2.28587">
        <ele>91.553578</ele>
        <time>2023-02-09T19:45:22Z</time>
      </trkpt>
      <trkpt lat="50.58296" lon="2.28532">
        <ele>92.732835</ele>
        <time>2023-02-09T19:45:44Z</time>
      </trkpt>
      <trkpt lat="50.58274" lon="2.2851">
        <ele>93.355783</ele>
        <time>2023-02-09T19:45:55Z</time>
      </trkpt>
      <trkpt lat="50.58252" lon="2.28498">
        <ele>93.928733</ele>
        <time>2023-02-09T19:46:05Z</time>
      </trkpt>
      <trkpt lat="50.58154" lon="2.28419">
        <ele>96.707319</ele>
        <time>2023-02-09T19:46:50Z</time>
      </trkpt>
      <trkpt lat="50.58133" lon="2.28395">
        <ele>94.8</ele>
      </trkpt>
      <trkpt lat="50.58044" lon="2.28325">
        <ele>99.921346</ele>
        <time>2023-02-09T19:47:49Z</time>
      </trkpt>
      <trkpt lat="50.57987" lon="2.28274">
        <ele>101.665821</ele>
        <time>2023-02-09T19:48:17Z</time>
      </trkpt>
      <trkpt lat="50.57969" lon="2.2826">
        <ele>102.180084</ele>
        <time>2023-02-09T19:48:23Z</time>
      </trkpt>
      <trkpt lat="50.57879" lon="2.28182">
        <ele>104.566068</ele>
        <time>2023-02-09T19:48:55Z</time>
      </trkpt>
      <trkpt lat="50.57718" lon="2.28052">
        <ele>107.179343</ele>
        <time>2023-02-09T19:49:41Z</time>
      </trkpt>
      <trkpt lat="50.57716" lon="2.28051">
        <ele>107.206877</ele>
        <time>2023-02-09T19:49:42Z</time>
      </trkpt>
      <trkpt lat="50.57642" lon="2.27534">
        <ele>111.365121</ele>
        <time>2023-02-09T19:51:50Z</time>
      </trkpt>
      <trkpt lat="50.5762" lon="2.27406">
        <ele>111.842717</ele>
        <time>2023-02-09T19:52:21Z</time>
      </trkpt>
      <trkpt lat="50.57575" lon="2.27184">
        <ele>111.846016</ele>
        <time>2023-02-09T19:53:08Z</time>
      </trkpt>
      <trkpt lat="50.5765" lon="2.27067">
        <ele>110.861362</ele>
        <time>2023-02-09T19:53:27Z</time>
      </trkpt>
      <trkpt lat="50.57661" lon="2.27045">
        <ele>110.693376</ele>
        <time>2023-02-09T19:53:30Z</time>
      </trkpt>
      <trkpt lat="50.577" lon="2.26967">
        <ele>108.896462</ele>
        <time>2023-02-09T19:53:40Z</time>
      </trkpt>
      <trkpt lat="50.57889" lon="2.26563">
        <ele>99.65631</ele>
        <time>2023-02-09T19:54:29Z</time>
      </trkpt>
      <trkpt lat="50.5791" lon="2.26525">
        <ele>99.39512</ele>
        <time>2023-02-09T19:54:34Z</time>
      </trkpt>
      <trkpt lat="50.57976" lon="2.26476">
        <ele>98.80794</ele>
        <time>2023-02-09T19:54:47Z</time>
      </trkpt>
      <trkpt lat="50.58114" lon="2.26392">
        <ele>98.8</ele>
      </trkpt>
      <trkpt lat="50.58353" lon="2.26281">
        <ele>91.658077</ele>
        <time>2023-02-09T19:59:29Z</time>
      </trkpt>
      <trkpt lat="50.58382" lon="2.26259">
        <ele>90.472168</ele>
        <time>2023-02-09T19:59:37Z</time>
      </trkpt>
      <trkpt lat="50.58468" lon="2.26234">
        <ele>86.513988</ele>
        <time>2023-02-09T19:59:58Z</time>
      </trkpt>
      <trkpt lat="50.58502" lon="2.26212">
        <ele>84.409542</ele>
        <time>2023-02-09T20:00:04Z</time>
      </trkpt>
      <trkpt lat="50.58542" lon="2.26224">
        <ele>82.064804</ele>
        <time>2023-02-09T20:00:11Z</time>
      </trkpt>
      <trkpt lat="50.58618" lon="2.26234">
        <ele>78.271359</ele>
        <time>2023-02-09T20:00:25Z</time>
      </trkpt>
      <trkpt lat="50.58623" lon="2.26226">
        <ele>78.327204</ele>
        <time>2023-02-09T20:00:27Z</time>
      </trkpt>
      <trkpt lat="50.58632" lon="2.26184">
        <ele>78.567937</ele>
        <time>2023-02-09T20:00:34Z</time>
      </trkpt>
      <trkpt lat="50.58646" lon="2.26147">
        <ele>78.807259</ele>
        <time>2023-02-09T20:00:42Z</time>
      </trkpt>
      <trkpt lat="50.58654" lon="2.26134">
        <ele>78.904557</ele>
        <time>2023-02-09T20:00:46Z</time>
      </trkpt>
      <trkpt lat="50.58663" lon="2.26133">
        <ele>78.984763</ele>
        <time>2023-02-09T20:00:50Z</time>
      </trkpt>
      <trkpt lat="50.5867" lon="2.26135">
        <ele>79.042178</ele>
        <time>2023-02-09T20:00:52Z</time>
      </trkpt>
      <trkpt lat="50.587" lon="2.2617">
        <ele>79.367788</ele>
        <time>2023-02-09T20:01:09Z</time>
      </trkpt>
      <trkpt lat="50.5873" lon="2.26213">
        <ele>79.711829</ele>
        <time>2023-02-09T20:01:31Z</time>
      </trkpt>
      <trkpt lat="50.58753" lon="2.26205">
        <ele>81.392383</ele>
        <time>2023-02-09T20:01:46Z</time>
      </trkpt>
      <trkpt lat="50.58774" lon="2.26168">
        <ele>84.3</ele>
      </trkpt>
      <trkpt lat="50.5879" lon="2.26162">
        <ele>85.012214</ele>
        <time>2023-02-09T20:02:20Z</time>
      </trkpt>
      <trkpt lat="50.58891" lon="2.26115">
        <ele>93.286241</ele>
        <time>2023-02-09T20:03:39Z</time>
      </trkpt>
      <trkpt lat="50.58919" lon="2.26099">
        <ele>95.062812</ele>
        <time>2023-02-09T20:04:02Z</time>
      </trkpt>
      <trkpt lat="50.58922" lon="2.26046">
        <ele>96.819904</ele>
        <time>2023-02-09T20:04:26Z</time>
      </trkpt>
      <trkpt lat="50.58924" lon="2.26034">
        <ele>97.231498</ele>
        <time>2023-02-09T20:04:31Z</time>
      </trkpt>
      <trkpt lat="50.58929" lon="2.25985">
        <ele>98.879313</ele>
        <time>2023-02-09T20:04:53Z</time>
      </trkpt>
      <trkpt lat="50.58948" lon="2.25897">
        <ele>101.966845</ele>
        <time>2023-02-09T20:05:25Z</time>
      </trkpt>
      <trkpt lat="50.58936" lon="2.25732">
        <ele>100.257436</ele>
        <time>2023-02-09T20:05:56Z</time>
      </trkpt>
      <trkpt lat="50.58915" lon="2.25616">
        <ele>106.9</ele>
      </trkpt>
      <trkpt lat="50.58915" lon="2.25481">
        <ele>93.733072</ele>
        <time>2023-02-09T20:06:33Z</time>
      </trkpt>
      <trkpt lat="50.589" lon="2.25358">
        <ele>90.145433</ele>
        <time>2023-02-09T20:06:51Z</time>
      </trkpt>
      <trkpt lat="50.58884" lon="2.25321">
        <ele>90</ele>
      </trkpt>
      <trkpt lat="50.58871" lon="2.25234">
        <ele>88.592486</ele>
        <time>2023-02-09T20:07:19Z</time>
      </trkpt>
      <trkpt lat="50.58932" lon="2.25228">
        <ele>88.921064</ele>
        <time>2023-02-09T20:07:41Z</time>
      </trkpt>
      <trkpt lat="50.5895" lon="2.25226">
        <ele>97.9</ele>
      </trkpt>
      <trkpt lat="50.58985" lon="2.25222">
        <ele>103.9</ele>
      </trkpt>
      <trkpt lat="50.58974" lon="2.25213">
        <ele>103.2</ele>
      </trkpt>
      <trkpt lat="50.58942" lon="2.25177">
        <ele>87.748623</ele>
        <time>2023-02-09T20:08:27Z</time>
      </trkpt>
      <trkpt lat="50.58923" lon="2.25151">
        <ele>87.220495</ele>
        <time>2023-02-09T20:08:31Z</time>
      </trkpt>
      <trkpt lat="50.58912" lon="2.2512">
        <ele>86.748947</ele>
        <time>2023-02-09T20:08:35Z</time>
      </trkpt>
      <trkpt lat="50.58894" lon="2.25031">
        <ele>85.504286</ele>
        <time>2023-02-09T20:08:43Z</time>
      </trkpt>
      <trkpt lat="50.58894" lon="2.24997">
        <ele>85.105815</ele>
        <time>2023-02-09T20:08:46Z</time>
      </trkpt>
      <trkpt lat="50.58895" lon="2.24967">
        <ele>84.746247</ele>
        <time>2023-02-09T20:08:49Z</time>
      </trkpt>
      <trkpt lat="50.58891" lon="2.24942">
        <ele>84.443604</ele>
        <time>2023-02-09T20:08:52Z</time>
      </trkpt>
      <trkpt lat="50.58878" lon="2.24931">
        <ele>84.1551</ele>
        <time>2023-02-09T20:08:54Z</time>
      </trkpt>
      <trkpt lat="50.58865" lon="2.24926">
        <ele>83.869015</ele>
        <time>2023-02-09T20:08:56Z</time>
      </trkpt>
      <trkpt lat="50.58852" lon="2.24927">
        <ele>83.597704</ele>
        <time>2023-02-09T20:09:03Z</time>
      </trkpt>
      <trkpt lat="50.58837" lon="2.24935">
        <ele>83.306825</ele>
        <time>2023-02-09T20:09:09Z</time>
      </trkpt>
      <trkpt lat="50.58828" lon="2.24947">
        <ele>83.090161</ele>
        <time>2023-02-09T20:09:14Z</time>
      </trkpt>
      <trkpt lat="50.58824" lon="2.2496">
        <ele>82.921785</ele>
        <time>2023-02-09T20:09:18Z</time>
      </trkpt>
      <trkpt lat="50.58814" lon="2.24978">
        <ele>82.571816</ele>
        <time>2023-02-09T20:09:26Z</time>
      </trkpt>
      <trkpt lat="50.58803" lon="2.24981">
        <ele>82.356979</ele>
        <time>2023-02-09T20:09:31Z</time>
      </trkpt>
      <trkpt lat="50.58789" lon="2.24985">
        <ele>82.29303</ele>
        <time>2023-02-09T20:09:37Z</time>
      </trkpt>
      <trkpt lat="50.58774" lon="2.24988">
        <ele>82.641609</ele>
        <time>2023-02-09T20:09:44Z</time>
      </trkpt>
      <trkpt lat="50.58762" lon="2.24992">
        <ele>82.899693</ele>
        <time>2023-02-09T20:09:49Z</time>
      </trkpt>
      <trkpt lat="50.58751" lon="2.24993">
        <ele>83.160425</ele>
        <time>2023-02-09T20:09:54Z</time>
      </trkpt>
      <trkpt lat="50.58739" lon="2.24994">
        <ele>83.416621</ele>
        <time>2023-02-09T20:09:59Z</time>
      </trkpt>
      <trkpt lat="50.58726" lon="2.24995">
        <ele>75.9</ele>
      </trkpt>
      <trkpt lat="50.58725" lon="2.24988">
        <ele>83.736509</ele>
        <time>2023-02-09T20:10:05Z</time>
      </trkpt>
      <trkpt lat="50.58725" lon="2.24987">
        <ele>83.750791</ele>
        <time>2023-02-09T20:10:06Z</time>
      </trkpt>
      <trkpt lat="50.58722" lon="2.24911">
        <ele>84.834103</ele>
        <time>2023-02-09T20:10:21Z</time>
      </trkpt>
      <trkpt lat="50.58723" lon="2.2487">
        <ele>85.408407</ele>
        <time>2023-02-09T20:10:31Z</time>
      </trkpt>
      <trkpt lat="50.5873" lon="2.24709">
        <ele>87.022929</ele>
        <time>2023-02-09T20:11:17Z</time>
      </trkpt>
      <trkpt lat="50.58752" lon="2.2452">
        <ele>88.371998</ele>
        <time>2023-02-09T20:11:59Z</time>
      </trkpt>
      <trkpt lat="50.58768" lon="2.24297">
        <ele>87.714146</ele>
        <time>2023-02-09T20:12:42Z</time>
      </trkpt>
      <trkpt lat="50.58769" lon="2.24241">
        <ele>87.614922</ele>
        <time>2023-02-09T20:12:52Z</time>
      </trkpt>
      <trkpt lat="50.58762" lon="2.24147">
        <ele>87.843647</ele>
        <time>2023-02-09T20:13:11Z</time>
      </trkpt>
      <trkpt lat="50.58749" lon="2.2405">
        <ele>88.080359</ele>
        <time>2023-02-09T20:13:32Z</time>
      </trkpt>
      <trkpt lat="50.58698" lon="2.23857">
        <ele>89.446389</ele>
        <time>2023-02-09T20:14:23Z</time>
      </trkpt>
      <trkpt lat="50.58677" lon="2.23764">
        <ele>90.332553</ele>
        <time>2023-02-09T20:14:49Z</time>
      </trkpt>
      <trkpt lat="50.58662" lon="2.23679">
        <ele>90.850584</ele>
        <time>2023-02-09T20:15:11Z</time>
      </trkpt>
      <trkpt lat="50.58635" lon="2.23589">
        <ele>90.994873</ele>
        <time>2023-02-09T20:15:33Z</time>
      </trkpt>
      <trkpt lat="50.58628" lon="2.23552">
        <ele>91.050381</ele>
        <time>2023-02-09T20:15:41Z</time>
      </trkpt>
      <trkpt lat="50.58617" lon="2.2346">
        <ele>91.184656</ele>
        <time>2023-02-09T20:15:58Z</time>
      </trkpt>
      <trkpt lat="50.58612" lon="2.23437">
        <ele>91.270102</ele>
        <time>2023-02-09T20:16:04Z</time>
      </trkpt>
      <trkpt lat="50.5863" lon="2.23447">
        <ele>91.485165</ele>
        <time>2023-02-09T20:16:10Z</time>
      </trkpt>
      <trkpt lat="50.58706" lon="2.23518">
        <ele>92.451083</ele>
        <time>2023-02-09T20:16:40Z</time>
      </trkpt>
      <trkpt lat="50.5873" lon="2.23537">
        <ele>92.741614</ele>
        <time>2023-02-09T20:16:50Z</time>
      </trkpt>
      <trkpt lat="50.58771" lon="2.23562">
        <ele>93.427665</ele>
        <time>2023-02-09T20:17:09Z</time>
      </trkpt>
      <trkpt lat="50.58791" lon="2.23556">
        <ele>94.61427</ele>
        <time>2023-02-09T20:17:20Z</time>
      </trkpt>
      <trkpt lat="50.58917" lon="2.23497">
        <ele>102.355938</ele>
        <time>2023-02-09T20:18:43Z</time>
      </trkpt>
      <trkpt lat="50.58959" lon="2.23488">
        <ele>105.008601</ele>
        <time>2023-02-09T20:19:13Z</time>
      </trkpt>
      <trkpt lat="50.58999" lon="2.23467">
        <ele>107.864721</ele>
        <time>2023-02-09T20:19:43Z</time>
      </trkpt>
      <trkpt lat="50.5904" lon="2.23481">
        <ele>110.755813</ele>
        <time>2023-02-09T20:20:12Z</time>
      </trkpt>
      <trkpt lat="50.59079" lon="2.23487">
        <ele>113.387428</ele>
        <time>2023-02-09T20:20:37Z</time>
      </trkpt>
      <trkpt lat="50.59115" lon="2.23504">
        <ele>115.95856</ele>
        <time>2023-02-09T20:21:01Z</time>
      </trkpt>
      <trkpt lat="50.5926" lon="2.2345">
        <ele>122.598082</ele>
        <time>2023-02-09T20:22:24Z</time>
      </trkpt>
      <trkpt lat="50.59314" lon="2.23434">
        <ele>124.485632</ele>
        <time>2023-02-09T20:22:49Z</time>
      </trkpt>
      <trkpt lat="50.59465" lon="2.23627">
        <ele>127.71086</ele>
        <time>2023-02-09T20:23:44Z</time>
      </trkpt>
      <trkpt lat="50.5948" lon="2.23595">
        <ele>127.722137</ele>
        <time>2023-02-09T20:23:49Z</time>
      </trkpt>
      <trkpt lat="50.59488" lon="2.23584">
        <ele>127.727245</ele>
        <time>2023-02-09T20:23:52Z</time>
      </trkpt>
      <trkpt lat="50.59492" lon="2.23576">
        <ele>127.730126</ele>
        <time>2023-02-09T20:23:53Z</time>
      </trkpt>
      <trkpt lat="50.59509" lon="2.23584">
        <ele>127.738028</ele>
        <time>2023-02-09T20:23:57Z</time>
      </trkpt>
      <trkpt lat="50.59694" lon="2.23672">
        <ele>125.602579</ele>
        <time>2023-02-09T20:24:52Z</time>
      </trkpt>
      <trkpt lat="50.59776" lon="2.23692">
        <ele>123.613502</ele>
        <time>2023-02-09T20:25:14Z</time>
      </trkpt>
      <trkpt lat="50.59835" lon="2.2371">
        <ele>120.867018</ele>
        <time>2023-02-09T20:25:29Z</time>
      </trkpt>
      <trkpt lat="50.59942" lon="2.23725">
        <ele>115.903061</ele>
        <time>2023-02-09T20:25:55Z</time>
      </trkpt>
      <trkpt lat="50.59965" lon="2.23736">
        <ele>114.256042</ele>
        <time>2023-02-09T20:26:01Z</time>
      </trkpt>
      <trkpt lat="50.60016" lon="2.2379">
        <ele>110.014239</ele>
        <time>2023-02-09T20:26:15Z</time>
      </trkpt>
      <trkpt lat="50.60042" lon="2.23802">
        <ele>108.126129</ele>
        <time>2023-02-09T20:26:21Z</time>
      </trkpt>
      <trkpt lat="50.60155" lon="2.23835">
        <ele>100.675479</ele>
        <time>2023-02-09T20:26:47Z</time>
      </trkpt>
      <trkpt lat="50.60178" lon="2.23845">
        <ele>99.291692</ele>
        <time>2023-02-09T20:26:52Z</time>
      </trkpt>
      <trkpt lat="50.60293" lon="2.23921">
        <ele>92.450286</ele>
        <time>2023-02-09T20:27:22Z</time>
      </trkpt>
      <trkpt lat="50.60402" lon="2.23968">
        <ele>89.219978</ele>
        <time>2023-02-09T20:27:51Z</time>
      </trkpt>
      <trkpt lat="50.60424" lon="2.23972">
        <ele>88.566288</ele>
        <time>2023-02-09T20:27:58Z</time>
      </trkpt>
      <trkpt lat="50.60446" lon="2.23976">
        <ele>87.929734</ele>
        <time>2023-02-09T20:28:04Z</time>
      </trkpt>
      <trkpt lat="50.60503" lon="2.23786">
        <ele>86.613199</ele>
        <time>2023-02-09T20:28:27Z</time>
      </trkpt>
      <trkpt lat="50.60547" lon="2.23594">
        <ele>87.824882</ele>
        <time>2023-02-09T20:28:55Z</time>
      </trkpt>
      <trkpt lat="50.60574" lon="2.23523">
        <ele>88.928258</ele>
        <time>2023-02-09T20:29:10Z</time>
      </trkpt>
      <trkpt lat="50.60193" lon="2.2312">
        <ele>111.390177</ele>
        <time>2023-02-09T20:33:36Z</time>
      </trkpt>
      <trkpt lat="50.60125" lon="2.23074">
        <ele>115.481698</ele>
        <time>2023-02-09T20:34:21Z</time>
      </trkpt>
      <trkpt lat="50.6002" lon="2.22991">
        <ele>121.080293</ele>
        <time>2023-02-09T20:35:32Z</time>
      </trkpt>
      <trkpt lat="50.59893" lon="2.22902">
        <ele>126.279203</ele>
        <time>2023-02-09T20:36:39Z</time>
      </trkpt>
      <trkpt lat="50.59794" lon="2.22826">
        <ele>128.532551</ele>
        <time>2023-02-09T20:37:26Z</time>
      </trkpt>
      <trkpt lat="50.59729" lon="2.23048">
        <ele>130.25217</ele>
        <time>2023-02-09T20:38:02Z</time>
      </trkpt>
      <trkpt lat="50.5971" lon="2.23098">
        <ele>130.512224</ele>
        <time>2023-02-09T20:38:10Z</time>
      </trkpt>
      <trkpt lat="50.59623" lon="2.23331">
        <ele>131.102674</ele>
        <time>2023-02-09T20:38:46Z</time>
      </trkpt>
      <trkpt lat="50.59614" lon="2.23354">
        <ele>131.146065</ele>
        <time>2023-02-09T20:38:49Z</time>
      </trkpt>
      <trkpt lat="50.59589" lon="2.23271">
        <ele>132</ele>
      </trkpt>
      <trkpt lat="50.59589" lon="2.23247">
        <ele>132</ele>
      </trkpt>
      <trkpt lat="50.59578" lon="2.23196">
        <ele>132</ele>
      </trkpt>
      <trkpt lat="50.59559" lon="2.23124">
        <ele>132</ele>
      </trkpt>
      <trkpt lat="50.59532" lon="2.23036">
        <ele>132.8</ele>
      </trkpt>
      <trkpt lat="50.59467" lon="2.22845">
        <ele>131.064815</ele>
        <time>2023-02-09T20:40:43Z</time>
      </trkpt>
      <trkpt lat="50.5924" lon="2.22159">
        <ele>128.872683</ele>
        <time>2023-02-09T20:43:12Z</time>
      </trkpt>
      <trkpt lat="50.59158" lon="2.21952">
        <ele>129</ele>
      </trkpt>
      <trkpt lat="50.5911" lon="2.2183">
        <ele>130</ele>
      </trkpt>
      <trkpt lat="50.59104" lon="2.21818">
        <ele>130</ele>
      </trkpt>
      <trkpt lat="50.59047" lon="2.21874">
        <ele>128.9</ele>
      </trkpt>
      <trkpt lat="50.58884" lon="2.22029">
        <ele>121.8</ele>
      </trkpt>
      <trkpt lat="50.58836" lon="2.22068">
        <ele>120.2</ele>
      </trkpt>
      <trkpt lat="50.58789" lon="2.22089">
        <ele>118.6</ele>
      </trkpt>
      <trkpt lat="50.58742" lon="2.22086">
        <ele>113.894908</ele>
        <time>2023-02-09T20:46:15Z</time>
      </trkpt>
      <trkpt lat="50.5872" lon="2.22079">
        <ele>114.1</ele>
      </trkpt>
      <trkpt lat="50.58702" lon="2.22083">
        <ele>113.3</ele>
      </trkpt>
      <trkpt lat="50.58659" lon="2.22112">
        <ele>110.451508</ele>
        <time>2023-02-09T20:46:36Z</time>
      </trkpt>
      <trkpt lat="50.58546" lon="2.22155">
        <ele>105.41838</ele>
        <time>2023-02-09T20:47:04Z</time>
      </trkpt>
      <trkpt lat="50.58498" lon="2.22169">
        <ele>99.9</ele>
      </trkpt>
      <trkpt lat="50.58487" lon="2.22174">
        <ele>99.2</ele>
      </trkpt>
      <trkpt lat="50.5848" lon="2.22174">
        <ele>98.6</ele>
      </trkpt>
      <trkpt lat="50.58399" lon="2.22411">
        <ele>96.392992</ele>
        <time>2023-02-09T20:48:04Z</time>
      </trkpt>
      <trkpt lat="50.58392" lon="2.22423">
        <ele>96.060099</ele>
        <time>2023-02-09T20:48:07Z</time>
      </trkpt>
      <trkpt lat="50.58382" lon="2.22514">
        <ele>94.7904</ele>
        <time>2023-02-09T20:48:23Z</time>
      </trkpt>
      <trkpt lat="50.58339" lon="2.22508">
        <ele>94.663652</ele>
        <time>2023-02-09T20:48:30Z</time>
      </trkpt>
      <trkpt lat="50.58303" lon="2.22509">
        <ele>94.555502</ele>
        <time>2023-02-09T20:48:36Z</time>
      </trkpt>
      <trkpt lat="50.58285" lon="2.22517">
        <ele>90.2</ele>
      </trkpt>
      <trkpt lat="50.58269" lon="2.22516">
        <ele>94.454651</ele>
        <time>2023-02-09T20:48:44Z</time>
      </trkpt>
      <trkpt lat="50.58214" lon="2.22484">
        <ele>94.646988</ele>
        <time>2023-02-09T20:49:00Z</time>
      </trkpt>
      <trkpt lat="50.58198" lon="2.22482">
        <ele>95.169048</ele>
        <time>2023-02-09T20:49:04Z</time>
      </trkpt>
      <trkpt lat="50.58187" lon="2.22422">
        <ele>91.5</ele>
      </trkpt>
      <trkpt lat="50.5818" lon="2.22415">
        <ele>96.520541</ele>
        <time>2023-02-09T20:49:21Z</time>
      </trkpt>
      <trkpt lat="50.58154" lon="2.2237">
        <ele>92.8</ele>
      </trkpt>
      <trkpt lat="50.58134" lon="2.22333">
        <ele>92.2</ele>
      </trkpt>
      <trkpt lat="50.58131" lon="2.22326">
        <ele>92.8</ele>
      </trkpt>
      <trkpt lat="50.5812" lon="2.22337">
        <ele>92.5</ele>
      </trkpt>
      <trkpt lat="50.58099" lon="2.22349">
        <ele>99.684324</ele>
        <time>2023-02-09T20:50:08Z</time>
      </trkpt>
      <trkpt lat="50.58079" lon="2.22358">
        <ele>94.6</ele>
      </trkpt>
      <trkpt lat="50.58071" lon="2.22365">
        <ele>95.9</ele>
      </trkpt>
      <trkpt lat="50.58067" lon="2.22361">
        <ele>96.3</ele>
      </trkpt>
      <trkpt lat="50.57926" lon="2.22329">
        <ele>105.306209</ele>
        <time>2023-02-09T20:51:31Z</time>
      </trkpt>
      <trkpt lat="50.57832" lon="2.22335">
        <ele>107.68685</ele>
        <time>2023-02-09T20:52:13Z</time>
      </trkpt>
      <trkpt lat="50.57798" lon="2.22336">
        <ele>104.9</ele>
      </trkpt>
      <trkpt lat="50.57736" lon="2.2235">
        <ele>107.6</ele>
      </trkpt>
      <trkpt lat="50.57723" lon="2.22355">
        <ele>108.7</ele>
      </trkpt>
      <trkpt lat="50.577" lon="2.22361">
        <ele>109.914138</ele>
        <time>2023-02-09T20:53:10Z</time>
      </trkpt>
      <trkpt lat="50.57647" lon="2.22381">
        <ele>110.185195</ele>
        <time>2023-02-09T20:53:29Z</time>
      </trkpt>
      <trkpt lat="50.57628" lon="2.22544">
        <ele>109.814942</ele>
        <time>2023-02-09T20:53:48Z</time>
      </trkpt>
      <trkpt lat="50.57625" lon="2.22554">
        <ele>109.67803</ele>
        <time>2023-02-09T20:53:49Z</time>
      </trkpt>
      <trkpt lat="50.57619" lon="2.2257">
        <ele>109.444568</ele>
        <time>2023-02-09T20:53:51Z</time>
      </trkpt>
      <trkpt lat="50.57607" lon="2.22593">
        <ele>109.080956</ele>
        <time>2023-02-09T20:53:54Z</time>
      </trkpt>
      <trkpt lat="50.57559" lon="2.22644">
        <ele>107.92533</ele>
        <time>2023-02-09T20:54:04Z</time>
      </trkpt>
      <trkpt lat="50.57545" lon="2.22662">
        <ele>107.57099</ele>
        <time>2023-02-09T20:54:07Z</time>
      </trkpt>
      <trkpt lat="50.57516" lon="2.22705">
        <ele>106.738647</ele>
        <time>2023-02-09T20:54:13Z</time>
      </trkpt>
      <trkpt lat="50.5747" lon="2.22784">
        <ele>105.045815</ele>
        <time>2023-02-09T20:54:24Z</time>
      </trkpt>
      <trkpt lat="50.57482" lon="2.22791">
        <ele>104.731371</ele>
        <time>2023-02-09T20:54:27Z</time>
      </trkpt>
      <trkpt lat="50.57515" lon="2.22823">
        <ele>103.769617</ele>
        <time>2023-02-09T20:54:37Z</time>
      </trkpt>
      <trkpt lat="50.57588" lon="2.22904">
        <ele>102.160924</ele>
        <time>2023-02-09T20:55:01Z</time>
      </trkpt>
      <trkpt lat="50.5763" lon="2.22936">
        <ele>99.6</ele>
      </trkpt>
      <trkpt lat="50.57686" lon="2.22969">
        <ele>101.210421</ele>
        <time>2023-02-09T20:55:33Z</time>
      </trkpt>
      <trkpt lat="50.57614" lon="2.23016">
        <ele>101.203683</ele>
        <time>2023-02-09T20:55:58Z</time>
      </trkpt>
      <trkpt lat="50.57602" lon="2.23022">
        <ele>101.29809</ele>
        <time>2023-02-09T20:56:02Z</time>
      </trkpt>
      <trkpt lat="50.57568" lon="2.23041">
        <ele>101.559209</ele>
        <time>2023-02-09T20:56:15Z</time>
      </trkpt>
      <trkpt lat="50.57525" lon="2.23047">
        <ele>101.868908</ele>
        <time>2023-02-09T20:56:32Z</time>
      </trkpt>
      <trkpt lat="50.57473" lon="2.23044">
        <ele>102.258276</ele>
        <time>2023-02-09T20:56:52Z</time>
      </trkpt>
      <trkpt lat="50.57448" lon="2.23063">
        <ele>97.7</ele>
      </trkpt>
      <trkpt lat="50.57431" lon="2.23053">
        <ele>98</ele>
      </trkpt>
      <trkpt lat="50.57421" lon="2.23048">
        <ele>98</ele>
      </trkpt>
      <trkpt lat="50.57393" lon="2.23037">
        <ele>98</ele>
      </trkpt>
      <trkpt lat="50.57359" lon="2.23015">
        <ele>103.411621</ele>
        <time>2023-02-09T20:57:25Z</time>
      </trkpt>
      <trkpt lat="50.57279" lon="2.22975">
        <ele>104.281274</ele>
        <time>2023-02-09T20:57:46Z</time>
      </trkpt>
      <trkpt lat="50.57256" lon="2.22951">
        <ele>104.613727</ele>
        <time>2023-02-09T20:57:53Z</time>
      </trkpt>
      <trkpt lat="50.57238" lon="2.22899">
        <ele>105.063055</ele>
        <time>2023-02-09T20:58:03Z</time>
      </trkpt>
      <trkpt lat="50.57107" lon="2.22761">
        <ele>107.041512</ele>
        <time>2023-02-09T20:58:46Z</time>
      </trkpt>
      <trkpt lat="50.57069" lon="2.22733">
        <ele>107.58809</ele>
        <time>2023-02-09T20:58:56Z</time>
      </trkpt>
      <trkpt lat="50.5705" lon="2.22726">
        <ele>107.851569</ele>
        <time>2023-02-09T20:59:01Z</time>
      </trkpt>
      <trkpt lat="50.57024" lon="2.22723">
        <ele>108.197876</ele>
        <time>2023-02-09T20:59:08Z</time>
      </trkpt>
      <trkpt lat="50.56989" lon="2.22689">
        <ele>109.206445</ele>
        <time>2023-02-09T20:59:20Z</time>
      </trkpt>
      <trkpt lat="50.56976" lon="2.22672">
        <ele>109.736124</ele>
        <time>2023-02-09T20:59:24Z</time>
      </trkpt>
      <trkpt lat="50.56969" lon="2.22656">
        <ele>110.131847</ele>
        <time>2023-02-09T20:59:28Z</time>
      </trkpt>
      <trkpt lat="50.56882" lon="2.2254">
        <ele>113.84192</ele>
        <time>2023-02-09T21:00:12Z</time>
      </trkpt>
      <trkpt lat="50.5686" lon="2.22531">
        <ele>114.831102</ele>
        <time>2023-02-09T21:00:22Z</time>
      </trkpt>
      <trkpt lat="50.56836" lon="2.22519">
        <ele>116.197735</ele>
        <time>2023-02-09T21:00:33Z</time>
      </trkpt>
      <trkpt lat="50.56804" lon="2.22541">
        <ele>118.10747</ele>
        <time>2023-02-09T21:00:48Z</time>
      </trkpt>
      <trkpt lat="50.56738" lon="2.22581">
        <ele>121.898579</ele>
        <time>2023-02-09T21:01:18Z</time>
      </trkpt>
      <trkpt lat="50.56695" lon="2.22623">
        <ele>124.117212</ele>
        <time>2023-02-09T21:01:40Z</time>
      </trkpt>
      <trkpt lat="50.56659" lon="2.22675">
        <ele>124.966884</ele>
        <time>2023-02-09T21:02:01Z</time>
      </trkpt>
      <trkpt lat="50.56625" lon="2.22719">
        <ele>125.729038</ele>
        <time>2023-02-09T21:02:20Z</time>
      </trkpt>
      <trkpt lat="50.56673" lon="2.22795">
        <ele>126.908419</ele>
        <time>2023-02-09T21:02:49Z</time>
      </trkpt>
      <trkpt lat="50.56673" lon="2.22794">
        <ele>126.916667</ele>
        <time>2023-02-09T21:02:49Z</time>
      </trkpt>
      <trkpt lat="50.56692" lon="2.22842">
        <ele>126.371888</ele>
        <time>2023-02-09T21:02:59Z</time>
      </trkpt>
      <trkpt lat="50.56725" lon="2.22997">
        <ele>124.320729</ele>
        <time>2023-02-09T21:03:27Z</time>
      </trkpt>
      <trkpt lat="50.56809" lon="2.23309">
        <ele>119.377227</ele>
        <time>2023-02-09T21:04:24Z</time>
      </trkpt>
      <trkpt lat="50.56637" lon="2.23254">
        <ele>116.552544</ele>
        <time>2023-02-09T21:04:52Z</time>
      </trkpt>
      <trkpt lat="50.56572" lon="2.2324">
        <ele>115.661202</ele>
        <time>2023-02-09T21:05:03Z</time>
      </trkpt>
      <trkpt lat="50.56436" lon="2.23553">
        <ele>113.843516</ele>
        <time>2023-02-09T21:06:12Z</time>
      </trkpt>
      <trkpt lat="50.56405" lon="2.23619">
        <ele>113.769181</ele>
        <time>2023-02-09T21:06:30Z</time>
      </trkpt>
      <trkpt lat="50.56376" lon="2.23681">
        <ele>115.398277</ele>
        <time>2023-02-09T21:06:51Z</time>
      </trkpt>
      <trkpt lat="50.56328" lon="2.23803">
        <ele>119.841147</ele>
        <time>2023-02-09T21:07:44Z</time>
      </trkpt>
      <trkpt lat="50.56191" lon="2.23957">
        <ele>131.014948</ele>
        <time>2023-02-09T21:09:35Z</time>
      </trkpt>
      <trkpt lat="50.56175" lon="2.23962">
        <ele>132.264381</ele>
        <time>2023-02-09T21:09:47Z</time>
      </trkpt>
      <trkpt lat="50.56082" lon="2.2389">
        <ele>141.050376</ele>
        <time>2023-02-09T21:11:05Z</time>
      </trkpt>
      <trkpt lat="50.55877" lon="2.2379">
        <ele>164.3</ele>
      </trkpt>
      <trkpt lat="50.55875" lon="2.23796">
        <ele>160.108155</ele>
        <time>2023-02-09T21:14:00Z</time>
      </trkpt>
      <trkpt lat="50.55852" lon="2.23964">
        <ele>167.852831</ele>
        <time>2023-02-09T21:15:10Z</time>
      </trkpt>
      <trkpt lat="50.5584" lon="2.23966">
        <ele>168.268355</ele>
        <time>2023-02-09T21:15:16Z</time>
      </trkpt>
      <trkpt lat="50.55719" lon="2.23858">
        <ele>172.96239</ele>
        <time>2023-02-09T21:16:20Z</time>
      </trkpt>
      <trkpt lat="50.5557" lon="2.23719">
        <ele>176.632232</ele>
        <time>2023-02-09T21:17:34Z</time>
      </trkpt>
      <trkpt lat="50.55479" lon="2.23644">
        <ele>177.690024</ele>
        <time>2023-02-09T21:18:11Z</time>
      </trkpt>
      <trkpt lat="50.5539" lon="2.23756">
        <ele>178.52779</ele>
        <time>2023-02-09T21:18:50Z</time>
      </trkpt>
      <trkpt lat="50.55203" lon="2.24015">
        <ele>178.888743</ele>
        <time>2023-02-09T21:20:13Z</time>
      </trkpt>
      <trkpt lat="50.55157" lon="2.24091">
        <ele>178.76564</ele>
        <time>2023-02-09T21:20:34Z</time>
      </trkpt>
      <trkpt lat="50.55106" lon="2.24187">
        <ele>177.675628</ele>
        <time>2023-02-09T21:20:57Z</time>
      </trkpt>
      <trkpt lat="50.55233" lon="2.24429">
        <ele>173.357699</ele>
        <time>2023-02-09T21:21:51Z</time>
      </trkpt>
      <trkpt lat="50.55337" lon="2.24622">
        <ele>169.220134</ele>
        <time>2023-02-09T21:22:33Z</time>
      </trkpt>
      <trkpt lat="50.55394" lon="2.24654">
        <ele>167.68247</ele>
        <time>2023-02-09T21:22:42Z</time>
      </trkpt>
      <trkpt lat="50.55414" lon="2.24664">
        <ele>167.139115</ele>
        <time>2023-02-09T21:22:45Z</time>
      </trkpt>
      <trkpt lat="50.55453" lon="2.24682">
        <ele>166.102054</ele>
        <time>2023-02-09T21:22:51Z</time>
      </trkpt>
      <trkpt lat="50.55494" lon="2.24691">
        <ele>164.921373</ele>
        <time>2023-02-09T21:22:57Z</time>
      </trkpt>
      <trkpt lat="50.55572" lon="2.24647">
        <ele>162.580129</ele>
        <time>2023-02-09T21:23:10Z</time>
      </trkpt>
      <trkpt lat="50.55631" lon="2.24653">
        <ele>160.881076</ele>
        <time>2023-02-09T21:23:18Z</time>
      </trkpt>
      <trkpt lat="50.55846" lon="2.24722">
        <ele>153.362983</ele>
        <time>2023-02-09T21:23:50Z</time>
      </trkpt>
      <trkpt lat="50.55972" lon="2.24732">
        <ele>148.535163</ele>
        <time>2023-02-09T21:24:07Z</time>
      </trkpt>
      <trkpt lat="50.56126" lon="2.24753">
        <ele>141.91353</ele>
        <time>2023-02-09T21:24:28Z</time>
      </trkpt>
      <trkpt lat="50.56136" lon="2.24751">
        <ele>141.513766</ele>
        <time>2023-02-09T21:24:29Z</time>
      </trkpt>
      <trkpt lat="50.56148" lon="2.24739">
        <ele>140.880978</ele>
        <time>2023-02-09T21:24:31Z</time>
      </trkpt>
      <trkpt lat="50.562" lon="2.24651">
        <ele>137.517235</ele>
        <time>2023-02-09T21:24:42Z</time>
      </trkpt>
      <trkpt lat="50.56219" lon="2.24623">
        <ele>136.376446</ele>
        <time>2023-02-09T21:24:46Z</time>
      </trkpt>
      <trkpt lat="50.56239" lon="2.246">
        <ele>135.285413</ele>
        <time>2023-02-09T21:24:49Z</time>
      </trkpt>
      <trkpt lat="50.56308" lon="2.24537">
        <ele>131.631723</ele>
        <time>2023-02-09T21:25:00Z</time>
      </trkpt>
      <trkpt lat="50.56363" lon="2.24474">
        <ele>127.980127</ele>
        <time>2023-02-09T21:25:09Z</time>
      </trkpt>
      <trkpt lat="50.56459" lon="2.24397">
        <ele>122.263272</ele>
        <time>2023-02-09T21:25:23Z</time>
      </trkpt>
      <trkpt lat="50.56519" lon="2.24333">
        <ele>118.786497</ele>
        <time>2023-02-09T21:25:32Z</time>
      </trkpt>
      <trkpt lat="50.56543" lon="2.24304">
        <ele>117.344411</ele>
        <time>2023-02-09T21:25:36Z</time>
      </trkpt>
      <trkpt lat="50.56627" lon="2.24171">
        <ele>112.726561</ele>
        <time>2023-02-09T21:25:53Z</time>
      </trkpt>
      <trkpt lat="50.56645" lon="2.24149">
        <ele>112.109556</ele>
        <time>2023-02-09T21:25:56Z</time>
      </trkpt>
      <trkpt lat="50.56664" lon="2.24123">
        <ele>111.42343</ele>
        <time>2023-02-09T21:26:00Z</time>
      </trkpt>
      <trkpt lat="50.56732" lon="2.24051">
        <ele>109.238158</ele>
        <time>2023-02-09T21:26:12Z</time>
      </trkpt>
      <trkpt lat="50.56842" lon="2.23958">
        <ele>110.421815</ele>
        <time>2023-02-09T21:26:38Z</time>
      </trkpt>
      <trkpt lat="50.5687" lon="2.23932">
        <ele>110.723084</ele>
        <time>2023-02-09T21:26:49Z</time>
      </trkpt>
      <trkpt lat="50.56887" lon="2.23921">
        <ele>103.9</ele>
      </trkpt>
      <trkpt lat="50.56907" lon="2.24022">
        <ele>113.751988</ele>
        <time>2023-02-09T21:27:34Z</time>
      </trkpt>
      <trkpt lat="50.56912" lon="2.24104">
        <ele>115.763245</ele>
        <time>2023-02-09T21:28:03Z</time>
      </trkpt>
      <trkpt lat="50.56917" lon="2.24121">
        <ele>116.232173</ele>
        <time>2023-02-09T21:28:09Z</time>
      </trkpt>
      <trkpt lat="50.56927" lon="2.24137">
        <ele>116.790674</ele>
        <time>2023-02-09T21:28:17Z</time>
      </trkpt>
      <trkpt lat="50.56955" lon="2.24156">
        <ele>117.850181</ele>
        <time>2023-02-09T21:28:34Z</time>
      </trkpt>
      <trkpt lat="50.56963" lon="2.24171">
        <ele>117.850151</ele>
        <time>2023-02-09T21:28:40Z</time>
      </trkpt>
      <trkpt lat="50.56979" lon="2.24238">
        <ele>117.850039</ele>
        <time>2023-02-09T21:28:58Z</time>
      </trkpt>
      <trkpt lat="50.56984" lon="2.24246">
        <ele>117.850021</ele>
        <time>2023-02-09T21:29:00Z</time>
      </trkpt>
      <trkpt lat="50.57004" lon="2.24261">
        <ele>117.849967</ele>
        <time>2023-02-09T21:29:08Z</time>
      </trkpt>
      <trkpt lat="50.57063" lon="2.24216">
        <ele>117.849806</ele>
        <time>2023-02-09T21:29:22Z</time>
      </trkpt>
      <trkpt lat="50.57084" lon="2.24206">
        <ele>117.849752</ele>
        <time>2023-02-09T21:29:27Z</time>
      </trkpt>
      <trkpt lat="50.57102" lon="2.24205">
        <ele>117.337884</ele>
        <time>2023-02-09T21:29:30Z</time>
      </trkpt>
      <trkpt lat="50.57305" lon="2.24235">
        <ele>111.120118</ele>
        <time>2023-02-09T21:30:09Z</time>
      </trkpt>
      <trkpt lat="50.5737" lon="2.24242">
        <ele>110.361414</ele>
        <time>2023-02-09T21:30:24Z</time>
      </trkpt>
      <trkpt lat="50.57381" lon="2.24238">
        <ele>110.227815</ele>
        <time>2023-02-09T21:30:26Z</time>
      </trkpt>
      <trkpt lat="50.57414" lon="2.24143">
        <ele>109.522956</ele>
        <time>2023-02-09T21:30:46Z</time>
      </trkpt>
      <trkpt lat="50.57465" lon="2.24014">
        <ele>110.815817</ele>
        <time>2023-02-09T21:31:18Z</time>
      </trkpt>
      <trkpt lat="50.57508" lon="2.23905">
        <ele>103.2</ele>
      </trkpt>
      <trkpt lat="50.57537" lon="2.23824">
        <ele>101.6</ele>
      </trkpt>
      <trkpt lat="50.57552" lon="2.23788">
        <ele>101.2</ele>
      </trkpt>
      <trkpt lat="50.57575" lon="2.23758">
        <ele>101.2</ele>
      </trkpt>
      <trkpt lat="50.57577" lon="2.2377">
        <ele>102.5</ele>
      </trkpt>
      <trkpt lat="50.57581" lon="2.2377">
        <ele>102.9</ele>
      </trkpt>
      <trkpt lat="50.57585" lon="2.23768">
        <ele>103.2</ele>
      </trkpt>
      <trkpt lat="50.57587" lon="2.23771">
        <ele>104</ele>
      </trkpt>
      <trkpt lat="50.57587" lon="2.23774">
        <ele>104.4</ele>
      </trkpt>
      <trkpt lat="50.57587" lon="2.23777">
        <ele>104.7</ele>
      </trkpt>
      <trkpt lat="50.57588" lon="2.23779">
        <ele>105.1</ele>
      </trkpt>
      <trkpt lat="50.5759" lon="2.23779">
        <ele>105.5</ele>
      </trkpt>
      <trkpt lat="50.57591" lon="2.2378">
        <ele>105.9</ele>
      </trkpt>
      <trkpt lat="50.57592" lon="2.23782">
        <ele>106.3</ele>
      </trkpt>
      <trkpt lat="50.57594" lon="2.23783">
        <ele>106.8</ele>
      </trkpt>
      <trkpt lat="50.57596" lon="2.23784">
        <ele>107.3</ele>
      </trkpt>
      <trkpt lat="50.57597" lon="2.23785">
        <ele>107.7</ele>
      </trkpt>
      <trkpt lat="50.576" lon="2.23785">
        <ele>108.1</ele>
      </trkpt>
      <trkpt lat="50.57601" lon="2.23786">
        <ele>108.6</ele>
      </trkpt>
      <trkpt lat="50.57604" lon="2.23786">
        <ele>109.1</ele>
      </trkpt>
      <trkpt lat="50.57606" lon="2.23787">
        <ele>109.6</ele>
      </trkpt>
      <trkpt lat="50.57608" lon="2.23788">
        <ele>110.1</ele>
      </trkpt>
      <trkpt lat="50.57615" lon="2.2378">
        <ele>110.9</ele>
      </trkpt>
      <trkpt lat="50.57626" lon="2.23765">
        <ele>111.3</ele>
      </trkpt>
      <trkpt lat="50.57641" lon="2.23726">
        <ele>109.9</ele>
      </trkpt>
      <trkpt lat="50.57664" lon="2.23683">
        <ele>112.3</ele>
      </trkpt>
      <trkpt lat="50.57673" lon="2.23656">
        <ele>111.9</ele>
      </trkpt>
      <trkpt lat="50.57737" lon="2.23507">
        <ele>108.90383</ele>
        <time>2023-02-09T21:34:02Z</time>
      </trkpt>
      <trkpt lat="50.57751" lon="2.23474">
        <ele>108.112967</ele>
        <time>2023-02-09T21:34:08Z</time>
      </trkpt>
      <trkpt lat="50.57755" lon="2.23444">
        <ele>107.504499</ele>
        <time>2023-02-09T21:34:12Z</time>
      </trkpt>
      <trkpt lat="50.57754" lon="2.23424">
        <ele>107.102148</ele>
        <time>2023-02-09T21:34:16Z</time>
      </trkpt>
      <trkpt lat="50.57743" lon="2.23393">
        <ele>106.38179</ele>
        <time>2023-02-09T21:34:21Z</time>
      </trkpt>
      <trkpt lat="50.57725" lon="2.23384">
        <ele>106.108932</ele>
        <time>2023-02-09T21:34:26Z</time>
      </trkpt>
      <trkpt lat="50.57706" lon="2.23379">
        <ele>106.001608</ele>
        <time>2023-02-09T21:34:31Z</time>
      </trkpt>
      <trkpt lat="50.57702" lon="2.23367">
        <ele>105.951162</ele>
        <time>2023-02-09T21:34:32Z</time>
      </trkpt>
      <trkpt lat="50.577" lon="2.2336">
        <ele>96.6</ele>
      </trkpt>
      <trkpt lat="50.57715" lon="2.23326">
        <ele>105.721923</ele>
        <time>2023-02-09T21:34:38Z</time>
      </trkpt>
      <trkpt lat="50.57757" lon="2.23272">
        <ele>105.408395</ele>
        <time>2023-02-09T21:34:50Z</time>
      </trkpt>
      <trkpt lat="50.57777" lon="2.23232">
        <ele>105.227077</ele>
        <time>2023-02-09T21:35:02Z</time>
      </trkpt>
      <trkpt lat="50.57793" lon="2.2321">
        <ele>105.543964</ele>
        <time>2023-02-09T21:35:10Z</time>
      </trkpt>
      <trkpt lat="50.57843" lon="2.23178">
        <ele>108.045637</ele>
        <time>2023-02-09T21:35:39Z</time>
      </trkpt>
      <trkpt lat="50.57874" lon="2.2317">
        <ele>109.468202</ele>
        <time>2023-02-09T21:35:55Z</time>
      </trkpt>
      <trkpt lat="50.57907" lon="2.23172">
        <ele>111.00148</ele>
        <time>2023-02-09T21:36:15Z</time>
      </trkpt>
      <trkpt lat="50.57975" lon="2.23189">
        <ele>113.410797</ele>
        <time>2023-02-09T21:36:53Z</time>
      </trkpt>
      <trkpt lat="50.58003" lon="2.23201">
        <ele>113.420701</ele>
        <time>2023-02-09T21:37:06Z</time>
      </trkpt>
      <trkpt lat="50.5802" lon="2.23204">
        <ele>113.42653</ele>
        <time>2023-02-09T21:37:13Z</time>
      </trkpt>
      <trkpt lat="50.58035" lon="2.23203">
        <ele>113.43189</ele>
        <time>2023-02-09T21:37:18Z</time>
      </trkpt>
      <trkpt lat="50.58134" lon="2.23151">
        <ele>113.410093</ele>
        <time>2023-02-09T21:37:47Z</time>
      </trkpt>
      <trkpt lat="50.58158" lon="2.23141">
        <ele>112.663883</ele>
        <time>2023-02-09T21:37:53Z</time>
      </trkpt>
      <trkpt lat="50.58179" lon="2.23145">
        <ele>112.014591</ele>
        <time>2023-02-09T21:37:59Z</time>
      </trkpt>
      <trkpt lat="50.58271" lon="2.23184">
        <ele>109.177341</ele>
        <time>2023-02-09T21:38:23Z</time>
      </trkpt>
      <trkpt lat="50.58359" lon="2.23225">
        <ele>107.023717</ele>
        <time>2023-02-09T21:38:47Z</time>
      </trkpt>
      <trkpt lat="50.58389" lon="2.2326">
        <ele>106.299129</ele>
        <time>2023-02-09T21:38:57Z</time>
      </trkpt>
      <trkpt lat="50.58416" lon="2.23321">
        <ele>105.407101</ele>
        <time>2023-02-09T21:39:10Z</time>
      </trkpt>
      <trkpt lat="50.5842" lon="2.23339">
        <ele>105.174065</ele>
        <time>2023-02-09T21:39:14Z</time>
      </trkpt>
      <trkpt lat="50.58419" lon="2.23349">
        <ele>105.055765</ele>
        <time>2023-02-09T21:39:15Z</time>
      </trkpt>
      <trkpt lat="50.58426" lon="2.2342">
        <ele>104.592547</ele>
        <time>2023-02-09T21:39:23Z</time>
      </trkpt>
      <trkpt lat="50.58436" lon="2.23479">
        <ele>104.514834</ele>
        <time>2023-02-09T21:39:35Z</time>
      </trkpt>
      <trkpt lat="50.58481" lon="2.23648">
        <ele>104.281759</ele>
        <time>2023-02-09T21:40:12Z</time>
      </trkpt>
      <trkpt lat="50.58481" lon="2.23681">
        <ele>104.329652</ele>
        <time>2023-02-09T21:40:19Z</time>
      </trkpt>
      <trkpt lat="50.585" lon="2.23801">
        <ele>104.525689</ele>
        <time>2023-02-09T21:40:45Z</time>
      </trkpt>
      <trkpt lat="50.58536" lon="2.24075">
        <ele>104.883647</ele>
        <time>2023-02-09T21:41:44Z</time>
      </trkpt>
      <trkpt lat="50.58555" lon="2.24208">
        <ele>104.994283</ele>
        <time>2023-02-09T21:42:12Z</time>
      </trkpt>
      <trkpt lat="50.58564" lon="2.24333">
        <ele>104.264562</ele>
        <time>2023-02-09T21:42:37Z</time>
      </trkpt>
      <trkpt lat="50.58566" lon="2.24438">
        <ele>103.652377</ele>
        <time>2023-02-09T21:42:57Z</time>
      </trkpt>
      <trkpt lat="50.58582" lon="2.24737">
        <ele>99.146388</ele>
        <time>2023-02-09T21:43:47Z</time>
      </trkpt>
      <trkpt lat="50.58578" lon="2.24809">
        <ele>98.336612</ele>
        <time>2023-02-09T21:43:54Z</time>
      </trkpt>
      <trkpt lat="50.5858" lon="2.24865">
        <ele>97.948064</ele>
        <time>2023-02-09T21:44:00Z</time>
      </trkpt>
      <trkpt lat="50.58581" lon="2.24866">
        <ele>97.93526</ele>
        <time>2023-02-09T21:44:00Z</time>
      </trkpt>
      <trkpt lat="50.58589" lon="2.24945">
        <ele>97.377823</ele>
        <time>2023-02-09T21:44:09Z</time>
      </trkpt>
      <trkpt lat="50.58489" lon="2.24823">
        <ele>97.505843</ele>
        <time>2023-02-09T21:44:52Z</time>
      </trkpt>
      <trkpt lat="50.58456" lon="2.2477">
        <ele>98.18613</ele>
        <time>2023-02-09T21:45:13Z</time>
      </trkpt>
      <trkpt lat="50.58421" lon="2.24728">
        <ele>98.826203</ele>
        <time>2023-02-09T21:45:32Z</time>
      </trkpt>
      <trkpt lat="50.58249" lon="2.24582">
        <ele>100.451042</ele>
        <time>2023-02-09T21:46:45Z</time>
      </trkpt>
      <trkpt lat="50.58312" lon="2.24766">
        <ele>98.444593</ele>
        <time>2023-02-09T21:47:23Z</time>
      </trkpt>
      <trkpt lat="50.58334" lon="2.24865">
        <ele>97.203682</ele>
        <time>2023-02-09T21:47:40Z</time>
      </trkpt>
      <trkpt lat="50.58352" lon="2.24947">
        <ele>95.548591</ele>
        <time>2023-02-09T21:47:54Z</time>
      </trkpt>
      <trkpt lat="50.5837" lon="2.25013">
        <ele>94.171038</ele>
        <time>2023-02-09T21:48:06Z</time>
      </trkpt>
      <trkpt lat="50.58437" lon="2.25141">
        <ele>91.849258</ele>
        <time>2023-02-09T21:48:33Z</time>
      </trkpt>
      <trkpt lat="50.58473" lon="2.25193">
        <ele>91.661906</ele>
        <time>2023-02-09T21:48:48Z</time>
      </trkpt>
      <trkpt lat="50.58476" lon="2.2521">
        <ele>91.620787</ele>
        <time>2023-02-09T21:48:51Z</time>
      </trkpt>
      <trkpt lat="50.58462" lon="2.25214">
        <ele>91.567502</ele>
        <time>2023-02-09T21:48:55Z</time>
      </trkpt>
      <trkpt lat="50.58423" lon="2.25254">
        <ele>91.390842</ele>
        <time>2023-02-09T21:49:05Z</time>
      </trkpt>
      <trkpt lat="50.584" lon="2.25271">
        <ele>91.293819</ele>
        <time>2023-02-09T21:49:11Z</time>
      </trkpt>
      <trkpt lat="50.58342" lon="2.25306">
        <ele>92.542555</ele>
        <time>2023-02-09T21:49:28Z</time>
      </trkpt>
      <trkpt lat="50.58302" lon="2.25311">
        <ele>93.382471</ele>
        <time>2023-02-09T21:49:40Z</time>
      </trkpt>
      <trkpt lat="50.58278" lon="2.25318">
        <ele>93.894316</ele>
        <time>2023-02-09T21:49:48Z</time>
      </trkpt>
      <trkpt lat="50.58209" lon="2.25332">
        <ele>95.475559</ele>
        <time>2023-02-09T21:50:10Z</time>
      </trkpt>
      <trkpt lat="50.57937" lon="2.25404">
        <ele>104.243771</ele>
        <time>2023-02-09T21:51:45Z</time>
      </trkpt>
      <trkpt lat="50.57885" lon="2.25421">
        <ele>106.093403</ele>
        <time>2023-02-09T21:52:05Z</time>
      </trkpt>
      <trkpt lat="50.57762" lon="2.25476">
        <ele>112.244811</ele>
        <time>2023-02-09T21:52:59Z</time>
      </trkpt>
      <trkpt lat="50.57677" lon="2.25518">
        <ele>117.297962</ele>
        <time>2023-02-09T21:53:51Z</time>
      </trkpt>
      <trkpt lat="50.57582" lon="2.25575">
        <ele>125.643562</ele>
        <time>2023-02-09T21:55:02Z</time>
      </trkpt>
      <trkpt lat="50.57484" lon="2.25616">
        <ele>135.16957</ele>
        <time>2023-02-09T21:56:28Z</time>
      </trkpt>
      <trkpt lat="50.57446" lon="2.25635">
        <ele>139.633461</ele>
        <time>2023-02-09T21:57:02Z</time>
      </trkpt>
      <trkpt lat="50.57403" lon="2.25659">
        <ele>144.778361</ele>
        <time>2023-02-09T21:57:44Z</time>
      </trkpt>
      <trkpt lat="50.57352" lon="2.2568">
        <ele>150.544753</ele>
        <time>2023-02-09T21:58:32Z</time>
      </trkpt>
      <trkpt lat="50.57332" lon="2.25698">
        <ele>152.614522</ele>
        <time>2023-02-09T21:58:54Z</time>
      </trkpt>
      <trkpt lat="50.57309" lon="2.25708">
        <ele>154.721794</ele>
        <time>2023-02-09T21:59:14Z</time>
      </trkpt>
      <trkpt lat="50.57225" lon="2.25726">
        <ele>162.21898</ele>
        <time>2023-02-09T22:00:18Z</time>
      </trkpt>
      <trkpt lat="50.57185" lon="2.25737">
        <ele>160</ele>
      </trkpt>
      <trkpt lat="50.57155" lon="2.25741">
        <ele>161.4</ele>
      </trkpt>
      <trkpt lat="50.57106" lon="2.25743">
        <ele>163.4</ele>
      </trkpt>
      <trkpt lat="50.57087" lon="2.25748">
        <ele>164.7</ele>
      </trkpt>
      <trkpt lat="50.57061" lon="2.25748">
        <ele>165.8</ele>
      </trkpt>
      <trkpt lat="50.57044" lon="2.25742">
        <ele>166.9</ele>
      </trkpt>
      <trkpt lat="50.57011" lon="2.25735">
        <ele>175.619261</ele>
        <time>2023-02-09T22:02:30Z</time>
      </trkpt>
      <trkpt lat="50.56993" lon="2.25728">
        <ele>169.3</ele>
      </trkpt>
      <trkpt lat="50.56969" lon="2.25718">
        <ele>170</ele>
      </trkpt>
      <trkpt lat="50.56947" lon="2.25712">
        <ele>170</ele>
      </trkpt>
      <trkpt lat="50.56935" lon="2.25711">
        <ele>170</ele>
      </trkpt>
      <trkpt lat="50.56923" lon="2.25713">
        <ele>170</ele>
      </trkpt>
      <trkpt lat="50.56902" lon="2.25704">
        <ele>169.5</ele>
      </trkpt>
      <trkpt lat="50.5687" lon="2.25691">
        <ele>168.9</ele>
      </trkpt>
      <trkpt lat="50.56835" lon="2.25697">
        <ele>169.9</ele>
      </trkpt>
      <trkpt lat="50.56824" lon="2.25698">
        <ele>170</ele>
      </trkpt>
      <trkpt lat="50.56811" lon="2.25699">
        <ele>176.621187</ele>
        <time>2023-02-09T22:03:42Z</time>
      </trkpt>
      <trkpt lat="50.56802" lon="2.25696">
        <ele>170</ele>
      </trkpt>
      <trkpt lat="50.56782" lon="2.25691">
        <ele>170</ele>
      </trkpt>
      <trkpt lat="50.56748" lon="2.25692">
        <ele>168.9</ele>
      </trkpt>
      <trkpt lat="50.56733" lon="2.2568">
        <ele>168.4</ele>
      </trkpt>
      <trkpt lat="50.56715" lon="2.25673">
        <ele>167.9</ele>
      </trkpt>
      <trkpt lat="50.56684" lon="2.25676">
        <ele>168.1</ele>
      </trkpt>
      <trkpt lat="50.56657" lon="2.25679">
        <ele>168.5</ele>
      </trkpt>
      <trkpt lat="50.56636" lon="2.25688">
        <ele>168.2</ele>
      </trkpt>
      <trkpt lat="50.5662" lon="2.25677">
        <ele>168.2</ele>
      </trkpt>
      <trkpt lat="50.56609" lon="2.25683">
        <ele>168</ele>
      </trkpt>
      <trkpt lat="50.56594" lon="2.25687">
        <ele>167.8</ele>
      </trkpt>
      <trkpt lat="50.56548" lon="2.2569">
        <ele>166.4</ele>
      </trkpt>
      <trkpt lat="50.5651" lon="2.25691">
        <ele>164.4</ele>
      </trkpt>
      <trkpt lat="50.56493" lon="2.25686">
        <ele>164.7403</ele>
        <time>2023-02-09T22:05:01Z</time>
      </trkpt>
      <trkpt lat="50.56386" lon="2.2567">
        <ele>160.746057</ele>
        <time>2023-02-09T22:05:28Z</time>
      </trkpt>
      <trkpt lat="50.56331" lon="2.25667">
        <ele>158.791429</ele>
        <time>2023-02-09T22:05:42Z</time>
      </trkpt>
      <trkpt lat="50.56335" lon="2.25683">
        <ele>158.401829</ele>
        <time>2023-02-09T22:05:45Z</time>
      </trkpt>
      <trkpt lat="50.56414" lon="2.25857">
        <ele>154.605435</ele>
        <time>2023-02-09T22:06:20Z</time>
      </trkpt>
      <trkpt lat="50.5654" lon="2.26102">
        <ele>151.200053</ele>
        <time>2023-02-09T22:07:16Z</time>
      </trkpt>
      <trkpt lat="50.56627" lon="2.26239">
        <ele>150.883898</ele>
        <time>2023-02-09T22:07:54Z</time>
      </trkpt>
      <trkpt lat="50.56657" lon="2.26273">
        <ele>151.112785</ele>
        <time>2023-02-09T22:08:07Z</time>
      </trkpt>
      <trkpt lat="50.5675" lon="2.26351">
        <ele>151.852364</ele>
        <time>2023-02-09T22:08:47Z</time>
      </trkpt>
      <trkpt lat="50.56824" lon="2.26421">
        <ele>152.706127</ele>
        <time>2023-02-09T22:09:21Z</time>
      </trkpt>
      <trkpt lat="50.56842" lon="2.26432">
        <ele>152.895305</ele>
        <time>2023-02-09T22:09:29Z</time>
      </trkpt>
      <trkpt lat="50.56892" lon="2.26478">
        <ele>153.187344</ele>
        <time>2023-02-09T22:09:49Z</time>
      </trkpt>
      <trkpt lat="50.5692" lon="2.26498">
        <ele>152.407954</ele>
        <time>2023-02-09T22:09:58Z</time>
      </trkpt>
      <trkpt lat="50.5701" lon="2.26597">
        <ele>149.673108</ele>
        <time>2023-02-09T22:10:27Z</time>
      </trkpt>
      <trkpt lat="50.57099" lon="2.26708">
        <ele>144.120709</ele>
        <time>2023-02-09T22:10:54Z</time>
      </trkpt>
      <trkpt lat="50.5716" lon="2.26795">
        <ele>139.345829</ele>
        <time>2023-02-09T22:11:13Z</time>
      </trkpt>
      <trkpt lat="50.57208" lon="2.26856">
        <ele>135.847242</ele>
        <time>2023-02-09T22:11:28Z</time>
      </trkpt>
      <trkpt lat="50.57324" lon="2.26953">
        <ele>128.415237</ele>
        <time>2023-02-09T22:11:59Z</time>
      </trkpt>
      <trkpt lat="50.57329" lon="2.2696">
        <ele>127.981122</ele>
        <time>2023-02-09T22:12:00Z</time>
      </trkpt>
      <trkpt lat="50.57358" lon="2.27">
        <ele>125.230738</ele>
        <time>2023-02-09T22:12:10Z</time>
      </trkpt>
      <trkpt lat="50.57371" lon="2.27035">
        <ele>123.408188</ele>
        <time>2023-02-09T22:12:16Z</time>
      </trkpt>
      <trkpt lat="50.57417" lon="2.27202">
        <ele>115.09777</ele>
        <time>2023-02-09T22:12:41Z</time>
      </trkpt>
      <trkpt lat="50.57439" lon="2.27267">
        <ele>111.648621</ele>
        <time>2023-02-09T22:12:52Z</time>
      </trkpt>
      <trkpt lat="50.57392" lon="2.27303">
        <ele>107.738265</ele>
        <time>2023-02-09T22:12:59Z</time>
      </trkpt>
      <trkpt lat="50.57201" lon="2.27417">
        <ele>91.7</ele>
      </trkpt>
      <trkpt lat="50.57231" lon="2.2751">
        <ele>87.9</ele>
      </trkpt>
      <trkpt lat="50.57143" lon="2.27573">
        <ele>87.2</ele>
      </trkpt>
      <trkpt lat="50.57129" lon="2.27582">
        <ele>86.7</ele>
      </trkpt>
      <trkpt lat="50.57115" lon="2.27582">
        <ele>86.2</ele>
      </trkpt>
      <trkpt lat="50.57084" lon="2.27546">
        <ele>87.4</ele>
      </trkpt>
      <trkpt lat="50.5707" lon="2.27531">
        <ele>86.4</ele>
      </trkpt>
      <trkpt lat="50.57063" lon="2.2753">
        <ele>82.697095</ele>
        <time>2023-02-09T22:15:08Z</time>
      </trkpt>
      <trkpt lat="50.57023" lon="2.27576">
        <ele>83.012176</ele>
        <time>2023-02-09T22:15:32Z</time>
      </trkpt>
      <trkpt lat="50.57009" lon="2.27597">
        <ele>83.125201</ele>
        <time>2023-02-09T22:15:38Z</time>
      </trkpt>
      <trkpt lat="50.57004" lon="2.27619">
        <ele>83.206759</ele>
        <time>2023-02-09T22:15:41Z</time>
      </trkpt>
      <trkpt lat="50.57002" lon="2.27652">
        <ele>83.328865</ele>
        <time>2023-02-09T22:15:48Z</time>
      </trkpt>
      <trkpt lat="50.5698" lon="2.27687">
        <ele>83.507654</ele>
        <time>2023-02-09T22:15:56Z</time>
      </trkpt>
      <trkpt lat="50.56973" lon="2.27673">
        <ele>83.574164</ele>
        <time>2023-02-09T22:15:59Z</time>
      </trkpt>
      <trkpt lat="50.56957" lon="2.27668">
        <ele>83.665736</ele>
        <time>2023-02-09T22:16:04Z</time>
      </trkpt>
      <trkpt lat="50.56921" lon="2.27679">
        <ele>83.92221</ele>
        <time>2023-02-09T22:16:15Z</time>
      </trkpt>
      <trkpt lat="50.56907" lon="2.2768">
        <ele>84.019393</ele>
        <time>2023-02-09T22:16:20Z</time>
      </trkpt>
      <trkpt lat="50.569" lon="2.27712">
        <ele>84.165796</ele>
        <time>2023-02-09T22:16:26Z</time>
      </trkpt>
      <trkpt lat="50.56905" lon="2.27735">
        <ele>84.275805</ele>
        <time>2023-02-09T22:16:31Z</time>
      </trkpt>
      <trkpt lat="50.56916" lon="2.27764">
        <ele>84.419988</ele>
        <time>2023-02-09T22:16:36Z</time>
      </trkpt>
      <trkpt lat="50.5687" lon="2.27807">
        <ele>84.789476</ele>
        <time>2023-02-09T22:16:48Z</time>
      </trkpt>
      <trkpt lat="50.56929" lon="2.2797">
        <ele>82.150724</ele>
        <time>2023-02-09T22:17:06Z</time>
      </trkpt>
      <trkpt lat="50.56933" lon="2.27981">
        <ele>81.939602</ele>
        <time>2023-02-09T22:17:08Z</time>
      </trkpt>
      <trkpt lat="50.5696" lon="2.28037">
        <ele>80.741994</ele>
        <time>2023-02-09T22:17:14Z</time>
      </trkpt>
      <trkpt lat="50.56974" lon="2.28016">
        <ele>80.212313</ele>
        <time>2023-02-09T22:17:17Z</time>
      </trkpt>
      <trkpt lat="50.56987" lon="2.28007">
        <ele>79.973604</ele>
        <time>2023-02-09T22:17:19Z</time>
      </trkpt>
      <trkpt lat="50.57046" lon="2.27976">
        <ele>79.313002</ele>
        <time>2023-02-09T22:17:29Z</time>
      </trkpt>
      <trkpt lat="50.57049" lon="2.27999">
        <ele>79.157389</ele>
        <time>2023-02-09T22:17:31Z</time>
      </trkpt>
      <trkpt lat="50.57054" lon="2.28023">
        <ele>78.986952</ele>
        <time>2023-02-09T22:17:34Z</time>
      </trkpt>
      <trkpt lat="50.57076" lon="2.28067">
        <ele>78.614742</ele>
        <time>2023-02-09T22:17:40Z</time>
      </trkpt>
      <trkpt lat="50.57181" lon="2.28241">
        <ele>80.365931</ele>
        <time>2023-02-09T22:18:20Z</time>
      </trkpt>
      <trkpt lat="50.57201" lon="2.28265">
        <ele>80.866666</ele>
        <time>2023-02-09T22:18:28Z</time>
      </trkpt>
      <trkpt lat="50.57204" lon="2.28275">
        <ele>81.013514</ele>
        <time>2023-02-09T22:18:31Z</time>
      </trkpt>
      <trkpt lat="50.57216" lon="2.28287">
        <ele>81.29412</ele>
        <time>2023-02-09T22:18:35Z</time>
      </trkpt>
      <trkpt lat="50.57255" lon="2.28305">
        <ele>82.408916</ele>
        <time>2023-02-09T22:18:50Z</time>
      </trkpt>
      <trkpt lat="50.57267" lon="2.28313">
        <ele>82.887025</ele>
        <time>2023-02-09T22:18:55Z</time>
      </trkpt>
      <trkpt lat="50.57276" lon="2.28327">
        <ele>83.356347</ele>
        <time>2023-02-09T22:19:00Z</time>
      </trkpt>
      <trkpt lat="50.57287" lon="2.28364">
        <ele>84.308231</ele>
        <time>2023-02-09T22:19:10Z</time>
      </trkpt>
      <trkpt lat="50.573" lon="2.28423">
        <ele>85.800958</ele>
        <time>2023-02-09T22:19:26Z</time>
      </trkpt>
      <trkpt lat="50.573" lon="2.28437">
        <ele>86.117577</ele>
        <time>2023-02-09T22:19:29Z</time>
      </trkpt>
      <trkpt lat="50.57253" lon="2.28587">
        <ele>90.095084</ele>
        <time>2023-02-09T22:20:12Z</time>
      </trkpt>
      <trkpt lat="50.57131" lon="2.28879">
        <ele>97.095832</ele>
        <time>2023-02-09T22:21:38Z</time>
      </trkpt>
      <trkpt lat="50.57115" lon="2.28948">
        <ele>98.076156</ele>
        <time>2023-02-09T22:21:51Z</time>
      </trkpt>
      <trkpt lat="50.57107" lon="2.28998">
        <ele>98.77797</ele>
        <time>2023-02-09T22:21:59Z</time>
      </trkpt>
      <trkpt lat="50.57098" lon="2.29243">
        <ele>98.615069</ele>
        <time>2023-02-09T22:22:29Z</time>
      </trkpt>
      <trkpt lat="50.57088" lon="2.29294">
        <ele>98.499755</ele>
        <time>2023-02-09T22:22:35Z</time>
      </trkpt>
      <trkpt lat="50.57061" lon="2.29358">
        <ele>98.631803</ele>
        <time>2023-02-09T22:22:45Z</time>
      </trkpt>
      <trkpt lat="50.57016" lon="2.29428">
        <ele>98.846852</ele>
        <time>2023-02-09T22:22:58Z</time>
      </trkpt>
      <trkpt lat="50.56979" lon="2.29473">
        <ele>99.00699</ele>
        <time>2023-02-09T22:23:09Z</time>
      </trkpt>
      <trkpt lat="50.56964" lon="2.29472">
        <ele>99.056463</ele>
        <time>2023-02-09T22:23:13Z</time>
      </trkpt>
      <trkpt lat="50.56901" lon="2.2945">
        <ele>100.125118</ele>
        <time>2023-02-09T22:23:29Z</time>
      </trkpt>
      <trkpt lat="50.56844" lon="2.29412">
        <ele>101.33994</ele>
        <time>2023-02-09T22:23:48Z</time>
      </trkpt>
      <trkpt lat="50.56823" lon="2.294">
        <ele>101.4</ele>
      </trkpt>
      <trkpt lat="50.56769" lon="2.29396">
        <ele>102.924236</ele>
        <time>2023-02-09T22:24:13Z</time>
      </trkpt>
      <trkpt lat="50.56582" lon="2.29393">
        <ele>108.036127</ele>
        <time>2023-02-09T22:25:20Z</time>
      </trkpt>
      <trkpt lat="50.56516" lon="2.29408">
        <ele>108.644747</ele>
        <time>2023-02-09T22:25:40Z</time>
      </trkpt>
      <trkpt lat="50.56477" lon="2.29411">
        <ele>108.999431</ele>
        <time>2023-02-09T22:25:50Z</time>
      </trkpt>
      <trkpt lat="50.56389" lon="2.29535">
        <ele>107.386083</ele>
        <time>2023-02-09T22:26:11Z</time>
      </trkpt>
      <trkpt lat="50.56331" lon="2.29652">
        <ele>104.189473</ele>
        <time>2023-02-09T22:26:25Z</time>
      </trkpt>
      <trkpt lat="50.56315" lon="2.29639">
        <ele>111.7</ele>
      </trkpt>
      <trkpt lat="50.56288" lon="2.29608">
        <ele>101.65979</ele>
        <time>2023-02-09T22:26:37Z</time>
      </trkpt>
      <trkpt lat="50.5628" lon="2.29595">
        <ele>110.5</ele>
      </trkpt>
      <trkpt lat="50.56273" lon="2.29567">
        <ele>99.7866</ele>
        <time>2023-02-09T22:26:43Z</time>
      </trkpt>
      <trkpt lat="50.56257" lon="2.29534">
        <ele>98.100757</ele>
        <time>2023-02-09T22:26:49Z</time>
      </trkpt>
      <trkpt lat="50.56228" lon="2.2951">
        <ele>96.060348</ele>
        <time>2023-02-09T22:26:57Z</time>
      </trkpt>
      <trkpt lat="50.56215" lon="2.29506">
        <ele>95.220143</ele>
        <time>2023-02-09T22:27:00Z</time>
      </trkpt>
      <trkpt lat="50.56196" lon="2.29498">
        <ele>93.972031</ele>
        <time>2023-02-09T22:27:04Z</time>
      </trkpt>
      <trkpt lat="50.56186" lon="2.29498">
        <ele>93.363022</ele>
        <time>2023-02-09T22:27:07Z</time>
      </trkpt>
      <trkpt lat="50.56159" lon="2.29531">
        <ele>91.717678</ele>
        <time>2023-02-09T22:27:11Z</time>
      </trkpt>
      <trkpt lat="50.56133" lon="2.29548">
        <ele>90.969758</ele>
        <time>2023-02-09T22:27:16Z</time>
      </trkpt>
      <trkpt lat="50.56099" lon="2.29546">
        <ele>90.082187</ele>
        <time>2023-02-09T22:27:21Z</time>
      </trkpt>
      <trkpt lat="50.56082" lon="2.29542">
        <ele>89.605433</ele>
        <time>2023-02-09T22:27:23Z</time>
      </trkpt>
      <trkpt lat="50.5606" lon="2.2953">
        <ele>88.988015</ele>
        <time>2023-02-09T22:27:27Z</time>
      </trkpt>
      <trkpt lat="50.56001" lon="2.29469">
        <ele>87.413271</ele>
        <time>2023-02-09T22:27:40Z</time>
      </trkpt>
      <trkpt lat="50.55976" lon="2.2945">
        <ele>87.837912</ele>
        <time>2023-02-09T22:27:47Z</time>
      </trkpt>
      <trkpt lat="50.55941" lon="2.29423">
        <ele>88.425092</ele>
        <time>2023-02-09T22:27:59Z</time>
      </trkpt>
      <trkpt lat="50.55912" lon="2.29391">
        <ele>88.958024</ele>
        <time>2023-02-09T22:28:09Z</time>
      </trkpt>
      <trkpt lat="50.55905" lon="2.29388">
        <ele>89.069451</ele>
        <time>2023-02-09T22:28:12Z</time>
      </trkpt>
      <trkpt lat="50.55903" lon="2.29399">
        <ele>89.181708</ele>
        <time>2023-02-09T22:28:15Z</time>
      </trkpt>
      <trkpt lat="50.55859" lon="2.295">
        <ele>90.244215</ele>
        <time>2023-02-09T22:28:37Z</time>
      </trkpt>
      <trkpt lat="50.55839" lon="2.29522">
        <ele>90.482759</ele>
        <time>2023-02-09T22:28:44Z</time>
      </trkpt>
      <trkpt lat="50.55841" lon="2.29531">
        <ele>90.53979</ele>
        <time>2023-02-09T22:28:47Z</time>
      </trkpt>
      <trkpt lat="50.55836" lon="2.29591">
        <ele>90.921151</ele>
        <time>2023-02-09T22:29:01Z</time>
      </trkpt>
      <trkpt lat="50.55825" lon="2.2966">
        <ele>91.37392</ele>
        <time>2023-02-09T22:29:17Z</time>
      </trkpt>
      <trkpt lat="50.5582" lon="2.29709">
        <ele>91.686798</ele>
        <time>2023-02-09T22:29:27Z</time>
      </trkpt>
      <trkpt lat="50.55778" lon="2.29816">
        <ele>91.870939</ele>
        <time>2023-02-09T22:29:52Z</time>
      </trkpt>
      <trkpt lat="50.55684" lon="2.29966">
        <ele>92.228451</ele>
        <time>2023-02-09T22:30:35Z</time>
      </trkpt>
      <trkpt lat="50.55665" lon="2.2999">
        <ele>92.509112</ele>
        <time>2023-02-09T22:30:44Z</time>
      </trkpt>
      <trkpt lat="50.55594" lon="2.30023">
        <ele>93.354072</ele>
        <time>2023-02-09T22:31:11Z</time>
      </trkpt>
      <trkpt lat="50.55504" lon="2.30143">
        <ele>96.141363</ele>
        <time>2023-02-09T22:32:00Z</time>
      </trkpt>
      <trkpt lat="50.55528" lon="2.3017">
        <ele>97.190571</ele>
        <time>2023-02-09T22:32:15Z</time>
      </trkpt>
      <trkpt lat="50.5557" lon="2.30192">
        <ele>98.816656</ele>
        <time>2023-02-09T22:32:38Z</time>
      </trkpt>
      <trkpt lat="50.5558" lon="2.30207">
        <ele>99.319353</ele>
        <time>2023-02-09T22:32:46Z</time>
      </trkpt>
      <trkpt lat="50.55588" lon="2.30231">
        <ele>99.932388</ele>
        <time>2023-02-09T22:32:55Z</time>
      </trkpt>
      <trkpt lat="50.55601" lon="2.30304">
        <ele>101.964911</ele>
        <time>2023-02-09T22:33:25Z</time>
      </trkpt>
      <trkpt lat="50.5561" lon="2.30323">
        <ele>102.632674</ele>
        <time>2023-02-09T22:33:32Z</time>
      </trkpt>
      <trkpt lat="50.55586" lon="2.3042">
        <ele>105.605028</ele>
        <time>2023-02-09T22:34:11Z</time>
      </trkpt>
      <trkpt lat="50.55572" lon="2.30458">
        <ele>106.874848</ele>
        <time>2023-02-09T22:34:28Z</time>
      </trkpt>
      <trkpt lat="50.55562" lon="2.30478">
        <ele>107.579338</ele>
        <time>2023-02-09T22:34:33Z</time>
      </trkpt>
      <trkpt lat="50.55557" lon="2.30509">
        <ele>108.512441</ele>
        <time>2023-02-09T22:34:45Z</time>
      </trkpt>
      <trkpt lat="50.55487" lon="2.30516">
        <ele>109.040876</ele>
        <time>2023-02-09T22:35:05Z</time>
      </trkpt>
      <trkpt lat="50.55443" lon="2.3053">
        <ele>109.313246</ele>
        <time>2023-02-09T22:35:15Z</time>
      </trkpt>
      <trkpt lat="50.55432" lon="2.3053">
        <ele>109.374433</ele>
        <time>2023-02-09T22:35:17Z</time>
      </trkpt>
      <trkpt lat="50.55382" lon="2.3058">
        <ele>109.685978</ele>
        <time>2023-02-09T22:35:28Z</time>
      </trkpt>
      <trkpt lat="50.55297" lon="2.30634">
        <ele>108.54579</ele>
        <time>2023-02-09T22:35:44Z</time>
      </trkpt>
      <trkpt lat="50.55294" lon="2.30636">
        <ele>108.498598</ele>
        <time>2023-02-09T22:35:44Z</time>
      </trkpt>
      <trkpt lat="50.55264" lon="2.30652">
        <ele>108.10763</ele>
        <time>2023-02-09T22:35:54Z</time>
      </trkpt>
      <trkpt lat="50.55212" lon="2.30673">
        <ele>107.421756</ele>
        <time>2023-02-09T22:36:09Z</time>
      </trkpt>
      <trkpt lat="50.55154" lon="2.30718">
        <ele>106.219031</ele>
        <time>2023-02-09T22:36:27Z</time>
      </trkpt>
      <trkpt lat="50.55132" lon="2.30731">
        <ele>105.773202</ele>
        <time>2023-02-09T22:36:34Z</time>
      </trkpt>
      <trkpt lat="50.55078" lon="2.30752">
        <ele>104.745004</ele>
        <time>2023-02-09T22:36:49Z</time>
      </trkpt>
      <trkpt lat="50.55012" lon="2.30821">
        <ele>103.341838</ele>
        <time>2023-02-09T22:37:10Z</time>
      </trkpt>
      <trkpt lat="50.54985" lon="2.30835">
        <ele>102.852931</ele>
        <time>2023-02-09T22:37:18Z</time>
      </trkpt>
      <trkpt lat="50.5491" lon="2.30891">
        <ele>101.423397</ele>
        <time>2023-02-09T22:37:41Z</time>
      </trkpt>
      <trkpt lat="50.54879" lon="2.30921">
        <ele>101.099062</ele>
        <time>2023-02-09T22:37:52Z</time>
      </trkpt>
      <trkpt lat="50.54824" lon="2.30992">
        <ele>101.412534</ele>
        <time>2023-02-09T22:38:14Z</time>
      </trkpt>
      <trkpt lat="50.54802" lon="2.30998">
        <ele>101.513837</ele>
        <time>2023-02-09T22:38:22Z</time>
      </trkpt>
      <trkpt lat="50.54718" lon="2.31091">
        <ele>102.545729</ele>
        <time>2023-02-09T22:39:02Z</time>
      </trkpt>
      <trkpt lat="50.54696" lon="2.31112">
        <ele>103.161123</ele>
        <time>2023-02-09T22:39:13Z</time>
      </trkpt>
      <trkpt lat="50.54685" lon="2.31118">
        <ele>103.443167</ele>
        <time>2023-02-09T22:39:19Z</time>
      </trkpt>
      <trkpt lat="50.54625" lon="2.31136">
        <ele>104.894164</ele>
        <time>2023-02-09T22:39:46Z</time>
      </trkpt>
      <trkpt lat="50.54562" lon="2.31167">
        <ele>106.583198</ele>
        <time>2023-02-09T22:40:15Z</time>
      </trkpt>
      <trkpt lat="50.54551" lon="2.31176">
        <ele>107.023654</ele>
        <time>2023-02-09T22:40:22Z</time>
      </trkpt>
      <trkpt lat="50.54503" lon="2.31246">
        <ele>109.227194</ele>
        <time>2023-02-09T22:40:52Z</time>
      </trkpt>
      <trkpt lat="50.54446" lon="2.31312">
        <ele>111.59302</ele>
        <time>2023-02-09T22:41:27Z</time>
      </trkpt>
      <trkpt lat="50.54425" lon="2.31342">
        <ele>112.663609</ele>
        <time>2023-02-09T22:41:42Z</time>
      </trkpt>
      <trkpt lat="50.54318" lon="2.3155">
        <ele>120.347911</ele>
        <time>2023-02-09T22:43:17Z</time>
      </trkpt>
      <trkpt lat="50.54263" lon="2.31514">
        <ele>121.979982</ele>
        <time>2023-02-09T22:43:45Z</time>
      </trkpt>
      <trkpt lat="50.54236" lon="2.31504">
        <ele>122.726326</ele>
        <time>2023-02-09T22:43:56Z</time>
      </trkpt>
      <trkpt lat="50.54161" lon="2.31503">
        <ele>124.765486</ele>
        <time>2023-02-09T22:44:22Z</time>
      </trkpt>
      <trkpt lat="50.54109" lon="2.31504">
        <ele>125.198402</ele>
        <time>2023-02-09T22:44:34Z</time>
      </trkpt>
      <trkpt lat="50.54096" lon="2.31502">
        <ele>125.200248</ele>
        <time>2023-02-09T22:44:36Z</time>
      </trkpt>
      <trkpt lat="50.54086" lon="2.31514">
        <ele>125.202066</ele>
        <time>2023-02-09T22:44:39Z</time>
      </trkpt>
      <trkpt lat="50.53975" lon="2.31597">
        <ele>125.25672</ele>
        <time>2023-02-09T22:45:01Z</time>
      </trkpt>
      <trkpt lat="50.53964" lon="2.31601">
        <ele>125.341297</ele>
        <time>2023-02-09T22:45:03Z</time>
      </trkpt>
      <trkpt lat="50.53947" lon="2.31606">
        <ele>125.462709</ele>
        <time>2023-02-09T22:45:06Z</time>
      </trkpt>
      <trkpt lat="50.53919" lon="2.31606">
        <ele>125.670052</ele>
        <time>2023-02-09T22:45:12Z</time>
      </trkpt>
      <trkpt lat="50.53892" lon="2.316">
        <ele>125.871285</ele>
        <time>2023-02-09T22:45:18Z</time>
      </trkpt>
      <trkpt lat="50.53852" lon="2.31582">
        <ele>126.17245</ele>
        <time>2023-02-09T22:45:28Z</time>
      </trkpt>
      <trkpt lat="50.53836" lon="2.31576">
        <ele>126.297451</ele>
        <time>2023-02-09T22:45:32Z</time>
      </trkpt>
      <trkpt lat="50.53823" lon="2.31572">
        <ele>125</ele>
      </trkpt>
      <trkpt lat="50.53821" lon="2.31595">
        <ele>125</ele>
      </trkpt>
      <trkpt lat="50.53818" lon="2.31618">
        <ele>125</ele>
      </trkpt>
      <trkpt lat="50.53819" lon="2.31637">
        <ele>127.099084</ele>
        <time>2023-02-09T22:45:47Z</time>
      </trkpt>
      <trkpt lat="50.53823" lon="2.31708">
        <ele>128.405568</ele>
        <time>2023-02-09T22:46:00Z</time>
      </trkpt>
      <trkpt lat="50.53821" lon="2.31717">
        <ele>128.578195</ele>
        <time>2023-02-09T22:46:02Z</time>
      </trkpt>
      <trkpt lat="50.53814" lon="2.31728">
        <ele>128.84342</ele>
        <time>2023-02-09T22:46:04Z</time>
      </trkpt>
      <trkpt lat="50.53794" lon="2.31753">
        <ele>129.574217</ele>
        <time>2023-02-09T22:46:14Z</time>
      </trkpt>
      <trkpt lat="50.5371" lon="2.31865">
        <ele>132.872749</ele>
        <time>2023-02-09T22:46:56Z</time>
      </trkpt>
      <trkpt lat="50.53698" lon="2.31886">
        <ele>133.458314</ele>
        <time>2023-02-09T22:47:02Z</time>
      </trkpt>
      <trkpt lat="50.53695" lon="2.31898">
        <ele>131.3</ele>
      </trkpt>
      <trkpt lat="50.53688" lon="2.31904">
        <ele>132.1</ele>
      </trkpt>
      <trkpt lat="50.53681" lon="2.31912">
        <ele>134.305121</ele>
        <time>2023-02-09T22:47:14Z</time>
      </trkpt>
      <trkpt lat="50.5355" lon="2.32104">
        <ele>138.132032</ele>
        <time>2023-02-09T22:48:24Z</time>
      </trkpt>
      <trkpt lat="50.53444" lon="2.32247">
        <ele>144.1</ele>
      </trkpt>
      <trkpt lat="50.53412" lon="2.32289">
        <ele>144.7</ele>
      </trkpt>
      <trkpt lat="50.53352" lon="2.32356">
        <ele>144.2</ele>
      </trkpt>
      <trkpt lat="50.53308" lon="2.32404">
        <ele>143</ele>
      </trkpt>
      <trkpt lat="50.53169" lon="2.32545">
        <ele>135.981997</ele>
        <time>2023-02-09T22:50:12Z</time>
      </trkpt>
      <trkpt lat="50.53096" lon="2.3261">
        <ele>138.630208</ele>
        <time>2023-02-09T22:50:44Z</time>
      </trkpt>
      <trkpt lat="50.52981" lon="2.3272">
        <ele>146.564648</ele>
        <time>2023-02-09T22:52:10Z</time>
      </trkpt>
      <trkpt lat="50.52961" lon="2.32737">
        <ele>148.759536</ele>
        <time>2023-02-09T22:52:19Z</time>
      </trkpt>
      <trkpt lat="50.52938" lon="2.32761">
        <ele>141.3</ele>
      </trkpt>
      <trkpt lat="50.52913" lon="2.32791">
        <ele>143.6</ele>
      </trkpt>
      <trkpt lat="50.52912" lon="2.32793">
        <ele>143.7</ele>
      </trkpt>
      <trkpt lat="50.52905" lon="2.32801">
        <ele>144.3</ele>
      </trkpt>
      <trkpt lat="50.52899" lon="2.32805">
        <ele>144.6</ele>
      </trkpt>
      <trkpt lat="50.52893" lon="2.32803">
        <ele>144.8</ele>
      </trkpt>
      <trkpt lat="50.52886" lon="2.32797">
        <ele>144.9</ele>
      </trkpt>
      <trkpt lat="50.52877" lon="2.3279">
        <ele>145.3</ele>
      </trkpt>
      <trkpt lat="50.52867" lon="2.32789">
        <ele>146</ele>
      </trkpt>
      <trkpt lat="50.52856" lon="2.32796">
        <ele>147.3</ele>
      </trkpt>
      <trkpt lat="50.52829" lon="2.32828">
        <ele>153.2</ele>
      </trkpt>
      <trkpt lat="50.52799" lon="2.32867">
        <ele>160.3</ele>
      </trkpt>
      <trkpt lat="50.52786" lon="2.32884">
        <ele>163.4</ele>
      </trkpt>
      <trkpt lat="50.52779" lon="2.32905">
        <ele>165.5</ele>
      </trkpt>
      <trkpt lat="50.52764" lon="2.32924">
        <ele>168.4</ele>
      </trkpt>
      <trkpt lat="50.52754" lon="2.32937">
        <ele>170.2</ele>
      </trkpt>
      <trkpt lat="50.52717" lon="2.3298">
        <ele>175.4</ele>
      </trkpt>
      <trkpt lat="50.52699" lon="2.33013">
        <ele>177.988619</ele>
        <time>2023-02-09T22:54:43Z</time>
      </trkpt>
      <trkpt lat="50.52687" lon="2.33037">
        <ele>178.117266</ele>
        <time>2023-02-09T22:54:51Z</time>
      </trkpt>
      <trkpt lat="50.52671" lon="2.33057">
        <ele>178.248113</ele>
        <time>2023-02-09T22:55:00Z</time>
      </trkpt>
      <trkpt lat="50.52666" lon="2.33071">
        <ele>178.312832</ele>
        <time>2023-02-09T22:55:04Z</time>
      </trkpt>
      <trkpt lat="50.52619" lon="2.3312">
        <ele>179.2</ele>
      </trkpt>
      <trkpt lat="50.5257" lon="2.33166">
        <ele>178.6</ele>
      </trkpt>
      <trkpt lat="50.52546" lon="2.33196">
        <ele>177.3</ele>
      </trkpt>
      <trkpt lat="50.52526" lon="2.33223">
        <ele>174.8</ele>
      </trkpt>
      <trkpt lat="50.52517" lon="2.33241">
        <ele>173.6</ele>
      </trkpt>
      <trkpt lat="50.52509" lon="2.33276">
        <ele>172</ele>
      </trkpt>
      <trkpt lat="50.52504" lon="2.33283">
        <ele>171.4</ele>
      </trkpt>
      <trkpt lat="50.52492" lon="2.33292">
        <ele>170</ele>
      </trkpt>
      <trkpt lat="50.5247" lon="2.33314">
        <ele>166.4</ele>
      </trkpt>
      <trkpt lat="50.52438" lon="2.33347">
        <ele>160.9</ele>
      </trkpt>
      <trkpt lat="50.52412" lon="2.33374">
        <ele>159.1</ele>
      </trkpt>
      <trkpt lat="50.52415" lon="2.33399">
        <ele>157.7</ele>
      </trkpt>
      <trkpt lat="50.52435" lon="2.33546">
        <ele>153.775539</ele>
        <time>2023-02-09T22:57:44Z</time>
      </trkpt>
      <trkpt lat="50.52447" lon="2.33667">
        <ele>148.580485</ele>
        <time>2023-02-09T22:58:02Z</time>
      </trkpt>
      <trkpt lat="50.52461" lon="2.3376">
        <ele>144.55229</ele>
        <time>2023-02-09T22:58:15Z</time>
      </trkpt>
      <trkpt lat="50.52511" lon="2.33971">
        <ele>136.206848</ele>
        <time>2023-02-09T22:58:49Z</time>
      </trkpt>
      <trkpt lat="50.5255" lon="2.34094">
        <ele>131.539687</ele>
        <time>2023-02-09T22:59:10Z</time>
      </trkpt>
      <trkpt lat="50.5259" lon="2.34234">
        <ele>127.440496</ele>
        <time>2023-02-09T22:59:34Z</time>
      </trkpt>
      <trkpt lat="50.52602" lon="2.34268">
        <ele>126.40971</ele>
        <time>2023-02-09T22:59:40Z</time>
      </trkpt>
      <trkpt lat="50.52635" lon="2.34344">
        <ele>124.032407</ele>
        <time>2023-02-09T22:59:55Z</time>
      </trkpt>
      <trkpt lat="50.52676" lon="2.34455">
        <ele>121.485928</ele>
        <time>2023-02-09T23:00:16Z</time>
      </trkpt>
      <trkpt lat="50.52699" lon="2.34503">
        <ele>120.287629</ele>
        <time>2023-02-09T23:00:26Z</time>
      </trkpt>
      <trkpt lat="50.5271" lon="2.34516">
        <ele>119.870687</ele>
        <time>2023-02-09T23:00:29Z</time>
      </trkpt>
      <trkpt lat="50.52765" lon="2.34556">
        <ele>118.170711</ele>
        <time>2023-02-09T23:00:45Z</time>
      </trkpt>
      <trkpt lat="50.5278" lon="2.34572">
        <ele>117.761443</ele>
        <time>2023-02-09T23:00:50Z</time>
      </trkpt>
      <trkpt lat="50.52745" lon="2.3463">
        <ele>116.624382</ele>
        <time>2023-02-09T23:01:04Z</time>
      </trkpt>
      <trkpt lat="50.5273" lon="2.34663">
        <ele>116.046614</ele>
        <time>2023-02-09T23:01:08Z</time>
      </trkpt>
      <trkpt lat="50.52695" lon="2.34761">
        <ele>114.581203</ele>
        <time>2023-02-09T23:01:19Z</time>
      </trkpt>
      <trkpt lat="50.52688" lon="2.34794">
        <ele>114.451915</ele>
        <time>2023-02-09T23:01:23Z</time>
      </trkpt>
      <trkpt lat="50.52681" lon="2.34814">
        <ele>114.364589</ele>
        <time>2023-02-09T23:01:25Z</time>
      </trkpt>
      <trkpt lat="50.52651" lon="2.34853">
        <ele>114.143208</ele>
        <time>2023-02-09T23:01:32Z</time>
      </trkpt>
      <trkpt lat="50.52635" lon="2.34857">
        <ele>114.043931</ele>
        <time>2023-02-09T23:01:35Z</time>
      </trkpt>
      <trkpt lat="50.52627" lon="2.34862">
        <ele>113.996535</ele>
        <time>2023-02-09T23:01:37Z</time>
      </trkpt>
      <trkpt lat="50.5259" lon="2.34899">
        <ele>113.740172</ele>
        <time>2023-02-09T23:01:46Z</time>
      </trkpt>
      <trkpt lat="50.52564" lon="2.34925">
        <ele>113.557541</ele>
        <time>2023-02-09T23:01:52Z</time>
      </trkpt>
      <trkpt lat="50.52574" lon="2.34952">
        <ele>113.4104</ele>
        <time>2023-02-09T23:01:55Z</time>
      </trkpt>
      <trkpt lat="50.52583" lon="2.34992">
        <ele>113.208014</ele>
        <time>2023-02-09T23:02:00Z</time>
      </trkpt>
      <trkpt lat="50.52583" lon="2.35051">
        <ele>112.927058</ele>
        <time>2023-02-09T23:02:07Z</time>
      </trkpt>
      <trkpt lat="50.5258" lon="2.35092">
        <ele>112.732267</ele>
        <time>2023-02-09T23:02:12Z</time>
      </trkpt>
      <trkpt lat="50.5257" lon="2.35155">
        <ele>112.42254</ele>
        <time>2023-02-09T23:02:19Z</time>
      </trkpt>
      <trkpt lat="50.52564" lon="2.35243">
        <ele>111.843528</ele>
        <time>2023-02-09T23:02:28Z</time>
      </trkpt>
      <trkpt lat="50.52553" lon="2.35306">
        <ele>111.328156</ele>
        <time>2023-02-09T23:02:34Z</time>
      </trkpt>
      <trkpt lat="50.5253" lon="2.35368">
        <ele>110.75323</ele>
        <time>2023-02-09T23:02:42Z</time>
      </trkpt>
      <trkpt lat="50.52506" lon="2.35424">
        <ele>110.216804</ele>
        <time>2023-02-09T23:02:49Z</time>
      </trkpt>
      <trkpt lat="50.52477" lon="2.35502">
        <ele>109.829206</ele>
        <time>2023-02-09T23:02:59Z</time>
      </trkpt>
      <trkpt lat="50.52429" lon="2.3558">
        <ele>109.546776</ele>
        <time>2023-02-09T23:03:11Z</time>
      </trkpt>
      <trkpt lat="50.52406" lon="2.35633">
        <ele>109.380435</ele>
        <time>2023-02-09T23:03:19Z</time>
      </trkpt>
      <trkpt lat="50.52401" lon="2.35661">
        <ele>109.303893</ele>
        <time>2023-02-09T23:03:22Z</time>
      </trkpt>
      <trkpt lat="50.52403" lon="2.3569">
        <ele>109.268293</ele>
        <time>2023-02-09T23:03:26Z</time>
      </trkpt>
      <trkpt lat="50.52431" lon="2.35764">
        <ele>109.429903</ele>
        <time>2023-02-09T23:03:37Z</time>
      </trkpt>
      <trkpt lat="50.52431" lon="2.35779">
        <ele>109.457097</ele>
        <time>2023-02-09T23:03:39Z</time>
      </trkpt>
      <trkpt lat="50.52437" lon="2.358">
        <ele>109.500412</ele>
        <time>2023-02-09T23:03:43Z</time>
      </trkpt>
      <trkpt lat="50.52467" lon="2.35883">
        <ele>109.680457</ele>
        <time>2023-02-09T23:03:57Z</time>
      </trkpt>
      <trkpt lat="50.5255" lon="2.3595">
        <ele>109.5985</ele>
        <time>2023-02-09T23:04:14Z</time>
      </trkpt>
      <trkpt lat="50.52568" lon="2.35954">
        <ele>109.539107</ele>
        <time>2023-02-09T23:04:20Z</time>
      </trkpt>
      <trkpt lat="50.52565" lon="2.35974">
        <ele>109.497687</ele>
        <time>2023-02-09T23:04:22Z</time>
      </trkpt>
      <trkpt lat="50.52544" lon="2.36025">
        <ele>109.371826</ele>
        <time>2023-02-09T23:04:32Z</time>
      </trkpt>
      <trkpt lat="50.52541" lon="2.36036">
        <ele>109.347904</ele>
        <time>2023-02-09T23:04:35Z</time>
      </trkpt>
      <trkpt lat="50.52543" lon="2.3605">
        <ele>109.319827</ele>
        <time>2023-02-09T23:04:38Z</time>
      </trkpt>
      <trkpt lat="50.52563" lon="2.3612">
        <ele>109.099099</ele>
        <time>2023-02-09T23:04:49Z</time>
      </trkpt>
      <trkpt lat="50.52583" lon="2.3621">
        <ele>108.641466</ele>
        <time>2023-02-09T23:05:02Z</time>
      </trkpt>
      <trkpt lat="50.52594" lon="2.3624">
        <ele>108.472247</ele>
        <time>2023-02-09T23:05:07Z</time>
      </trkpt>
      <trkpt lat="50.52619" lon="2.36294">
        <ele>108.148817</ele>
        <time>2023-02-09T23:05:17Z</time>
      </trkpt>
      <trkpt lat="50.5265" lon="2.364">
        <ele>107.713499</ele>
        <time>2023-02-09T23:05:35Z</time>
      </trkpt>
      <trkpt lat="50.52679" lon="2.36572">
        <ele>107.275909</ele>
        <time>2023-02-09T23:06:05Z</time>
      </trkpt>
      <trkpt lat="50.52692" lon="2.36631">
        <ele>106.981017</ele>
        <time>2023-02-09T23:06:14Z</time>
      </trkpt>
      <trkpt lat="50.5272" lon="2.36714">
        <ele>105.496344</ele>
        <time>2023-02-09T23:06:26Z</time>
      </trkpt>
      <trkpt lat="50.52672" lon="2.36744">
        <ele>104.21901</ele>
        <time>2023-02-09T23:06:35Z</time>
      </trkpt>
      <trkpt lat="50.52656" lon="2.36749">
        <ele>103.82977</ele>
        <time>2023-02-09T23:06:37Z</time>
      </trkpt>
      <trkpt lat="50.52614" lon="2.36722">
        <ele>102.709512</ele>
        <time>2023-02-09T23:06:44Z</time>
      </trkpt>
      <trkpt lat="50.52593" lon="2.36721">
        <ele>102.523692</ele>
        <time>2023-02-09T23:06:47Z</time>
      </trkpt>
      <trkpt lat="50.52572" lon="2.36728">
        <ele>102.348133</ele>
        <time>2023-02-09T23:06:50Z</time>
      </trkpt>
      <trkpt lat="50.52568" lon="2.36729">
        <ele>97.3</ele>
      </trkpt>
      <trkpt lat="50.52564" lon="2.36733">
        <ele>97</ele>
      </trkpt>
      <trkpt lat="50.52561" lon="2.36737">
        <ele>96.8</ele>
      </trkpt>
      <trkpt lat="50.52561" lon="2.36739">
        <ele>96.7</ele>
      </trkpt>
      <trkpt lat="50.52562" lon="2.3674">
        <ele>96.8</ele>
      </trkpt>
      <trkpt lat="50.52564" lon="2.3674">
        <ele>96.9</ele>
      </trkpt>
      <trkpt lat="50.52566" lon="2.3674">
        <ele>97</ele>
      </trkpt>
      <trkpt lat="50.52569" lon="2.3674">
        <ele>97.1</ele>
      </trkpt>
      <trkpt lat="50.52571" lon="2.36741">
        <ele>97.2</ele>
      </trkpt>
      <trkpt lat="50.52572" lon="2.36741">
        <ele>97.3</ele>
      </trkpt>
      <trkpt lat="50.52574" lon="2.36743">
        <ele>97.4</ele>
      </trkpt>
      <trkpt lat="50.52575" lon="2.36745">
        <ele>97.4</ele>
      </trkpt>
      <trkpt lat="50.52575" lon="2.36747">
        <ele>97.4</ele>
      </trkpt>
      <trkpt lat="50.52576" lon="2.36749">
        <ele>97.4</ele>
      </trkpt>
      <trkpt lat="50.52576" lon="2.36752">
        <ele>97.5</ele>
      </trkpt>
      <trkpt lat="50.52576" lon="2.36756">
        <ele>97.5</ele>
      </trkpt>
      <trkpt lat="50.52577" lon="2.36758">
        <ele>97.5</ele>
      </trkpt>
      <trkpt lat="50.52577" lon="2.36761">
        <ele>97.5</ele>
      </trkpt>
      <trkpt lat="50.52577" lon="2.36766">
        <ele>97.6</ele>
      </trkpt>
      <trkpt lat="50.52578" lon="2.36768">
        <ele>97.6</ele>
      </trkpt>
      <trkpt lat="50.52578" lon="2.36772">
        <ele>97.6</ele>
      </trkpt>
      <trkpt lat="50.52577" lon="2.36775">
        <ele>97.6</ele>
      </trkpt>
      <trkpt lat="50.52578" lon="2.36777">
        <ele>97.6</ele>
      </trkpt>
      <trkpt lat="50.52578" lon="2.36779">
        <ele>97.6</ele>
      </trkpt>
      <trkpt lat="50.52578" lon="2.36782">
        <ele>97.5</ele>
      </trkpt>
      <trkpt lat="50.52578" lon="2.36784">
        <ele>97.4</ele>
      </trkpt>
      <trkpt lat="50.52579" lon="2.36788">
        <ele>97.3</ele>
      </trkpt>
      <trkpt lat="50.52579" lon="2.36793">
        <ele>97.1</ele>
      </trkpt>
      <trkpt lat="50.52579" lon="2.36795">
        <ele>97.1</ele>
      </trkpt>
      <trkpt lat="50.52581" lon="2.36826">
        <ele>101.818555</ele>
        <time>2023-02-09T23:07:07Z</time>
      </trkpt>
      <trkpt lat="50.52581" lon="2.36845">
        <ele>96.8</ele>
      </trkpt>
      <trkpt lat="50.52588" lon="2.36891">
        <ele>101.465841</ele>
        <time>2023-02-09T23:07:22Z</time>
      </trkpt>
      <trkpt lat="50.52596" lon="2.36946">
        <ele>100.7</ele>
      </trkpt>
      <trkpt lat="50.52596" lon="2.36958">
        <ele>100.6</ele>
      </trkpt>
      <trkpt lat="50.52597" lon="2.36964">
        <ele>100.5</ele>
      </trkpt>
      <trkpt lat="50.52594" lon="2.36969">
        <ele>99.9</ele>
      </trkpt>
      <trkpt lat="50.52604" lon="2.36996">
        <ele>102.965218</ele>
        <time>2023-02-09T23:07:52Z</time>
      </trkpt>
      <trkpt lat="50.52625" lon="2.37074">
        <ele>105.668343</ele>
        <time>2023-02-09T23:08:18Z</time>
      </trkpt>
      <trkpt lat="50.52635" lon="2.37101">
        <ele>106.689645</ele>
        <time>2023-02-09T23:08:27Z</time>
      </trkpt>
      <trkpt lat="50.52639" lon="2.3711">
        <ele>107.021948</ele>
        <time>2023-02-09T23:08:31Z</time>
      </trkpt>
      <trkpt lat="50.52656" lon="2.37133">
        <ele>108.165694</ele>
        <time>2023-02-09T23:08:42Z</time>
      </trkpt>
      <trkpt lat="50.52731" lon="2.37153">
        <ele>111.867326</ele>
        <time>2023-02-09T23:09:23Z</time>
      </trkpt>
      <trkpt lat="50.52736" lon="2.37156">
        <ele>119.2</ele>
      </trkpt>
      <trkpt lat="50.52736" lon="2.37171">
        <ele>119.1</ele>
      </trkpt>
      <trkpt lat="50.52745" lon="2.37236">
        <ele>114.429164</ele>
        <time>2023-02-09T23:09:51Z</time>
      </trkpt>
      <trkpt lat="50.52785" lon="2.37476">
        <ele>118.859827</ele>
        <time>2023-02-09T23:10:48Z</time>
      </trkpt>
      <trkpt lat="50.52803" lon="2.37564">
        <ele>119.03818</ele>
        <time>2023-02-09T23:10:59Z</time>
      </trkpt>
      <trkpt lat="50.52821" lon="2.37683">
        <ele>118.342136</ele>
        <time>2023-02-09T23:11:11Z</time>
      </trkpt>
      <trkpt lat="50.53003" lon="2.38123">
        <ele>106.049924</ele>
        <time>2023-02-09T23:12:01Z</time>
      </trkpt>
      <trkpt lat="50.53043" lon="2.38249">
        <ele>104.034229</ele>
        <time>2023-02-09T23:12:15Z</time>
      </trkpt>
      <trkpt lat="50.53144" lon="2.38497">
        <ele>99.830541</ele>
        <time>2023-02-09T23:12:47Z</time>
      </trkpt>
      <trkpt lat="50.53153" lon="2.38528">
        <ele>99.33682</ele>
        <time>2023-02-09T23:12:50Z</time>
      </trkpt>
      <trkpt lat="50.53173" lon="2.3858">
        <ele>98.478959</ele>
        <time>2023-02-09T23:12:56Z</time>
      </trkpt>
      <trkpt lat="50.53175" lon="2.38587">
        <ele>98.7</ele>
      </trkpt>
      <trkpt lat="50.5318" lon="2.38592">
        <ele>98.5</ele>
      </trkpt>
      <trkpt lat="50.53201" lon="2.38598">
        <ele>97.554384</ele>
        <time>2023-02-09T23:13:03Z</time>
      </trkpt>
      <trkpt lat="50.53209" lon="2.38607">
        <ele>97.092022</ele>
        <time>2023-02-09T23:13:05Z</time>
      </trkpt>
      <trkpt lat="50.53231" lon="2.38669">
        <ele>94.932086</ele>
        <time>2023-02-09T23:13:14Z</time>
      </trkpt>
      <trkpt lat="50.53227" lon="2.38676">
        <ele>94.653894</ele>
        <time>2023-02-09T23:13:15Z</time>
      </trkpt>
      <trkpt lat="50.53225" lon="2.38699">
        <ele>93.957311</ele>
        <time>2023-02-09T23:13:18Z</time>
      </trkpt>
      <trkpt lat="50.5324" lon="2.38794">
        <ele>90.997037</ele>
        <time>2023-02-09T23:13:29Z</time>
      </trkpt>
      <trkpt lat="50.53242" lon="2.38835">
        <ele>89.730975</ele>
        <time>2023-02-09T23:13:34Z</time>
      </trkpt>
      <trkpt lat="50.53241" lon="2.38891">
        <ele>87.80301</ele>
        <time>2023-02-09T23:13:40Z</time>
      </trkpt>
      <trkpt lat="50.53239" lon="2.38908">
        <ele>87.168567</ele>
        <time>2023-02-09T23:13:42Z</time>
      </trkpt>
      <trkpt lat="50.532" lon="2.39061">
        <ele>81.269147</ele>
        <time>2023-02-09T23:14:00Z</time>
      </trkpt>
      <trkpt lat="50.53165" lon="2.39099">
        <ele>79.18064</ele>
        <time>2023-02-09T23:14:06Z</time>
      </trkpt>
      <trkpt lat="50.53139" lon="2.39155">
        <ele>79.005119</ele>
        <time>2023-02-09T23:14:13Z</time>
      </trkpt>
      <trkpt lat="50.53132" lon="2.39159">
        <ele>78.974774</ele>
        <time>2023-02-09T23:14:14Z</time>
      </trkpt>
      <trkpt lat="50.53118" lon="2.39175">
        <ele>78.907432</ele>
        <time>2023-02-09T23:14:17Z</time>
      </trkpt>
      <trkpt lat="50.53074" lon="2.39125">
        <ele>78.6909</ele>
        <time>2023-02-09T23:14:28Z</time>
      </trkpt>
      <trkpt lat="50.53055" lon="2.39103">
        <ele>78.598238</ele>
        <time>2023-02-09T23:14:35Z</time>
      </trkpt>
      <trkpt lat="50.53008" lon="2.3906">
        <ele>79.469592</ele>
        <time>2023-02-09T23:14:55Z</time>
      </trkpt>
      <trkpt lat="50.52997" lon="2.39049">
        <ele>71.9</ele>
      </trkpt>
      <trkpt lat="50.52985" lon="2.3903">
        <ele>71.7</ele>
      </trkpt>
      <trkpt lat="50.52974" lon="2.39012">
        <ele>71.9</ele>
      </trkpt>
      <trkpt lat="50.52966" lon="2.38997">
        <ele>72.5</ele>
      </trkpt>
      <trkpt lat="50.52958" lon="2.38985">
        <ele>72.8</ele>
      </trkpt>
      <trkpt lat="50.52953" lon="2.38979">
        <ele>72.9</ele>
      </trkpt>
      <trkpt lat="50.52948" lon="2.38972">
        <ele>72.9</ele>
      </trkpt>
      <trkpt lat="50.52945" lon="2.38975">
        <ele>73.1</ele>
      </trkpt>
      <trkpt lat="50.52941" lon="2.38986">
        <ele>74</ele>
      </trkpt>
      <trkpt lat="50.5294" lon="2.38993">
        <ele>74.6</ele>
      </trkpt>
      <trkpt lat="50.52937" lon="2.38999">
        <ele>75.2</ele>
      </trkpt>
      <trkpt lat="50.52933" lon="2.39005">
        <ele>76.7</ele>
      </trkpt>
      <trkpt lat="50.52929" lon="2.39008">
        <ele>77.8</ele>
      </trkpt>
      <trkpt lat="50.52924" lon="2.39011">
        <ele>79</ele>
      </trkpt>
      <trkpt lat="50.52919" lon="2.39012">
        <ele>80.1</ele>
      </trkpt>
      <trkpt lat="50.52915" lon="2.3901">
        <ele>80.8</ele>
      </trkpt>
      <trkpt lat="50.52912" lon="2.39004">
        <ele>80.8</ele>
      </trkpt>
      <trkpt lat="50.52907" lon="2.38999">
        <ele>81.8</ele>
      </trkpt>
      <trkpt lat="50.52903" lon="2.38996">
        <ele>82.4</ele>
      </trkpt>
      <trkpt lat="50.52898" lon="2.38995">
        <ele>83.9</ele>
      </trkpt>
      <trkpt lat="50.52894" lon="2.38995">
        <ele>85</ele>
      </trkpt>
      <trkpt lat="50.52886" lon="2.38998">
        <ele>86.9</ele>
      </trkpt>
      <trkpt lat="50.52881" lon="2.39003">
        <ele>87.8</ele>
      </trkpt>
      <trkpt lat="50.52878" lon="2.39005">
        <ele>88.1</ele>
      </trkpt>
      <trkpt lat="50.52878" lon="2.39008">
        <ele>88.3</ele>
      </trkpt>
      <trkpt lat="50.52882" lon="2.39008">
        <ele>88</ele>
      </trkpt>
      <trkpt lat="50.52891" lon="2.39011">
        <ele>87.1</ele>
      </trkpt>
      <trkpt lat="50.52901" lon="2.39032">
        <ele>85.189408</ele>
        <time>2023-02-09T23:16:12Z</time>
      </trkpt>
      <trkpt lat="50.52912" lon="2.39049">
        <ele>85.355028</ele>
        <time>2023-02-09T23:16:18Z</time>
      </trkpt>
      <trkpt lat="50.52931" lon="2.39074">
        <ele>85.621288</ele>
        <time>2023-02-09T23:16:29Z</time>
      </trkpt>
      <trkpt lat="50.52944" lon="2.39089">
        <ele>85.793048</ele>
        <time>2023-02-09T23:16:36Z</time>
      </trkpt>
      <trkpt lat="50.52943" lon="2.3909">
        <ele>85.802382</ele>
        <time>2023-02-09T23:16:36Z</time>
      </trkpt>
      <trkpt lat="50.52953" lon="2.39103">
        <ele>82.4</ele>
      </trkpt>
      <trkpt lat="50.52971" lon="2.3914">
        <ele>82.3</ele>
      </trkpt>
      <trkpt lat="50.52984" lon="2.39203">
        <ele>84.2</ele>
      </trkpt>
      <trkpt lat="50.53005" lon="2.39279">
        <ele>85.639153</ele>
        <time>2023-02-09T23:17:04Z</time>
      </trkpt>
      <trkpt lat="50.53007" lon="2.39289">
        <ele>85.463969</ele>
        <time>2023-02-09T23:17:05Z</time>
      </trkpt>
      <trkpt lat="50.53026" lon="2.39364">
        <ele>84.076883</ele>
        <time>2023-02-09T23:17:13Z</time>
      </trkpt>
      <trkpt lat="50.53029" lon="2.39387">
        <ele>83.682744</ele>
        <time>2023-02-09T23:17:15Z</time>
      </trkpt>
      <trkpt lat="50.53018" lon="2.39422">
        <ele>83.032717</ele>
        <time>2023-02-09T23:17:19Z</time>
      </trkpt>
      <trkpt lat="50.53008" lon="2.3944">
        <ele>82.616825</ele>
        <time>2023-02-09T23:17:21Z</time>
      </trkpt>
      <trkpt lat="50.5298" lon="2.39485">
        <ele>81.690917</ele>
        <time>2023-02-09T23:17:27Z</time>
      </trkpt>
      <trkpt lat="50.52963" lon="2.39505">
        <ele>81.29135</ele>
        <time>2023-02-09T23:17:30Z</time>
      </trkpt>
      <trkpt lat="50.52925" lon="2.39561">
        <ele>80.323354</ele>
        <time>2023-02-09T23:17:38Z</time>
      </trkpt>
      <trkpt lat="50.52904" lon="2.39598">
        <ele>79.741936</ele>
        <time>2023-02-09T23:17:43Z</time>
      </trkpt>
      <trkpt lat="50.52884" lon="2.3968">
        <ele>78.699826</ele>
        <time>2023-02-09T23:17:58Z</time>
      </trkpt>
      <trkpt lat="50.52859" lon="2.39745">
        <ele>80.463406</ele>
        <time>2023-02-09T23:18:12Z</time>
      </trkpt>
      <trkpt lat="50.52831" lon="2.3981">
        <ele>82.424458</ele>
        <time>2023-02-09T23:18:30Z</time>
      </trkpt>
      <trkpt lat="50.52823" lon="2.39817">
        <ele>82.777313</ele>
        <time>2023-02-09T23:18:37Z</time>
      </trkpt>
      <trkpt lat="50.52807" lon="2.39839">
        <ele>83.610727</ele>
        <time>2023-02-09T23:18:45Z</time>
      </trkpt>
      <trkpt lat="50.52794" lon="2.39849">
        <ele>84.183717</ele>
        <time>2023-02-09T23:18:54Z</time>
      </trkpt>
      <trkpt lat="50.52749" lon="2.39862">
        <ele>86.001502</ele>
        <time>2023-02-09T23:19:15Z</time>
      </trkpt>
      <trkpt lat="50.52676" lon="2.39867">
        <ele>89.041174</ele>
        <time>2023-02-09T23:19:50Z</time>
      </trkpt>
      <trkpt lat="50.52642" lon="2.39867">
        <ele>86.8</ele>
      </trkpt>
      <trkpt lat="50.52612" lon="2.39873">
        <ele>88.6</ele>
      </trkpt>
      <trkpt lat="50.5259" lon="2.39881">
        <ele>90.4</ele>
      </trkpt>
      <trkpt lat="50.52555" lon="2.39902">
        <ele>92.3</ele>
      </trkpt>
      <trkpt lat="50.52538" lon="2.39913">
        <ele>93.7</ele>
      </trkpt>
      <trkpt lat="50.52523" lon="2.39929">
        <ele>95.017156</ele>
        <time>2023-02-09T23:20:47Z</time>
      </trkpt>
      <trkpt lat="50.52425" lon="2.40012">
        <ele>98.330171</ele>
        <time>2023-02-09T23:21:26Z</time>
      </trkpt>
      <trkpt lat="50.52383" lon="2.40039">
        <ele>101.4</ele>
      </trkpt>
      <trkpt lat="50.52345" lon="2.40061">
        <ele>102.7</ele>
      </trkpt>
      <trkpt lat="50.52318" lon="2.40077">
        <ele>103.4</ele>
      </trkpt>
      <trkpt lat="50.52241" lon="2.40112">
        <ele>104.165443</ele>
        <time>2023-02-09T23:22:35Z</time>
      </trkpt>
      <trkpt lat="50.52208" lon="2.40126">
        <ele>104.988808</ele>
        <time>2023-02-09T23:22:47Z</time>
      </trkpt>
      <trkpt lat="50.52132" lon="2.40167">
        <ele>106.924483</ele>
        <time>2023-02-09T23:23:13Z</time>
      </trkpt>
      <trkpt lat="50.52021" lon="2.40259">
        <ele>109.5</ele>
      </trkpt>
      <trkpt lat="50.51995" lon="2.40219">
        <ele>109.484406</ele>
        <time>2023-02-09T23:24:03Z</time>
      </trkpt>
      <trkpt lat="50.51948" lon="2.40154">
        <ele>110.217639</ele>
        <time>2023-02-09T23:24:25Z</time>
      </trkpt>
      <trkpt lat="50.51917" lon="2.40123">
        <ele>110.411161</ele>
        <time>2023-02-09T23:24:37Z</time>
      </trkpt>
      <trkpt lat="50.51875" lon="2.401">
        <ele>110.325752</ele>
        <time>2023-02-09T23:24:52Z</time>
      </trkpt>
      <trkpt lat="50.51847" lon="2.40088">
        <ele>110.269601</ele>
        <time>2023-02-09T23:25:01Z</time>
      </trkpt>
      <trkpt lat="50.51778" lon="2.40079">
        <ele>110.137782</ele>
        <time>2023-02-09T23:25:22Z</time>
      </trkpt>
      <trkpt lat="50.51765" lon="2.40074">
        <ele>110.111348</ele>
        <time>2023-02-09T23:25:27Z</time>
      </trkpt>
      <trkpt lat="50.51751" lon="2.40062">
        <ele>109.977622</ele>
        <time>2023-02-09T23:25:31Z</time>
      </trkpt>
      <trkpt lat="50.51717" lon="2.39993">
        <ele>109.286226</ele>
        <time>2023-02-09T23:25:47Z</time>
      </trkpt>
      <trkpt lat="50.51675" lon="2.39928">
        <ele>108.545295</ele>
        <time>2023-02-09T23:26:04Z</time>
      </trkpt>
      <trkpt lat="50.51606" lon="2.39839">
        <ele>107.15043</ele>
        <time>2023-02-09T23:26:29Z</time>
      </trkpt>
      <trkpt lat="50.51517" lon="2.39753">
        <ele>104.954077</ele>
        <time>2023-02-09T23:26:57Z</time>
      </trkpt>
      <trkpt lat="50.51504" lon="2.39656">
        <ele>103.785175</ele>
        <time>2023-02-09T23:27:14Z</time>
      </trkpt>
      <trkpt lat="50.515" lon="2.39642">
        <ele>103.643489</ele>
        <time>2023-02-09T23:27:17Z</time>
      </trkpt>
      <trkpt lat="50.51486" lon="2.39627">
        <ele>103.413837</ele>
        <time>2023-02-09T23:27:21Z</time>
      </trkpt>
      <trkpt lat="50.5148" lon="2.39615">
        <ele>103.28121</ele>
        <time>2023-02-09T23:27:24Z</time>
      </trkpt>
      <trkpt lat="50.51481" lon="2.3961">
        <ele>103.239857</ele>
        <time>2023-02-09T23:27:25Z</time>
      </trkpt>
      <trkpt lat="50.51427" lon="2.39501">
        <ele>102.038392</ele>
        <time>2023-02-09T23:27:50Z</time>
      </trkpt>
      <trkpt lat="50.5137" lon="2.39374">
        <ele>102.549876</ele>
        <time>2023-02-09T23:28:23Z</time>
      </trkpt>
      <trkpt lat="50.51348" lon="2.39318">
        <ele>103.144527</ele>
        <time>2023-02-09T23:28:40Z</time>
      </trkpt>
      <trkpt lat="50.51301" lon="2.3924">
        <ele>104.100532</ele>
        <time>2023-02-09T23:29:10Z</time>
      </trkpt>
      <trkpt lat="50.51276" lon="2.39204">
        <ele>104.672438</ele>
        <time>2023-02-09T23:29:25Z</time>
      </trkpt>
      <trkpt lat="50.51239" lon="2.3916">
        <ele>105.459187</ele>
        <time>2023-02-09T23:29:45Z</time>
      </trkpt>
      <trkpt lat="50.51226" lon="2.39144">
        <ele>105.745466</ele>
        <time>2023-02-09T23:29:52Z</time>
      </trkpt>
      <trkpt lat="50.51172" lon="2.39109">
        <ele>106.751063</ele>
        <time>2023-02-09T23:30:14Z</time>
      </trkpt>
      <trkpt lat="50.51147" lon="2.39089">
        <ele>107.223735</ele>
        <time>2023-02-09T23:30:23Z</time>
      </trkpt>
      <trkpt lat="50.51113" lon="2.39059">
        <ele>107.739642</ele>
        <time>2023-02-09T23:30:38Z</time>
      </trkpt>
      <trkpt lat="50.51103" lon="2.39045">
        <ele>107.921082</ele>
        <time>2023-02-09T23:30:44Z</time>
      </trkpt>
      <trkpt lat="50.51101" lon="2.39042">
        <ele>100.9</ele>
      </trkpt>
      <trkpt lat="50.51092" lon="2.39044">
        <ele>101.1</ele>
      </trkpt>
      <trkpt lat="50.51081" lon="2.39044">
        <ele>101.4</ele>
      </trkpt>
      <trkpt lat="50.51071" lon="2.39058">
        <ele>101.1</ele>
      </trkpt>
      <trkpt lat="50.51063" lon="2.39064">
        <ele>101.5</ele>
      </trkpt>
      <trkpt lat="50.5104" lon="2.39072">
        <ele>103</ele>
      </trkpt>
      <trkpt lat="50.51021" lon="2.3908">
        <ele>104.1</ele>
      </trkpt>
      <trkpt lat="50.51003" lon="2.3909">
        <ele>105.9</ele>
      </trkpt>
      <trkpt lat="50.50989" lon="2.39103">
        <ele>108.3</ele>
      </trkpt>
      <trkpt lat="50.50975" lon="2.39118">
        <ele>110.7</ele>
      </trkpt>
      <trkpt lat="50.50951" lon="2.39152">
        <ele>113.6</ele>
      </trkpt>
      <trkpt lat="50.50931" lon="2.3917">
        <ele>114.8</ele>
      </trkpt>
      <trkpt lat="50.50885" lon="2.39205">
        <ele>116.4</ele>
      </trkpt>
      <trkpt lat="50.50855" lon="2.39236">
        <ele>117.2</ele>
      </trkpt>
      <trkpt lat="50.50836" lon="2.39257">
        <ele>117.9</ele>
      </trkpt>
      <trkpt lat="50.5078" lon="2.39304">
        <ele>120.9</ele>
      </trkpt>
      <trkpt lat="50.50719" lon="2.39349">
        <ele>124.5</ele>
      </trkpt>
      <trkpt lat="50.50697" lon="2.39367">
        <ele>124.8</ele>
      </trkpt>
      <trkpt lat="50.5068" lon="2.39367">
        <ele>124.5</ele>
      </trkpt>
      <trkpt lat="50.50674" lon="2.39376">
        <ele>125.2</ele>
      </trkpt>
      <trkpt lat="50.50667" lon="2.39383">
        <ele>125.6</ele>
      </trkpt>
      <trkpt lat="50.50636" lon="2.39397">
        <ele>126.6</ele>
      </trkpt>
      <trkpt lat="50.50647" lon="2.39423">
        <ele>127.9</ele>
      </trkpt>
      <trkpt lat="50.50667" lon="2.39455">
        <ele>129.1</ele>
      </trkpt>
      <trkpt lat="50.50685" lon="2.39486">
        <ele>131.5</ele>
      </trkpt>
      <trkpt lat="50.5071" lon="2.39538">
        <ele>131.7</ele>
      </trkpt>
      <trkpt lat="50.50723" lon="2.39573">
        <ele>131</ele>
      </trkpt>
      <trkpt lat="50.50736" lon="2.39611">
        <ele>130.5</ele>
      </trkpt>
      <trkpt lat="50.50716" lon="2.39769">
        <ele>130</ele>
      </trkpt>
      <trkpt lat="50.50718" lon="2.39773">
        <ele>130</ele>
      </trkpt>
      <trkpt lat="50.50732" lon="2.39773">
        <ele>129.521443</ele>
        <time>2023-02-10T00:35:58Z</time>
      </trkpt>
      <trkpt lat="50.50787" lon="2.39782">
        <ele>127.1</ele>
      </trkpt>
      <trkpt lat="50.50818" lon="2.39779">
        <ele>127.869517</ele>
        <time>2023-02-10T00:36:11Z</time>
      </trkpt>
      <trkpt lat="50.50835" lon="2.39794">
        <ele>127.497569</ele>
        <time>2023-02-10T00:36:14Z</time>
      </trkpt>
      <trkpt lat="50.50852" lon="2.3984">
        <ele>126.592231</ele>
        <time>2023-02-10T00:36:23Z</time>
      </trkpt>
      <trkpt lat="50.50888" lon="2.39913">
        <ele>125.057642</ele>
        <time>2023-02-10T00:36:39Z</time>
      </trkpt>
      <trkpt lat="50.50908" lon="2.39983">
        <ele>123.74786</ele>
        <time>2023-02-10T00:36:52Z</time>
      </trkpt>
      <trkpt lat="50.50959" lon="2.4021">
        <ele>120.36419</ele>
        <time>2023-02-10T00:37:33Z</time>
      </trkpt>
      <trkpt lat="50.50957" lon="2.40211">
        <ele>120.328875</ele>
        <time>2023-02-10T00:37:34Z</time>
      </trkpt>
      <trkpt lat="50.5098" lon="2.40313">
        <ele>118.922344</ele>
        <time>2023-02-10T00:38:03Z</time>
      </trkpt>
      <trkpt lat="50.51019" lon="2.40475">
        <ele>117</ele>
      </trkpt>
      <trkpt lat="50.51036" lon="2.4055">
        <ele>116.1</ele>
      </trkpt>
      <trkpt lat="50.51075" lon="2.40757">
        <ele>114.638932</ele>
        <time>2023-02-10T00:40:11Z</time>
      </trkpt>
      <trkpt lat="50.51079" lon="2.40787">
        <ele>114.406816</ele>
        <time>2023-02-10T00:40:17Z</time>
      </trkpt>
      <trkpt lat="50.51077" lon="2.40801">
        <ele>114.301009</ele>
        <time>2023-02-10T00:40:20Z</time>
      </trkpt>
      <trkpt lat="50.51104" lon="2.40852">
        <ele>113.93432</ele>
        <time>2023-02-10T00:40:27Z</time>
      </trkpt>
      <trkpt lat="50.51115" lon="2.40864">
        <ele>113.872175</ele>
        <time>2023-02-10T00:40:29Z</time>
      </trkpt>
      <trkpt lat="50.51197" lon="2.40924">
        <ele>113.482825</ele>
        <time>2023-02-10T00:40:46Z</time>
      </trkpt>
      <trkpt lat="50.51215" lon="2.40945">
        <ele>113.384502</ele>
        <time>2023-02-10T00:40:50Z</time>
      </trkpt>
      <trkpt lat="50.51259" lon="2.41015">
        <ele>113.211678</ele>
        <time>2023-02-10T00:41:01Z</time>
      </trkpt>
      <trkpt lat="50.51348" lon="2.41167">
        <ele>114</ele>
      </trkpt>
      <trkpt lat="50.51338" lon="2.41172">
        <ele>114.2</ele>
      </trkpt>
      <trkpt lat="50.51312" lon="2.41162">
        <ele>114.8</ele>
      </trkpt>
      <trkpt lat="50.51272" lon="2.41136">
        <ele>114.3</ele>
      </trkpt>
      <trkpt lat="50.51233" lon="2.41134">
        <ele>115</ele>
      </trkpt>
      <trkpt lat="50.51189" lon="2.41142">
        <ele>115</ele>
      </trkpt>
      <trkpt lat="50.5116" lon="2.4115">
        <ele>114.4</ele>
      </trkpt>
      <trkpt lat="50.51142" lon="2.41158">
        <ele>114</ele>
      </trkpt>
      <trkpt lat="50.51184" lon="2.41318">
        <ele>113</ele>
      </trkpt>
      <trkpt lat="50.51315" lon="2.41738">
        <ele>110.8</ele>
      </trkpt>
      <trkpt lat="50.51436" lon="2.42008">
        <ele>110.2</ele>
      </trkpt>
      <trkpt lat="50.51492" lon="2.42135">
        <ele>109.3</ele>
      </trkpt>
      <trkpt lat="50.51523" lon="2.42204">
        <ele>109.1</ele>
      </trkpt>
      <trkpt lat="50.5155" lon="2.42266">
        <ele>109</ele>
      </trkpt>
      <trkpt lat="50.51583" lon="2.4234">
        <ele>108</ele>
      </trkpt>
      <trkpt lat="50.51588" lon="2.42342">
        <ele>108</ele>
      </trkpt>
      <trkpt lat="50.516" lon="2.42339">
        <ele>108</ele>
      </trkpt>
      <trkpt lat="50.51637" lon="2.42404">
        <ele>107.1</ele>
      </trkpt>
      <trkpt lat="50.51667" lon="2.42453">
        <ele>107</ele>
      </trkpt>
      <trkpt lat="50.51722" lon="2.42553">
        <ele>106</ele>
      </trkpt>
      <trkpt lat="50.51759" lon="2.42615">
        <ele>105</ele>
      </trkpt>
      <trkpt lat="50.51657" lon="2.42754">
        <ele>105.3</ele>
      </trkpt>
      <trkpt lat="50.5162" lon="2.42806">
        <ele>105</ele>
      </trkpt>
      <trkpt lat="50.51747" lon="2.43075">
        <ele>102</ele>
      </trkpt>
      <trkpt lat="50.51809" lon="2.43197">
        <ele>99.9</ele>
      </trkpt>
      <trkpt lat="50.51831" lon="2.43242">
        <ele>99</ele>
      </trkpt>
      <trkpt lat="50.51778" lon="2.43291">
        <ele>98.5</ele>
      </trkpt>
      <trkpt lat="50.51766" lon="2.43301">
        <ele>98.1</ele>
      </trkpt>
      <trkpt lat="50.51739" lon="2.43343">
        <ele>96.7</ele>
      </trkpt>
      <trkpt lat="50.51715" lon="2.43384">
        <ele>94.9</ele>
      </trkpt>
      <trkpt lat="50.51697" lon="2.43418">
        <ele>93.1</ele>
      </trkpt>
      <trkpt lat="50.5164" lon="2.43494">
        <ele>86.3</ele>
      </trkpt>
      <trkpt lat="50.51616" lon="2.43534">
        <ele>84.1</ele>
      </trkpt>
      <trkpt lat="50.51612" lon="2.43544">
        <ele>84</ele>
      </trkpt>
      <trkpt lat="50.51614" lon="2.43554">
        <ele>84</ele>
      </trkpt>
      <trkpt lat="50.51626" lon="2.4358">
        <ele>83.1</ele>
      </trkpt>
      <trkpt lat="50.5165" lon="2.43631">
        <ele>82.3</ele>
      </trkpt>
      <trkpt lat="50.51665" lon="2.43674">
        <ele>81.4</ele>
      </trkpt>
      <trkpt lat="50.51676" lon="2.43686">
        <ele>81.7</ele>
      </trkpt>
      <trkpt lat="50.51682" lon="2.43697">
        <ele>82.2</ele>
      </trkpt>
      <trkpt lat="50.51706" lon="2.43712">
        <ele>82</ele>
      </trkpt>
      <trkpt lat="50.5172" lon="2.43733">
        <ele>82</ele>
      </trkpt>
      <trkpt lat="50.51759" lon="2.43782">
        <ele>83.6</ele>
      </trkpt>
      <trkpt lat="50.51798" lon="2.43829">
        <ele>82.6</ele>
      </trkpt>
      <trkpt lat="50.5184" lon="2.43874">
        <ele>81.7</ele>
      </trkpt>
      <trkpt lat="50.51866" lon="2.43902">
        <ele>80.9</ele>
      </trkpt>
      <trkpt lat="50.51877" lon="2.4392">
        <ele>80.4</ele>
      </trkpt>
      <trkpt lat="50.51908" lon="2.43967">
        <ele>80.1</ele>
      </trkpt>
      <trkpt lat="50.5194" lon="2.44018">
        <ele>80.2</ele>
      </trkpt>
      <trkpt lat="50.51961" lon="2.44051">
        <ele>80.9</ele>
      </trkpt>
      <trkpt lat="50.5198" lon="2.44073">
        <ele>81.4</ele>
      </trkpt>
      <trkpt lat="50.51992" lon="2.44082">
        <ele>81.7</ele>
      </trkpt>
      <trkpt lat="50.52008" lon="2.44084">
        <ele>82.6</ele>
      </trkpt>
      <trkpt lat="50.52023" lon="2.44107">
        <ele>83.5</ele>
      </trkpt>
      <trkpt lat="50.52033" lon="2.44126">
        <ele>85.2</ele>
      </trkpt>
      <trkpt lat="50.52035" lon="2.44133">
        <ele>85.6</ele>
      </trkpt>
      <trkpt lat="50.52037" lon="2.44136">
        <ele>85.9</ele>
      </trkpt>
      <trkpt lat="50.52039" lon="2.44139">
        <ele>86.3</ele>
      </trkpt>
      <trkpt lat="50.52042" lon="2.44142">
        <ele>86.7</ele>
      </trkpt>
      <trkpt lat="50.52046" lon="2.44141">
        <ele>87</ele>
      </trkpt>
      <trkpt lat="50.52048" lon="2.44139">
        <ele>87.2</ele>
      </trkpt>
      <trkpt lat="50.5205" lon="2.44136">
        <ele>87.3</ele>
      </trkpt>
      <trkpt lat="50.52053" lon="2.44134">
        <ele>87.5</ele>
      </trkpt>
      <trkpt lat="50.52056" lon="2.44133">
        <ele>87.8</ele>
      </trkpt>
      <trkpt lat="50.52058" lon="2.44131">
        <ele>87.7</ele>
      </trkpt>
      <trkpt lat="50.52062" lon="2.4413">
        <ele>87.8</ele>
      </trkpt>
      <trkpt lat="50.52065" lon="2.44132">
        <ele>87.8</ele>
      </trkpt>
      <trkpt lat="50.52067" lon="2.44135">
        <ele>87.9</ele>
      </trkpt>
      <trkpt lat="50.52089" lon="2.44142">
        <ele>88</ele>
      </trkpt>
      <trkpt lat="50.52103" lon="2.44096">
        <ele>88</ele>
      </trkpt>
      <trkpt lat="50.52117" lon="2.44056">
        <ele>88</ele>
      </trkpt>
      <trkpt lat="50.52137" lon="2.4402">
        <ele>88</ele>
      </trkpt>
      <trkpt lat="50.52161" lon="2.43985">
        <ele>88</ele>
      </trkpt>
      <trkpt lat="50.52196" lon="2.43954">
        <ele>88</ele>
      </trkpt>
      <trkpt lat="50.52238" lon="2.4394">
        <ele>88.2</ele>
      </trkpt>
      <trkpt lat="50.52267" lon="2.43937">
        <ele>88.3</ele>
      </trkpt>
      <trkpt lat="50.52358" lon="2.43939">
        <ele>87</ele>
      </trkpt>
      <trkpt lat="50.5237" lon="2.43964">
        <ele>87</ele>
      </trkpt>
      <trkpt lat="50.52447" lon="2.44094">
        <ele>85.1</ele>
      </trkpt>
      <trkpt lat="50.52565" lon="2.44263">
        <ele>84.7</ele>
      </trkpt>
      <trkpt lat="50.52809" lon="2.44528">
        <ele>80</ele>
      </trkpt>
      <trkpt lat="50.52864" lon="2.44591">
        <ele>78.3</ele>
      </trkpt>
      <trkpt lat="50.52922" lon="2.44644">
        <ele>76.9</ele>
      </trkpt>
      <trkpt lat="50.5296" lon="2.44678">
        <ele>75.7</ele>
      </trkpt>
      <trkpt lat="50.53002" lon="2.44718">
        <ele>74.9</ele>
      </trkpt>
      <trkpt lat="50.53094" lon="2.44805">
        <ele>73</ele>
      </trkpt>
      <trkpt lat="50.53174" lon="2.44877">
        <ele>71.1</ele>
      </trkpt>
      <trkpt lat="50.53215" lon="2.44912">
        <ele>70.7</ele>
      </trkpt>
      <trkpt lat="50.53234" lon="2.44924">
        <ele>70.9</ele>
      </trkpt>
      <trkpt lat="50.53248" lon="2.44929">
        <ele>71.1</ele>
      </trkpt>
      <trkpt lat="50.53271" lon="2.44936">
        <ele>71.3</ele>
      </trkpt>
      <trkpt lat="50.53307" lon="2.44942">
        <ele>71.1</ele>
      </trkpt>
      <trkpt lat="50.53327" lon="2.44944">
        <ele>71</ele>
      </trkpt>
      <trkpt lat="50.53363" lon="2.44939">
        <ele>69.4</ele>
      </trkpt>
      <trkpt lat="50.53397" lon="2.44929">
        <ele>68.4</ele>
      </trkpt>
      <trkpt lat="50.53409" lon="2.44922">
        <ele>68.7</ele>
      </trkpt>
      <trkpt lat="50.53475" lon="2.44876">
        <ele>63.7</ele>
      </trkpt>
      <trkpt lat="50.53515" lon="2.44853">
        <ele>60.9</ele>
      </trkpt>
      <trkpt lat="50.53556" lon="2.44842">
        <ele>61.1</ele>
      </trkpt>
      <trkpt lat="50.5358" lon="2.44838">
        <ele>62.3</ele>
      </trkpt>
      <trkpt lat="50.53602" lon="2.44839">
        <ele>63.8</ele>
      </trkpt>
      <trkpt lat="50.53629" lon="2.44845">
        <ele>65.3</ele>
      </trkpt>
      <trkpt lat="50.53696" lon="2.44874">
        <ele>65</ele>
      </trkpt>
      <trkpt lat="50.53874" lon="2.4496">
        <ele>56.9</ele>
      </trkpt>
      <trkpt lat="50.53985" lon="2.45014">
        <ele>57.7</ele>
      </trkpt>
      <trkpt lat="50.54087" lon="2.45065">
        <ele>55.6</ele>
      </trkpt>
      <trkpt lat="50.54174" lon="2.4511">
        <ele>51</ele>
      </trkpt>
      <trkpt lat="50.54199" lon="2.45123">
        <ele>50.9</ele>
      </trkpt>
      <trkpt lat="50.54223" lon="2.4514">
        <ele>52</ele>
      </trkpt>
      <trkpt lat="50.54222" lon="2.45143">
        <ele>51.9</ele>
      </trkpt>
      <trkpt lat="50.54219" lon="2.45145">
        <ele>51.6</ele>
      </trkpt>
      <trkpt lat="50.54217" lon="2.45146">
        <ele>51.3</ele>
      </trkpt>
      <trkpt lat="50.54213" lon="2.45144">
        <ele>51.1</ele>
      </trkpt>
      <trkpt lat="50.5421" lon="2.45144">
        <ele>50.9</ele>
      </trkpt>
      <trkpt lat="50.54207" lon="2.45143">
        <ele>50.8</ele>
      </trkpt>
      <trkpt lat="50.54204" lon="2.45142">
        <ele>50.6</ele>
      </trkpt>
      <trkpt lat="50.542" lon="2.45142">
        <ele>50.3</ele>
      </trkpt>
      <trkpt lat="50.54198" lon="2.45142">
        <ele>50.1</ele>
      </trkpt>
      <trkpt lat="50.54195" lon="2.45143">
        <ele>49.9</ele>
      </trkpt>
      <trkpt lat="50.54193" lon="2.45145">
        <ele>49.8</ele>
      </trkpt>
      <trkpt lat="50.54191" lon="2.45146">
        <ele>49.7</ele>
      </trkpt>
      <trkpt lat="50.54189" lon="2.45148">
        <ele>49.7</ele>
      </trkpt>
      <trkpt lat="50.54186" lon="2.45149">
        <ele>49.6</ele>
      </trkpt>
      <trkpt lat="50.54184" lon="2.45151">
        <ele>49.6</ele>
      </trkpt>
      <trkpt lat="50.54183" lon="2.45153">
        <ele>49.5</ele>
      </trkpt>
      <trkpt lat="50.54182" lon="2.45155">
        <ele>49.4</ele>
      </trkpt>
      <trkpt lat="50.5418" lon="2.45157">
        <ele>49.3</ele>
      </trkpt>
      <trkpt lat="50.54154" lon="2.45193">
        <ele>48.5</ele>
      </trkpt>
      <trkpt lat="50.54136" lon="2.45232">
        <ele>47.6</ele>
      </trkpt>
      <trkpt lat="50.54113" lon="2.45258">
        <ele>46.7</ele>
      </trkpt>
      <trkpt lat="50.54104" lon="2.45286">
        <ele>45.8</ele>
      </trkpt>
      <trkpt lat="50.54102" lon="2.4531">
        <ele>45.3</ele>
      </trkpt>
      <trkpt lat="50.54103" lon="2.45327">
        <ele>45.1</ele>
      </trkpt>
      <trkpt lat="50.54106" lon="2.45359">
        <ele>44.2</ele>
      </trkpt>
      <trkpt lat="50.54119" lon="2.45392">
        <ele>43.7</ele>
      </trkpt>
      <trkpt lat="50.54155" lon="2.45416">
        <ele>42.4</ele>
      </trkpt>
      <trkpt lat="50.54196" lon="2.45443">
        <ele>42</ele>
      </trkpt>
      <trkpt lat="50.54242" lon="2.45467">
        <ele>41.1</ele>
      </trkpt>
      <trkpt lat="50.5428" lon="2.45476">
        <ele>41</ele>
      </trkpt>
      <trkpt lat="50.54285" lon="2.45477">
        <ele>41</ele>
      </trkpt>
      <trkpt lat="50.54288" lon="2.45481">
        <ele>41</ele>
      </trkpt>
      <trkpt lat="50.54286" lon="2.45485">
        <ele>41</ele>
      </trkpt>
      <trkpt lat="50.54284" lon="2.45489">
        <ele>41</ele>
      </trkpt>
      <trkpt lat="50.54279" lon="2.45489">
        <ele>41</ele>
      </trkpt>
      <trkpt lat="50.54275" lon="2.45487">
        <ele>41</ele>
      </trkpt>
      <trkpt lat="50.54271" lon="2.45485">
        <ele>41</ele>
      </trkpt>
      <trkpt lat="50.54268" lon="2.45483">
        <ele>41</ele>
      </trkpt>
      <trkpt lat="50.54264" lon="2.45482">
        <ele>41</ele>
      </trkpt>
      <trkpt lat="50.5426" lon="2.45481">
        <ele>41</ele>
      </trkpt>
      <trkpt lat="50.54254" lon="2.4548">
        <ele>41</ele>
      </trkpt>
      <trkpt lat="50.54249" lon="2.45479">
        <ele>41</ele>
      </trkpt>
      <trkpt lat="50.54244" lon="2.45477">
        <ele>41</ele>
      </trkpt>
      <trkpt lat="50.5424" lon="2.45476">
        <ele>41</ele>
      </trkpt>
      <trkpt lat="50.54237" lon="2.45474">
        <ele>41</ele>
      </trkpt>
      <trkpt lat="50.54232" lon="2.45472">
        <ele>41</ele>
      </trkpt>
      <trkpt lat="50.54228" lon="2.4547">
        <ele>41.1</ele>
      </trkpt>
      <trkpt lat="50.54224" lon="2.45469">
        <ele>41.1</ele>
      </trkpt>
      <trkpt lat="50.54219" lon="2.45468">
        <ele>41.3</ele>
      </trkpt>
      <trkpt lat="50.54215" lon="2.45466">
        <ele>41.4</ele>
      </trkpt>
      <trkpt lat="50.54211" lon="2.45465">
        <ele>41.6</ele>
      </trkpt>
      <trkpt lat="50.54208" lon="2.45463">
        <ele>41.7</ele>
      </trkpt>
      <trkpt lat="50.54204" lon="2.45463">
        <ele>41.8</ele>
      </trkpt>
      <trkpt lat="50.542" lon="2.45463">
        <ele>41.9</ele>
      </trkpt>
      <trkpt lat="50.54196" lon="2.45464">
        <ele>42</ele>
      </trkpt>
      <trkpt lat="50.54193" lon="2.45465">
        <ele>42</ele>
      </trkpt>
      <trkpt lat="50.54189" lon="2.45467">
        <ele>42</ele>
      </trkpt>
      <trkpt lat="50.54187" lon="2.4547">
        <ele>42</ele>
      </trkpt>
      <trkpt lat="50.54186" lon="2.45474">
        <ele>42</ele>
      </trkpt>
      <trkpt lat="50.54184" lon="2.45477">
        <ele>42.1</ele>
      </trkpt>
      <trkpt lat="50.54183" lon="2.45481">
        <ele>42.1</ele>
      </trkpt>
      <trkpt lat="50.54182" lon="2.45484">
        <ele>42.2</ele>
      </trkpt>
      <trkpt lat="50.5418" lon="2.45488">
        <ele>42.3</ele>
      </trkpt>
      <trkpt lat="50.54178" lon="2.45491">
        <ele>42.4</ele>
      </trkpt>
      <trkpt lat="50.54177" lon="2.45495">
        <ele>42.5</ele>
      </trkpt>
      <trkpt lat="50.54175" lon="2.45499">
        <ele>42.6</ele>
      </trkpt>
      <trkpt lat="50.54174" lon="2.45502">
        <ele>42.8</ele>
      </trkpt>
      <trkpt lat="50.54173" lon="2.45505">
        <ele>43.1</ele>
      </trkpt>
      <trkpt lat="50.54171" lon="2.45509">
        <ele>43.4</ele>
      </trkpt>
      <trkpt lat="50.54171" lon="2.45513">
        <ele>43.7</ele>
      </trkpt>
      <trkpt lat="50.5417" lon="2.45516">
        <ele>44</ele>
      </trkpt>
      <trkpt lat="50.54168" lon="2.4552">
        <ele>44.3</ele>
      </trkpt>
      <trkpt lat="50.54165" lon="2.45522">
        <ele>44.8</ele>
      </trkpt>
      <trkpt lat="50.54164" lon="2.45526">
        <ele>45.2</ele>
      </trkpt>
      <trkpt lat="50.54162" lon="2.45529">
        <ele>45.6</ele>
      </trkpt>
      <trkpt lat="50.5416" lon="2.45533">
        <ele>46.1</ele>
      </trkpt>
      <trkpt lat="50.54159" lon="2.45536">
        <ele>46.4</ele>
      </trkpt>
      <trkpt lat="50.54157" lon="2.45539">
        <ele>46.8</ele>
      </trkpt>
      <trkpt lat="50.54156" lon="2.45542">
        <ele>47.2</ele>
      </trkpt>
      <trkpt lat="50.54153" lon="2.45545">
        <ele>47.7</ele>
      </trkpt>
      <trkpt lat="50.54151" lon="2.45548">
        <ele>48.1</ele>
      </trkpt>
      <trkpt lat="50.5415" lon="2.45551">
        <ele>48.5</ele>
      </trkpt>
      <trkpt lat="50.54148" lon="2.45555">
        <ele>48.9</ele>
      </trkpt>
      <trkpt lat="50.54147" lon="2.45557">
        <ele>49.3</ele>
      </trkpt>
      <trkpt lat="50.54146" lon="2.45561">
        <ele>49.6</ele>
      </trkpt>
      <trkpt lat="50.54143" lon="2.45567">
        <ele>50.3</ele>
      </trkpt>
      <trkpt lat="50.54142" lon="2.45572">
        <ele>50.8</ele>
      </trkpt>
      <trkpt lat="50.54139" lon="2.45577">
        <ele>51.5</ele>
      </trkpt>
      <trkpt lat="50.54137" lon="2.45582">
        <ele>52.1</ele>
      </trkpt>
      <trkpt lat="50.54134" lon="2.45586">
        <ele>52.4</ele>
      </trkpt>
      <trkpt lat="50.54131" lon="2.45591">
        <ele>52.8</ele>
      </trkpt>
      <trkpt lat="50.5413" lon="2.45597">
        <ele>53.2</ele>
      </trkpt>
      <trkpt lat="50.54127" lon="2.45602">
        <ele>53.5</ele>
      </trkpt>
      <trkpt lat="50.54124" lon="2.45607">
        <ele>54</ele>
      </trkpt>
      <trkpt lat="50.54121" lon="2.45612">
        <ele>54.3</ele>
      </trkpt>
      <trkpt lat="50.54119" lon="2.45616">
        <ele>54.6</ele>
      </trkpt>
      <trkpt lat="50.54118" lon="2.45621">
        <ele>54.8</ele>
      </trkpt>
      <trkpt lat="50.54117" lon="2.45627">
        <ele>55</ele>
      </trkpt>
      <trkpt lat="50.54115" lon="2.45631">
        <ele>55.3</ele>
      </trkpt>
      <trkpt lat="50.54113" lon="2.45635">
        <ele>55.7</ele>
      </trkpt>
      <trkpt lat="50.54111" lon="2.4564">
        <ele>56</ele>
      </trkpt>
      <trkpt lat="50.54108" lon="2.45643">
        <ele>56.1</ele>
      </trkpt>
      <trkpt lat="50.541" lon="2.45659">
        <ele>57</ele>
      </trkpt>
      <trkpt lat="50.54097" lon="2.45664">
        <ele>57.4</ele>
      </trkpt>
      <trkpt lat="50.54096" lon="2.45667">
        <ele>57.7</ele>
      </trkpt>
      <trkpt lat="50.54093" lon="2.45671">
        <ele>57.8</ele>
      </trkpt>
      <trkpt lat="50.5409" lon="2.45675">
        <ele>58</ele>
      </trkpt>
      <trkpt lat="50.54088" lon="2.4568">
        <ele>58.1</ele>
      </trkpt>
      <trkpt lat="50.54085" lon="2.45684">
        <ele>58.3</ele>
      </trkpt>
      <trkpt lat="50.54081" lon="2.45684">
        <ele>58.6</ele>
      </trkpt>
      <trkpt lat="50.54079" lon="2.45685">
        <ele>58.7</ele>
      </trkpt>
      <trkpt lat="50.54076" lon="2.45686">
        <ele>58.8</ele>
      </trkpt>
      <trkpt lat="50.54074" lon="2.45686">
        <ele>59</ele>
      </trkpt>
      <trkpt lat="50.54072" lon="2.45686">
        <ele>59.1</ele>
      </trkpt>
      <trkpt lat="50.5407" lon="2.45684">
        <ele>59.4</ele>
      </trkpt>
      <trkpt lat="50.54067" lon="2.45683">
        <ele>59.6</ele>
      </trkpt>
      <trkpt lat="50.54063" lon="2.45682">
        <ele>59.9</ele>
      </trkpt>
      <trkpt lat="50.54059" lon="2.45681">
        <ele>60.2</ele>
      </trkpt>
      <trkpt lat="50.54057" lon="2.45679">
        <ele>60.5</ele>
      </trkpt>
      <trkpt lat="50.54007" lon="2.45657">
        <ele>63</ele>
      </trkpt>
      <trkpt lat="50.5394" lon="2.45635">
        <ele>67.3</ele>
      </trkpt>
      <trkpt lat="50.53935" lon="2.45635">
        <ele>67.7</ele>
      </trkpt>
      <trkpt lat="50.53915" lon="2.45674">
        <ele>67.8</ele>
      </trkpt>
      <trkpt lat="50.53879" lon="2.45764">
        <ele>64.8</ele>
      </trkpt>
      <trkpt lat="50.53861" lon="2.45801">
        <ele>64.2</ele>
      </trkpt>
      <trkpt lat="50.53833" lon="2.45852">
        <ele>63.3</ele>
      </trkpt>
      <trkpt lat="50.53741" lon="2.46056">
        <ele>63.6</ele>
      </trkpt>
      <trkpt lat="50.53702" lon="2.46125">
        <ele>62.5</ele>
      </trkpt>
      <trkpt lat="50.53676" lon="2.46173">
        <ele>60.9</ele>
      </trkpt>
      <trkpt lat="50.53651" lon="2.46233">
        <ele>58</ele>
      </trkpt>
      <trkpt lat="50.53647" lon="2.46246">
        <ele>57.4</ele>
      </trkpt>
      <trkpt lat="50.53642" lon="2.46261">
        <ele>57.1</ele>
      </trkpt>
      <trkpt lat="50.53636" lon="2.4626">
        <ele>57.1</ele>
      </trkpt>
      <trkpt lat="50.53634" lon="2.46256">
        <ele>57.1</ele>
      </trkpt>
      <trkpt lat="50.53606" lon="2.46282">
        <ele>57.3</ele>
      </trkpt>
      <trkpt lat="50.53564" lon="2.46337">
        <ele>58.3</ele>
      </trkpt>
      <trkpt lat="50.5354" lon="2.46383">
        <ele>57.8</ele>
      </trkpt>
      <trkpt lat="50.53529" lon="2.46413">
        <ele>57.1</ele>
      </trkpt>
      <trkpt lat="50.5349" lon="2.46438">
        <ele>56.5</ele>
      </trkpt>
      <trkpt lat="50.5345" lon="2.4645">
        <ele>55.5</ele>
      </trkpt>
      <trkpt lat="50.53391" lon="2.46469">
        <ele>52.3</ele>
      </trkpt>
      <trkpt lat="50.53373" lon="2.46472">
        <ele>52</ele>
      </trkpt>
      <trkpt lat="50.53316" lon="2.46472">
        <ele>51</ele>
      </trkpt>
      <trkpt lat="50.53305" lon="2.46497">
        <ele>50.1</ele>
      </trkpt>
      <trkpt lat="50.53279" lon="2.46576">
        <ele>55.684975</ele>
        <time>2023-02-10T02:17:58Z</time>
      </trkpt>
      <trkpt lat="50.5323" lon="2.46545">
        <ele>55.40092</ele>
        <time>2023-02-10T02:18:07Z</time>
      </trkpt>
      <trkpt lat="50.53177" lon="2.46528">
        <ele>56.481455</ele>
        <time>2023-02-10T02:18:19Z</time>
      </trkpt>
      <trkpt lat="50.53146" lon="2.46522">
        <ele>57.11533</ele>
        <time>2023-02-10T02:18:28Z</time>
      </trkpt>
      <trkpt lat="50.53128" lon="2.46514">
        <ele>57.488667</ele>
        <time>2023-02-10T02:18:34Z</time>
      </trkpt>
      <trkpt lat="50.53111" lon="2.46501">
        <ele>57.878401</ele>
        <time>2023-02-10T02:18:42Z</time>
      </trkpt>
      <trkpt lat="50.53097" lon="2.46495">
        <ele>58.170319</ele>
        <time>2023-02-10T02:18:49Z</time>
      </trkpt>
      <trkpt lat="50.53082" lon="2.46491">
        <ele>50.3</ele>
      </trkpt>
      <trkpt lat="50.53064" lon="2.46493">
        <ele>50.3</ele>
      </trkpt>
      <trkpt lat="50.53049" lon="2.4649">
        <ele>50.4</ele>
      </trkpt>
      <trkpt lat="50.53038" lon="2.46489">
        <ele>50.7</ele>
      </trkpt>
      <trkpt lat="50.53032" lon="2.46489">
        <ele>50.8</ele>
      </trkpt>
      <trkpt lat="50.53032" lon="2.46489">
        <ele>50.8</ele>
      </trkpt>
      <trkpt lat="50.53027" lon="2.46488">
        <ele>50.9</ele>
      </trkpt>
      <trkpt lat="50.53025" lon="2.46489">
        <ele>51</ele>
      </trkpt>
      <trkpt lat="50.53023" lon="2.4649">
        <ele>51</ele>
      </trkpt>
      <trkpt lat="50.53021" lon="2.46491">
        <ele>51</ele>
      </trkpt>
      <trkpt lat="50.5302" lon="2.46493">
        <ele>51</ele>
      </trkpt>
      <trkpt lat="50.53019" lon="2.46495">
        <ele>51</ele>
      </trkpt>
      <trkpt lat="50.53017" lon="2.46498">
        <ele>50.9</ele>
      </trkpt>
      <trkpt lat="50.53016" lon="2.465">
        <ele>50.9</ele>
      </trkpt>
      <trkpt lat="50.53014" lon="2.46502">
        <ele>51</ele>
      </trkpt>
      <trkpt lat="50.53012" lon="2.46503">
        <ele>51.1</ele>
      </trkpt>
      <trkpt lat="50.53011" lon="2.46505">
        <ele>51.2</ele>
      </trkpt>
      <trkpt lat="50.5301" lon="2.46506">
        <ele>51.2</ele>
      </trkpt>
      <trkpt lat="50.53008" lon="2.46508">
        <ele>51.3</ele>
      </trkpt>
      <trkpt lat="50.53007" lon="2.4651">
        <ele>51.4</ele>
      </trkpt>
      <trkpt lat="50.53005" lon="2.46513">
        <ele>51.5</ele>
      </trkpt>
      <trkpt lat="50.53004" lon="2.46515">
        <ele>51.6</ele>
      </trkpt>
      <trkpt lat="50.53003" lon="2.46517">
        <ele>51.7</ele>
      </trkpt>
      <trkpt lat="50.53001" lon="2.4652">
        <ele>51.9</ele>
      </trkpt>
      <trkpt lat="50.52999" lon="2.46523">
        <ele>52.1</ele>
      </trkpt>
      <trkpt lat="50.52998" lon="2.46525">
        <ele>52.2</ele>
      </trkpt>
      <trkpt lat="50.5299" lon="2.46543">
        <ele>52.9</ele>
      </trkpt>
      <trkpt lat="50.52986" lon="2.46552">
        <ele>53.5</ele>
      </trkpt>
      <trkpt lat="50.5298" lon="2.46575">
        <ele>57</ele>
      </trkpt>
      <trkpt lat="50.5297" lon="2.46706">
        <ele>73.9</ele>
      </trkpt>
      <trkpt lat="50.52966" lon="2.46768">
        <ele>82.3</ele>
      </trkpt>
      <trkpt lat="50.52967" lon="2.46784">
        <ele>83.4</ele>
      </trkpt>
      <trkpt lat="50.52967" lon="2.46793">
        <ele>84</ele>
      </trkpt>
      <trkpt lat="50.52966" lon="2.46802">
        <ele>84.6</ele>
      </trkpt>
      <trkpt lat="50.52961" lon="2.4683">
        <ele>86.1</ele>
      </trkpt>
      <trkpt lat="50.5296" lon="2.46843">
        <ele>86.3</ele>
      </trkpt>
      <trkpt lat="50.52918" lon="2.46794">
        <ele>95.6</ele>
      </trkpt>
      <trkpt lat="50.5283" lon="2.467">
        <ele>97.9</ele>
      </trkpt>
      <trkpt lat="50.52823" lon="2.46696">
        <ele>97.7</ele>
      </trkpt>
      <trkpt lat="50.52818" lon="2.46692">
        <ele>97.4</ele>
      </trkpt>
      <trkpt lat="50.52812" lon="2.46688">
        <ele>97.2</ele>
      </trkpt>
      <trkpt lat="50.52805" lon="2.46682">
        <ele>97</ele>
      </trkpt>
      <trkpt lat="50.52801" lon="2.46678">
        <ele>97</ele>
      </trkpt>
      <trkpt lat="50.52795" lon="2.46673">
        <ele>97</ele>
      </trkpt>
      <trkpt lat="50.5279" lon="2.46669">
        <ele>97</ele>
      </trkpt>
      <trkpt lat="50.52785" lon="2.46665">
        <ele>96.9</ele>
      </trkpt>
      <trkpt lat="50.5278" lon="2.46663">
        <ele>96.9</ele>
      </trkpt>
      <trkpt lat="50.52775" lon="2.46662">
        <ele>96.8</ele>
      </trkpt>
      <trkpt lat="50.52769" lon="2.4666">
        <ele>96.8</ele>
      </trkpt>
      <trkpt lat="50.52763" lon="2.46658">
        <ele>96.9</ele>
      </trkpt>
      <trkpt lat="50.52757" lon="2.46655">
        <ele>96.9</ele>
      </trkpt>
      <trkpt lat="50.52752" lon="2.46653">
        <ele>97</ele>
      </trkpt>
      <trkpt lat="50.52747" lon="2.46649">
        <ele>97.1</ele>
      </trkpt>
      <trkpt lat="50.52745" lon="2.46646">
        <ele>97.2</ele>
      </trkpt>
      <trkpt lat="50.52747" lon="2.46639">
        <ele>97.1</ele>
      </trkpt>
      <trkpt lat="50.52751" lon="2.46633">
        <ele>95.7</ele>
      </trkpt>
      <trkpt lat="50.52758" lon="2.46622">
        <ele>92.8</ele>
      </trkpt>
      <trkpt lat="50.52763" lon="2.46618">
        <ele>91.6</ele>
      </trkpt>
      <trkpt lat="50.52767" lon="2.46612">
        <ele>90.1</ele>
      </trkpt>
      <trkpt lat="50.52777" lon="2.46604">
        <ele>86.1</ele>
      </trkpt>
      <trkpt lat="50.52781" lon="2.46598">
        <ele>83.7</ele>
      </trkpt>
      <trkpt lat="50.52786" lon="2.46592">
        <ele>81.3</ele>
      </trkpt>
      <trkpt lat="50.5279" lon="2.46586">
        <ele>78.6</ele>
      </trkpt>
      <trkpt lat="50.52798" lon="2.46576">
        <ele>76.1</ele>
      </trkpt>
      <trkpt lat="50.52805" lon="2.46573">
        <ele>75.5</ele>
      </trkpt>
      <trkpt lat="50.5281" lon="2.46567">
        <ele>74.4</ele>
      </trkpt>
      <trkpt lat="50.52817" lon="2.46562">
        <ele>73.4</ele>
      </trkpt>
      <trkpt lat="50.52824" lon="2.46559">
        <ele>72.8</ele>
      </trkpt>
      <trkpt lat="50.52826" lon="2.46552">
        <ele>72.1</ele>
      </trkpt>
      <trkpt lat="50.52831" lon="2.46545">
        <ele>71.7</ele>
      </trkpt>
      <trkpt lat="50.52827" lon="2.46539">
        <ele>71.6</ele>
      </trkpt>
      <trkpt lat="50.52823" lon="2.46534">
        <ele>71.6</ele>
      </trkpt>
      <trkpt lat="50.52817" lon="2.46532">
        <ele>71.8</ele>
      </trkpt>
      <trkpt lat="50.52811" lon="2.46528">
        <ele>71.8</ele>
      </trkpt>
      <trkpt lat="50.52805" lon="2.46526">
        <ele>71.9</ele>
      </trkpt>
      <trkpt lat="50.528" lon="2.46523">
        <ele>71.6</ele>
      </trkpt>
      <trkpt lat="50.52793" lon="2.46512">
        <ele>70.9</ele>
      </trkpt>
      <trkpt lat="50.52789" lon="2.46498">
        <ele>69.9</ele>
      </trkpt>
      <trkpt lat="50.52784" lon="2.46494">
        <ele>69.7</ele>
      </trkpt>
      <trkpt lat="50.5278" lon="2.46489">
        <ele>69.5</ele>
      </trkpt>
      <trkpt lat="50.52781" lon="2.4648">
        <ele>69.2</ele>
      </trkpt>
      <trkpt lat="50.52774" lon="2.4647">
        <ele>68.8</ele>
      </trkpt>
      <trkpt lat="50.52769" lon="2.46458">
        <ele>68.1</ele>
      </trkpt>
      <trkpt lat="50.52764" lon="2.46455">
        <ele>68.1</ele>
      </trkpt>
      <trkpt lat="50.52764" lon="2.46447">
        <ele>67.6</ele>
      </trkpt>
      <trkpt lat="50.52764" lon="2.46438">
        <ele>66.8</ele>
      </trkpt>
      <trkpt lat="50.52764" lon="2.4643">
        <ele>66</ele>
      </trkpt>
      <trkpt lat="50.52758" lon="2.46419">
        <ele>64.5</ele>
      </trkpt>
      <trkpt lat="50.52749" lon="2.46412">
        <ele>63.4</ele>
      </trkpt>
      <trkpt lat="50.52743" lon="2.46412">
        <ele>62.6</ele>
      </trkpt>
      <trkpt lat="50.52738" lon="2.4641">
        <ele>61.8</ele>
      </trkpt>
      <trkpt lat="50.52728" lon="2.46413">
        <ele>60.8</ele>
      </trkpt>
      <trkpt lat="50.52722" lon="2.46422">
        <ele>61.1</ele>
      </trkpt>
      <trkpt lat="50.52713" lon="2.46426">
        <ele>61.8</ele>
      </trkpt>
      <trkpt lat="50.52705" lon="2.46426">
        <ele>61.6</ele>
      </trkpt>
      <trkpt lat="50.52698" lon="2.46425">
        <ele>61.3</ele>
      </trkpt>
      <trkpt lat="50.52691" lon="2.46424">
        <ele>60.9</ele>
      </trkpt>
      <trkpt lat="50.52684" lon="2.46428">
        <ele>61.6</ele>
      </trkpt>
      <trkpt lat="50.52676" lon="2.46429">
        <ele>61.5</ele>
      </trkpt>
      <trkpt lat="50.5267" lon="2.46426">
        <ele>60.8</ele>
      </trkpt>
      <trkpt lat="50.52665" lon="2.46422">
        <ele>59.9</ele>
      </trkpt>
      <trkpt lat="50.5266" lon="2.46416">
        <ele>59</ele>
      </trkpt>
      <trkpt lat="50.52653" lon="2.46417">
        <ele>59</ele>
      </trkpt>
      <trkpt lat="50.52646" lon="2.4642">
        <ele>59.5</ele>
      </trkpt>
      <trkpt lat="50.52639" lon="2.46421">
        <ele>59.7</ele>
      </trkpt>
      <trkpt lat="50.52633" lon="2.46424">
        <ele>60.2</ele>
      </trkpt>
      <trkpt lat="50.52627" lon="2.4643">
        <ele>61.1</ele>
      </trkpt>
      <trkpt lat="50.52621" lon="2.46432">
        <ele>61.5</ele>
      </trkpt>
      <trkpt lat="50.52614" lon="2.46432">
        <ele>61.6</ele>
      </trkpt>
      <trkpt lat="50.5261" lon="2.46427">
        <ele>61.2</ele>
      </trkpt>
      <trkpt lat="50.52604" lon="2.46425">
        <ele>61.2</ele>
      </trkpt>
      <trkpt lat="50.52599" lon="2.46422">
        <ele>61.1</ele>
      </trkpt>
      <trkpt lat="50.52593" lon="2.46421">
        <ele>61.2</ele>
      </trkpt>
      <trkpt lat="50.52587" lon="2.4642">
        <ele>61.4</ele>
      </trkpt>
      <trkpt lat="50.52581" lon="2.46421">
        <ele>61.7</ele>
      </trkpt>
      <trkpt lat="50.52575" lon="2.46423">
        <ele>62</ele>
      </trkpt>
      <trkpt lat="50.52571" lon="2.46431">
        <ele>63</ele>
      </trkpt>
      <trkpt lat="50.52571" lon="2.46439">
        <ele>64</ele>
      </trkpt>
      <trkpt lat="50.52574" lon="2.46447">
        <ele>65.3</ele>
      </trkpt>
      <trkpt lat="50.52582" lon="2.46456">
        <ele>68</ele>
      </trkpt>
      <trkpt lat="50.52589" lon="2.46467">
        <ele>70.5</ele>
      </trkpt>
      <trkpt lat="50.52594" lon="2.46468">
        <ele>70.8</ele>
      </trkpt>
      <trkpt lat="50.52596" lon="2.46482">
        <ele>73.6</ele>
      </trkpt>
      <trkpt lat="50.52594" lon="2.46491">
        <ele>75.1</ele>
      </trkpt>
      <trkpt lat="50.52593" lon="2.46506">
        <ele>78.3</ele>
      </trkpt>
      <trkpt lat="50.52594" lon="2.46521">
        <ele>81.9</ele>
      </trkpt>
      <trkpt lat="50.52597" lon="2.46535">
        <ele>84.8</ele>
      </trkpt>
      <trkpt lat="50.52601" lon="2.46546">
        <ele>87.1</ele>
      </trkpt>
      <trkpt lat="50.52603" lon="2.46561">
        <ele>89.4</ele>
      </trkpt>
      <trkpt lat="50.52608" lon="2.46563">
        <ele>89.5</ele>
      </trkpt>
      <trkpt lat="50.52613" lon="2.46567">
        <ele>89.8</ele>
      </trkpt>
      <trkpt lat="50.52607" lon="2.46568">
        <ele>89.9</ele>
      </trkpt>
      <trkpt lat="50.526" lon="2.46568">
        <ele>89.9</ele>
      </trkpt>
      <trkpt lat="50.52596" lon="2.46564">
        <ele>89.6</ele>
      </trkpt>
      <trkpt lat="50.52586" lon="2.46559">
        <ele>89.2</ele>
      </trkpt>
      <trkpt lat="50.5258" lon="2.4656">
        <ele>89.4</ele>
      </trkpt>
      <trkpt lat="50.52574" lon="2.46561">
        <ele>89.7</ele>
      </trkpt>
      <trkpt lat="50.52568" lon="2.46562">
        <ele>89.9</ele>
      </trkpt>
      <trkpt lat="50.52562" lon="2.46563">
        <ele>90.1</ele>
      </trkpt>
      <trkpt lat="50.52557" lon="2.46562">
        <ele>90.2</ele>
      </trkpt>
      <trkpt lat="50.52549" lon="2.46554">
        <ele>90</ele>
      </trkpt>
      <trkpt lat="50.52544" lon="2.46554">
        <ele>90.1</ele>
      </trkpt>
      <trkpt lat="50.52539" lon="2.46551">
        <ele>89.9</ele>
      </trkpt>
      <trkpt lat="50.52507" lon="2.46534">
        <ele>90</ele>
      </trkpt>
      <trkpt lat="50.525" lon="2.46533">
        <ele>90.5</ele>
      </trkpt>
      <trkpt lat="50.52491" lon="2.46534">
        <ele>91.2</ele>
      </trkpt>
      <trkpt lat="50.52483" lon="2.46534">
        <ele>91.8</ele>
      </trkpt>
      <trkpt lat="50.52474" lon="2.46534">
        <ele>92.3</ele>
      </trkpt>
      <trkpt lat="50.52467" lon="2.46535">
        <ele>92.6</ele>
      </trkpt>
      <trkpt lat="50.52461" lon="2.46533">
        <ele>92.6</ele>
      </trkpt>
      <trkpt lat="50.52453" lon="2.46531">
        <ele>92.8</ele>
      </trkpt>
      <trkpt lat="50.52446" lon="2.4653">
        <ele>93</ele>
      </trkpt>
      <trkpt lat="50.52438" lon="2.4653">
        <ele>93.4</ele>
      </trkpt>
      <trkpt lat="50.52432" lon="2.46527">
        <ele>93.8</ele>
      </trkpt>
      <trkpt lat="50.52425" lon="2.46526">
        <ele>94</ele>
      </trkpt>
      <trkpt lat="50.5242" lon="2.46522">
        <ele>93.6</ele>
      </trkpt>
      <trkpt lat="50.52417" lon="2.46518">
        <ele>92.9</ele>
      </trkpt>
      <trkpt lat="50.52415" lon="2.46516">
        <ele>92.5</ele>
      </trkpt>
      <trkpt lat="50.52413" lon="2.46514">
        <ele>92.3</ele>
      </trkpt>
      <trkpt lat="50.52411" lon="2.46513">
        <ele>92.2</ele>
      </trkpt>
      <trkpt lat="50.52408" lon="2.46513">
        <ele>92.3</ele>
      </trkpt>
      <trkpt lat="50.52405" lon="2.46513">
        <ele>92.4</ele>
      </trkpt>
      <trkpt lat="50.52402" lon="2.46512">
        <ele>92.4</ele>
      </trkpt>
      <trkpt lat="50.52399" lon="2.46511">
        <ele>92.5</ele>
      </trkpt>
      <trkpt lat="50.52396" lon="2.46511">
        <ele>92.8</ele>
      </trkpt>
      <trkpt lat="50.52393" lon="2.46511">
        <ele>92.9</ele>
      </trkpt>
      <trkpt lat="50.52391" lon="2.46511">
        <ele>93</ele>
      </trkpt>
      <trkpt lat="50.52389" lon="2.4651">
        <ele>93</ele>
      </trkpt>
      <trkpt lat="50.52387" lon="2.46509">
        <ele>93</ele>
      </trkpt>
      <trkpt lat="50.52384" lon="2.46509">
        <ele>93.1</ele>
      </trkpt>
      <trkpt lat="50.52381" lon="2.4651">
        <ele>93.2</ele>
      </trkpt>
      <trkpt lat="50.52379" lon="2.46511">
        <ele>93.4</ele>
      </trkpt>
      <trkpt lat="50.52377" lon="2.46513">
        <ele>93.6</ele>
      </trkpt>
      <trkpt lat="50.52375" lon="2.46514">
        <ele>93.8</ele>
      </trkpt>
      <trkpt lat="50.52372" lon="2.46514">
        <ele>93.9</ele>
      </trkpt>
      <trkpt lat="50.5237" lon="2.46515">
        <ele>94</ele>
      </trkpt>
      <trkpt lat="50.52366" lon="2.46516">
        <ele>94.2</ele>
      </trkpt>
      <trkpt lat="50.5236" lon="2.46517">
        <ele>94.4</ele>
      </trkpt>
      <trkpt lat="50.52357" lon="2.46517">
        <ele>94.5</ele>
      </trkpt>
      <trkpt lat="50.52356" lon="2.46518">
        <ele>94.5</ele>
      </trkpt>
      <trkpt lat="50.52354" lon="2.46518">
        <ele>94.5</ele>
      </trkpt>
      <trkpt lat="50.52352" lon="2.46518">
        <ele>94.5</ele>
      </trkpt>
      <trkpt lat="50.5235" lon="2.46518">
        <ele>94.4</ele>
      </trkpt>
      <trkpt lat="50.52348" lon="2.46517">
        <ele>94.4</ele>
      </trkpt>
      <trkpt lat="50.52346" lon="2.46517">
        <ele>94.3</ele>
      </trkpt>
      <trkpt lat="50.52344" lon="2.46516">
        <ele>94.2</ele>
      </trkpt>
      <trkpt lat="50.52342" lon="2.46516">
        <ele>94.2</ele>
      </trkpt>
      <trkpt lat="50.52341" lon="2.46516">
        <ele>94.2</ele>
      </trkpt>
      <trkpt lat="50.52339" lon="2.46515">
        <ele>94.1</ele>
      </trkpt>
      <trkpt lat="50.52338" lon="2.46514">
        <ele>94</ele>
      </trkpt>
      <trkpt lat="50.52336" lon="2.46514">
        <ele>94</ele>
      </trkpt>
      <trkpt lat="50.52334" lon="2.46514">
        <ele>94</ele>
      </trkpt>
      <trkpt lat="50.52333" lon="2.46513">
        <ele>93.9</ele>
      </trkpt>
      <trkpt lat="50.52331" lon="2.46513">
        <ele>93.7</ele>
      </trkpt>
      <trkpt lat="50.52329" lon="2.46513">
        <ele>93.6</ele>
      </trkpt>
      <trkpt lat="50.52328" lon="2.46514">
        <ele>93.5</ele>
      </trkpt>
      <trkpt lat="50.52325" lon="2.46515">
        <ele>93.3</ele>
      </trkpt>
      <trkpt lat="50.52321" lon="2.46516">
        <ele>93.1</ele>
      </trkpt>
      <trkpt lat="50.52319" lon="2.46517">
        <ele>93.1</ele>
      </trkpt>
      <trkpt lat="50.52318" lon="2.46518">
        <ele>93</ele>
      </trkpt>
      <trkpt lat="50.52316" lon="2.46521">
        <ele>93.1</ele>
      </trkpt>
      <trkpt lat="50.52314" lon="2.46523">
        <ele>93.1</ele>
      </trkpt>
      <trkpt lat="50.52311" lon="2.46525">
        <ele>93.1</ele>
      </trkpt>
      <trkpt lat="50.5231" lon="2.46526">
        <ele>93.1</ele>
      </trkpt>
      <trkpt lat="50.52308" lon="2.46528">
        <ele>93.2</ele>
      </trkpt>
      <trkpt lat="50.52308" lon="2.46532">
        <ele>93.2</ele>
      </trkpt>
      <trkpt lat="50.5231" lon="2.46534">
        <ele>93.3</ele>
      </trkpt>
      <trkpt lat="50.52312" lon="2.46535">
        <ele>93.5</ele>
      </trkpt>
      <trkpt lat="50.52314" lon="2.46538">
        <ele>93.6</ele>
      </trkpt>
      <trkpt lat="50.52316" lon="2.4654">
        <ele>93.7</ele>
      </trkpt>
      <trkpt lat="50.52318" lon="2.46543">
        <ele>93.9</ele>
      </trkpt>
      <trkpt lat="50.52319" lon="2.46544">
        <ele>94</ele>
      </trkpt>
      <trkpt lat="50.52327" lon="2.46557">
        <ele>94.5</ele>
      </trkpt>
      <trkpt lat="50.5233" lon="2.46563">
        <ele>94.5</ele>
      </trkpt>
      <trkpt lat="50.52339" lon="2.46574">
        <ele>94.2</ele>
      </trkpt>
      <trkpt lat="50.52342" lon="2.46581">
        <ele>93.8</ele>
      </trkpt>
      <trkpt lat="50.52343" lon="2.46589">
        <ele>93.6</ele>
      </trkpt>
      <trkpt lat="50.52346" lon="2.46595">
        <ele>93.6</ele>
      </trkpt>
      <trkpt lat="50.52349" lon="2.46596">
        <ele>93.4</ele>
      </trkpt>
      <trkpt lat="50.52351" lon="2.46597">
        <ele>93.4</ele>
      </trkpt>
      <trkpt lat="50.52352" lon="2.46598">
        <ele>93.3</ele>
      </trkpt>
      <trkpt lat="50.52355" lon="2.46601">
        <ele>93.2</ele>
      </trkpt>
      <trkpt lat="50.52356" lon="2.46605">
        <ele>93.2</ele>
      </trkpt>
      <trkpt lat="50.52357" lon="2.46607">
        <ele>93.2</ele>
      </trkpt>
      <trkpt lat="50.52358" lon="2.46609">
        <ele>93.1</ele>
      </trkpt>
      <trkpt lat="50.5236" lon="2.46613">
        <ele>93.1</ele>
      </trkpt>
      <trkpt lat="50.52362" lon="2.46615">
        <ele>93.1</ele>
      </trkpt>
      <trkpt lat="50.52363" lon="2.46617">
        <ele>93.1</ele>
      </trkpt>
      <trkpt lat="50.52364" lon="2.46618">
        <ele>93.1</ele>
      </trkpt>
      <trkpt lat="50.52367" lon="2.4662">
        <ele>93</ele>
      </trkpt>
      <trkpt lat="50.52376" lon="2.46638">
        <ele>92.9</ele>
      </trkpt>
      <trkpt lat="50.52387" lon="2.46656">
        <ele>92.7</ele>
      </trkpt>
      <trkpt lat="50.52429" lon="2.4672">
        <ele>92.6</ele>
      </trkpt>
      <trkpt lat="50.52432" lon="2.46727">
        <ele>92.7</ele>
      </trkpt>
      <trkpt lat="50.52436" lon="2.46735">
        <ele>93.2</ele>
      </trkpt>
      <trkpt lat="50.52439" lon="2.46742">
        <ele>93.9</ele>
      </trkpt>
      <trkpt lat="50.52444" lon="2.46746">
        <ele>94.6</ele>
      </trkpt>
      <trkpt lat="50.52448" lon="2.46752">
        <ele>95.1</ele>
      </trkpt>
      <trkpt lat="50.52455" lon="2.46755">
        <ele>95.1</ele>
      </trkpt>
      <trkpt lat="50.5246" lon="2.46752">
        <ele>95</ele>
      </trkpt>
      <trkpt lat="50.52479" lon="2.46742">
        <ele>94.3</ele>
      </trkpt>
      <trkpt lat="50.52486" lon="2.46738">
        <ele>94.3</ele>
      </trkpt>
      <trkpt lat="50.52493" lon="2.46735">
        <ele>94.6</ele>
      </trkpt>
      <trkpt lat="50.52504" lon="2.46728">
        <ele>95.1</ele>
      </trkpt>
      <trkpt lat="50.52512" lon="2.46724">
        <ele>95.4</ele>
      </trkpt>
      <trkpt lat="50.52576" lon="2.46687">
        <ele>96.5</ele>
      </trkpt>
      <trkpt lat="50.52584" lon="2.46687">
        <ele>96.7</ele>
      </trkpt>
      <trkpt lat="50.52589" lon="2.46692">
        <ele>96.9</ele>
      </trkpt>
      <trkpt lat="50.52592" lon="2.467">
        <ele>97.1</ele>
      </trkpt>
      <trkpt lat="50.52592" lon="2.46709">
        <ele>97.2</ele>
      </trkpt>
      <trkpt lat="50.52593" lon="2.46717">
        <ele>97.3</ele>
      </trkpt>
      <trkpt lat="50.52595" lon="2.46725">
        <ele>97.3</ele>
      </trkpt>
      <trkpt lat="50.52597" lon="2.46734">
        <ele>97.1</ele>
      </trkpt>
      <trkpt lat="50.52597" lon="2.46743">
        <ele>96.7</ele>
      </trkpt>
      <trkpt lat="50.52598" lon="2.46752">
        <ele>96.5</ele>
      </trkpt>
      <trkpt lat="50.52599" lon="2.4676">
        <ele>96.4</ele>
      </trkpt>
      <trkpt lat="50.526" lon="2.46768">
        <ele>96.2</ele>
      </trkpt>
      <trkpt lat="50.52602" lon="2.46777">
        <ele>96</ele>
      </trkpt>
      <trkpt lat="50.5259" lon="2.46799">
        <ele>96.2</ele>
      </trkpt>
      <trkpt lat="50.52585" lon="2.46807">
        <ele>96.1</ele>
      </trkpt>
      <trkpt lat="50.52554" lon="2.46818">
        <ele>96.4</ele>
      </trkpt>
      <trkpt lat="50.52544" lon="2.46813">
        <ele>96.2</ele>
      </trkpt>
      <trkpt lat="50.52533" lon="2.46806">
        <ele>96</ele>
      </trkpt>
      <trkpt lat="50.52527" lon="2.46805">
        <ele>96</ele>
      </trkpt>
      <trkpt lat="50.52517" lon="2.4681">
        <ele>96</ele>
      </trkpt>
      <trkpt lat="50.52507" lon="2.4681">
        <ele>96</ele>
      </trkpt>
      <trkpt lat="50.52498" lon="2.46811">
        <ele>96</ele>
      </trkpt>
      <trkpt lat="50.52493" lon="2.46815">
        <ele>96.1</ele>
      </trkpt>
      <trkpt lat="50.52487" lon="2.46823">
        <ele>96.3</ele>
      </trkpt>
      <trkpt lat="50.52484" lon="2.4683">
        <ele>96.5</ele>
      </trkpt>
      <trkpt lat="50.52474" lon="2.46838">
        <ele>97.1</ele>
      </trkpt>
      <trkpt lat="50.52467" lon="2.46841">
        <ele>97.2</ele>
      </trkpt>
      <trkpt lat="50.52459" lon="2.46841">
        <ele>97</ele>
      </trkpt>
      <trkpt lat="50.5245" lon="2.46841">
        <ele>96.8</ele>
      </trkpt>
      <trkpt lat="50.52443" lon="2.46842">
        <ele>96.6</ele>
      </trkpt>
      <trkpt lat="50.52435" lon="2.46842">
        <ele>96</ele>
      </trkpt>
      <trkpt lat="50.52428" lon="2.46838">
        <ele>96</ele>
      </trkpt>
      <trkpt lat="50.52422" lon="2.46832">
        <ele>96.2</ele>
      </trkpt>
      <trkpt lat="50.52418" lon="2.46825">
        <ele>96</ele>
      </trkpt>
      <trkpt lat="50.52412" lon="2.4682">
        <ele>95.8</ele>
      </trkpt>
      <trkpt lat="50.52405" lon="2.46814">
        <ele>95.9</ele>
      </trkpt>
      <trkpt lat="50.52398" lon="2.46811">
        <ele>96.1</ele>
      </trkpt>
      <trkpt lat="50.52392" lon="2.4681">
        <ele>96.4</ele>
      </trkpt>
      <trkpt lat="50.52385" lon="2.46806">
        <ele>96.8</ele>
      </trkpt>
      <trkpt lat="50.52379" lon="2.46802">
        <ele>96.3</ele>
      </trkpt>
      <trkpt lat="50.52372" lon="2.46797">
        <ele>95.7</ele>
      </trkpt>
      <trkpt lat="50.52367" lon="2.46794">
        <ele>95.3</ele>
      </trkpt>
      <trkpt lat="50.52361" lon="2.4679">
        <ele>94.9</ele>
      </trkpt>
      <trkpt lat="50.52354" lon="2.46786">
        <ele>94.6</ele>
      </trkpt>
      <trkpt lat="50.52348" lon="2.46782">
        <ele>94.8</ele>
      </trkpt>
      <trkpt lat="50.52342" lon="2.46779">
        <ele>95.2</ele>
      </trkpt>
      <trkpt lat="50.52335" lon="2.46777">
        <ele>95.8</ele>
      </trkpt>
      <trkpt lat="50.52329" lon="2.46773">
        <ele>95.5</ele>
      </trkpt>
      <trkpt lat="50.52324" lon="2.46767">
        <ele>95</ele>
      </trkpt>
      <trkpt lat="50.52317" lon="2.46763">
        <ele>94.6</ele>
      </trkpt>
      <trkpt lat="50.52311" lon="2.46761">
        <ele>94.3</ele>
      </trkpt>
      <trkpt lat="50.52305" lon="2.46759">
        <ele>94</ele>
      </trkpt>
      <trkpt lat="50.52299" lon="2.46756">
        <ele>93.8</ele>
      </trkpt>
      <trkpt lat="50.52294" lon="2.46752">
        <ele>93.9</ele>
      </trkpt>
      <trkpt lat="50.52289" lon="2.46748">
        <ele>93.9</ele>
      </trkpt>
      <trkpt lat="50.52283" lon="2.46746">
        <ele>93.8</ele>
      </trkpt>
      <trkpt lat="50.52278" lon="2.46744">
        <ele>93.6</ele>
      </trkpt>
      <trkpt lat="50.52272" lon="2.46743">
        <ele>93.4</ele>
      </trkpt>
      <trkpt lat="50.52267" lon="2.46739">
        <ele>93</ele>
      </trkpt>
      <trkpt lat="50.52263" lon="2.46736">
        <ele>92.7</ele>
      </trkpt>
      <trkpt lat="50.52253" lon="2.46732">
        <ele>92.4</ele>
      </trkpt>
      <trkpt lat="50.52248" lon="2.46729">
        <ele>92.3</ele>
      </trkpt>
      <trkpt lat="50.52243" lon="2.46728">
        <ele>92.3</ele>
      </trkpt>
      <trkpt lat="50.522" lon="2.46704">
        <ele>91.9</ele>
      </trkpt>
      <trkpt lat="50.52193" lon="2.467">
        <ele>92</ele>
      </trkpt>
      <trkpt lat="50.52186" lon="2.46696">
        <ele>92</ele>
      </trkpt>
      <trkpt lat="50.52179" lon="2.46692">
        <ele>91.9</ele>
      </trkpt>
      <trkpt lat="50.52173" lon="2.46689">
        <ele>91.8</ele>
      </trkpt>
      <trkpt lat="50.52167" lon="2.46686">
        <ele>91.7</ele>
      </trkpt>
      <trkpt lat="50.5216" lon="2.46682">
        <ele>91.3</ele>
      </trkpt>
      <trkpt lat="50.52153" lon="2.4668">
        <ele>91</ele>
      </trkpt>
      <trkpt lat="50.52147" lon="2.46677">
        <ele>90.8</ele>
      </trkpt>
      <trkpt lat="50.52141" lon="2.46674">
        <ele>90.8</ele>
      </trkpt>
      <trkpt lat="50.52136" lon="2.46669">
        <ele>91</ele>
      </trkpt>
      <trkpt lat="50.52131" lon="2.46665">
        <ele>91.2</ele>
      </trkpt>
      <trkpt lat="50.52127" lon="2.46661">
        <ele>91.1</ele>
      </trkpt>
      <trkpt lat="50.5212" lon="2.46659">
        <ele>91.2</ele>
      </trkpt>
      <trkpt lat="50.52116" lon="2.46654">
        <ele>91</ele>
      </trkpt>
      <trkpt lat="50.5211" lon="2.46652">
        <ele>90.9</ele>
      </trkpt>
      <trkpt lat="50.52105" lon="2.46649">
        <ele>90.6</ele>
      </trkpt>
      <trkpt lat="50.521" lon="2.46647">
        <ele>90.3</ele>
      </trkpt>
      <trkpt lat="50.52094" lon="2.46645">
        <ele>90.2</ele>
      </trkpt>
      <trkpt lat="50.52089" lon="2.46641">
        <ele>90</ele>
      </trkpt>
      <trkpt lat="50.52083" lon="2.46639">
        <ele>90</ele>
      </trkpt>
      <trkpt lat="50.52077" lon="2.46636">
        <ele>89.7</ele>
      </trkpt>
      <trkpt lat="50.52071" lon="2.46636">
        <ele>89.5</ele>
      </trkpt>
      <trkpt lat="50.52066" lon="2.46636">
        <ele>89.3</ele>
      </trkpt>
      <trkpt lat="50.52057" lon="2.46632">
        <ele>89</ele>
      </trkpt>
      <trkpt lat="50.52048" lon="2.46623">
        <ele>89.3</ele>
      </trkpt>
      <trkpt lat="50.52042" lon="2.46622">
        <ele>89.5</ele>
      </trkpt>
      <trkpt lat="50.52039" lon="2.46617">
        <ele>89.6</ele>
      </trkpt>
      <trkpt lat="50.52038" lon="2.46611">
        <ele>89.6</ele>
      </trkpt>
      <trkpt lat="50.5204" lon="2.46606">
        <ele>89.2</ele>
      </trkpt>
      <trkpt lat="50.52046" lon="2.46605">
        <ele>89.1</ele>
      </trkpt>
      <trkpt lat="50.52055" lon="2.4661">
        <ele>89</ele>
      </trkpt>
      <trkpt lat="50.5206" lon="2.46611">
        <ele>89</ele>
      </trkpt>
      <trkpt lat="50.5207" lon="2.46613">
        <ele>89</ele>
      </trkpt>
      <trkpt lat="50.5208" lon="2.46616">
        <ele>89.2</ele>
      </trkpt>
      <trkpt lat="50.52085" lon="2.46618">
        <ele>89.2</ele>
      </trkpt>
      <trkpt lat="50.5209" lon="2.4662">
        <ele>89.3</ele>
      </trkpt>
      <trkpt lat="50.52096" lon="2.46621">
        <ele>89.4</ele>
      </trkpt>
      <trkpt lat="50.52101" lon="2.46623">
        <ele>89.4</ele>
      </trkpt>
      <trkpt lat="50.52107" lon="2.46622">
        <ele>89.4</ele>
      </trkpt>
      <trkpt lat="50.52113" lon="2.46622">
        <ele>89.4</ele>
      </trkpt>
      <trkpt lat="50.52118" lon="2.46622">
        <ele>89.5</ele>
      </trkpt>
      <trkpt lat="50.52124" lon="2.46621">
        <ele>89.6</ele>
      </trkpt>
      <trkpt lat="50.52129" lon="2.4662">
        <ele>89.8</ele>
      </trkpt>
      <trkpt lat="50.52136" lon="2.46619">
        <ele>89.9</ele>
      </trkpt>
      <trkpt lat="50.52142" lon="2.4662">
        <ele>90.1</ele>
      </trkpt>
      <trkpt lat="50.52148" lon="2.46617">
        <ele>90.3</ele>
      </trkpt>
      <trkpt lat="50.52154" lon="2.46617">
        <ele>90.6</ele>
      </trkpt>
      <trkpt lat="50.5216" lon="2.46615">
        <ele>90.8</ele>
      </trkpt>
      <trkpt lat="50.52167" lon="2.46612">
        <ele>91</ele>
      </trkpt>
      <trkpt lat="50.52171" lon="2.46606">
        <ele>91.3</ele>
      </trkpt>
      <trkpt lat="50.52176" lon="2.46601">
        <ele>91.6</ele>
      </trkpt>
      <trkpt lat="50.52181" lon="2.46597">
        <ele>91.8</ele>
      </trkpt>
      <trkpt lat="50.52187" lon="2.46593">
        <ele>91.9</ele>
      </trkpt>
      <trkpt lat="50.52215" lon="2.46568">
        <ele>92.3</ele>
      </trkpt>
      <trkpt lat="50.5222" lon="2.46562">
        <ele>92.2</ele>
      </trkpt>
      <trkpt lat="50.52226" lon="2.46553">
        <ele>91.5</ele>
      </trkpt>
      <trkpt lat="50.52226" lon="2.46549">
        <ele>91.1</ele>
      </trkpt>
      <trkpt lat="50.52225" lon="2.46547">
        <ele>90.9</ele>
      </trkpt>
      <trkpt lat="50.52225" lon="2.46544">
        <ele>90.7</ele>
      </trkpt>
      <trkpt lat="50.52224" lon="2.4654">
        <ele>90.3</ele>
      </trkpt>
      <trkpt lat="50.52225" lon="2.46536">
        <ele>89.9</ele>
      </trkpt>
      <trkpt lat="50.52224" lon="2.46532">
        <ele>89.5</ele>
      </trkpt>
      <trkpt lat="50.52224" lon="2.4653">
        <ele>89.3</ele>
      </trkpt>
      <trkpt lat="50.52223" lon="2.46526">
        <ele>88.8</ele>
      </trkpt>
      <trkpt lat="50.52222" lon="2.46524">
        <ele>88.6</ele>
      </trkpt>
      <trkpt lat="50.52221" lon="2.46523">
        <ele>88.4</ele>
      </trkpt>
      <trkpt lat="50.52219" lon="2.46521">
        <ele>88.3</ele>
      </trkpt>
      <trkpt lat="50.52218" lon="2.4652">
        <ele>88.1</ele>
      </trkpt>
      <trkpt lat="50.52217" lon="2.46518">
        <ele>87.9</ele>
      </trkpt>
      <trkpt lat="50.52216" lon="2.46514">
        <ele>87.5</ele>
      </trkpt>
      <trkpt lat="50.52216" lon="2.4651">
        <ele>87</ele>
      </trkpt>
      <trkpt lat="50.52215" lon="2.46506">
        <ele>86.6</ele>
      </trkpt>
      <trkpt lat="50.52216" lon="2.46501">
        <ele>86.1</ele>
      </trkpt>
      <trkpt lat="50.52216" lon="2.46497">
        <ele>85.4</ele>
      </trkpt>
      <trkpt lat="50.52216" lon="2.46494">
        <ele>84.9</ele>
      </trkpt>
      <trkpt lat="50.52217" lon="2.4649">
        <ele>84</ele>
      </trkpt>
      <trkpt lat="50.52217" lon="2.46486">
        <ele>83.1</ele>
      </trkpt>
      <trkpt lat="50.52218" lon="2.46481">
        <ele>82.2</ele>
      </trkpt>
      <trkpt lat="50.52218" lon="2.46479">
        <ele>81.7</ele>
      </trkpt>
      <trkpt lat="50.52219" lon="2.46477">
        <ele>81.2</ele>
      </trkpt>
      <trkpt lat="50.5222" lon="2.46474">
        <ele>80.6</ele>
      </trkpt>
      <trkpt lat="50.5222" lon="2.46472">
        <ele>80.1</ele>
      </trkpt>
      <trkpt lat="50.52222" lon="2.46469">
        <ele>79.4</ele>
      </trkpt>
      <trkpt lat="50.52222" lon="2.46467">
        <ele>78.9</ele>
      </trkpt>
      <trkpt lat="50.52223" lon="2.46465">
        <ele>78.5</ele>
      </trkpt>
      <trkpt lat="50.52223" lon="2.46462">
        <ele>78</ele>
      </trkpt>
      <trkpt lat="50.52224" lon="2.4646">
        <ele>77.5</ele>
      </trkpt>
      <trkpt lat="50.52223" lon="2.46457">
        <ele>76.9</ele>
      </trkpt>
      <trkpt lat="50.52224" lon="2.46455">
        <ele>76.5</ele>
      </trkpt>
      <trkpt lat="50.52224" lon="2.46452">
        <ele>76</ele>
      </trkpt>
      <trkpt lat="50.52225" lon="2.46449">
        <ele>75.4</ele>
      </trkpt>
      <trkpt lat="50.52225" lon="2.46447">
        <ele>74.8</ele>
      </trkpt>
      <trkpt lat="50.52226" lon="2.46444">
        <ele>74.4</ele>
      </trkpt>
      <trkpt lat="50.52226" lon="2.46441">
        <ele>74.1</ele>
      </trkpt>
      <trkpt lat="50.52227" lon="2.46438">
        <ele>73.9</ele>
      </trkpt>
      <trkpt lat="50.52228" lon="2.46435">
        <ele>73.7</ele>
      </trkpt>
      <trkpt lat="50.5223" lon="2.46432">
        <ele>73.4</ele>
      </trkpt>
      <trkpt lat="50.52231" lon="2.4643">
        <ele>73.2</ele>
      </trkpt>
      <trkpt lat="50.52233" lon="2.46427">
        <ele>72.9</ele>
      </trkpt>
      <trkpt lat="50.52234" lon="2.46424">
        <ele>72.5</ele>
      </trkpt>
      <trkpt lat="50.52234" lon="2.46421">
        <ele>72.1</ele>
      </trkpt>
      <trkpt lat="50.52236" lon="2.46418">
        <ele>71.8</ele>
      </trkpt>
      <trkpt lat="50.52238" lon="2.46416">
        <ele>71.5</ele>
      </trkpt>
      <trkpt lat="50.52239" lon="2.46413">
        <ele>71.2</ele>
      </trkpt>
      <trkpt lat="50.52241" lon="2.4641">
        <ele>70.9</ele>
      </trkpt>
      <trkpt lat="50.52241" lon="2.46407">
        <ele>70.6</ele>
      </trkpt>
      <trkpt lat="50.52242" lon="2.46404">
        <ele>70.2</ele>
      </trkpt>
      <trkpt lat="50.52243" lon="2.464">
        <ele>69.8</ele>
      </trkpt>
      <trkpt lat="50.52243" lon="2.46398">
        <ele>69.5</ele>
      </trkpt>
      <trkpt lat="50.52245" lon="2.46394">
        <ele>68.9</ele>
      </trkpt>
      <trkpt lat="50.52248" lon="2.4639">
        <ele>68.4</ele>
      </trkpt>
      <trkpt lat="50.52249" lon="2.46388">
        <ele>68</ele>
      </trkpt>
      <trkpt lat="50.52252" lon="2.46384">
        <ele>67.5</ele>
      </trkpt>
      <trkpt lat="50.52254" lon="2.46381">
        <ele>67</ele>
      </trkpt>
      <trkpt lat="50.52256" lon="2.46377">
        <ele>66.4</ele>
      </trkpt>
      <trkpt lat="50.52259" lon="2.46378">
        <ele>66.2</ele>
      </trkpt>
      <trkpt lat="50.52262" lon="2.46377">
        <ele>65.8</ele>
      </trkpt>
      <trkpt lat="50.52266" lon="2.46375">
        <ele>65.3</ele>
      </trkpt>
      <trkpt lat="50.52267" lon="2.46372">
        <ele>65.1</ele>
      </trkpt>
      <trkpt lat="50.52268" lon="2.4637">
        <ele>64.9</ele>
      </trkpt>
      <trkpt lat="50.52269" lon="2.46367">
        <ele>64.8</ele>
      </trkpt>
      <trkpt lat="50.5227" lon="2.46364">
        <ele>64.6</ele>
      </trkpt>
      <trkpt lat="50.52271" lon="2.46361">
        <ele>64.5</ele>
      </trkpt>
      <trkpt lat="50.52273" lon="2.46358">
        <ele>64.7</ele>
      </trkpt>
      <trkpt lat="50.52276" lon="2.46355">
        <ele>65</ele>
      </trkpt>
      <trkpt lat="50.52279" lon="2.46352">
        <ele>65.3</ele>
      </trkpt>
      <trkpt lat="50.52286" lon="2.46338">
        <ele>75.566936</ele>
        <time>2023-02-10T02:48:10Z</time>
      </trkpt>
      <trkpt lat="50.52307" lon="2.46329">
        <ele>75.084282</ele>
        <time>2023-02-10T02:48:16Z</time>
      </trkpt>
      <trkpt lat="50.52312" lon="2.46327">
        <ele>74.976378</ele>
        <time>2023-02-10T02:48:17Z</time>
      </trkpt>
      <trkpt lat="50.52318" lon="2.46316">
        <ele>74.785177</ele>
        <time>2023-02-10T02:48:20Z</time>
      </trkpt>
      <trkpt lat="50.52318" lon="2.46293">
        <ele>74.470611</ele>
        <time>2023-02-10T02:48:24Z</time>
      </trkpt>
      <trkpt lat="50.52311" lon="2.46276">
        <ele>74.193615</ele>
        <time>2023-02-10T02:48:28Z</time>
      </trkpt>
      <trkpt lat="50.52302" lon="2.46264">
        <ele>73.92639</ele>
        <time>2023-02-10T02:48:32Z</time>
      </trkpt>
      <trkpt lat="50.52299" lon="2.4625">
        <ele>73.735511</ele>
        <time>2023-02-10T02:48:35Z</time>
      </trkpt>
      <trkpt lat="50.52305" lon="2.46217">
        <ele>73.257278</ele>
        <time>2023-02-10T02:48:43Z</time>
      </trkpt>
      <trkpt lat="50.52327" lon="2.4613">
        <ele>75.659683</ele>
        <time>2023-02-10T02:49:12Z</time>
      </trkpt>
      <trkpt lat="50.52345" lon="2.4607">
        <ele>77.683437</ele>
        <time>2023-02-10T02:49:39Z</time>
      </trkpt>
      <trkpt lat="50.52361" lon="2.46013">
        <ele>79.729938</ele>
        <time>2023-02-10T02:49:57Z</time>
      </trkpt>
      <trkpt lat="50.52367" lon="2.45995">
        <ele>80.349218</ele>
        <time>2023-02-10T02:50:02Z</time>
      </trkpt>
      <trkpt lat="50.52392" lon="2.45919">
        <ele>82.703035</ele>
        <time>2023-02-10T02:50:26Z</time>
      </trkpt>
      <trkpt lat="50.52418" lon="2.45853">
        <ele>84.887081</ele>
        <time>2023-02-10T02:50:51Z</time>
      </trkpt>
      <trkpt lat="50.52446" lon="2.45787">
        <ele>86.799838</ele>
        <time>2023-02-10T02:51:09Z</time>
      </trkpt>
      <trkpt lat="50.52483" lon="2.45702">
        <ele>88.71554</ele>
        <time>2023-02-10T02:51:29Z</time>
      </trkpt>
      <trkpt lat="50.52489" lon="2.45688">
        <ele>88.813332</ele>
        <time>2023-02-10T02:51:32Z</time>
      </trkpt>
      <trkpt lat="50.5249" lon="2.45676">
        <ele>88.886149</ele>
        <time>2023-02-10T02:51:34Z</time>
      </trkpt>
      <trkpt lat="50.52364" lon="2.45673">
        <ele>90.088179</ele>
        <time>2023-02-10T02:52:02Z</time>
      </trkpt>
      <trkpt lat="50.52294" lon="2.45672">
        <ele>91.076319</ele>
        <time>2023-02-10T02:52:18Z</time>
      </trkpt>
      <trkpt lat="50.52248" lon="2.45671">
        <ele>91.769997</ele>
        <time>2023-02-10T02:52:28Z</time>
      </trkpt>
      <trkpt lat="50.52249" lon="2.45441">
        <ele>95.087519</ele>
        <time>2023-02-10T02:53:16Z</time>
      </trkpt>
      <trkpt lat="50.52244" lon="2.45413">
        <ele>95.677547</ele>
        <time>2023-02-10T02:53:23Z</time>
      </trkpt>
      <trkpt lat="50.52239" lon="2.45401">
        <ele>93.7</ele>
      </trkpt>
      <trkpt lat="50.52232" lon="2.45356">
        <ele>94</ele>
      </trkpt>
      <trkpt lat="50.52228" lon="2.45311">
        <ele>94.8</ele>
      </trkpt>
      <trkpt lat="50.52223" lon="2.45205">
        <ele>95</ele>
      </trkpt>
      <trkpt lat="50.52214" lon="2.45104">
        <ele>94.8</ele>
      </trkpt>
      <trkpt lat="50.52201" lon="2.45088">
        <ele>94.8</ele>
      </trkpt>
      <trkpt lat="50.5219" lon="2.45093">
        <ele>95</ele>
      </trkpt>
      <trkpt lat="50.52186" lon="2.45102">
        <ele>95</ele>
      </trkpt>
      <trkpt lat="50.52176" lon="2.45107">
        <ele>95</ele>
      </trkpt>
      <trkpt lat="50.52169" lon="2.45114">
        <ele>95</ele>
      </trkpt>
      <trkpt lat="50.52162" lon="2.45122">
        <ele>95</ele>
      </trkpt>
      <trkpt lat="50.52158" lon="2.45131">
        <ele>95</ele>
      </trkpt>
      <trkpt lat="50.52153" lon="2.4514">
        <ele>95</ele>
      </trkpt>
      <trkpt lat="50.52147" lon="2.45149">
        <ele>95</ele>
      </trkpt>
      <trkpt lat="50.52142" lon="2.45156">
        <ele>95</ele>
      </trkpt>
      <trkpt lat="50.52135" lon="2.45163">
        <ele>95</ele>
      </trkpt>
      <trkpt lat="50.52125" lon="2.45166">
        <ele>95</ele>
      </trkpt>
      <trkpt lat="50.52118" lon="2.45172">
        <ele>95</ele>
      </trkpt>
      <trkpt lat="50.52108" lon="2.45172">
        <ele>94.9</ele>
      </trkpt>
      <trkpt lat="50.52103" lon="2.45162">
        <ele>94.7</ele>
      </trkpt>
      <trkpt lat="50.52098" lon="2.45152">
        <ele>94.5</ele>
      </trkpt>
      <trkpt lat="50.52089" lon="2.45145">
        <ele>94.2</ele>
      </trkpt>
      <trkpt lat="50.5208" lon="2.4514">
        <ele>94</ele>
      </trkpt>
      <trkpt lat="50.5207" lon="2.45138">
        <ele>94</ele>
      </trkpt>
      <trkpt lat="50.52063" lon="2.45132">
        <ele>94</ele>
      </trkpt>
      <trkpt lat="50.52057" lon="2.45122">
        <ele>94</ele>
      </trkpt>
      <trkpt lat="50.52053" lon="2.45111">
        <ele>94</ele>
      </trkpt>
      <trkpt lat="50.5205" lon="2.45101">
        <ele>94</ele>
      </trkpt>
      <trkpt lat="50.52046" lon="2.45091">
        <ele>94</ele>
      </trkpt>
      <trkpt lat="50.52044" lon="2.45071">
        <ele>94</ele>
      </trkpt>
      <trkpt lat="50.52039" lon="2.45051">
        <ele>94</ele>
      </trkpt>
      <trkpt lat="50.52034" lon="2.45031">
        <ele>94</ele>
      </trkpt>
      <trkpt lat="50.52028" lon="2.45024">
        <ele>94</ele>
      </trkpt>
      <trkpt lat="50.52023" lon="2.45017">
        <ele>94.1</ele>
      </trkpt>
      <trkpt lat="50.52015" lon="2.4501">
        <ele>94.3</ele>
      </trkpt>
      <trkpt lat="50.5201" lon="2.45002">
        <ele>94.6</ele>
      </trkpt>
      <trkpt lat="50.52003" lon="2.44995">
        <ele>94.8</ele>
      </trkpt>
      <trkpt lat="50.51997" lon="2.44987">
        <ele>94.6</ele>
      </trkpt>
      <trkpt lat="50.51993" lon="2.44975">
        <ele>94.3</ele>
      </trkpt>
      <trkpt lat="50.51986" lon="2.44968">
        <ele>94.6</ele>
      </trkpt>
      <trkpt lat="50.51978" lon="2.4495">
        <ele>95</ele>
      </trkpt>
      <trkpt lat="50.51972" lon="2.44933">
        <ele>95</ele>
      </trkpt>
      <trkpt lat="50.5197" lon="2.44915">
        <ele>95</ele>
      </trkpt>
      <trkpt lat="50.51967" lon="2.44898">
        <ele>95.1</ele>
      </trkpt>
      <trkpt lat="50.51965" lon="2.4488">
        <ele>95.3</ele>
      </trkpt>
      <trkpt lat="50.51962" lon="2.44861">
        <ele>95.4</ele>
      </trkpt>
      <trkpt lat="50.51968" lon="2.44844">
        <ele>95.1</ele>
      </trkpt>
      <trkpt lat="50.51974" lon="2.44837">
        <ele>94.9</ele>
      </trkpt>
      <trkpt lat="50.51981" lon="2.44833">
        <ele>94.7</ele>
      </trkpt>
      <trkpt lat="50.51995" lon="2.44825">
        <ele>94.2</ele>
      </trkpt>
      <trkpt lat="50.52003" lon="2.44809">
        <ele>93.9</ele>
      </trkpt>
      <trkpt lat="50.52015" lon="2.44798">
        <ele>93.5</ele>
      </trkpt>
      <trkpt lat="50.52027" lon="2.44779">
        <ele>93</ele>
      </trkpt>
      <trkpt lat="50.52022" lon="2.44762">
        <ele>93.2</ele>
      </trkpt>
      <trkpt lat="50.52019" lon="2.44743">
        <ele>93.2</ele>
      </trkpt>
      <trkpt lat="50.52014" lon="2.44725">
        <ele>93</ele>
      </trkpt>
      <trkpt lat="50.52002" lon="2.44716">
        <ele>93.7</ele>
      </trkpt>
      <trkpt lat="50.51998" lon="2.447">
        <ele>93.2</ele>
      </trkpt>
      <trkpt lat="50.51991" lon="2.44686">
        <ele>92.7</ele>
      </trkpt>
      <trkpt lat="50.51994" lon="2.44667">
        <ele>92</ele>
      </trkpt>
      <trkpt lat="50.52" lon="2.44659">
        <ele>91.7</ele>
      </trkpt>
      <trkpt lat="50.52005" lon="2.44643">
        <ele>91</ele>
      </trkpt>
      <trkpt lat="50.52008" lon="2.44626">
        <ele>90.7</ele>
      </trkpt>
      <trkpt lat="50.52012" lon="2.44606">
        <ele>90.6</ele>
      </trkpt>
      <trkpt lat="50.52016" lon="2.44588">
        <ele>90.4</ele>
      </trkpt>
      <trkpt lat="50.52019" lon="2.44572">
        <ele>90.2</ele>
      </trkpt>
      <trkpt lat="50.52022" lon="2.44561">
        <ele>90</ele>
      </trkpt>
      <trkpt lat="50.52026" lon="2.4455">
        <ele>90</ele>
      </trkpt>
      <trkpt lat="50.52028" lon="2.44534">
        <ele>90</ele>
      </trkpt>
      <trkpt lat="50.52033" lon="2.44515">
        <ele>89</ele>
      </trkpt>
      <trkpt lat="50.52034" lon="2.44498">
        <ele>88.5</ele>
      </trkpt>
      <trkpt lat="50.52038" lon="2.44482">
        <ele>87.8</ele>
      </trkpt>
      <trkpt lat="50.52044" lon="2.44472">
        <ele>87.4</ele>
      </trkpt>
      <trkpt lat="50.52049" lon="2.44462">
        <ele>87.2</ele>
      </trkpt>
      <trkpt lat="50.52059" lon="2.44446">
        <ele>86.6</ele>
      </trkpt>
      <trkpt lat="50.52063" lon="2.44436">
        <ele>87</ele>
      </trkpt>
      <trkpt lat="50.52071" lon="2.44433">
        <ele>86.5</ele>
      </trkpt>
      <trkpt lat="50.52086" lon="2.44438">
        <ele>84.9</ele>
      </trkpt>
      <trkpt lat="50.52094" lon="2.4444">
        <ele>84.5</ele>
      </trkpt>
      <trkpt lat="50.52103" lon="2.44438">
        <ele>84.6</ele>
      </trkpt>
      <trkpt lat="50.52109" lon="2.44444">
        <ele>84</ele>
      </trkpt>
      <trkpt lat="50.52117" lon="2.44447">
        <ele>83.8</ele>
      </trkpt>
      <trkpt lat="50.52125" lon="2.4445">
        <ele>83.6</ele>
      </trkpt>
      <trkpt lat="50.52133" lon="2.44452">
        <ele>83.4</ele>
      </trkpt>
      <trkpt lat="50.52142" lon="2.44456">
        <ele>83.4</ele>
      </trkpt>
      <trkpt lat="50.5215" lon="2.44457">
        <ele>83.5</ele>
      </trkpt>
      <trkpt lat="50.52159" lon="2.4446">
        <ele>83.6</ele>
      </trkpt>
      <trkpt lat="50.52169" lon="2.44459">
        <ele>83.5</ele>
      </trkpt>
      <trkpt lat="50.52175" lon="2.44466">
        <ele>83.5</ele>
      </trkpt>
      <trkpt lat="50.52184" lon="2.44468">
        <ele>83.3</ele>
      </trkpt>
      <trkpt lat="50.52191" lon="2.44473">
        <ele>83.1</ele>
      </trkpt>
      <trkpt lat="50.522" lon="2.44476">
        <ele>83.1</ele>
      </trkpt>
      <trkpt lat="50.5221" lon="2.44479">
        <ele>83.1</ele>
      </trkpt>
      <trkpt lat="50.52218" lon="2.44484">
        <ele>83.1</ele>
      </trkpt>
      <trkpt lat="50.5223" lon="2.4448">
        <ele>82.8</ele>
      </trkpt>
      <trkpt lat="50.52241" lon="2.44469">
        <ele>82.2</ele>
      </trkpt>
      <trkpt lat="50.52248" lon="2.4446">
        <ele>81.2</ele>
      </trkpt>
      <trkpt lat="50.52255" lon="2.44451">
        <ele>80.1</ele>
      </trkpt>
      <trkpt lat="50.52267" lon="2.4444">
        <ele>78.9</ele>
      </trkpt>
      <trkpt lat="50.52275" lon="2.44433">
        <ele>78.2</ele>
      </trkpt>
      <trkpt lat="50.5228" lon="2.44423">
        <ele>77.7</ele>
      </trkpt>
      <trkpt lat="50.52283" lon="2.44411">
        <ele>78.2</ele>
      </trkpt>
      <trkpt lat="50.52288" lon="2.44399">
        <ele>79.5</ele>
      </trkpt>
      <trkpt lat="50.52286" lon="2.44382">
        <ele>83.2</ele>
      </trkpt>
      <trkpt lat="50.5228" lon="2.44368">
        <ele>88.6</ele>
      </trkpt>
      <trkpt lat="50.52274" lon="2.44361">
        <ele>91.1</ele>
      </trkpt>
      <trkpt lat="50.52265" lon="2.44357">
        <ele>92.6</ele>
      </trkpt>
      <trkpt lat="50.52257" lon="2.44353">
        <ele>94.2</ele>
      </trkpt>
      <trkpt lat="50.52238" lon="2.44341">
        <ele>97.3</ele>
      </trkpt>
      <trkpt lat="50.52231" lon="2.44331">
        <ele>98.8</ele>
      </trkpt>
      <trkpt lat="50.52223" lon="2.44323">
        <ele>99.4</ele>
      </trkpt>
      <trkpt lat="50.52214" lon="2.44319">
        <ele>98.5</ele>
      </trkpt>
      <trkpt lat="50.52206" lon="2.44311">
        <ele>98.1</ele>
      </trkpt>
      <trkpt lat="50.52202" lon="2.44301">
        <ele>98.3</ele>
      </trkpt>
      <trkpt lat="50.52198" lon="2.44291">
        <ele>98</ele>
      </trkpt>
      <trkpt lat="50.52196" lon="2.44271">
        <ele>98.8</ele>
      </trkpt>
      <trkpt lat="50.52194" lon="2.44253">
        <ele>98.9</ele>
      </trkpt>
      <trkpt lat="50.52194" lon="2.44234">
        <ele>99</ele>
      </trkpt>
      <trkpt lat="50.52196" lon="2.44212">
        <ele>100.1</ele>
      </trkpt>
      <trkpt lat="50.52191" lon="2.44203">
        <ele>99.6</ele>
      </trkpt>
      <trkpt lat="50.52179" lon="2.44192">
        <ele>99.4</ele>
      </trkpt>
      <trkpt lat="50.52172" lon="2.44198">
        <ele>99.1</ele>
      </trkpt>
      <trkpt lat="50.52166" lon="2.44205">
        <ele>98.5</ele>
      </trkpt>
      <trkpt lat="50.52155" lon="2.44223">
        <ele>97.6</ele>
      </trkpt>
      <trkpt lat="50.52148" lon="2.44228">
        <ele>97.4</ele>
      </trkpt>
      <trkpt lat="50.52141" lon="2.44235">
        <ele>97.5</ele>
      </trkpt>
      <trkpt lat="50.52132" lon="2.44239">
        <ele>96.2</ele>
      </trkpt>
      <trkpt lat="50.52122" lon="2.44238">
        <ele>93.9</ele>
      </trkpt>
      <trkpt lat="50.52113" lon="2.44235">
        <ele>91.9</ele>
      </trkpt>
      <trkpt lat="50.52108" lon="2.44217">
        <ele>90.5</ele>
      </trkpt>
      <trkpt lat="50.52112" lon="2.44198">
        <ele>90.4</ele>
      </trkpt>
      <trkpt lat="50.52117" lon="2.44181">
        <ele>91</ele>
      </trkpt>
      <trkpt lat="50.52114" lon="2.44164">
        <ele>89.5</ele>
      </trkpt>
      <trkpt lat="50.52116" lon="2.44144">
        <ele>89.1</ele>
      </trkpt>
      <trkpt lat="50.52119" lon="2.44124">
        <ele>88.8</ele>
      </trkpt>
      <trkpt lat="50.52126" lon="2.44108">
        <ele>88.5</ele>
      </trkpt>
      <trkpt lat="50.5213" lon="2.44097">
        <ele>88.3</ele>
      </trkpt>
      <trkpt lat="50.52134" lon="2.44075">
        <ele>88</ele>
      </trkpt>
      <trkpt lat="50.5214" lon="2.44059">
        <ele>88.1</ele>
      </trkpt>
      <trkpt lat="50.5215" lon="2.44044">
        <ele>88.6</ele>
      </trkpt>
      <trkpt lat="50.52158" lon="2.44037">
        <ele>88.9</ele>
      </trkpt>
      <trkpt lat="50.52165" lon="2.4403">
        <ele>89</ele>
      </trkpt>
      <trkpt lat="50.52172" lon="2.44022">
        <ele>89.1</ele>
      </trkpt>
      <trkpt lat="50.52184" lon="2.44015">
        <ele>89.5</ele>
      </trkpt>
      <trkpt lat="50.52191" lon="2.44008">
        <ele>89.4</ele>
      </trkpt>
      <trkpt lat="50.52197" lon="2.44">
        <ele>89.1</ele>
      </trkpt>
      <trkpt lat="50.52207" lon="2.43986">
        <ele>88.9</ele>
      </trkpt>
      <trkpt lat="50.52217" lon="2.43979">
        <ele>89.1</ele>
      </trkpt>
      <trkpt lat="50.52228" lon="2.43972">
        <ele>88.8</ele>
      </trkpt>
      <trkpt lat="50.52239" lon="2.43968">
        <ele>88.3</ele>
      </trkpt>
      <trkpt lat="50.52246" lon="2.43988">
        <ele>88.7</ele>
      </trkpt>
      <trkpt lat="50.52252" lon="2.43997">
        <ele>88.9</ele>
      </trkpt>
      <trkpt lat="50.52254" lon="2.44008">
        <ele>89.8</ele>
      </trkpt>
      <trkpt lat="50.52259" lon="2.44018">
        <ele>90.5</ele>
      </trkpt>
      <trkpt lat="50.52265" lon="2.44025">
        <ele>90.8</ele>
      </trkpt>
      <trkpt lat="50.52271" lon="2.44034">
        <ele>91.3</ele>
      </trkpt>
      <trkpt lat="50.52276" lon="2.44042">
        <ele>91.3</ele>
      </trkpt>
      <trkpt lat="50.52281" lon="2.44048">
        <ele>91.1</ele>
      </trkpt>
      <trkpt lat="50.52286" lon="2.44051">
        <ele>90.9</ele>
      </trkpt>
      <trkpt lat="50.52291" lon="2.44057">
        <ele>90.8</ele>
      </trkpt>
      <trkpt lat="50.52295" lon="2.44063">
        <ele>91</ele>
      </trkpt>
      <trkpt lat="50.52299" lon="2.44068">
        <ele>90.8</ele>
      </trkpt>
      <trkpt lat="50.52303" lon="2.44073">
        <ele>90.3</ele>
      </trkpt>
      <trkpt lat="50.52306" lon="2.4408">
        <ele>89.8</ele>
      </trkpt>
      <trkpt lat="50.52307" lon="2.44087">
        <ele>90.4</ele>
      </trkpt>
      <trkpt lat="50.52308" lon="2.44094">
        <ele>91.1</ele>
      </trkpt>
      <trkpt lat="50.52312" lon="2.441">
        <ele>91.2</ele>
      </trkpt>
      <trkpt lat="50.52314" lon="2.44107">
        <ele>91.4</ele>
      </trkpt>
      <trkpt lat="50.52315" lon="2.44113">
        <ele>92.3</ele>
      </trkpt>
      <trkpt lat="50.52315" lon="2.4412">
        <ele>93.7</ele>
      </trkpt>
      <trkpt lat="50.52317" lon="2.44126">
        <ele>94.7</ele>
      </trkpt>
      <trkpt lat="50.52317" lon="2.44132">
        <ele>95.9</ele>
      </trkpt>
      <trkpt lat="50.52321" lon="2.44136">
        <ele>95.4</ele>
      </trkpt>
      <trkpt lat="50.52324" lon="2.44142">
        <ele>94.6</ele>
      </trkpt>
      <trkpt lat="50.52326" lon="2.44148">
        <ele>94.5</ele>
      </trkpt>
      <trkpt lat="50.52327" lon="2.44154">
        <ele>94.5</ele>
      </trkpt>
      <trkpt lat="50.52329" lon="2.44159">
        <ele>93.7</ele>
      </trkpt>
      <trkpt lat="50.52331" lon="2.44165">
        <ele>93.2</ele>
      </trkpt>
      <trkpt lat="50.52333" lon="2.44171">
        <ele>92.5</ele>
      </trkpt>
      <trkpt lat="50.52334" lon="2.44176">
        <ele>92.5</ele>
      </trkpt>
      <trkpt lat="50.52336" lon="2.44181">
        <ele>92.2</ele>
      </trkpt>
      <trkpt lat="50.52338" lon="2.44186">
        <ele>91.6</ele>
      </trkpt>
      <trkpt lat="50.52341" lon="2.44191">
        <ele>90.7</ele>
      </trkpt>
      <trkpt lat="50.52345" lon="2.44193">
        <ele>89.3</ele>
      </trkpt>
      <trkpt lat="50.52349" lon="2.44195">
        <ele>87.7</ele>
      </trkpt>
      <trkpt lat="50.52351" lon="2.442">
        <ele>86.8</ele>
      </trkpt>
      <trkpt lat="50.52352" lon="2.44211">
        <ele>86.4</ele>
      </trkpt>
      <trkpt lat="50.52354" lon="2.44222">
        <ele>85.4</ele>
      </trkpt>
      <trkpt lat="50.52357" lon="2.44227">
        <ele>84.3</ele>
      </trkpt>
      <trkpt lat="50.52357" lon="2.44233">
        <ele>84.1</ele>
      </trkpt>
      <trkpt lat="50.52354" lon="2.44238">
        <ele>84.7</ele>
      </trkpt>
      <trkpt lat="50.52352" lon="2.44242">
        <ele>85.3</ele>
      </trkpt>
      <trkpt lat="50.5235" lon="2.44248">
        <ele>85.6</ele>
      </trkpt>
      <trkpt lat="50.52349" lon="2.44253">
        <ele>85.8</ele>
      </trkpt>
      <trkpt lat="50.52347" lon="2.4426">
        <ele>85.9</ele>
      </trkpt>
      <trkpt lat="50.52346" lon="2.44265">
        <ele>85.9</ele>
      </trkpt>
      <trkpt lat="50.52343" lon="2.44271">
        <ele>86.1</ele>
      </trkpt>
      <trkpt lat="50.52341" lon="2.44277">
        <ele>86.2</ele>
      </trkpt>
      <trkpt lat="50.52338" lon="2.44282">
        <ele>86.2</ele>
      </trkpt>
      <trkpt lat="50.52336" lon="2.44288">
        <ele>86</ele>
      </trkpt>
      <trkpt lat="50.52335" lon="2.44294">
        <ele>85.4</ele>
      </trkpt>
      <trkpt lat="50.52333" lon="2.443">
        <ele>84.8</ele>
      </trkpt>
      <trkpt lat="50.52332" lon="2.44305">
        <ele>84.9</ele>
      </trkpt>
      <trkpt lat="50.52331" lon="2.44311">
        <ele>84.4</ele>
      </trkpt>
      <trkpt lat="50.52334" lon="2.44315">
        <ele>82.9</ele>
      </trkpt>
      <trkpt lat="50.52337" lon="2.44326">
        <ele>81.3</ele>
      </trkpt>
      <trkpt lat="50.52337" lon="2.44331">
        <ele>80.6</ele>
      </trkpt>
      <trkpt lat="50.52337" lon="2.44337">
        <ele>80</ele>
      </trkpt>
      <trkpt lat="50.52336" lon="2.44344">
        <ele>79.4</ele>
      </trkpt>
      <trkpt lat="50.52339" lon="2.44349">
        <ele>78.5</ele>
      </trkpt>
      <trkpt lat="50.52341" lon="2.44355">
        <ele>77.7</ele>
      </trkpt>
      <trkpt lat="50.52341" lon="2.44361">
        <ele>76.9</ele>
      </trkpt>
      <trkpt lat="50.52342" lon="2.44367">
        <ele>75.8</ele>
      </trkpt>
      <trkpt lat="50.52345" lon="2.44372">
        <ele>74.7</ele>
      </trkpt>
      <trkpt lat="50.52345" lon="2.44378">
        <ele>73.8</ele>
      </trkpt>
      <trkpt lat="50.52345" lon="2.44385">
        <ele>72.8</ele>
      </trkpt>
      <trkpt lat="50.52344" lon="2.44391">
        <ele>72.1</ele>
      </trkpt>
      <trkpt lat="50.52345" lon="2.44398">
        <ele>71.6</ele>
      </trkpt>
      <trkpt lat="50.52345" lon="2.44405">
        <ele>71.3</ele>
      </trkpt>
      <trkpt lat="50.52344" lon="2.4441">
        <ele>71</ele>
      </trkpt>
      <trkpt lat="50.5234" lon="2.44416">
        <ele>70.8</ele>
      </trkpt>
      <trkpt lat="50.52338" lon="2.44423">
        <ele>71</ele>
      </trkpt>
      <trkpt lat="50.52336" lon="2.44435">
        <ele>71.4</ele>
      </trkpt>
      <trkpt lat="50.52325" lon="2.44469">
        <ele>74.7</ele>
      </trkpt>
      <trkpt lat="50.52322" lon="2.44474">
        <ele>75.4</ele>
      </trkpt>
      <trkpt lat="50.52321" lon="2.44481">
        <ele>76</ele>
      </trkpt>
      <trkpt lat="50.52324" lon="2.44486">
        <ele>76.2</ele>
      </trkpt>
      <trkpt lat="50.52328" lon="2.44489">
        <ele>75.9</ele>
      </trkpt>
      <trkpt lat="50.5233" lon="2.44499">
        <ele>76.5</ele>
      </trkpt>
      <trkpt lat="50.5233" lon="2.44505">
        <ele>77</ele>
      </trkpt>
      <trkpt lat="50.52329" lon="2.44515">
        <ele>78.3</ele>
      </trkpt>
      <trkpt lat="50.52326" lon="2.44526">
        <ele>79.8</ele>
      </trkpt>
      <trkpt lat="50.52325" lon="2.44532">
        <ele>80.6</ele>
      </trkpt>
      <trkpt lat="50.52324" lon="2.44538">
        <ele>81.3</ele>
      </trkpt>
      <trkpt lat="50.52319" lon="2.44543">
        <ele>82.1</ele>
      </trkpt>
      <trkpt lat="50.52314" lon="2.44547">
        <ele>82.8</ele>
      </trkpt>
      <trkpt lat="50.5231" lon="2.44551">
        <ele>83.5</ele>
      </trkpt>
      <trkpt lat="50.52304" lon="2.44553">
        <ele>83.9</ele>
      </trkpt>
      <trkpt lat="50.52298" lon="2.44556">
        <ele>84</ele>
      </trkpt>
      <trkpt lat="50.52293" lon="2.44561">
        <ele>84.3</ele>
      </trkpt>
      <trkpt lat="50.52288" lon="2.44563">
        <ele>84.5</ele>
      </trkpt>
      <trkpt lat="50.52286" lon="2.4457">
        <ele>84.9</ele>
      </trkpt>
      <trkpt lat="50.52276" lon="2.44579">
        <ele>85.7</ele>
      </trkpt>
      <trkpt lat="50.52272" lon="2.44589">
        <ele>86.2</ele>
      </trkpt>
      <trkpt lat="50.52258" lon="2.44589">
        <ele>86.2</ele>
      </trkpt>
      <trkpt lat="50.52248" lon="2.44595">
        <ele>86.4</ele>
      </trkpt>
      <trkpt lat="50.52238" lon="2.44601">
        <ele>86.7</ele>
      </trkpt>
      <trkpt lat="50.5223" lon="2.44609">
        <ele>86.9</ele>
      </trkpt>
      <trkpt lat="50.52226" lon="2.44619">
        <ele>87.3</ele>
      </trkpt>
      <trkpt lat="50.52218" lon="2.44626">
        <ele>87.5</ele>
      </trkpt>
      <trkpt lat="50.5221" lon="2.44633">
        <ele>87.8</ele>
      </trkpt>
      <trkpt lat="50.52202" lon="2.44651">
        <ele>88</ele>
      </trkpt>
      <trkpt lat="50.52207" lon="2.44663">
        <ele>88</ele>
      </trkpt>
      <trkpt lat="50.52216" lon="2.44663">
        <ele>88</ele>
      </trkpt>
      <trkpt lat="50.52224" lon="2.44679">
        <ele>88.4</ele>
      </trkpt>
      <trkpt lat="50.52233" lon="2.44695">
        <ele>89</ele>
      </trkpt>
      <trkpt lat="50.52241" lon="2.44705">
        <ele>89</ele>
      </trkpt>
      <trkpt lat="50.52252" lon="2.44711">
        <ele>89</ele>
      </trkpt>
      <trkpt lat="50.5226" lon="2.44715">
        <ele>88.9</ele>
      </trkpt>
      <trkpt lat="50.52269" lon="2.44721">
        <ele>89</ele>
      </trkpt>
      <trkpt lat="50.52276" lon="2.44738">
        <ele>89</ele>
      </trkpt>
      <trkpt lat="50.52286" lon="2.44746">
        <ele>89</ele>
      </trkpt>
      <trkpt lat="50.52294" lon="2.44752">
        <ele>89</ele>
      </trkpt>
      <trkpt lat="50.52303" lon="2.44753">
        <ele>89</ele>
      </trkpt>
      <trkpt lat="50.52313" lon="2.44755">
        <ele>88.8</ele>
      </trkpt>
      <trkpt lat="50.52322" lon="2.44755">
        <ele>88.5</ele>
      </trkpt>
      <trkpt lat="50.52334" lon="2.44754">
        <ele>88.1</ele>
      </trkpt>
      <trkpt lat="50.52342" lon="2.44746">
        <ele>87.7</ele>
      </trkpt>
      <trkpt lat="50.52346" lon="2.44736">
        <ele>87.5</ele>
      </trkpt>
      <trkpt lat="50.52353" lon="2.44727">
        <ele>87.3</ele>
      </trkpt>
      <trkpt lat="50.52361" lon="2.44718">
        <ele>86.9</ele>
      </trkpt>
      <trkpt lat="50.52358" lon="2.44705">
        <ele>86.6</ele>
      </trkpt>
      <trkpt lat="50.52363" lon="2.44694">
        <ele>85.9</ele>
      </trkpt>
      <trkpt lat="50.52368" lon="2.44684">
        <ele>85.7</ele>
      </trkpt>
      <trkpt lat="50.52372" lon="2.44673">
        <ele>85.3</ele>
      </trkpt>
      <trkpt lat="50.52379" lon="2.44664">
        <ele>84.6</ele>
      </trkpt>
      <trkpt lat="50.52376" lon="2.4465">
        <ele>84.4</ele>
      </trkpt>
      <trkpt lat="50.52377" lon="2.44639">
        <ele>83.8</ele>
      </trkpt>
      <trkpt lat="50.52375" lon="2.44626">
        <ele>83.5</ele>
      </trkpt>
      <trkpt lat="50.52377" lon="2.44613">
        <ele>82.9</ele>
      </trkpt>
      <trkpt lat="50.52371" lon="2.44599">
        <ele>82.4</ele>
      </trkpt>
      <trkpt lat="50.52375" lon="2.44586">
        <ele>81.2</ele>
      </trkpt>
      <trkpt lat="50.52389" lon="2.44585">
        <ele>80.2</ele>
      </trkpt>
      <trkpt lat="50.52392" lon="2.44596">
        <ele>80.2</ele>
      </trkpt>
      <trkpt lat="50.52398" lon="2.44605">
        <ele>80.1</ele>
      </trkpt>
      <trkpt lat="50.52403" lon="2.44616">
        <ele>80.7</ele>
      </trkpt>
      <trkpt lat="50.5241" lon="2.44624">
        <ele>80.5</ele>
      </trkpt>
      <trkpt lat="50.52417" lon="2.44633">
        <ele>80.6</ele>
      </trkpt>
      <trkpt lat="50.52429" lon="2.44641">
        <ele>80.6</ele>
      </trkpt>
      <trkpt lat="50.52432" lon="2.44652">
        <ele>80.6</ele>
      </trkpt>
      <trkpt lat="50.5244" lon="2.44663">
        <ele>80.3</ele>
      </trkpt>
      <trkpt lat="50.52444" lon="2.44677">
        <ele>80.4</ele>
      </trkpt>
      <trkpt lat="50.52452" lon="2.44687">
        <ele>80.2</ele>
      </trkpt>
      <trkpt lat="50.52456" lon="2.44697">
        <ele>80.3</ele>
      </trkpt>
      <trkpt lat="50.52459" lon="2.44708">
        <ele>80.1</ele>
      </trkpt>
      <trkpt lat="50.52463" lon="2.44719">
        <ele>80</ele>
      </trkpt>
      <trkpt lat="50.52462" lon="2.4473">
        <ele>80.3</ele>
      </trkpt>
      <trkpt lat="50.52458" lon="2.44752">
        <ele>81</ele>
      </trkpt>
      <trkpt lat="50.52459" lon="2.44764">
        <ele>81.2</ele>
      </trkpt>
      <trkpt lat="50.5245" lon="2.44772">
        <ele>82.3</ele>
      </trkpt>
      <trkpt lat="50.52446" lon="2.44785">
        <ele>82.9</ele>
      </trkpt>
      <trkpt lat="50.52448" lon="2.44797">
        <ele>82.7</ele>
      </trkpt>
      <trkpt lat="50.52434" lon="2.44803">
        <ele>83.7</ele>
      </trkpt>
      <trkpt lat="50.52431" lon="2.44814">
        <ele>84.3</ele>
      </trkpt>
      <trkpt lat="50.52442" lon="2.44826">
        <ele>83.9</ele>
      </trkpt>
      <trkpt lat="50.52453" lon="2.44837">
        <ele>83.5</ele>
      </trkpt>
      <trkpt lat="50.52464" lon="2.4485">
        <ele>83.2</ele>
      </trkpt>
      <trkpt lat="50.52476" lon="2.44863">
        <ele>82.8</ele>
      </trkpt>
      <trkpt lat="50.52487" lon="2.44874">
        <ele>82.9</ele>
      </trkpt>
      <trkpt lat="50.52491" lon="2.44885">
        <ele>83.4</ele>
      </trkpt>
      <trkpt lat="50.52503" lon="2.449">
        <ele>83.2</ele>
      </trkpt>
      <trkpt lat="50.52545" lon="2.44981">
        <ele>88.278653</ele>
        <time>2023-02-10T03:07:00Z</time>
      </trkpt>
      <trkpt lat="50.52569" lon="2.44943">
        <ele>87.168825</ele>
        <time>2023-02-10T03:07:08Z</time>
      </trkpt>
      <trkpt lat="50.52588" lon="2.44924">
        <ele>86.409704</ele>
        <time>2023-02-10T03:07:13Z</time>
      </trkpt>
      <trkpt lat="50.52624" lon="2.44904">
        <ele>84.549497</ele>
        <time>2023-02-10T03:07:22Z</time>
      </trkpt>
      <trkpt lat="50.52635" lon="2.44903">
        <ele>84.021324</ele>
        <time>2023-02-10T03:07:25Z</time>
      </trkpt>
      <trkpt lat="50.5266" lon="2.44908">
        <ele>82.794676</ele>
        <time>2023-02-10T03:07:31Z</time>
      </trkpt>
      <trkpt lat="50.52682" lon="2.44915">
        <ele>81.729492</ele>
        <time>2023-02-10T03:07:36Z</time>
      </trkpt>
      <trkpt lat="50.52695" lon="2.44926">
        <ele>81.027379</ele>
        <time>2023-02-10T03:07:40Z</time>
      </trkpt>
      <trkpt lat="50.52731" lon="2.44969">
        <ele>78.839817</ele>
        <time>2023-02-10T03:07:51Z</time>
      </trkpt>
      <trkpt lat="50.52787" lon="2.45023">
        <ele>76.211877</ele>
        <time>2023-02-10T03:08:07Z</time>
      </trkpt>
      <trkpt lat="50.52787" lon="2.45006">
        <ele>75.807729</ele>
        <time>2023-02-10T03:08:10Z</time>
      </trkpt>
      <trkpt lat="50.52784" lon="2.44978">
        <ele>75.16253</ele>
        <time>2023-02-10T03:08:14Z</time>
      </trkpt>
      <trkpt lat="50.52778" lon="2.44932">
        <ele>74.061225</ele>
        <time>2023-02-10T03:08:22Z</time>
      </trkpt>
      <trkpt lat="50.52773" lon="2.44913">
        <ele>73.589975</ele>
        <time>2023-02-10T03:08:27Z</time>
      </trkpt>
      <trkpt lat="50.52772" lon="2.449">
        <ele>73.273825</ele>
        <time>2023-02-10T03:08:29Z</time>
      </trkpt>
      <trkpt lat="50.52775" lon="2.44894">
        <ele>73.107096</ele>
        <time>2023-02-10T03:08:30Z</time>
      </trkpt>
      <trkpt lat="50.52783" lon="2.44889">
        <ele>72.774172</ele>
        <time>2023-02-10T03:08:32Z</time>
      </trkpt>
      <trkpt lat="50.52795" lon="2.44888">
        <ele>72.357476</ele>
        <time>2023-02-10T03:08:36Z</time>
      </trkpt>
      <trkpt lat="50.52839" lon="2.44896">
        <ele>71.009477</ele>
        <time>2023-02-10T03:08:48Z</time>
      </trkpt>
      <trkpt lat="50.52845" lon="2.44892">
        <ele>70.888145</ele>
        <time>2023-02-10T03:08:49Z</time>
      </trkpt>
      <trkpt lat="50.52852" lon="2.44895">
        <ele>62.7</ele>
      </trkpt>
      <trkpt lat="50.52854" lon="2.449">
        <ele>63.2</ele>
      </trkpt>
      <trkpt lat="50.52858" lon="2.44903">
        <ele>63.4</ele>
      </trkpt>
      <trkpt lat="50.52862" lon="2.44906">
        <ele>63.4</ele>
      </trkpt>
      <trkpt lat="50.52864" lon="2.44908">
        <ele>63.4</ele>
      </trkpt>
      <trkpt lat="50.52867" lon="2.44912">
        <ele>63.5</ele>
      </trkpt>
      <trkpt lat="50.52869" lon="2.44913">
        <ele>63.3</ele>
      </trkpt>
      <trkpt lat="50.52871" lon="2.44914">
        <ele>63</ele>
      </trkpt>
      <trkpt lat="50.52873" lon="2.44915">
        <ele>62.7</ele>
      </trkpt>
      <trkpt lat="50.52875" lon="2.44916">
        <ele>62.4</ele>
      </trkpt>
      <trkpt lat="50.52878" lon="2.44917">
        <ele>62.1</ele>
      </trkpt>
      <trkpt lat="50.5288" lon="2.44918">
        <ele>61.9</ele>
      </trkpt>
      <trkpt lat="50.52883" lon="2.44919">
        <ele>61.6</ele>
      </trkpt>
      <trkpt lat="50.52886" lon="2.44919">
        <ele>61.1</ele>
      </trkpt>
      <trkpt lat="50.52889" lon="2.44918">
        <ele>60.5</ele>
      </trkpt>
      <trkpt lat="50.52892" lon="2.44919">
        <ele>60.3</ele>
      </trkpt>
      <trkpt lat="50.52895" lon="2.44919">
        <ele>60.2</ele>
      </trkpt>
      <trkpt lat="50.52897" lon="2.4492">
        <ele>60.3</ele>
      </trkpt>
      <trkpt lat="50.529" lon="2.44922">
        <ele>60.4</ele>
      </trkpt>
      <trkpt lat="50.52902" lon="2.44924">
        <ele>60.5</ele>
      </trkpt>
      <trkpt lat="50.52903" lon="2.44927">
        <ele>60.8</ele>
      </trkpt>
      <trkpt lat="50.52905" lon="2.4493">
        <ele>60.8</ele>
      </trkpt>
      <trkpt lat="50.52907" lon="2.44932">
        <ele>60.7</ele>
      </trkpt>
      <trkpt lat="50.52909" lon="2.44935">
        <ele>60.6</ele>
      </trkpt>
      <trkpt lat="50.5291" lon="2.44937">
        <ele>60.4</ele>
      </trkpt>
      <trkpt lat="50.52912" lon="2.4494">
        <ele>60.1</ele>
      </trkpt>
      <trkpt lat="50.52915" lon="2.44946">
        <ele>59.9</ele>
      </trkpt>
      <trkpt lat="50.52917" lon="2.44949">
        <ele>60</ele>
      </trkpt>
      <trkpt lat="50.52919" lon="2.44951">
        <ele>60.5</ele>
      </trkpt>
      <trkpt lat="50.52921" lon="2.44954">
        <ele>61</ele>
      </trkpt>
      <trkpt lat="50.52923" lon="2.44955">
        <ele>61.2</ele>
      </trkpt>
      <trkpt lat="50.52926" lon="2.44957">
        <ele>61.1</ele>
      </trkpt>
      <trkpt lat="50.52929" lon="2.44959">
        <ele>61.3</ele>
      </trkpt>
      <trkpt lat="50.52932" lon="2.44961">
        <ele>61.3</ele>
      </trkpt>
      <trkpt lat="50.52935" lon="2.44963">
        <ele>61</ele>
      </trkpt>
      <trkpt lat="50.52937" lon="2.44966">
        <ele>60.9</ele>
      </trkpt>
      <trkpt lat="50.52941" lon="2.44966">
        <ele>60.3</ele>
      </trkpt>
      <trkpt lat="50.52944" lon="2.44967">
        <ele>59.8</ele>
      </trkpt>
      <trkpt lat="50.52948" lon="2.44966">
        <ele>59.9</ele>
      </trkpt>
      <trkpt lat="50.52951" lon="2.44964">
        <ele>59.9</ele>
      </trkpt>
      <trkpt lat="50.52954" lon="2.44961">
        <ele>59.8</ele>
      </trkpt>
      <trkpt lat="50.52958" lon="2.44959">
        <ele>59.8</ele>
      </trkpt>
      <trkpt lat="50.52962" lon="2.44957">
        <ele>59.7</ele>
      </trkpt>
      <trkpt lat="50.52966" lon="2.44957">
        <ele>59.8</ele>
      </trkpt>
      <trkpt lat="50.5297" lon="2.44958">
        <ele>60</ele>
      </trkpt>
      <trkpt lat="50.52973" lon="2.4496">
        <ele>60.1</ele>
      </trkpt>
      <trkpt lat="50.52976" lon="2.44962">
        <ele>60.2</ele>
      </trkpt>
      <trkpt lat="50.52979" lon="2.44965">
        <ele>60.2</ele>
      </trkpt>
      <trkpt lat="50.52981" lon="2.44969">
        <ele>60.2</ele>
      </trkpt>
      <trkpt lat="50.52983" lon="2.44972">
        <ele>60.2</ele>
      </trkpt>
      <trkpt lat="50.52987" lon="2.44974">
        <ele>60.2</ele>
      </trkpt>
      <trkpt lat="50.52989" lon="2.44977">
        <ele>60.3</ele>
      </trkpt>
      <trkpt lat="50.52992" lon="2.44981">
        <ele>60.4</ele>
      </trkpt>
      <trkpt lat="50.52995" lon="2.44985">
        <ele>60.4</ele>
      </trkpt>
      <trkpt lat="50.52997" lon="2.44988">
        <ele>60.6</ele>
      </trkpt>
      <trkpt lat="50.52998" lon="2.44992">
        <ele>60.6</ele>
      </trkpt>
      <trkpt lat="50.53002" lon="2.44995">
        <ele>60.5</ele>
      </trkpt>
      <trkpt lat="50.53006" lon="2.44997">
        <ele>60.4</ele>
      </trkpt>
      <trkpt lat="50.5301" lon="2.45">
        <ele>60.2</ele>
      </trkpt>
      <trkpt lat="50.53015" lon="2.45003">
        <ele>60.3</ele>
      </trkpt>
      <trkpt lat="50.53018" lon="2.45006">
        <ele>60.4</ele>
      </trkpt>
      <trkpt lat="50.5302" lon="2.4501">
        <ele>60.6</ele>
      </trkpt>
      <trkpt lat="50.53023" lon="2.45014">
        <ele>60.6</ele>
      </trkpt>
      <trkpt lat="50.53025" lon="2.45017">
        <ele>60.6</ele>
      </trkpt>
      <trkpt lat="50.53028" lon="2.4502">
        <ele>60.4</ele>
      </trkpt>
      <trkpt lat="50.53035" lon="2.45023">
        <ele>60</ele>
      </trkpt>
      <trkpt lat="50.5304" lon="2.45026">
        <ele>59.6</ele>
      </trkpt>
      <trkpt lat="50.53045" lon="2.45029">
        <ele>59.3</ele>
      </trkpt>
      <trkpt lat="50.53047" lon="2.45034">
        <ele>59.4</ele>
      </trkpt>
      <trkpt lat="50.53051" lon="2.45036">
        <ele>59</ele>
      </trkpt>
      <trkpt lat="50.53056" lon="2.4504">
        <ele>58.4</ele>
      </trkpt>
      <trkpt lat="50.53059" lon="2.45044">
        <ele>58.5</ele>
      </trkpt>
      <trkpt lat="50.53081" lon="2.45071">
        <ele>66.273241</ele>
        <time>2023-02-10T03:10:14Z</time>
      </trkpt>
      <trkpt lat="50.53094" lon="2.451">
        <ele>65.999029</ele>
        <time>2023-02-10T03:10:20Z</time>
      </trkpt>
      <trkpt lat="50.53106" lon="2.45114">
        <ele>65.814055</ele>
        <time>2023-02-10T03:10:24Z</time>
      </trkpt>
      <trkpt lat="50.53142" lon="2.45135">
        <ele>65.283135</ele>
        <time>2023-02-10T03:10:35Z</time>
      </trkpt>
      <trkpt lat="50.53173" lon="2.45169">
        <ele>64.749021</ele>
        <time>2023-02-10T03:10:46Z</time>
      </trkpt>
      <trkpt lat="50.53197" lon="2.45169">
        <ele>64.416526</ele>
        <time>2023-02-10T03:10:53Z</time>
      </trkpt>
      <trkpt lat="50.53211" lon="2.45176">
        <ele>64.20622</ele>
        <time>2023-02-10T03:10:57Z</time>
      </trkpt>
      <trkpt lat="50.53228" lon="2.45196">
        <ele>63.904054</ele>
        <time>2023-02-10T03:11:03Z</time>
      </trkpt>
      <trkpt lat="50.53302" lon="2.45252">
        <ele>62.582754</ele>
        <time>2023-02-10T03:11:26Z</time>
      </trkpt>
      <trkpt lat="50.53383" lon="2.45281">
        <ele>60.994986</ele>
        <time>2023-02-10T03:11:49Z</time>
      </trkpt>
      <trkpt lat="50.53409" lon="2.45277">
        <ele>60.497826</ele>
        <time>2023-02-10T03:11:56Z</time>
      </trkpt>
      <trkpt lat="50.53437" lon="2.45268">
        <ele>59.951403</ele>
        <time>2023-02-10T03:12:04Z</time>
      </trkpt>
      <trkpt lat="50.53489" lon="2.45262">
        <ele>58.840524</ele>
        <time>2023-02-10T03:12:19Z</time>
      </trkpt>
      <trkpt lat="50.53531" lon="2.4525">
        <ele>57.922246</ele>
        <time>2023-02-10T03:12:30Z</time>
      </trkpt>
      <trkpt lat="50.53574" lon="2.45228">
        <ele>56.946255</ele>
        <time>2023-02-10T03:12:42Z</time>
      </trkpt>
      <trkpt lat="50.53621" lon="2.45214">
        <ele>55.901491</ele>
        <time>2023-02-10T03:12:55Z</time>
      </trkpt>
      <trkpt lat="50.53632" lon="2.45213">
        <ele>55.875367</ele>
        <time>2023-02-10T03:12:58Z</time>
      </trkpt>
      <trkpt lat="50.53659" lon="2.45212">
        <ele>55.976526</ele>
        <time>2023-02-10T03:13:06Z</time>
      </trkpt>
      <trkpt lat="50.53643" lon="2.45166">
        <ele>56.100036</ele>
        <time>2023-02-10T03:13:16Z</time>
      </trkpt>
      <trkpt lat="50.53627" lon="2.45094">
        <ele>56.282034</ele>
        <time>2023-02-10T03:13:31Z</time>
      </trkpt>
      <trkpt lat="50.53615" lon="2.45079">
        <ele>56.339073</ele>
        <time>2023-02-10T03:13:37Z</time>
      </trkpt>
      <trkpt lat="50.536" lon="2.45053">
        <ele>56.421891</ele>
        <time>2023-02-10T03:13:45Z</time>
      </trkpt>
      <trkpt lat="50.53573" lon="2.4498">
        <ele>57.840569</ele>
        <time>2023-02-10T03:14:10Z</time>
      </trkpt>
      <trkpt lat="50.53566" lon="2.44961">
        <ele>53.6</ele>
      </trkpt>
      <trkpt lat="50.5356" lon="2.44943">
        <ele>53.9</ele>
      </trkpt>
      <trkpt lat="50.53552" lon="2.44932">
        <ele>54.2</ele>
      </trkpt>
      <trkpt lat="50.53544" lon="2.44928">
        <ele>54.6</ele>
      </trkpt>
      <trkpt lat="50.53531" lon="2.4492">
        <ele>55</ele>
      </trkpt>
      <trkpt lat="50.53521" lon="2.44903">
        <ele>56.2</ele>
      </trkpt>
      <trkpt lat="50.53514" lon="2.4489">
        <ele>58</ele>
      </trkpt>
      <trkpt lat="50.53511" lon="2.44878">
        <ele>59.8</ele>
      </trkpt>
      <trkpt lat="50.5351" lon="2.44868">
        <ele>62.747885</ele>
        <time>2023-02-10T03:15:08Z</time>
      </trkpt>
      <trkpt lat="50.53508" lon="2.44859">
        <ele>63.023678</ele>
        <time>2023-02-10T03:15:11Z</time>
      </trkpt>
      <trkpt lat="50.53506" lon="2.4485">
        <ele>63.307342</ele>
        <time>2023-02-10T03:15:13Z</time>
      </trkpt>
      <trkpt lat="50.53501" lon="2.44843">
        <ele>63.589914</ele>
        <time>2023-02-10T03:15:16Z</time>
      </trkpt>
      <trkpt lat="50.53501" lon="2.44833">
        <ele>63.894227</ele>
        <time>2023-02-10T03:15:19Z</time>
      </trkpt>
      <trkpt lat="50.53494" lon="2.44828">
        <ele>64.247773</ele>
        <time>2023-02-10T03:15:22Z</time>
      </trkpt>
      <trkpt lat="50.53454" lon="2.44761">
        <ele>66.367067</ele>
        <time>2023-02-10T03:15:49Z</time>
      </trkpt>
      <trkpt lat="50.53426" lon="2.44692">
        <ele>68.126755</ele>
        <time>2023-02-10T03:16:14Z</time>
      </trkpt>
      <trkpt lat="50.53398" lon="2.4463">
        <ele>69.587832</ele>
        <time>2023-02-10T03:16:35Z</time>
      </trkpt>
      <trkpt lat="50.53388" lon="2.44605">
        <ele>60.2</ele>
      </trkpt>
      <trkpt lat="50.53378" lon="2.4457">
        <ele>61.8</ele>
      </trkpt>
      <trkpt lat="50.53362" lon="2.44504">
        <ele>71.14787</ele>
        <time>2023-02-10T03:17:15Z</time>
      </trkpt>
      <trkpt lat="50.53354" lon="2.44488">
        <ele>71.308367</ele>
        <time>2023-02-10T03:17:20Z</time>
      </trkpt>
      <trkpt lat="50.53327" lon="2.44463">
        <ele>71.711334</ele>
        <time>2023-02-10T03:17:33Z</time>
      </trkpt>
      <trkpt lat="50.53305" lon="2.44443">
        <ele>72.040688</ele>
        <time>2023-02-10T03:17:45Z</time>
      </trkpt>
      <trkpt lat="50.53294" lon="2.44397">
        <ele>72.435765</ele>
        <time>2023-02-10T03:17:58Z</time>
      </trkpt>
      <trkpt lat="50.53258" lon="2.44339">
        <ele>73.400726</ele>
        <time>2023-02-10T03:18:20Z</time>
      </trkpt>
      <trkpt lat="50.53214" lon="2.44291">
        <ele>74.432942</ele>
        <time>2023-02-10T03:18:43Z</time>
      </trkpt>
      <trkpt lat="50.53173" lon="2.44273">
        <ele>75.273602</ele>
        <time>2023-02-10T03:19:01Z</time>
      </trkpt>
      <trkpt lat="50.53114" lon="2.44188">
        <ele>76.65825</ele>
        <time>2023-02-10T03:19:35Z</time>
      </trkpt>
      <trkpt lat="50.53101" lon="2.44164">
        <ele>76.953396</ele>
        <time>2023-02-10T03:19:44Z</time>
      </trkpt>
      <trkpt lat="50.5303" lon="2.44062">
        <ele>78.385654</ele>
        <time>2023-02-10T03:20:21Z</time>
      </trkpt>
      <trkpt lat="50.52989" lon="2.44011">
        <ele>78.948627</ele>
        <time>2023-02-10T03:20:40Z</time>
      </trkpt>
      <trkpt lat="50.52953" lon="2.43972">
        <ele>79.269802</ele>
        <time>2023-02-10T03:20:55Z</time>
      </trkpt>
      <trkpt lat="50.52895" lon="2.43892">
        <ele>79.84556</ele>
        <time>2023-02-10T03:21:23Z</time>
      </trkpt>
      <trkpt lat="50.52897" lon="2.43883">
        <ele>79.894635</ele>
        <time>2023-02-10T03:21:24Z</time>
      </trkpt>
      <trkpt lat="50.52931" lon="2.43817">
        <ele>80.536563</ele>
        <time>2023-02-10T03:21:44Z</time>
      </trkpt>
      <trkpt lat="50.52946" lon="2.43781">
        <ele>80.967503</ele>
        <time>2023-02-10T03:21:55Z</time>
      </trkpt>
      <trkpt lat="50.52962" lon="2.43754">
        <ele>81.326421</ele>
        <time>2023-02-10T03:22:04Z</time>
      </trkpt>
      <trkpt lat="50.53025" lon="2.43686">
        <ele>82.512278</ele>
        <time>2023-02-10T03:22:35Z</time>
      </trkpt>
      <trkpt lat="50.53064" lon="2.43638">
        <ele>83.245274</ele>
        <time>2023-02-10T03:22:57Z</time>
      </trkpt>
      <trkpt lat="50.53124" lon="2.4356">
        <ele>84.317553</ele>
        <time>2023-02-10T03:23:20Z</time>
      </trkpt>
      <trkpt lat="50.53161" lon="2.43513">
        <ele>84.970116</ele>
        <time>2023-02-10T03:23:33Z</time>
      </trkpt>
      <trkpt lat="50.53202" lon="2.43461">
        <ele>85.053794</ele>
        <time>2023-02-10T03:23:44Z</time>
      </trkpt>
      <trkpt lat="50.53287" lon="2.43331">
        <ele>83.644333</ele>
        <time>2023-02-10T03:24:05Z</time>
      </trkpt>
      <trkpt lat="50.53373" lon="2.43199">
        <ele>81.017968</ele>
        <time>2023-02-10T03:24:24Z</time>
      </trkpt>
      <trkpt lat="50.53475" lon="2.43031">
        <ele>78.033052</ele>
        <time>2023-02-10T03:24:47Z</time>
      </trkpt>
      <trkpt lat="50.53485" lon="2.43009">
        <ele>77.885619</ele>
        <time>2023-02-10T03:24:50Z</time>
      </trkpt>
      <trkpt lat="50.53489" lon="2.42994">
        <ele>77.791</ele>
        <time>2023-02-10T03:24:52Z</time>
      </trkpt>
      <trkpt lat="50.53489" lon="2.42974">
        <ele>77.676942</ele>
        <time>2023-02-10T03:24:54Z</time>
      </trkpt>
      <trkpt lat="50.53487" lon="2.42964">
        <ele>77.615833</ele>
        <time>2023-02-10T03:24:55Z</time>
      </trkpt>
      <trkpt lat="50.53466" lon="2.42929">
        <ele>77.347101</ele>
        <time>2023-02-10T03:25:01Z</time>
      </trkpt>
      <trkpt lat="50.5346" lon="2.42912">
        <ele>77.236511</ele>
        <time>2023-02-10T03:25:04Z</time>
      </trkpt>
      <trkpt lat="50.53459" lon="2.42889">
        <ele>77.106633</ele>
        <time>2023-02-10T03:25:07Z</time>
      </trkpt>
      <trkpt lat="50.53484" lon="2.42842">
        <ele>77.160059</ele>
        <time>2023-02-10T03:25:17Z</time>
      </trkpt>
      <trkpt lat="50.53502" lon="2.42801">
        <ele>77.729604</ele>
        <time>2023-02-10T03:25:26Z</time>
      </trkpt>
      <trkpt lat="50.53538" lon="2.42692">
        <ele>79.137949</ele>
        <time>2023-02-10T03:25:50Z</time>
      </trkpt>
      <trkpt lat="50.53571" lon="2.42602">
        <ele>80.258131</ele>
        <time>2023-02-10T03:26:11Z</time>
      </trkpt>
      <trkpt lat="50.53616" lon="2.42536">
        <ele>80.966182</ele>
        <time>2023-02-10T03:26:29Z</time>
      </trkpt>
      <trkpt lat="50.53733" lon="2.42389">
        <ele>82.198441</ele>
        <time>2023-02-10T03:27:04Z</time>
      </trkpt>
      <trkpt lat="50.53761" lon="2.42356">
        <ele>82.190724</ele>
        <time>2023-02-10T03:27:11Z</time>
      </trkpt>
      <trkpt lat="50.53774" lon="2.42342">
        <ele>84</ele>
      </trkpt>
      <trkpt lat="50.53782" lon="2.42319">
        <ele>84</ele>
      </trkpt>
      <trkpt lat="50.53783" lon="2.4232">
        <ele>84</ele>
      </trkpt>
      <trkpt lat="50.53785" lon="2.42321">
        <ele>84</ele>
      </trkpt>
      <trkpt lat="50.53786" lon="2.42323">
        <ele>84</ele>
      </trkpt>
      <trkpt lat="50.53788" lon="2.42323">
        <ele>84</ele>
      </trkpt>
      <trkpt lat="50.5379" lon="2.42324">
        <ele>84</ele>
      </trkpt>
      <trkpt lat="50.53792" lon="2.42323">
        <ele>84</ele>
      </trkpt>
      <trkpt lat="50.53794" lon="2.42323">
        <ele>84</ele>
      </trkpt>
      <trkpt lat="50.53797" lon="2.42322">
        <ele>84</ele>
      </trkpt>
      <trkpt lat="50.53799" lon="2.42321">
        <ele>84</ele>
      </trkpt>
      <trkpt lat="50.53801" lon="2.4232">
        <ele>84</ele>
      </trkpt>
      <trkpt lat="50.53803" lon="2.42319">
        <ele>84</ele>
      </trkpt>
      <trkpt lat="50.53805" lon="2.42319">
        <ele>84</ele>
      </trkpt>
      <trkpt lat="50.53807" lon="2.42317">
        <ele>84</ele>
      </trkpt>
      <trkpt lat="50.53809" lon="2.42315">
        <ele>84</ele>
      </trkpt>
      <trkpt lat="50.53811" lon="2.42313">
        <ele>84</ele>
      </trkpt>
      <trkpt lat="50.53813" lon="2.42311">
        <ele>84</ele>
      </trkpt>
      <trkpt lat="50.53813" lon="2.42308">
        <ele>84</ele>
      </trkpt>
      <trkpt lat="50.53815" lon="2.42305">
        <ele>84</ele>
      </trkpt>
      <trkpt lat="50.53817" lon="2.42303">
        <ele>84</ele>
      </trkpt>
      <trkpt lat="50.5382" lon="2.42301">
        <ele>84</ele>
      </trkpt>
      <trkpt lat="50.53822" lon="2.42299">
        <ele>84</ele>
      </trkpt>
      <trkpt lat="50.53825" lon="2.42297">
        <ele>84</ele>
      </trkpt>
      <trkpt lat="50.53827" lon="2.42295">
        <ele>84</ele>
      </trkpt>
      <trkpt lat="50.5383" lon="2.42293">
        <ele>84</ele>
      </trkpt>
      <trkpt lat="50.53832" lon="2.42291">
        <ele>84</ele>
      </trkpt>
      <trkpt lat="50.53834" lon="2.42289">
        <ele>84</ele>
      </trkpt>
      <trkpt lat="50.53837" lon="2.42287">
        <ele>83.9</ele>
      </trkpt>
      <trkpt lat="50.53839" lon="2.42285">
        <ele>83.8</ele>
      </trkpt>
      <trkpt lat="50.53841" lon="2.42283">
        <ele>83.7</ele>
      </trkpt>
      <trkpt lat="50.53844" lon="2.42282">
        <ele>83.6</ele>
      </trkpt>
      <trkpt lat="50.53847" lon="2.42281">
        <ele>83.5</ele>
      </trkpt>
      <trkpt lat="50.53849" lon="2.42282">
        <ele>83.4</ele>
      </trkpt>
      <trkpt lat="50.53852" lon="2.42282">
        <ele>83.3</ele>
      </trkpt>
      <trkpt lat="50.53856" lon="2.42283">
        <ele>82.063207</ele>
        <time>2023-02-10T03:27:33Z</time>
      </trkpt>
      <trkpt lat="50.53955" lon="2.42359">
        <ele>81.075187</ele>
        <time>2023-02-10T03:27:53Z</time>
      </trkpt>
      <trkpt lat="50.53971" lon="2.42366">
        <ele>80.932583</ele>
        <time>2023-02-10T03:27:56Z</time>
      </trkpt>
      <trkpt lat="50.5401" lon="2.42247">
        <ele>79.319895</ele>
        <time>2023-02-10T03:28:20Z</time>
      </trkpt>
      <trkpt lat="50.54023" lon="2.42196">
        <ele>78.291052</ele>
        <time>2023-02-10T03:28:30Z</time>
      </trkpt>
      <trkpt lat="50.54038" lon="2.42122">
        <ele>76.872184</ele>
        <time>2023-02-10T03:28:43Z</time>
      </trkpt>
      <trkpt lat="50.54046" lon="2.42091">
        <ele>76.251263</ele>
        <time>2023-02-10T03:28:48Z</time>
      </trkpt>
      <trkpt lat="50.54065" lon="2.4204">
        <ele>75.015114</ele>
        <time>2023-02-10T03:28:57Z</time>
      </trkpt>
      <trkpt lat="50.54086" lon="2.4195">
        <ele>71.779892</ele>
        <time>2023-02-10T03:29:12Z</time>
      </trkpt>
      <trkpt lat="50.54101" lon="2.41908">
        <ele>65.6</ele>
      </trkpt>
      <trkpt lat="50.54108" lon="2.41877">
        <ele>62.8</ele>
      </trkpt>
      <trkpt lat="50.5413" lon="2.41848">
        <ele>61.7</ele>
      </trkpt>
      <trkpt lat="50.54188" lon="2.41745">
        <ele>64.678011</ele>
        <time>2023-02-10T03:29:39Z</time>
      </trkpt>
      <trkpt lat="50.542" lon="2.41746">
        <ele>64.442736</ele>
        <time>2023-02-10T03:29:40Z</time>
      </trkpt>
      <trkpt lat="50.54268" lon="2.41811">
        <ele>62.871115</ele>
        <time>2023-02-10T03:29:54Z</time>
      </trkpt>
      <trkpt lat="50.54284" lon="2.41824">
        <ele>62.523094</ele>
        <time>2023-02-10T03:29:59Z</time>
      </trkpt>
      <trkpt lat="50.54295" lon="2.41828">
        <ele>62.300957</ele>
        <time>2023-02-10T03:30:01Z</time>
      </trkpt>
      <trkpt lat="50.54296" lon="2.41827">
        <ele>62.280236</ele>
        <time>2023-02-10T03:30:01Z</time>
      </trkpt>
      <trkpt lat="50.54297" lon="2.41833">
        <ele>62.269382</ele>
        <time>2023-02-10T03:30:02Z</time>
      </trkpt>
      <trkpt lat="50.54324" lon="2.41861">
        <ele>62.691838</ele>
        <time>2023-02-10T03:30:11Z</time>
      </trkpt>
      <trkpt lat="50.5432" lon="2.41887">
        <ele>62.911439</ele>
        <time>2023-02-10T03:30:17Z</time>
      </trkpt>
      <trkpt lat="50.54308" lon="2.41919">
        <ele>58</ele>
      </trkpt>
      <trkpt lat="50.543" lon="2.41968">
        <ele>63.628632</ele>
        <time>2023-02-10T03:30:32Z</time>
      </trkpt>
      <trkpt lat="50.54307" lon="2.41975">
        <ele>62.1</ele>
      </trkpt>
      <trkpt lat="50.54327" lon="2.41983">
        <ele>61.5</ele>
      </trkpt>
      <trkpt lat="50.54371" lon="2.42001">
        <ele>59.5</ele>
      </trkpt>
      <trkpt lat="50.54396" lon="2.42024">
        <ele>60.5</ele>
      </trkpt>
      <trkpt lat="50.54443" lon="2.42056">
        <ele>59.2</ele>
      </trkpt>
      <trkpt lat="50.54498" lon="2.42085">
        <ele>59.7</ele>
      </trkpt>
      <trkpt lat="50.5454" lon="2.42112">
        <ele>61.3</ele>
      </trkpt>
      <trkpt lat="50.54629" lon="2.42151">
        <ele>61.2</ele>
      </trkpt>
      <trkpt lat="50.54703" lon="2.4218">
        <ele>59.2</ele>
      </trkpt>
      <trkpt lat="50.54743" lon="2.42202">
        <ele>61.744948</ele>
        <time>2023-02-10T03:33:01Z</time>
      </trkpt>
      <trkpt lat="50.54828" lon="2.4222">
        <ele>59.833621</ele>
        <time>2023-02-10T03:33:25Z</time>
      </trkpt>
      <trkpt lat="50.5494" lon="2.42232">
        <ele>56.544653</ele>
        <time>2023-02-10T03:33:54Z</time>
      </trkpt>
      <trkpt lat="50.54952" lon="2.42229">
        <ele>56.103166</ele>
        <time>2023-02-10T03:33:57Z</time>
      </trkpt>
      <trkpt lat="50.5498" lon="2.42219">
        <ele>55.045273</ele>
        <time>2023-02-10T03:34:01Z</time>
      </trkpt>
      <trkpt lat="50.55027" lon="2.42228">
        <ele>53.260326</ele>
        <time>2023-02-10T03:34:08Z</time>
      </trkpt>
      <trkpt lat="50.55134" lon="2.42272">
        <ele>50.674355</ele>
        <time>2023-02-10T03:34:25Z</time>
      </trkpt>
      <trkpt lat="50.55195" lon="2.42304">
        <ele>49.618329</ele>
        <time>2023-02-10T03:34:36Z</time>
      </trkpt>
      <trkpt lat="50.5521" lon="2.42279">
        <ele>47.2</ele>
      </trkpt>
      <trkpt lat="50.55233" lon="2.4225">
        <ele>46.4</ele>
      </trkpt>
      <trkpt lat="50.5526" lon="2.4222">
        <ele>49.026063</ele>
        <time>2023-02-10T03:34:53Z</time>
      </trkpt>
      <trkpt lat="50.55268" lon="2.42212">
        <ele>49.050026</ele>
        <time>2023-02-10T03:34:55Z</time>
      </trkpt>
      <trkpt lat="50.55277" lon="2.42203">
        <ele>46</ele>
      </trkpt>
      <trkpt lat="50.55295" lon="2.42225">
        <ele>49.13988</ele>
        <time>2023-02-10T03:35:05Z</time>
      </trkpt>
      <trkpt lat="50.553" lon="2.42229">
        <ele>49.154533</ele>
        <time>2023-02-10T03:35:06Z</time>
      </trkpt>
      <trkpt lat="50.55309" lon="2.42228">
        <ele>49.175785</ele>
        <time>2023-02-10T03:35:09Z</time>
      </trkpt>
      <trkpt lat="50.55398" lon="2.42148">
        <ele>49.36554</ele>
        <time>2023-02-10T03:35:36Z</time>
      </trkpt>
      <trkpt lat="50.55506" lon="2.42062">
        <ele>49.337843</ele>
        <time>2023-02-10T03:36:14Z</time>
      </trkpt>
      <trkpt lat="50.55528" lon="2.42048">
        <ele>46.2</ele>
      </trkpt>
      <trkpt lat="50.55544" lon="2.42046">
        <ele>49.321552</ele>
        <time>2023-02-10T03:36:26Z</time>
      </trkpt>
      <trkpt lat="50.55671" lon="2.42051">
        <ele>49.106259</ele>
        <time>2023-02-10T03:37:07Z</time>
      </trkpt>
      <trkpt lat="50.55712" lon="2.42051">
        <ele>48.4</ele>
      </trkpt>
      <trkpt lat="50.55728" lon="2.42055">
        <ele>48.3</ele>
      </trkpt>
      <trkpt lat="50.55733" lon="2.42058">
        <ele>47.9</ele>
      </trkpt>
      <trkpt lat="50.55734" lon="2.4206">
        <ele>48</ele>
      </trkpt>
      <trkpt lat="50.5574" lon="2.42057">
        <ele>47.1</ele>
      </trkpt>
      <trkpt lat="50.55753" lon="2.4206">
        <ele>46</ele>
      </trkpt>
      <trkpt lat="50.55763" lon="2.42059">
        <ele>45.3</ele>
      </trkpt>
      <trkpt lat="50.55786" lon="2.42039">
        <ele>43.2</ele>
      </trkpt>
      <trkpt lat="50.55803" lon="2.42017">
        <ele>47.239485</ele>
        <time>2023-02-10T03:38:01Z</time>
      </trkpt>
      <trkpt lat="50.55837" lon="2.41965">
        <ele>46.635295</ele>
        <time>2023-02-10T03:38:14Z</time>
      </trkpt>
      <trkpt lat="50.55907" lon="2.41835">
        <ele>45.677653</ele>
        <time>2023-02-10T03:38:45Z</time>
      </trkpt>
      <trkpt lat="50.55914" lon="2.41815">
        <ele>45.552701</ele>
        <time>2023-02-10T03:38:49Z</time>
      </trkpt>
      <trkpt lat="50.55925" lon="2.41725">
        <ele>45.119188</ele>
        <time>2023-02-10T03:39:08Z</time>
      </trkpt>
      <trkpt lat="50.55925" lon="2.41695">
        <ele>45.277181</ele>
        <time>2023-02-10T03:39:14Z</time>
      </trkpt>
      <trkpt lat="50.55997" lon="2.41672">
        <ele>44.3</ele>
      </trkpt>
      <trkpt lat="50.56003" lon="2.41652">
        <ele>45.1</ele>
      </trkpt>
      <trkpt lat="50.56009" lon="2.41642">
        <ele>46.080874</ele>
        <time>2023-02-10T03:39:41Z</time>
      </trkpt>
      <trkpt lat="50.56108" lon="2.41471">
        <ele>47.084386</ele>
        <time>2023-02-10T03:40:37Z</time>
      </trkpt>
      <trkpt lat="50.56106" lon="2.41446">
        <ele>49.9</ele>
      </trkpt>
      <trkpt lat="50.56113" lon="2.41433">
        <ele>47.233899</ele>
        <time>2023-02-10T03:40:45Z</time>
      </trkpt>
      <trkpt lat="50.56128" lon="2.41422">
        <ele>48.8</ele>
      </trkpt>
      <trkpt lat="50.56134" lon="2.41411">
        <ele>47.381362</ele>
        <time>2023-02-10T03:40:53Z</time>
      </trkpt>
      <trkpt lat="50.56166" lon="2.41319">
        <ele>47.789871</ele>
        <time>2023-02-10T03:41:14Z</time>
      </trkpt>
      <trkpt lat="50.56178" lon="2.41282">
        <ele>47.952597</ele>
        <time>2023-02-10T03:41:21Z</time>
      </trkpt>
      <trkpt lat="50.56236" lon="2.41083">
        <ele>49.290045</ele>
        <time>2023-02-10T03:42:11Z</time>
      </trkpt>
      <trkpt lat="50.5624" lon="2.41073">
        <ele>46.7</ele>
      </trkpt>
      <trkpt lat="50.56243" lon="2.41079">
        <ele>49.66426</ele>
        <time>2023-02-10T03:42:14Z</time>
      </trkpt>
      <trkpt lat="50.56255" lon="2.4112">
        <ele>51.101855</ele>
        <time>2023-02-10T03:42:26Z</time>
      </trkpt>
      <trkpt lat="50.56299" lon="2.41035">
        <ele>54.51745</ele>
        <time>2023-02-10T03:43:15Z</time>
      </trkpt>
      <trkpt lat="50.56333" lon="2.40972">
        <ele>57.099124</ele>
        <time>2023-02-10T03:43:51Z</time>
      </trkpt>
      <trkpt lat="50.56368" lon="2.4091">
        <ele>59.828508</ele>
        <time>2023-02-10T03:44:28Z</time>
      </trkpt>
      <trkpt lat="50.56374" lon="2.40902">
        <ele>60.243233</ele>
        <time>2023-02-10T03:44:33Z</time>
      </trkpt>
      <trkpt lat="50.56388" lon="2.40871">
        <ele>61.668331</ele>
        <time>2023-02-10T03:44:48Z</time>
      </trkpt>
      <trkpt lat="50.56435" lon="2.4077">
        <ele>65.857277</ele>
        <time>2023-02-10T03:45:21Z</time>
      </trkpt>
      <trkpt lat="50.56456" lon="2.40725">
        <ele>67.195913</ele>
        <time>2023-02-10T03:45:34Z</time>
      </trkpt>
      <trkpt lat="50.56497" lon="2.40636">
        <ele>68.020976</ele>
        <time>2023-02-10T03:45:55Z</time>
      </trkpt>
      <trkpt lat="50.5653" lon="2.40567">
        <ele>68.666491</ele>
        <time>2023-02-10T03:46:06Z</time>
      </trkpt>
      <trkpt lat="50.56636" lon="2.40354">
        <ele>68.142676</ele>
        <time>2023-02-10T03:46:36Z</time>
      </trkpt>
      <trkpt lat="50.56652" lon="2.40333">
        <ele>67.979905</ele>
        <time>2023-02-10T03:46:40Z</time>
      </trkpt>
      <trkpt lat="50.56674" lon="2.40292">
        <ele>67.694031</ele>
        <time>2023-02-10T03:46:46Z</time>
      </trkpt>
      <trkpt lat="50.56786" lon="2.40056">
        <ele>65.674165</ele>
        <time>2023-02-10T03:47:19Z</time>
      </trkpt>
      <trkpt lat="50.56889" lon="2.39857">
        <ele>64.683561</ele>
        <time>2023-02-10T03:47:50Z</time>
      </trkpt>
      <trkpt lat="50.56944" lon="2.39742">
        <ele>64.200056</ele>
        <time>2023-02-10T03:48:08Z</time>
      </trkpt>
      <trkpt lat="50.57014" lon="2.39634">
        <ele>63.627264</ele>
        <time>2023-02-10T03:48:26Z</time>
      </trkpt>
      <trkpt lat="50.57052" lon="2.39559">
        <ele>62.652635</ele>
        <time>2023-02-10T03:48:37Z</time>
      </trkpt>
      <trkpt lat="50.57122" lon="2.39439">
        <ele>60.984651</ele>
        <time>2023-02-10T03:48:54Z</time>
      </trkpt>
      <trkpt lat="50.57169" lon="2.39334">
        <ele>60.093404</ele>
        <time>2023-02-10T03:49:07Z</time>
      </trkpt>
      <trkpt lat="50.57231" lon="2.39213">
        <ele>59.092319</ele>
        <time>2023-02-10T03:49:25Z</time>
      </trkpt>
      <trkpt lat="50.57314" lon="2.39028">
        <ele>60.666795</ele>
        <time>2023-02-10T03:50:03Z</time>
      </trkpt>
      <trkpt lat="50.57466" lon="2.38723">
        <ele>64.926417</ele>
        <time>2023-02-10T03:51:19Z</time>
      </trkpt>
      <trkpt lat="50.57486" lon="2.38665">
        <ele>65.05025</ele>
        <time>2023-02-10T03:51:29Z</time>
      </trkpt>
      <trkpt lat="50.57512" lon="2.38609">
        <ele>65.182212</ele>
        <time>2023-02-10T03:51:39Z</time>
      </trkpt>
      <trkpt lat="50.57559" lon="2.38528">
        <ele>65.388344</ele>
        <time>2023-02-10T03:51:52Z</time>
      </trkpt>
      <trkpt lat="50.57628" lon="2.38393">
        <ele>63.794862</ele>
        <time>2023-02-10T03:52:23Z</time>
      </trkpt>
      <trkpt lat="50.57693" lon="2.38278">
        <ele>62.161415</ele>
        <time>2023-02-10T03:52:50Z</time>
      </trkpt>
      <trkpt lat="50.57712" lon="2.38278">
        <ele>61.769967</ele>
        <time>2023-02-10T03:52:55Z</time>
      </trkpt>
      <trkpt lat="50.57724" lon="2.3829">
        <ele>61.472345</ele>
        <time>2023-02-10T03:52:59Z</time>
      </trkpt>
      <trkpt lat="50.57735" lon="2.38338">
        <ele>60.783678</ele>
        <time>2023-02-10T03:53:08Z</time>
      </trkpt>
      <trkpt lat="50.57803" lon="2.38737">
        <ele>55.358951</ele>
        <time>2023-02-10T03:54:19Z</time>
      </trkpt>
      <trkpt lat="50.57808" lon="2.38803">
        <ele>54.742579</ele>
        <time>2023-02-10T03:54:31Z</time>
      </trkpt>
      <trkpt lat="50.57809" lon="2.38882">
        <ele>54.080519</ele>
        <time>2023-02-10T03:54:46Z</time>
      </trkpt>
      <trkpt lat="50.57831" lon="2.38984">
        <ele>53.171166</ele>
        <time>2023-02-10T03:55:05Z</time>
      </trkpt>
      <trkpt lat="50.5785" lon="2.3911">
        <ele>51.764647</ele>
        <time>2023-02-10T03:55:29Z</time>
      </trkpt>
      <trkpt lat="50.579" lon="2.39493">
        <ele>46.457709</ele>
        <time>2023-02-10T03:56:36Z</time>
      </trkpt>
      <trkpt lat="50.57931" lon="2.39672">
        <ele>43.759838</ele>
        <time>2023-02-10T03:57:08Z</time>
      </trkpt>
      <trkpt lat="50.57992" lon="2.40023">
        <ele>39.477708</ele>
        <time>2023-02-10T03:58:11Z</time>
      </trkpt>
      <trkpt lat="50.58" lon="2.40055">
        <ele>39.155438</ele>
        <time>2023-02-10T03:58:17Z</time>
      </trkpt>
      <trkpt lat="50.58068" lon="2.40171">
        <ele>38.56775</ele>
        <time>2023-02-10T03:58:48Z</time>
      </trkpt>
      <trkpt lat="50.5807" lon="2.4017">
        <ele>38.569721</ele>
        <time>2023-02-10T03:58:49Z</time>
      </trkpt>
      <trkpt lat="50.58074" lon="2.40181">
        <ele>37</ele>
      </trkpt>
      <trkpt lat="50.58078" lon="2.40156">
        <ele>36.3</ele>
      </trkpt>
      <trkpt lat="50.58103" lon="2.40085">
        <ele>38.3</ele>
      </trkpt>
      <trkpt lat="50.58114" lon="2.40071">
        <ele>38.673914</ele>
        <time>2023-02-10T03:59:21Z</time>
      </trkpt>
      <trkpt lat="50.58159" lon="2.39972">
        <ele>38.979483</ele>
        <time>2023-02-10T03:59:54Z</time>
      </trkpt>
      <trkpt lat="50.58205" lon="2.39873">
        <ele>39.590006</ele>
        <time>2023-02-10T04:00:28Z</time>
      </trkpt>
      <trkpt lat="50.58251" lon="2.39775">
        <ele>40.199701</ele>
        <time>2023-02-10T04:01:01Z</time>
      </trkpt>
      <trkpt lat="50.58297" lon="2.39676">
        <ele>40.810279</ele>
        <time>2023-02-10T04:01:34Z</time>
      </trkpt>
      <trkpt lat="50.58345" lon="2.39581">
        <ele>41.415299</ele>
        <time>2023-02-10T04:02:07Z</time>
      </trkpt>
      <trkpt lat="50.58393" lon="2.39486">
        <ele>41.317871</ele>
        <time>2023-02-10T04:02:40Z</time>
      </trkpt>
      <trkpt lat="50.58441" lon="2.39391">
        <ele>41.007709</ele>
        <time>2023-02-10T04:03:13Z</time>
      </trkpt>
      <trkpt lat="50.5846" lon="2.39319">
        <ele>40.767614</ele>
        <time>2023-02-10T04:03:34Z</time>
      </trkpt>
      <trkpt lat="50.58458" lon="2.39283">
        <ele>40.1</ele>
      </trkpt>
      <trkpt lat="50.58453" lon="2.39252">
        <ele>38.4</ele>
      </trkpt>
      <trkpt lat="50.58454" lon="2.39227">
        <ele>40.053897</ele>
        <time>2023-02-10T04:04:01Z</time>
      </trkpt>
      <trkpt lat="50.58466" lon="2.39121">
        <ele>39.270134</ele>
        <time>2023-02-10T04:04:20Z</time>
      </trkpt>
      <trkpt lat="50.58477" lon="2.39061">
        <ele>38.808437</ele>
        <time>2023-02-10T04:04:32Z</time>
      </trkpt>
      <trkpt lat="50.58509" lon="2.3898">
        <ele>39.435292</ele>
        <time>2023-02-10T04:04:46Z</time>
      </trkpt>
      <trkpt lat="50.58549" lon="2.38902">
        <ele>40.181148</ele>
        <time>2023-02-10T04:05:03Z</time>
      </trkpt>
      <trkpt lat="50.58565" lon="2.38862">
        <ele>43.3</ele>
      </trkpt>
      <trkpt lat="50.58582" lon="2.3881">
        <ele>44.8</ele>
      </trkpt>
      <trkpt lat="50.58605" lon="2.38704">
        <ele>47.9</ele>
      </trkpt>
      <trkpt lat="50.58624" lon="2.3865">
        <ele>49.6</ele>
      </trkpt>
      <trkpt lat="50.58649" lon="2.38587">
        <ele>50</ele>
      </trkpt>
      <trkpt lat="50.58684" lon="2.38515">
        <ele>50</ele>
      </trkpt>
      <trkpt lat="50.58762" lon="2.38394">
        <ele>49.6</ele>
      </trkpt>
      <trkpt lat="50.58836" lon="2.38297">
        <ele>46.6</ele>
      </trkpt>
      <trkpt lat="50.58912" lon="2.38242">
        <ele>42.9</ele>
      </trkpt>
      <trkpt lat="50.58924" lon="2.38217">
        <ele>41.7</ele>
      </trkpt>
      <trkpt lat="50.58932" lon="2.38177">
        <ele>41.4</ele>
      </trkpt>
      <trkpt lat="50.58938" lon="2.38098">
        <ele>41.2</ele>
      </trkpt>
      <trkpt lat="50.5895" lon="2.38043">
        <ele>41.2</ele>
      </trkpt>
      <trkpt lat="50.58971" lon="2.37987">
        <ele>43</ele>
      </trkpt>
      <trkpt lat="50.58985" lon="2.37946">
        <ele>44.4</ele>
      </trkpt>
      <trkpt lat="50.59004" lon="2.37811">
        <ele>46.1</ele>
      </trkpt>
      <trkpt lat="50.59014" lon="2.37769">
        <ele>46.2</ele>
      </trkpt>
      <trkpt lat="50.59043" lon="2.37709">
        <ele>47.7</ele>
      </trkpt>
      <trkpt lat="50.59103" lon="2.37596">
        <ele>48</ele>
      </trkpt>
      <trkpt lat="50.5916" lon="2.37511">
        <ele>48.1</ele>
      </trkpt>
      <trkpt lat="50.59214" lon="2.37352">
        <ele>47.3</ele>
      </trkpt>
      <trkpt lat="50.5926" lon="2.37222">
        <ele>45.6</ele>
      </trkpt>
      <trkpt lat="50.59279" lon="2.37189">
        <ele>45</ele>
      </trkpt>
      <trkpt lat="50.59356" lon="2.37148">
        <ele>45</ele>
      </trkpt>
      <trkpt lat="50.59376" lon="2.37129">
        <ele>45.7</ele>
      </trkpt>
      <trkpt lat="50.59385" lon="2.37098">
        <ele>46.4</ele>
      </trkpt>
      <trkpt lat="50.59393" lon="2.37071">
        <ele>46.7</ele>
      </trkpt>
      <trkpt lat="50.5939" lon="2.37053">
        <ele>46.2</ele>
      </trkpt>
      <trkpt lat="50.59441" lon="2.3699">
        <ele>49.4</ele>
      </trkpt>
      <trkpt lat="50.59479" lon="2.36894">
        <ele>53.9</ele>
      </trkpt>
      <trkpt lat="50.59497" lon="2.36829">
        <ele>56.2</ele>
      </trkpt>
      <trkpt lat="50.59498" lon="2.36812">
        <ele>56.8</ele>
      </trkpt>
      <trkpt lat="50.59503" lon="2.36783">
        <ele>57.9</ele>
      </trkpt>
      <trkpt lat="50.59502" lon="2.36746">
        <ele>60.1</ele>
      </trkpt>
      <trkpt lat="50.59499" lon="2.36717">
        <ele>61.4</ele>
      </trkpt>
      <trkpt lat="50.59479" lon="2.36662">
        <ele>65.1</ele>
      </trkpt>
      <trkpt lat="50.59466" lon="2.36605">
        <ele>68.2</ele>
      </trkpt>
      <trkpt lat="50.59474" lon="2.36528">
        <ele>69</ele>
      </trkpt>
      <trkpt lat="50.5949" lon="2.36426">
        <ele>72.3</ele>
      </trkpt>
      <trkpt lat="50.59495" lon="2.36394">
        <ele>72.8</ele>
      </trkpt>
      <trkpt lat="50.59513" lon="2.36374">
        <ele>73.7</ele>
      </trkpt>
      <trkpt lat="50.59539" lon="2.3642">
        <ele>73.9</ele>
      </trkpt>
      <trkpt lat="50.59561" lon="2.36453">
        <ele>73.7</ele>
      </trkpt>
      <trkpt lat="50.59576" lon="2.36474">
        <ele>73.7</ele>
      </trkpt>
      <trkpt lat="50.59593" lon="2.36524">
        <ele>73.1</ele>
      </trkpt>
      <trkpt lat="50.5961" lon="2.36571">
        <ele>72.4</ele>
      </trkpt>
      <trkpt lat="50.59628" lon="2.36603">
        <ele>72</ele>
      </trkpt>
      <trkpt lat="50.59634" lon="2.36614">
        <ele>71.9</ele>
      </trkpt>
      <trkpt lat="50.59652" lon="2.36584">
        <ele>72.5</ele>
      </trkpt>
      <trkpt lat="50.59665" lon="2.36554">
        <ele>73</ele>
      </trkpt>
      <trkpt lat="50.59678" lon="2.36529">
        <ele>72.6</ele>
      </trkpt>
      <trkpt lat="50.59702" lon="2.36579">
        <ele>71.7</ele>
      </trkpt>
      <trkpt lat="50.59706" lon="2.36592">
        <ele>71.6</ele>
      </trkpt>
      <trkpt lat="50.59706" lon="2.36603">
        <ele>71.6</ele>
      </trkpt>
      <trkpt lat="50.59733" lon="2.36652">
        <ele>71</ele>
      </trkpt>
      <trkpt lat="50.59753" lon="2.36678">
        <ele>71.2</ele>
      </trkpt>
      <trkpt lat="50.59755" lon="2.36703">
        <ele>71.7</ele>
      </trkpt>
      <trkpt lat="50.59757" lon="2.36708">
        <ele>71.6</ele>
      </trkpt>
      <trkpt lat="50.59757" lon="2.36719">
        <ele>71.7</ele>
      </trkpt>
      <trkpt lat="50.59757" lon="2.36729">
        <ele>71.8</ele>
      </trkpt>
      <trkpt lat="50.59758" lon="2.36739">
        <ele>71.7</ele>
      </trkpt>
      <trkpt lat="50.59763" lon="2.36748">
        <ele>71.5</ele>
      </trkpt>
      <trkpt lat="50.59766" lon="2.36758">
        <ele>71.3</ele>
      </trkpt>
      <trkpt lat="50.59768" lon="2.36763">
        <ele>71.2</ele>
      </trkpt>
      <trkpt lat="50.59771" lon="2.36768">
        <ele>71.1</ele>
      </trkpt>
      <trkpt lat="50.59775" lon="2.36772">
        <ele>71</ele>
      </trkpt>
      <trkpt lat="50.59778" lon="2.36777">
        <ele>71</ele>
      </trkpt>
      <trkpt lat="50.59781" lon="2.36787">
        <ele>70.9</ele>
      </trkpt>
      <trkpt lat="50.59782" lon="2.36789">
        <ele>70.8</ele>
      </trkpt>
      <trkpt lat="50.59784" lon="2.36792">
        <ele>70.8</ele>
      </trkpt>
      <trkpt lat="50.59787" lon="2.36794">
        <ele>70.7</ele>
      </trkpt>
      <trkpt lat="50.59788" lon="2.36794">
        <ele>70.6</ele>
      </trkpt>
      <trkpt lat="50.5979" lon="2.36795">
        <ele>70.6</ele>
      </trkpt>
      <trkpt lat="50.59792" lon="2.36794">
        <ele>70.5</ele>
      </trkpt>
      <trkpt lat="50.59794" lon="2.36794">
        <ele>70.4</ele>
      </trkpt>
      <trkpt lat="50.59795" lon="2.36793">
        <ele>70.4</ele>
      </trkpt>
      <trkpt lat="50.59797" lon="2.36793">
        <ele>70.3</ele>
      </trkpt>
      <trkpt lat="50.59799" lon="2.36792">
        <ele>70.3</ele>
      </trkpt>
      <trkpt lat="50.59801" lon="2.36792">
        <ele>70.2</ele>
      </trkpt>
      <trkpt lat="50.59803" lon="2.36792">
        <ele>70.1</ele>
      </trkpt>
      <trkpt lat="50.59804" lon="2.36792">
        <ele>70</ele>
      </trkpt>
      <trkpt lat="50.59806" lon="2.36791">
        <ele>70</ele>
      </trkpt>
      <trkpt lat="50.59807" lon="2.3679">
        <ele>70</ele>
      </trkpt>
      <trkpt lat="50.59809" lon="2.36788">
        <ele>70</ele>
      </trkpt>
      <trkpt lat="50.5981" lon="2.36787">
        <ele>70</ele>
      </trkpt>
      <trkpt lat="50.59811" lon="2.36785">
        <ele>70</ele>
      </trkpt>
      <trkpt lat="50.59813" lon="2.36784">
        <ele>70</ele>
      </trkpt>
      <trkpt lat="50.59815" lon="2.36782">
        <ele>70</ele>
      </trkpt>
      <trkpt lat="50.59816" lon="2.36781">
        <ele>70</ele>
      </trkpt>
      <trkpt lat="50.59818" lon="2.36779">
        <ele>70</ele>
      </trkpt>
      <trkpt lat="50.5982" lon="2.36778">
        <ele>70</ele>
      </trkpt>
      <trkpt lat="50.59822" lon="2.36777">
        <ele>70</ele>
      </trkpt>
      <trkpt lat="50.59823" lon="2.36775">
        <ele>70</ele>
      </trkpt>
      <trkpt lat="50.59825" lon="2.36774">
        <ele>70</ele>
      </trkpt>
      <trkpt lat="50.59827" lon="2.36773">
        <ele>70</ele>
      </trkpt>
      <trkpt lat="50.59829" lon="2.36771">
        <ele>70</ele>
      </trkpt>
      <trkpt lat="50.59831" lon="2.3677">
        <ele>70</ele>
      </trkpt>
      <trkpt lat="50.59833" lon="2.36769">
        <ele>70</ele>
      </trkpt>
      <trkpt lat="50.59836" lon="2.36768">
        <ele>70</ele>
      </trkpt>
      <trkpt lat="50.59838" lon="2.36766">
        <ele>70</ele>
      </trkpt>
      <trkpt lat="50.5984" lon="2.36765">
        <ele>70</ele>
      </trkpt>
      <trkpt lat="50.59843" lon="2.36764">
        <ele>70</ele>
      </trkpt>
      <trkpt lat="50.59845" lon="2.36763">
        <ele>70</ele>
      </trkpt>
      <trkpt lat="50.59847" lon="2.36761">
        <ele>70</ele>
      </trkpt>
      <trkpt lat="50.59848" lon="2.36759">
        <ele>70</ele>
      </trkpt>
      <trkpt lat="50.59851" lon="2.36758">
        <ele>70</ele>
      </trkpt>
      <trkpt lat="50.59853" lon="2.36757">
        <ele>70</ele>
      </trkpt>
      <trkpt lat="50.59854" lon="2.36754">
        <ele>70</ele>
      </trkpt>
      <trkpt lat="50.59856" lon="2.36752">
        <ele>70</ele>
      </trkpt>
      <trkpt lat="50.59857" lon="2.36749">
        <ele>70</ele>
      </trkpt>
      <trkpt lat="50.59857" lon="2.36746">
        <ele>69.9</ele>
      </trkpt>
      <trkpt lat="50.59858" lon="2.36744">
        <ele>69.8</ele>
      </trkpt>
      <trkpt lat="50.59859" lon="2.36741">
        <ele>69.7</ele>
      </trkpt>
      <trkpt lat="50.5986" lon="2.36739">
        <ele>69.6</ele>
      </trkpt>
      <trkpt lat="50.59862" lon="2.36737">
        <ele>69.5</ele>
      </trkpt>
      <trkpt lat="50.59864" lon="2.36734">
        <ele>69.4</ele>
      </trkpt>
      <trkpt lat="50.59864" lon="2.36731">
        <ele>69.3</ele>
      </trkpt>
      <trkpt lat="50.59866" lon="2.36729">
        <ele>69.2</ele>
      </trkpt>
      <trkpt lat="50.59867" lon="2.36726">
        <ele>69.1</ele>
      </trkpt>
      <trkpt lat="50.59869" lon="2.36724">
        <ele>69</ele>
      </trkpt>
      <trkpt lat="50.59874" lon="2.3673">
        <ele>69.2</ele>
      </trkpt>
      <trkpt lat="50.59875" lon="2.36732">
        <ele>69.2</ele>
      </trkpt>
      <trkpt lat="50.59876" lon="2.36732">
        <ele>69.2</ele>
      </trkpt>
      <trkpt lat="50.59878" lon="2.36731">
        <ele>69.1</ele>
      </trkpt>
      <trkpt lat="50.5988" lon="2.3673">
        <ele>69.1</ele>
      </trkpt>
      <trkpt lat="50.59883" lon="2.3673">
        <ele>69.1</ele>
      </trkpt>
      <trkpt lat="50.59885" lon="2.36729">
        <ele>69</ele>
      </trkpt>
      <trkpt lat="50.59887" lon="2.36728">
        <ele>69</ele>
      </trkpt>
      <trkpt lat="50.5989" lon="2.36728">
        <ele>69</ele>
      </trkpt>
      <trkpt lat="50.59892" lon="2.36727">
        <ele>68.9</ele>
      </trkpt>
      <trkpt lat="50.59895" lon="2.36727">
        <ele>68.8</ele>
      </trkpt>
      <trkpt lat="50.59897" lon="2.36727">
        <ele>68.7</ele>
      </trkpt>
      <trkpt lat="50.599" lon="2.36726">
        <ele>68.6</ele>
      </trkpt>
      <trkpt lat="50.59902" lon="2.36726">
        <ele>68.5</ele>
      </trkpt>
      <trkpt lat="50.59904" lon="2.36726">
        <ele>68.5</ele>
      </trkpt>
      <trkpt lat="50.59906" lon="2.36725">
        <ele>68.4</ele>
      </trkpt>
      <trkpt lat="50.59909" lon="2.36724">
        <ele>68.3</ele>
      </trkpt>
      <trkpt lat="50.59911" lon="2.36721">
        <ele>68.2</ele>
      </trkpt>
      <trkpt lat="50.59911" lon="2.36719">
        <ele>68.1</ele>
      </trkpt>
      <trkpt lat="50.59912" lon="2.36716">
        <ele>68</ele>
      </trkpt>
      <trkpt lat="50.59912" lon="2.36714">
        <ele>67.9</ele>
      </trkpt>
      <trkpt lat="50.59912" lon="2.36711">
        <ele>67.8</ele>
      </trkpt>
      <trkpt lat="50.59911" lon="2.36709">
        <ele>67.8</ele>
      </trkpt>
      <trkpt lat="50.5991" lon="2.36707">
        <ele>67.8</ele>
      </trkpt>
      <trkpt lat="50.59908" lon="2.36705">
        <ele>67.9</ele>
      </trkpt>
      <trkpt lat="50.59906" lon="2.36704">
        <ele>68</ele>
      </trkpt>
      <trkpt lat="50.59904" lon="2.36702">
        <ele>68.1</ele>
      </trkpt>
      <trkpt lat="50.59902" lon="2.367">
        <ele>68.1</ele>
      </trkpt>
      <trkpt lat="50.59901" lon="2.36698">
        <ele>68.2</ele>
      </trkpt>
      <trkpt lat="50.599" lon="2.36696">
        <ele>68.2</ele>
      </trkpt>
      <trkpt lat="50.59899" lon="2.36693">
        <ele>68.2</ele>
      </trkpt>
      <trkpt lat="50.59898" lon="2.36691">
        <ele>68.2</ele>
      </trkpt>
      <trkpt lat="50.59897" lon="2.36689">
        <ele>68.2</ele>
      </trkpt>
      <trkpt lat="50.59896" lon="2.36687">
        <ele>68.1</ele>
      </trkpt>
      <trkpt lat="50.59895" lon="2.36685">
        <ele>68</ele>
      </trkpt>
      <trkpt lat="50.59894" lon="2.36683">
        <ele>67.9</ele>
      </trkpt>
      <trkpt lat="50.59894" lon="2.3668">
        <ele>67.8</ele>
      </trkpt>
      <trkpt lat="50.59895" lon="2.36677">
        <ele>67.6</ele>
      </trkpt>
      <trkpt lat="50.59897" lon="2.36674">
        <ele>67.4</ele>
      </trkpt>
      <trkpt lat="50.59899" lon="2.36672">
        <ele>67.2</ele>
      </trkpt>
      <trkpt lat="50.59899" lon="2.36669">
        <ele>67.1</ele>
      </trkpt>
      <trkpt lat="50.59899" lon="2.36667">
        <ele>67</ele>
      </trkpt>
      <trkpt lat="50.59898" lon="2.36664">
        <ele>66.7</ele>
      </trkpt>
      <trkpt lat="50.59899" lon="2.36661">
        <ele>66.3</ele>
      </trkpt>
      <trkpt lat="50.599" lon="2.36658">
        <ele>66</ele>
      </trkpt>
      <trkpt lat="50.59899" lon="2.36655">
        <ele>65.7</ele>
      </trkpt>
      <trkpt lat="50.59898" lon="2.36653">
        <ele>65.4</ele>
      </trkpt>
      <trkpt lat="50.59897" lon="2.36651">
        <ele>65.1</ele>
      </trkpt>
      <trkpt lat="50.59897" lon="2.36649">
        <ele>64.8</ele>
      </trkpt>
      <trkpt lat="50.59898" lon="2.36646">
        <ele>64.5</ele>
      </trkpt>
      <trkpt lat="50.59899" lon="2.36643">
        <ele>64.2</ele>
      </trkpt>
      <trkpt lat="50.59901" lon="2.36639">
        <ele>63.9</ele>
      </trkpt>
      <trkpt lat="50.59902" lon="2.36636">
        <ele>63.6</ele>
      </trkpt>
      <trkpt lat="50.59903" lon="2.36633">
        <ele>63.3</ele>
      </trkpt>
      <trkpt lat="50.59905" lon="2.36629">
        <ele>63</ele>
      </trkpt>
      <trkpt lat="50.59908" lon="2.36627">
        <ele>62.8</ele>
      </trkpt>
      <trkpt lat="50.5991" lon="2.36623">
        <ele>62.4</ele>
      </trkpt>
      <trkpt lat="50.59911" lon="2.3662">
        <ele>62</ele>
      </trkpt>
      <trkpt lat="50.59912" lon="2.36617">
        <ele>61.6</ele>
      </trkpt>
      <trkpt lat="50.59913" lon="2.36614">
        <ele>61.2</ele>
      </trkpt>
      <trkpt lat="50.59914" lon="2.3661">
        <ele>60.8</ele>
      </trkpt>
      <trkpt lat="50.59914" lon="2.36608">
        <ele>60.4</ele>
      </trkpt>
      <trkpt lat="50.59913" lon="2.36605">
        <ele>60</ele>
      </trkpt>
      <trkpt lat="50.59913" lon="2.36602">
        <ele>59.6</ele>
      </trkpt>
      <trkpt lat="50.59911" lon="2.366">
        <ele>59.3</ele>
      </trkpt>
      <trkpt lat="50.59909" lon="2.36598">
        <ele>59</ele>
      </trkpt>
      <trkpt lat="50.59909" lon="2.36596">
        <ele>58.6</ele>
      </trkpt>
      <trkpt lat="50.59908" lon="2.36593">
        <ele>58.3</ele>
      </trkpt>
      <trkpt lat="50.59906" lon="2.36592">
        <ele>58.1</ele>
      </trkpt>
      <trkpt lat="50.59903" lon="2.36592">
        <ele>58.1</ele>
      </trkpt>
      <trkpt lat="50.599" lon="2.36593">
        <ele>58.2</ele>
      </trkpt>
      <trkpt lat="50.59896" lon="2.36595">
        <ele>58.4</ele>
      </trkpt>
      <trkpt lat="50.59893" lon="2.36596">
        <ele>58.5</ele>
      </trkpt>
      <trkpt lat="50.5989" lon="2.36597">
        <ele>58.5</ele>
      </trkpt>
      <trkpt lat="50.59886" lon="2.36598">
        <ele>58.7</ele>
      </trkpt>
      <trkpt lat="50.59883" lon="2.36599">
        <ele>58.9</ele>
      </trkpt>
      <trkpt lat="50.5988" lon="2.366">
        <ele>59.2</ele>
      </trkpt>
      <trkpt lat="50.59878" lon="2.366">
        <ele>59.4</ele>
      </trkpt>
      <trkpt lat="50.59875" lon="2.36601">
        <ele>59.6</ele>
      </trkpt>
      <trkpt lat="50.59872" lon="2.36602">
        <ele>59.8</ele>
      </trkpt>
      <trkpt lat="50.59869" lon="2.36602">
        <ele>60</ele>
      </trkpt>
      <trkpt lat="50.59866" lon="2.36603">
        <ele>60.2</ele>
      </trkpt>
      <trkpt lat="50.59864" lon="2.36604">
        <ele>60.4</ele>
      </trkpt>
      <trkpt lat="50.59862" lon="2.36605">
        <ele>60.5</ele>
      </trkpt>
      <trkpt lat="50.5986" lon="2.36604">
        <ele>60.6</ele>
      </trkpt>
      <trkpt lat="50.59857" lon="2.36605">
        <ele>60.9</ele>
      </trkpt>
      <trkpt lat="50.59855" lon="2.36606">
        <ele>61.2</ele>
      </trkpt>
      <trkpt lat="50.59852" lon="2.36606">
        <ele>61.4</ele>
      </trkpt>
      <trkpt lat="50.59851" lon="2.36606">
        <ele>61.5</ele>
      </trkpt>
      <trkpt lat="50.59848" lon="2.36608">
        <ele>61.8</ele>
      </trkpt>
      <trkpt lat="50.59846" lon="2.36608">
        <ele>62</ele>
      </trkpt>
      <trkpt lat="50.59844" lon="2.36608">
        <ele>62.2</ele>
      </trkpt>
      <trkpt lat="50.59842" lon="2.36608">
        <ele>62.3</ele>
      </trkpt>
      <trkpt lat="50.5984" lon="2.36609">
        <ele>62.5</ele>
      </trkpt>
      <trkpt lat="50.59839" lon="2.36609">
        <ele>62.6</ele>
      </trkpt>
      <trkpt lat="50.59837" lon="2.36609">
        <ele>62.7</ele>
      </trkpt>
      <trkpt lat="50.59835" lon="2.36609">
        <ele>62.9</ele>
      </trkpt>
      <trkpt lat="50.59833" lon="2.36607">
        <ele>63</ele>
      </trkpt>
      <trkpt lat="50.59831" lon="2.36608">
        <ele>63.2</ele>
      </trkpt>
      <trkpt lat="50.59827" lon="2.36607">
        <ele>63.6</ele>
      </trkpt>
      <trkpt lat="50.59826" lon="2.36606">
        <ele>63.8</ele>
      </trkpt>
      <trkpt lat="50.59823" lon="2.36606">
        <ele>64.1</ele>
      </trkpt>
      <trkpt lat="50.59821" lon="2.36604">
        <ele>64.3</ele>
      </trkpt>
      <trkpt lat="50.5982" lon="2.36603">
        <ele>64.5</ele>
      </trkpt>
      <trkpt lat="50.59819" lon="2.36602">
        <ele>64.6</ele>
      </trkpt>
      <trkpt lat="50.59817" lon="2.36601">
        <ele>64.8</ele>
      </trkpt>
      <trkpt lat="50.59816" lon="2.366">
        <ele>64.9</ele>
      </trkpt>
      <trkpt lat="50.59814" lon="2.36596">
        <ele>65.1</ele>
      </trkpt>
      <trkpt lat="50.59814" lon="2.36594">
        <ele>65.1</ele>
      </trkpt>
      <trkpt lat="50.59813" lon="2.36589">
        <ele>65.2</ele>
      </trkpt>
      <trkpt lat="50.59813" lon="2.36587">
        <ele>65.2</ele>
      </trkpt>
      <trkpt lat="50.59813" lon="2.36583">
        <ele>65.2</ele>
      </trkpt>
      <trkpt lat="50.59811" lon="2.36579">
        <ele>65.4</ele>
      </trkpt>
      <trkpt lat="50.59809" lon="2.36576">
        <ele>65.6</ele>
      </trkpt>
      <trkpt lat="50.59808" lon="2.36575">
        <ele>65.7</ele>
      </trkpt>
      <trkpt lat="50.59806" lon="2.36572">
        <ele>65.9</ele>
      </trkpt>
      <trkpt lat="50.59805" lon="2.36569">
        <ele>66.1</ele>
      </trkpt>
      <trkpt lat="50.59803" lon="2.36565">
        <ele>66.1</ele>
      </trkpt>
      <trkpt lat="50.59804" lon="2.36563">
        <ele>66.1</ele>
      </trkpt>
      <trkpt lat="50.59802" lon="2.3656">
        <ele>66.2</ele>
      </trkpt>
      <trkpt lat="50.598" lon="2.36557">
        <ele>66.4</ele>
      </trkpt>
      <trkpt lat="50.598" lon="2.36555">
        <ele>66.4</ele>
      </trkpt>
      <trkpt lat="50.59787" lon="2.36536">
        <ele>67.3</ele>
      </trkpt>
      <trkpt lat="50.59768" lon="2.36515">
        <ele>68.7</ele>
      </trkpt>
      <trkpt lat="50.59765" lon="2.36513">
        <ele>68.9</ele>
      </trkpt>
      <trkpt lat="50.59765" lon="2.3651">
        <ele>69</ele>
      </trkpt>
      <trkpt lat="50.59763" lon="2.36507">
        <ele>69.1</ele>
      </trkpt>
      <trkpt lat="50.59762" lon="2.36504">
        <ele>69.2</ele>
      </trkpt>
      <trkpt lat="50.59761" lon="2.36502">
        <ele>69.2</ele>
      </trkpt>
      <trkpt lat="50.59759" lon="2.36499">
        <ele>69.3</ele>
      </trkpt>
      <trkpt lat="50.59758" lon="2.36496">
        <ele>69.4</ele>
      </trkpt>
      <trkpt lat="50.59758" lon="2.36493">
        <ele>69.4</ele>
      </trkpt>
      <trkpt lat="50.59757" lon="2.36491">
        <ele>69.5</ele>
      </trkpt>
      <trkpt lat="50.59755" lon="2.36488">
        <ele>69.6</ele>
      </trkpt>
      <trkpt lat="50.59753" lon="2.36486">
        <ele>69.8</ele>
      </trkpt>
      <trkpt lat="50.59751" lon="2.36483">
        <ele>69.9</ele>
      </trkpt>
      <trkpt lat="50.5975" lon="2.3648">
        <ele>70</ele>
      </trkpt>
      <trkpt lat="50.59748" lon="2.36478">
        <ele>70.1</ele>
      </trkpt>
      <trkpt lat="50.59747" lon="2.36475">
        <ele>70.1</ele>
      </trkpt>
      <trkpt lat="50.59746" lon="2.36473">
        <ele>70.2</ele>
      </trkpt>
      <trkpt lat="50.59745" lon="2.36471">
        <ele>70.1</ele>
      </trkpt>
      <trkpt lat="50.59742" lon="2.36468">
        <ele>70.1</ele>
      </trkpt>
      <trkpt lat="50.5974" lon="2.36465">
        <ele>70.1</ele>
      </trkpt>
      <trkpt lat="50.59739" lon="2.36463">
        <ele>70.1</ele>
      </trkpt>
      <trkpt lat="50.59738" lon="2.3646">
        <ele>70</ele>
      </trkpt>
      <trkpt lat="50.59737" lon="2.36458">
        <ele>70</ele>
      </trkpt>
      <trkpt lat="50.59736" lon="2.36456">
        <ele>69.9</ele>
      </trkpt>
      <trkpt lat="50.59736" lon="2.36453">
        <ele>69.8</ele>
      </trkpt>
      <trkpt lat="50.59735" lon="2.36451">
        <ele>69.8</ele>
      </trkpt>
      <trkpt lat="50.59735" lon="2.36448">
        <ele>69.7</ele>
      </trkpt>
      <trkpt lat="50.59734" lon="2.36446">
        <ele>69.6</ele>
      </trkpt>
      <trkpt lat="50.59734" lon="2.36443">
        <ele>69.5</ele>
      </trkpt>
      <trkpt lat="50.59734" lon="2.3644">
        <ele>69.4</ele>
      </trkpt>
      <trkpt lat="50.59734" lon="2.36438">
        <ele>69.3</ele>
      </trkpt>
      <trkpt lat="50.59733" lon="2.36435">
        <ele>69.3</ele>
      </trkpt>
      <trkpt lat="50.59732" lon="2.36433">
        <ele>69.2</ele>
      </trkpt>
      <trkpt lat="50.59732" lon="2.3643">
        <ele>69.1</ele>
      </trkpt>
      <trkpt lat="50.59731" lon="2.36428">
        <ele>69.1</ele>
      </trkpt>
      <trkpt lat="50.5973" lon="2.36426">
        <ele>69.1</ele>
      </trkpt>
      <trkpt lat="50.59728" lon="2.36424">
        <ele>69</ele>
      </trkpt>
      <trkpt lat="50.59727" lon="2.36421">
        <ele>69</ele>
      </trkpt>
      <trkpt lat="50.59726" lon="2.36419">
        <ele>69</ele>
      </trkpt>
      <trkpt lat="50.59726" lon="2.36417">
        <ele>68.9</ele>
      </trkpt>
      <trkpt lat="50.59726" lon="2.36414">
        <ele>68.8</ele>
      </trkpt>
      <trkpt lat="50.59726" lon="2.36412">
        <ele>68.7</ele>
      </trkpt>
      <trkpt lat="50.59727" lon="2.3641">
        <ele>68.5</ele>
      </trkpt>
      <trkpt lat="50.59727" lon="2.36407">
        <ele>68.4</ele>
      </trkpt>
      <trkpt lat="50.59727" lon="2.36404">
        <ele>68.3</ele>
      </trkpt>
      <trkpt lat="50.59716" lon="2.36388">
        <ele>68.2</ele>
      </trkpt>
      <trkpt lat="50.59714" lon="2.36386">
        <ele>68.2</ele>
      </trkpt>
      <trkpt lat="50.59713" lon="2.36384">
        <ele>68.1</ele>
      </trkpt>
      <trkpt lat="50.59712" lon="2.36382">
        <ele>68.1</ele>
      </trkpt>
      <trkpt lat="50.59712" lon="2.3638">
        <ele>68</ele>
      </trkpt>
      <trkpt lat="50.5971" lon="2.36378">
        <ele>68</ele>
      </trkpt>
      <trkpt lat="50.59709" lon="2.36376">
        <ele>68</ele>
      </trkpt>
      <trkpt lat="50.59708" lon="2.36374">
        <ele>68</ele>
      </trkpt>
      <trkpt lat="50.59707" lon="2.36372">
        <ele>67.9</ele>
      </trkpt>
      <trkpt lat="50.59705" lon="2.36368">
        <ele>67.9</ele>
      </trkpt>
      <trkpt lat="50.59704" lon="2.36364">
        <ele>67.8</ele>
      </trkpt>
      <trkpt lat="50.59703" lon="2.36362">
        <ele>67.7</ele>
      </trkpt>
      <trkpt lat="50.59701" lon="2.36359">
        <ele>67.7</ele>
      </trkpt>
      <trkpt lat="50.597" lon="2.36357">
        <ele>67.6</ele>
      </trkpt>
      <trkpt lat="50.59699" lon="2.36355">
        <ele>67.6</ele>
      </trkpt>
      <trkpt lat="50.59698" lon="2.36353">
        <ele>67.5</ele>
      </trkpt>
      <trkpt lat="50.59697" lon="2.36351">
        <ele>67.5</ele>
      </trkpt>
      <trkpt lat="50.59696" lon="2.36349">
        <ele>67.5</ele>
      </trkpt>
      <trkpt lat="50.59696" lon="2.36347">
        <ele>67.4</ele>
      </trkpt>
      <trkpt lat="50.59694" lon="2.36344">
        <ele>67.5</ele>
      </trkpt>
      <trkpt lat="50.59692" lon="2.36341">
        <ele>67.5</ele>
      </trkpt>
      <trkpt lat="50.5969" lon="2.36338">
        <ele>67.5</ele>
      </trkpt>
      <trkpt lat="50.59689" lon="2.36335">
        <ele>67.5</ele>
      </trkpt>
      <trkpt lat="50.59689" lon="2.36333">
        <ele>67.4</ele>
      </trkpt>
      <trkpt lat="50.59687" lon="2.36332">
        <ele>67.5</ele>
      </trkpt>
      <trkpt lat="50.59688" lon="2.36329">
        <ele>67.4</ele>
      </trkpt>
      <trkpt lat="50.59689" lon="2.36328">
        <ele>67.2</ele>
      </trkpt>
      <trkpt lat="50.59691" lon="2.36328">
        <ele>67.1</ele>
      </trkpt>
      <trkpt lat="50.59692" lon="2.3633">
        <ele>67.1</ele>
      </trkpt>
      <trkpt lat="50.59693" lon="2.36331">
        <ele>67</ele>
      </trkpt>
      <trkpt lat="50.59695" lon="2.36332">
        <ele>67</ele>
      </trkpt>
      <trkpt lat="50.59697" lon="2.36333">
        <ele>66.9</ele>
      </trkpt>
      <trkpt lat="50.59699" lon="2.36333">
        <ele>66.8</ele>
      </trkpt>
      <trkpt lat="50.59701" lon="2.36333">
        <ele>66.8</ele>
      </trkpt>
      <trkpt lat="50.59703" lon="2.36334">
        <ele>66.7</ele>
      </trkpt>
      <trkpt lat="50.59704" lon="2.36335">
        <ele>66.7</ele>
      </trkpt>
      <trkpt lat="50.59706" lon="2.36335">
        <ele>66.6</ele>
      </trkpt>
      <trkpt lat="50.59708" lon="2.36326">
        <ele>66.1</ele>
      </trkpt>
      <trkpt lat="50.59709" lon="2.36324">
        <ele>65.9</ele>
      </trkpt>
      <trkpt lat="50.5971" lon="2.36321">
        <ele>65.7</ele>
      </trkpt>
      <trkpt lat="50.59712" lon="2.36318">
        <ele>65.4</ele>
      </trkpt>
      <trkpt lat="50.59711" lon="2.36315">
        <ele>65.4</ele>
      </trkpt>
      <trkpt lat="50.59709" lon="2.36313">
        <ele>65.4</ele>
      </trkpt>
      <trkpt lat="50.59709" lon="2.3631">
        <ele>65.2</ele>
      </trkpt>
      <trkpt lat="50.59708" lon="2.36307">
        <ele>65.1</ele>
      </trkpt>
      <trkpt lat="50.59706" lon="2.36305">
        <ele>65.1</ele>
      </trkpt>
      <trkpt lat="50.59702" lon="2.36304">
        <ele>65.3</ele>
      </trkpt>
      <trkpt lat="50.597" lon="2.36302">
        <ele>65.3</ele>
      </trkpt>
      <trkpt lat="50.59698" lon="2.36301">
        <ele>65.4</ele>
      </trkpt>
      <trkpt lat="50.59696" lon="2.36298">
        <ele>65.3</ele>
      </trkpt>
      <trkpt lat="50.59695" lon="2.36296">
        <ele>65.3</ele>
      </trkpt>
      <trkpt lat="50.59693" lon="2.36295">
        <ele>65.4</ele>
      </trkpt>
      <trkpt lat="50.59691" lon="2.36292">
        <ele>65.3</ele>
      </trkpt>
      <trkpt lat="50.59689" lon="2.3629">
        <ele>65.4</ele>
      </trkpt>
      <trkpt lat="50.59687" lon="2.36289">
        <ele>65.5</ele>
      </trkpt>
      <trkpt lat="50.59684" lon="2.36288">
        <ele>65.7</ele>
      </trkpt>
      <trkpt lat="50.59682" lon="2.36286">
        <ele>65.8</ele>
      </trkpt>
      <trkpt lat="50.59681" lon="2.36284">
        <ele>65.8</ele>
      </trkpt>
      <trkpt lat="50.59679" lon="2.36283">
        <ele>66</ele>
      </trkpt>
      <trkpt lat="50.59677" lon="2.36281">
        <ele>66</ele>
      </trkpt>
      <trkpt lat="50.59674" lon="2.36281">
        <ele>66.4</ele>
      </trkpt>
      <trkpt lat="50.59672" lon="2.3628">
        <ele>66.6</ele>
      </trkpt>
      <trkpt lat="50.59669" lon="2.36279">
        <ele>66.8</ele>
      </trkpt>
      <trkpt lat="50.59666" lon="2.36279">
        <ele>67.1</ele>
      </trkpt>
      <trkpt lat="50.59663" lon="2.3628">
        <ele>67.5</ele>
      </trkpt>
      <trkpt lat="50.5966" lon="2.36279">
        <ele>67.7</ele>
      </trkpt>
      <trkpt lat="50.59658" lon="2.36279">
        <ele>68</ele>
      </trkpt>
      <trkpt lat="50.59655" lon="2.36279">
        <ele>68.3</ele>
      </trkpt>
      <trkpt lat="50.59652" lon="2.3628">
        <ele>68.6</ele>
      </trkpt>
      <trkpt lat="50.59649" lon="2.3628">
        <ele>68.9</ele>
      </trkpt>
      <trkpt lat="50.59646" lon="2.3628">
        <ele>69.2</ele>
      </trkpt>
      <trkpt lat="50.59644" lon="2.36279">
        <ele>69.5</ele>
      </trkpt>
      <trkpt lat="50.59642" lon="2.36279">
        <ele>69.7</ele>
      </trkpt>
      <trkpt lat="50.59639" lon="2.36279">
        <ele>69.9</ele>
      </trkpt>
      <trkpt lat="50.59637" lon="2.36279">
        <ele>70.1</ele>
      </trkpt>
      <trkpt lat="50.59635" lon="2.3628">
        <ele>70.3</ele>
      </trkpt>
      <trkpt lat="50.59632" lon="2.36281">
        <ele>70.5</ele>
      </trkpt>
      <trkpt lat="50.59629" lon="2.36282">
        <ele>70.8</ele>
      </trkpt>
      <trkpt lat="50.59627" lon="2.36283">
        <ele>71</ele>
      </trkpt>
      <trkpt lat="50.59625" lon="2.36284">
        <ele>71.1</ele>
      </trkpt>
      <trkpt lat="50.59623" lon="2.36285">
        <ele>71.3</ele>
      </trkpt>
      <trkpt lat="50.5962" lon="2.36286">
        <ele>71.5</ele>
      </trkpt>
      <trkpt lat="50.59618" lon="2.36286">
        <ele>71.7</ele>
      </trkpt>
      <trkpt lat="50.59616" lon="2.36287">
        <ele>71.9</ele>
      </trkpt>
      <trkpt lat="50.59615" lon="2.36288">
        <ele>72.1</ele>
      </trkpt>
      <trkpt lat="50.59613" lon="2.36288">
        <ele>72.3</ele>
      </trkpt>
      <trkpt lat="50.59611" lon="2.36289">
        <ele>72.4</ele>
      </trkpt>
      <trkpt lat="50.59608" lon="2.36291">
        <ele>72.5</ele>
      </trkpt>
      <trkpt lat="50.59607" lon="2.36292">
        <ele>72.6</ele>
      </trkpt>
      <trkpt lat="50.59605" lon="2.36293">
        <ele>72.6</ele>
      </trkpt>
      <trkpt lat="50.59603" lon="2.36294">
        <ele>72.7</ele>
      </trkpt>
      <trkpt lat="50.59601" lon="2.36296">
        <ele>72.8</ele>
      </trkpt>
      <trkpt lat="50.596" lon="2.36297">
        <ele>72.8</ele>
      </trkpt>
      <trkpt lat="50.59598" lon="2.36297">
        <ele>72.8</ele>
      </trkpt>
      <trkpt lat="50.59596" lon="2.36298">
        <ele>72.9</ele>
      </trkpt>
      <trkpt lat="50.59595" lon="2.36299">
        <ele>72.9</ele>
      </trkpt>
      <trkpt lat="50.59593" lon="2.36301">
        <ele>72.9</ele>
      </trkpt>
      <trkpt lat="50.59592" lon="2.36302">
        <ele>73</ele>
      </trkpt>
      <trkpt lat="50.59589" lon="2.36308">
        <ele>73.1</ele>
      </trkpt>
      <trkpt lat="50.59587" lon="2.36311">
        <ele>73.2</ele>
      </trkpt>
      <trkpt lat="50.59585" lon="2.36314">
        <ele>73.3</ele>
      </trkpt>
      <trkpt lat="50.59584" lon="2.36317">
        <ele>73.4</ele>
      </trkpt>
      <trkpt lat="50.59584" lon="2.3632">
        <ele>73.5</ele>
      </trkpt>
      <trkpt lat="50.59582" lon="2.36322">
        <ele>73.6</ele>
      </trkpt>
      <trkpt lat="50.59581" lon="2.36325">
        <ele>73.7</ele>
      </trkpt>
      <trkpt lat="50.59579" lon="2.36327">
        <ele>73.8</ele>
      </trkpt>
      <trkpt lat="50.59578" lon="2.3633">
        <ele>73.9</ele>
      </trkpt>
      <trkpt lat="50.59576" lon="2.36332">
        <ele>74</ele>
      </trkpt>
      <trkpt lat="50.59574" lon="2.36334">
        <ele>74</ele>
      </trkpt>
      <trkpt lat="50.59572" lon="2.36336">
        <ele>74</ele>
      </trkpt>
      <trkpt lat="50.5957" lon="2.36338">
        <ele>74.1</ele>
      </trkpt>
      <trkpt lat="50.59566" lon="2.36338">
        <ele>74.1</ele>
      </trkpt>
      <trkpt lat="50.59564" lon="2.36339">
        <ele>74.1</ele>
      </trkpt>
      <trkpt lat="50.59561" lon="2.36339">
        <ele>74.2</ele>
      </trkpt>
      <trkpt lat="50.59558" lon="2.3634">
        <ele>74.2</ele>
      </trkpt>
      <trkpt lat="50.59556" lon="2.36339">
        <ele>74.2</ele>
      </trkpt>
      <trkpt lat="50.59553" lon="2.36338">
        <ele>74.2</ele>
      </trkpt>
      <trkpt lat="50.59551" lon="2.36337">
        <ele>74.1</ele>
      </trkpt>
      <trkpt lat="50.59549" lon="2.36337">
        <ele>74.1</ele>
      </trkpt>
      <trkpt lat="50.59546" lon="2.36336">
        <ele>74.1</ele>
      </trkpt>
      <trkpt lat="50.59544" lon="2.36337">
        <ele>74.1</ele>
      </trkpt>
      <trkpt lat="50.59542" lon="2.36336">
        <ele>74.1</ele>
      </trkpt>
      <trkpt lat="50.59539" lon="2.36336">
        <ele>74</ele>
      </trkpt>
      <trkpt lat="50.59537" lon="2.36336">
        <ele>74</ele>
      </trkpt>
      <trkpt lat="50.59535" lon="2.36335">
        <ele>74</ele>
      </trkpt>
      <trkpt lat="50.59533" lon="2.36335">
        <ele>74</ele>
      </trkpt>
      <trkpt lat="50.59531" lon="2.36335">
        <ele>74</ele>
      </trkpt>
      <trkpt lat="50.59528" lon="2.36334">
        <ele>74</ele>
      </trkpt>
      <trkpt lat="50.59527" lon="2.36333">
        <ele>74</ele>
      </trkpt>
      <trkpt lat="50.59526" lon="2.36331">
        <ele>74</ele>
      </trkpt>
      <trkpt lat="50.59524" lon="2.3633">
        <ele>74</ele>
      </trkpt>
      <trkpt lat="50.59522" lon="2.36329">
        <ele>74</ele>
      </trkpt>
      <trkpt lat="50.5952" lon="2.36328">
        <ele>74</ele>
      </trkpt>
      <trkpt lat="50.59519" lon="2.36327">
        <ele>74</ele>
      </trkpt>
      <trkpt lat="50.59517" lon="2.36326">
        <ele>74</ele>
      </trkpt>
      <trkpt lat="50.59515" lon="2.36326">
        <ele>74</ele>
      </trkpt>
      <trkpt lat="50.59513" lon="2.36326">
        <ele>74</ele>
      </trkpt>
      <trkpt lat="50.59511" lon="2.36325">
        <ele>74</ele>
      </trkpt>
      <trkpt lat="50.5951" lon="2.36324">
        <ele>74</ele>
      </trkpt>
      <trkpt lat="50.59508" lon="2.36324">
        <ele>74</ele>
      </trkpt>
      <trkpt lat="50.59506" lon="2.36322">
        <ele>74</ele>
      </trkpt>
      <trkpt lat="50.59505" lon="2.36321">
        <ele>74</ele>
      </trkpt>
      <trkpt lat="50.59503" lon="2.36321">
        <ele>74</ele>
      </trkpt>
      <trkpt lat="50.59501" lon="2.36321">
        <ele>74</ele>
      </trkpt>
      <trkpt lat="50.59499" lon="2.36321">
        <ele>74</ele>
      </trkpt>
      <trkpt lat="50.59498" lon="2.36322">
        <ele>73.9</ele>
      </trkpt>
      <trkpt lat="50.59496" lon="2.36322">
        <ele>73.9</ele>
      </trkpt>
      <trkpt lat="50.59494" lon="2.36322">
        <ele>73.9</ele>
      </trkpt>
      <trkpt lat="50.59493" lon="2.36323">
        <ele>73.8</ele>
      </trkpt>
      <trkpt lat="50.59491" lon="2.36324">
        <ele>73.8</ele>
      </trkpt>
      <trkpt lat="50.59489" lon="2.36326">
        <ele>73.7</ele>
      </trkpt>
      <trkpt lat="50.59487" lon="2.36327">
        <ele>73.6</ele>
      </trkpt>
      <trkpt lat="50.59486" lon="2.36328">
        <ele>73.6</ele>
      </trkpt>
      <trkpt lat="50.59484" lon="2.36329">
        <ele>73.5</ele>
      </trkpt>
      <trkpt lat="50.59483" lon="2.3633">
        <ele>73.5</ele>
      </trkpt>
      <trkpt lat="50.59482" lon="2.36334">
        <ele>73.4</ele>
      </trkpt>
      <trkpt lat="50.59481" lon="2.36338">
        <ele>73.3</ele>
      </trkpt>
      <trkpt lat="50.59479" lon="2.36341">
        <ele>73.2</ele>
      </trkpt>
      <trkpt lat="50.59477" lon="2.36341">
        <ele>73.2</ele>
      </trkpt>
      <trkpt lat="50.59476" lon="2.36342">
        <ele>73.1</ele>
      </trkpt>
      <trkpt lat="50.59475" lon="2.36343">
        <ele>73.1</ele>
      </trkpt>
      <trkpt lat="50.59473" lon="2.36343">
        <ele>73</ele>
      </trkpt>
      <trkpt lat="50.59472" lon="2.36343">
        <ele>73</ele>
      </trkpt>
      <trkpt lat="50.59453" lon="2.36347">
        <ele>71.9</ele>
      </trkpt>
      <trkpt lat="50.59447" lon="2.36356">
        <ele>71.3</ele>
      </trkpt>
      <trkpt lat="50.59442" lon="2.36363">
        <ele>70.8</ele>
      </trkpt>
      <trkpt lat="50.59439" lon="2.36363">
        <ele>70.6</ele>
      </trkpt>
      <trkpt lat="50.59438" lon="2.36365">
        <ele>70.4</ele>
      </trkpt>
      <trkpt lat="50.59436" lon="2.36367">
        <ele>70.3</ele>
      </trkpt>
      <trkpt lat="50.59434" lon="2.36368">
        <ele>70.1</ele>
      </trkpt>
      <trkpt lat="50.59432" lon="2.36368">
        <ele>70</ele>
      </trkpt>
      <trkpt lat="50.59429" lon="2.36369">
        <ele>69.8</ele>
      </trkpt>
      <trkpt lat="50.59427" lon="2.3637">
        <ele>69.6</ele>
      </trkpt>
      <trkpt lat="50.59424" lon="2.3637">
        <ele>69.5</ele>
      </trkpt>
      <trkpt lat="50.59422" lon="2.3637">
        <ele>69.3</ele>
      </trkpt>
      <trkpt lat="50.5942" lon="2.3637">
        <ele>69.2</ele>
      </trkpt>
      <trkpt lat="50.59418" lon="2.3637">
        <ele>69.1</ele>
      </trkpt>
      <trkpt lat="50.59416" lon="2.36369">
        <ele>68.9</ele>
      </trkpt>
      <trkpt lat="50.59414" lon="2.36368">
        <ele>68.9</ele>
      </trkpt>
      <trkpt lat="50.59412" lon="2.36368">
        <ele>68.8</ele>
      </trkpt>
      <trkpt lat="50.5941" lon="2.36368">
        <ele>68.7</ele>
      </trkpt>
      <trkpt lat="50.59408" lon="2.36367">
        <ele>68.6</ele>
      </trkpt>
      <trkpt lat="50.59406" lon="2.36366">
        <ele>68.6</ele>
      </trkpt>
      <trkpt lat="50.59404" lon="2.36366">
        <ele>68.5</ele>
      </trkpt>
      <trkpt lat="50.59402" lon="2.36366">
        <ele>68.4</ele>
      </trkpt>
      <trkpt lat="50.594" lon="2.36366">
        <ele>68.3</ele>
      </trkpt>
      <trkpt lat="50.59398" lon="2.36365">
        <ele>68.2</ele>
      </trkpt>
      <trkpt lat="50.59397" lon="2.36364">
        <ele>68.2</ele>
      </trkpt>
      <trkpt lat="50.59395" lon="2.36363">
        <ele>68.2</ele>
      </trkpt>
      <trkpt lat="50.59394" lon="2.36362">
        <ele>68.2</ele>
      </trkpt>
      <trkpt lat="50.59392" lon="2.3636">
        <ele>68.2</ele>
      </trkpt>
      <trkpt lat="50.59391" lon="2.36359">
        <ele>68.1</ele>
      </trkpt>
      <trkpt lat="50.59389" lon="2.36357">
        <ele>68.2</ele>
      </trkpt>
      <trkpt lat="50.5939" lon="2.36355">
        <ele>68.3</ele>
      </trkpt>
      <trkpt lat="50.59391" lon="2.36353">
        <ele>68.4</ele>
      </trkpt>
      <trkpt lat="50.59393" lon="2.36352">
        <ele>68.5</ele>
      </trkpt>
      <trkpt lat="50.59394" lon="2.36351">
        <ele>68.6</ele>
      </trkpt>
      <trkpt lat="50.59396" lon="2.3635">
        <ele>68.7</ele>
      </trkpt>
      <trkpt lat="50.59398" lon="2.36349">
        <ele>68.8</ele>
      </trkpt>
      <trkpt lat="50.594" lon="2.36348">
        <ele>68.9</ele>
      </trkpt>
      <trkpt lat="50.59401" lon="2.36347">
        <ele>68.9</ele>
      </trkpt>
      <trkpt lat="50.59403" lon="2.36346">
        <ele>69</ele>
      </trkpt>
      <trkpt lat="50.59404" lon="2.36344">
        <ele>69.2</ele>
      </trkpt>
      <trkpt lat="50.59405" lon="2.36342">
        <ele>69.3</ele>
      </trkpt>
      <trkpt lat="50.59407" lon="2.36341">
        <ele>69.4</ele>
      </trkpt>
      <trkpt lat="50.59408" lon="2.3634">
        <ele>69.4</ele>
      </trkpt>
      <trkpt lat="50.59409" lon="2.36339">
        <ele>69.5</ele>
      </trkpt>
      <trkpt lat="50.59411" lon="2.36337">
        <ele>69.7</ele>
      </trkpt>
      <trkpt lat="50.59413" lon="2.36336">
        <ele>69.8</ele>
      </trkpt>
      <trkpt lat="50.59414" lon="2.36335">
        <ele>69.9</ele>
      </trkpt>
      <trkpt lat="50.59416" lon="2.36334">
        <ele>70</ele>
      </trkpt>
      <trkpt lat="50.59418" lon="2.36334">
        <ele>70.1</ele>
      </trkpt>
      <trkpt lat="50.5942" lon="2.36332">
        <ele>70.3</ele>
      </trkpt>
      <trkpt lat="50.59423" lon="2.36329">
        <ele>70.6</ele>
      </trkpt>
      <trkpt lat="50.59424" lon="2.36324">
        <ele>70.8</ele>
      </trkpt>
      <trkpt lat="50.59424" lon="2.36322">
        <ele>70.9</ele>
      </trkpt>
      <trkpt lat="50.59425" lon="2.36319">
        <ele>71.1</ele>
      </trkpt>
      <trkpt lat="50.59426" lon="2.36317">
        <ele>71.3</ele>
      </trkpt>
      <trkpt lat="50.59428" lon="2.36313">
        <ele>71.6</ele>
      </trkpt>
      <trkpt lat="50.59428" lon="2.3631">
        <ele>71.7</ele>
      </trkpt>
      <trkpt lat="50.59428" lon="2.36307">
        <ele>71.8</ele>
      </trkpt>
      <trkpt lat="50.5943" lon="2.36305">
        <ele>71.9</ele>
      </trkpt>
      <trkpt lat="50.59431" lon="2.36303">
        <ele>72</ele>
      </trkpt>
      <trkpt lat="50.59432" lon="2.36301">
        <ele>72</ele>
      </trkpt>
      <trkpt lat="50.59433" lon="2.36298">
        <ele>72.1</ele>
      </trkpt>
      <trkpt lat="50.59434" lon="2.36296">
        <ele>72.2</ele>
      </trkpt>
      <trkpt lat="50.59436" lon="2.36294">
        <ele>72.2</ele>
      </trkpt>
      <trkpt lat="50.59436" lon="2.36292">
        <ele>72.3</ele>
      </trkpt>
      <trkpt lat="50.59439" lon="2.36287">
        <ele>72.4</ele>
      </trkpt>
      <trkpt lat="50.5944" lon="2.36285">
        <ele>72.5</ele>
      </trkpt>
      <trkpt lat="50.59441" lon="2.36282">
        <ele>72.6</ele>
      </trkpt>
      <trkpt lat="50.59442" lon="2.3628">
        <ele>72.7</ele>
      </trkpt>
      <trkpt lat="50.59442" lon="2.36277">
        <ele>72.7</ele>
      </trkpt>
      <trkpt lat="50.59443" lon="2.36275">
        <ele>72.7</ele>
      </trkpt>
      <trkpt lat="50.59442" lon="2.36272">
        <ele>72.6</ele>
      </trkpt>
      <trkpt lat="50.59443" lon="2.3627">
        <ele>72.5</ele>
      </trkpt>
      <trkpt lat="50.59443" lon="2.36268">
        <ele>72.5</ele>
      </trkpt>
      <trkpt lat="50.59443" lon="2.36265">
        <ele>72.4</ele>
      </trkpt>
      <trkpt lat="50.59443" lon="2.36262">
        <ele>72.3</ele>
      </trkpt>
      <trkpt lat="50.59443" lon="2.3626">
        <ele>72.2</ele>
      </trkpt>
      <trkpt lat="50.59442" lon="2.36258">
        <ele>72.1</ele>
      </trkpt>
      <trkpt lat="50.59441" lon="2.36255">
        <ele>72</ele>
      </trkpt>
      <trkpt lat="50.59441" lon="2.36253">
        <ele>71.8</ele>
      </trkpt>
      <trkpt lat="50.5944" lon="2.36251">
        <ele>71.7</ele>
      </trkpt>
      <trkpt lat="50.59441" lon="2.36249">
        <ele>71.7</ele>
      </trkpt>
      <trkpt lat="50.5944" lon="2.36246">
        <ele>71.6</ele>
      </trkpt>
      <trkpt lat="50.59439" lon="2.36244">
        <ele>71.4</ele>
      </trkpt>
      <trkpt lat="50.59438" lon="2.36242">
        <ele>71.3</ele>
      </trkpt>
      <trkpt lat="50.59436" lon="2.36241">
        <ele>71.1</ele>
      </trkpt>
      <trkpt lat="50.59436" lon="2.36239">
        <ele>71</ele>
      </trkpt>
      <trkpt lat="50.5936" lon="2.36049">
        <ele>66.570225</ele>
        <time>2023-02-10T04:39:12Z</time>
      </trkpt>
      <trkpt lat="50.59321" lon="2.35924">
        <ele>64.723069</ele>
        <time>2023-02-10T04:39:36Z</time>
      </trkpt>
      <trkpt lat="50.5931" lon="2.3592">
        <ele>64.496737</ele>
        <time>2023-02-10T04:39:39Z</time>
      </trkpt>
      <trkpt lat="50.59191" lon="2.3602">
        <ele>62.815828</ele>
        <time>2023-02-10T04:40:18Z</time>
      </trkpt>
      <trkpt lat="50.59187" lon="2.36026">
        <ele>62.753346</ele>
        <time>2023-02-10T04:40:20Z</time>
      </trkpt>
      <trkpt lat="50.59187" lon="2.36042">
        <ele>62.634433</ele>
        <time>2023-02-10T04:40:22Z</time>
      </trkpt>
      <trkpt lat="50.59202" lon="2.36092">
        <ele>62.219319</ele>
        <time>2023-02-10T04:40:33Z</time>
      </trkpt>
      <trkpt lat="50.59215" lon="2.36163">
        <ele>62.319714</ele>
        <time>2023-02-10T04:40:47Z</time>
      </trkpt>
      <trkpt lat="50.59217" lon="2.3625">
        <ele>62.499162</ele>
        <time>2023-02-10T04:41:05Z</time>
      </trkpt>
      <trkpt lat="50.59207" lon="2.3626">
        <ele>62.538183</ele>
        <time>2023-02-10T04:41:09Z</time>
      </trkpt>
      <trkpt lat="50.59201" lon="2.36177">
        <ele>62.712252</ele>
        <time>2023-02-10T04:41:22Z</time>
      </trkpt>
      <trkpt lat="50.59193" lon="2.36129">
        <ele>63.015246</ele>
        <time>2023-02-10T04:41:30Z</time>
      </trkpt>
      <trkpt lat="50.59164" lon="2.36029">
        <ele>64.168069</ele>
        <time>2023-02-10T04:41:49Z</time>
      </trkpt>
      <trkpt lat="50.59145" lon="2.35965">
        <ele>64.894139</ele>
        <time>2023-02-10T04:42:01Z</time>
      </trkpt>
      <trkpt lat="50.59136" lon="2.3592">
        <ele>65.39093</ele>
        <time>2023-02-10T04:42:10Z</time>
      </trkpt>
      <trkpt lat="50.59127" lon="2.35861">
        <ele>66.055125</ele>
        <time>2023-02-10T04:42:21Z</time>
      </trkpt>
      <trkpt lat="50.59126" lon="2.35733">
        <ele>67.501122</ele>
        <time>2023-02-10T04:42:45Z</time>
      </trkpt>
      <trkpt lat="50.59118" lon="2.35602">
        <ele>68.973875</ele>
        <time>2023-02-10T04:43:07Z</time>
      </trkpt>
      <trkpt lat="50.59113" lon="2.35575">
        <ele>69.305544</ele>
        <time>2023-02-10T04:43:12Z</time>
      </trkpt>
      <trkpt lat="50.59098" lon="2.35525">
        <ele>69.93454</ele>
        <time>2023-02-10T04:43:22Z</time>
      </trkpt>
      <trkpt lat="50.59098" lon="2.35519">
        <ele>70.003073</ele>
        <time>2023-02-10T04:43:23Z</time>
      </trkpt>
      <trkpt lat="50.59099" lon="2.35515">
        <ele>70.047883</ele>
        <time>2023-02-10T04:43:23Z</time>
      </trkpt>
      <trkpt lat="50.59078" lon="2.35485">
        <ele>70.546451</ele>
        <time>2023-02-10T04:43:34Z</time>
      </trkpt>
      <trkpt lat="50.58999" lon="2.35393">
        <ele>72.365821</ele>
        <time>2023-02-10T04:44:15Z</time>
      </trkpt>
      <trkpt lat="50.58769" lon="2.35091">
        <ele>79.569989</ele>
        <time>2023-02-10T04:46:27Z</time>
      </trkpt>
      <trkpt lat="50.58716" lon="2.35004">
        <ele>81.40143</ele>
        <time>2023-02-10T04:47:00Z</time>
      </trkpt>
      <trkpt lat="50.58685" lon="2.34934">
        <ele>82.652355</ele>
        <time>2023-02-10T04:47:24Z</time>
      </trkpt>
      <trkpt lat="50.58597" lon="2.3471">
        <ele>85.721656</ele>
        <time>2023-02-10T04:48:36Z</time>
      </trkpt>
      <trkpt lat="50.58542" lon="2.34539">
        <ele>86.87205</ele>
        <time>2023-02-10T04:49:20Z</time>
      </trkpt>
      <trkpt lat="50.58615" lon="2.34441">
        <ele>85.018701</ele>
        <time>2023-02-10T04:49:37Z</time>
      </trkpt>
      <trkpt lat="50.58694" lon="2.34381">
        <ele>82.953277</ele>
        <time>2023-02-10T04:49:50Z</time>
      </trkpt>
      <trkpt lat="50.58817" lon="2.34243">
        <ele>75.517898</ele>
        <time>2023-02-10T04:50:12Z</time>
      </trkpt>
      <trkpt lat="50.58875" lon="2.34198">
        <ele>71.838122</ele>
        <time>2023-02-10T04:50:20Z</time>
      </trkpt>
      <trkpt lat="50.58892" lon="2.34173">
        <ele>70.469234</ele>
        <time>2023-02-10T04:50:26Z</time>
      </trkpt>
      <trkpt lat="50.59011" lon="2.34046">
        <ele>62.043016</ele>
        <time>2023-02-10T04:50:59Z</time>
      </trkpt>
      <trkpt lat="50.5904" lon="2.33993">
        <ele>59.482725</ele>
        <time>2023-02-10T04:51:10Z</time>
      </trkpt>
      <trkpt lat="50.59048" lon="2.3397">
        <ele>58.494658</ele>
        <time>2023-02-10T04:51:14Z</time>
      </trkpt>
      <trkpt lat="50.5906" lon="2.33902">
        <ele>55.939976</ele>
        <time>2023-02-10T04:51:24Z</time>
      </trkpt>
      <trkpt lat="50.59055" lon="2.3382">
        <ele>53.063974</ele>
        <time>2023-02-10T04:51:37Z</time>
      </trkpt>
      <trkpt lat="50.59059" lon="2.33799">
        <ele>52.389838</ele>
        <time>2023-02-10T04:51:40Z</time>
      </trkpt>
      <trkpt lat="50.59068" lon="2.33777">
        <ele>51.598328</ele>
        <time>2023-02-10T04:51:44Z</time>
      </trkpt>
      <trkpt lat="50.59105" lon="2.33733">
        <ele>49.374885</ele>
        <time>2023-02-10T04:51:55Z</time>
      </trkpt>
      <trkpt lat="50.59111" lon="2.3373">
        <ele>49.052916</ele>
        <time>2023-02-10T04:51:57Z</time>
      </trkpt>
      <trkpt lat="50.59166" lon="2.33673">
        <ele>45.886722</ele>
        <time>2023-02-10T04:52:13Z</time>
      </trkpt>
      <trkpt lat="50.59172" lon="2.3367">
        <ele>45.583085</ele>
        <time>2023-02-10T04:52:14Z</time>
      </trkpt>
      <trkpt lat="50.59171" lon="2.33581">
        <ele>44.449247</ele>
        <time>2023-02-10T04:52:23Z</time>
      </trkpt>
      <trkpt lat="50.59169" lon="2.33562">
        <ele>44.280089</ele>
        <time>2023-02-10T04:52:24Z</time>
      </trkpt>
      <trkpt lat="50.59205" lon="2.33548">
        <ele>43.766344</ele>
        <time>2023-02-10T04:52:35Z</time>
      </trkpt>
      <trkpt lat="50.59282" lon="2.3353">
        <ele>42.710691</ele>
        <time>2023-02-10T04:53:00Z</time>
      </trkpt>
      <trkpt lat="50.59289" lon="2.3353">
        <ele>42.64868</ele>
        <time>2023-02-10T04:53:03Z</time>
      </trkpt>
      <trkpt lat="50.59305" lon="2.3353">
        <ele>42.793028</ele>
        <time>2023-02-10T04:53:08Z</time>
      </trkpt>
      <trkpt lat="50.59319" lon="2.3353">
        <ele>42.92905</ele>
        <time>2023-02-10T04:53:13Z</time>
      </trkpt>
      <trkpt lat="50.59403" lon="2.33558">
        <ele>43.71786</ele>
        <time>2023-02-10T04:53:44Z</time>
      </trkpt>
      <trkpt lat="50.59422" lon="2.33574">
        <ele>43.918278</ele>
        <time>2023-02-10T04:53:52Z</time>
      </trkpt>
      <trkpt lat="50.59484" lon="2.33671">
        <ele>45.117848</ele>
        <time>2023-02-10T04:54:26Z</time>
      </trkpt>
      <trkpt lat="50.59509" lon="2.33705">
        <ele>45.707283</ele>
        <time>2023-02-10T04:54:40Z</time>
      </trkpt>
      <trkpt lat="50.5953" lon="2.3373">
        <ele>46.27165</ele>
        <time>2023-02-10T04:54:53Z</time>
      </trkpt>
      <trkpt lat="50.59558" lon="2.33818">
        <ele>50.7</ele>
      </trkpt>
      <trkpt lat="50.59564" lon="2.33817">
        <ele>47.431983</ele>
        <time>2023-02-10T04:55:21Z</time>
      </trkpt>
      <trkpt lat="50.59605" lon="2.33793">
        <ele>47.975232</ele>
        <time>2023-02-10T04:55:40Z</time>
      </trkpt>
      <trkpt lat="50.59567" lon="2.33697">
        <ele>48.824375</ele>
        <time>2023-02-10T04:56:11Z</time>
      </trkpt>
      <trkpt lat="50.59529" lon="2.336">
        <ele>49.61994</ele>
        <time>2023-02-10T04:56:41Z</time>
      </trkpt>
      <trkpt lat="50.59528" lon="2.33601">
        <ele>49.61987</ele>
        <time>2023-02-10T04:56:42Z</time>
      </trkpt>
      <trkpt lat="50.59505" lon="2.33517">
        <ele>49.613457</ele>
        <time>2023-02-10T04:56:52Z</time>
      </trkpt>
      <trkpt lat="50.59451" lon="2.33273">
        <ele>49.693076</ele>
        <time>2023-02-10T04:57:23Z</time>
      </trkpt>
      <trkpt lat="50.59438" lon="2.33115">
        <ele>49.891042</ele>
        <time>2023-02-10T04:57:43Z</time>
      </trkpt>
      <trkpt lat="50.59425" lon="2.33068">
        <ele>49.970105</ele>
        <time>2023-02-10T04:57:50Z</time>
      </trkpt>
      <trkpt lat="50.59439" lon="2.32953">
        <ele>51.392608</ele>
        <time>2023-02-10T04:58:22Z</time>
      </trkpt>
      <trkpt lat="50.59461" lon="2.32856">
        <ele>52.550976</ele>
        <time>2023-02-10T04:58:50Z</time>
      </trkpt>
      <trkpt lat="50.59482" lon="2.32745">
        <ele>54.488321</ele>
        <time>2023-02-10T04:59:21Z</time>
      </trkpt>
      <trkpt lat="50.59502" lon="2.32634">
        <ele>56.934517</ele>
        <time>2023-02-10T04:59:53Z</time>
      </trkpt>
      <trkpt lat="50.59523" lon="2.32523">
        <ele>59.355223</ele>
        <time>2023-02-10T05:00:24Z</time>
      </trkpt>
      <trkpt lat="50.59544" lon="2.32412">
        <ele>61.544281</ele>
        <time>2023-02-10T05:00:55Z</time>
      </trkpt>
      <trkpt lat="50.59559" lon="2.32303">
        <ele>63.65945</ele>
        <time>2023-02-10T05:01:26Z</time>
      </trkpt>
      <trkpt lat="50.59586" lon="2.32237">
        <ele>63.701604</ele>
        <time>2023-02-10T05:01:47Z</time>
      </trkpt>
      <trkpt lat="50.59612" lon="2.32172">
        <ele>61.915921</ele>
        <time>2023-02-10T05:02:08Z</time>
      </trkpt>
      <trkpt lat="50.59615" lon="2.32143">
        <ele>71.4</ele>
      </trkpt>
      <trkpt lat="50.596" lon="2.3214">
        <ele>69.9</ele>
      </trkpt>
      <trkpt lat="50.59545" lon="2.32118">
        <ele>63.2</ele>
      </trkpt>
      <trkpt lat="50.59529" lon="2.32112">
        <ele>61.2</ele>
      </trkpt>
      <trkpt lat="50.59509" lon="2.32102">
        <ele>58.6</ele>
      </trkpt>
      <trkpt lat="50.59499" lon="2.32098">
        <ele>57.3</ele>
      </trkpt>
      <trkpt lat="50.59469" lon="2.32084">
        <ele>54.43588</ele>
        <time>2023-02-10T05:03:19Z</time>
      </trkpt>
      <trkpt lat="50.59458" lon="2.32085">
        <ele>49.1</ele>
      </trkpt>
      <trkpt lat="50.59452" lon="2.32085">
        <ele>47.8</ele>
      </trkpt>
      <trkpt lat="50.59443" lon="2.32051">
        <ele>52.383572</ele>
        <time>2023-02-10T05:03:34Z</time>
      </trkpt>
      <trkpt lat="50.59436" lon="2.32024">
        <ele>45</ele>
      </trkpt>
      <trkpt lat="50.59427" lon="2.31995">
        <ele>44.3</ele>
      </trkpt>
      <trkpt lat="50.59423" lon="2.31984">
        <ele>44.1</ele>
      </trkpt>
      <trkpt lat="50.59396" lon="2.32012">
        <ele>43.3</ele>
      </trkpt>
      <trkpt lat="50.59377" lon="2.32035">
        <ele>46.977024</ele>
        <time>2023-02-10T05:04:13Z</time>
      </trkpt>
      <trkpt lat="50.59347" lon="2.32069">
        <ele>42.3</ele>
      </trkpt>
      <trkpt lat="50.59327" lon="2.32088">
        <ele>42.2</ele>
      </trkpt>
      <trkpt lat="50.59323" lon="2.32058">
        <ele>42.9</ele>
      </trkpt>
      <trkpt lat="50.59313" lon="2.32003">
        <ele>43</ele>
      </trkpt>
      <trkpt lat="50.59299" lon="2.31945">
        <ele>43.8</ele>
      </trkpt>
      <trkpt lat="50.59284" lon="2.319">
        <ele>44.6</ele>
      </trkpt>
      <trkpt lat="50.59267" lon="2.31786">
        <ele>46.7</ele>
      </trkpt>
      <trkpt lat="50.59258" lon="2.31752">
        <ele>47.3</ele>
      </trkpt>
      <trkpt lat="50.59202" lon="2.31707">
        <ele>48.8</ele>
      </trkpt>
      <trkpt lat="50.59145" lon="2.31665">
        <ele>49.3</ele>
      </trkpt>
      <trkpt lat="50.59074" lon="2.31573">
        <ele>48.9</ele>
      </trkpt>
      <trkpt lat="50.58998" lon="2.31476">
        <ele>48.6</ele>
      </trkpt>
      <trkpt lat="50.5893" lon="2.31394">
        <ele>48.3</ele>
      </trkpt>
      <trkpt lat="50.58865" lon="2.31308">
        <ele>49</ele>
      </trkpt>
      <trkpt lat="50.58794" lon="2.31198">
        <ele>50.1</ele>
      </trkpt>
      <trkpt lat="50.58753" lon="2.31138">
        <ele>50.3</ele>
      </trkpt>
      <trkpt lat="50.58694" lon="2.31072">
        <ele>50.8</ele>
      </trkpt>
      <trkpt lat="50.58674" lon="2.31046">
        <ele>52.8</ele>
      </trkpt>
      <trkpt lat="50.58663" lon="2.31064">
        <ele>52.5</ele>
      </trkpt>
      <trkpt lat="50.58657" lon="2.31073">
        <ele>52.1</ele>
      </trkpt>
      <trkpt lat="50.58651" lon="2.31082">
        <ele>51.4</ele>
      </trkpt>
      <trkpt lat="50.58647" lon="2.31091">
        <ele>50.9</ele>
      </trkpt>
      <trkpt lat="50.58645" lon="2.31101">
        <ele>50.4</ele>
      </trkpt>
      <trkpt lat="50.58638" lon="2.31109">
        <ele>50.3</ele>
      </trkpt>
      <trkpt lat="50.58633" lon="2.31117">
        <ele>51.1</ele>
      </trkpt>
      <trkpt lat="50.58624" lon="2.31119">
        <ele>52.6</ele>
      </trkpt>
      <trkpt lat="50.58614" lon="2.31118">
        <ele>54.2</ele>
      </trkpt>
      <trkpt lat="50.58606" lon="2.31117">
        <ele>55.2</ele>
      </trkpt>
      <trkpt lat="50.58598" lon="2.31114">
        <ele>55.9</ele>
      </trkpt>
      <trkpt lat="50.5859" lon="2.31107">
        <ele>56.9</ele>
      </trkpt>
      <trkpt lat="50.58584" lon="2.311">
        <ele>57.8</ele>
      </trkpt>
      <trkpt lat="50.58578" lon="2.31094">
        <ele>58.7</ele>
      </trkpt>
      <trkpt lat="50.5857" lon="2.31083">
        <ele>59.5</ele>
      </trkpt>
      <trkpt lat="50.58565" lon="2.31071">
        <ele>59.5</ele>
      </trkpt>
      <trkpt lat="50.58559" lon="2.3106">
        <ele>59.2</ele>
      </trkpt>
      <trkpt lat="50.58553" lon="2.31049">
        <ele>59.1</ele>
      </trkpt>
      <trkpt lat="50.58543" lon="2.31047">
        <ele>59.3</ele>
      </trkpt>
      <trkpt lat="50.58533" lon="2.31042">
        <ele>59.4</ele>
      </trkpt>
      <trkpt lat="50.58525" lon="2.31036">
        <ele>59.4</ele>
      </trkpt>
      <trkpt lat="50.58519" lon="2.31028">
        <ele>59.3</ele>
      </trkpt>
      <trkpt lat="50.58512" lon="2.31023">
        <ele>59.5</ele>
      </trkpt>
      <trkpt lat="50.58505" lon="2.31016">
        <ele>59.5</ele>
      </trkpt>
      <trkpt lat="50.58499" lon="2.31009">
        <ele>59.3</ele>
      </trkpt>
      <trkpt lat="50.58493" lon="2.31002">
        <ele>58.6</ele>
      </trkpt>
      <trkpt lat="50.5849" lon="2.30999">
        <ele>58.2</ele>
      </trkpt>
      <trkpt lat="50.58476" lon="2.3098">
        <ele>56</ele>
      </trkpt>
      <trkpt lat="50.58474" lon="2.30976">
        <ele>55.4</ele>
      </trkpt>
      <trkpt lat="50.5847" lon="2.30969">
        <ele>55.1</ele>
      </trkpt>
      <trkpt lat="50.58468" lon="2.30969">
        <ele>55.3</ele>
      </trkpt>
      <trkpt lat="50.58465" lon="2.30969">
        <ele>55.6</ele>
      </trkpt>
      <trkpt lat="50.58462" lon="2.30969">
        <ele>55.9</ele>
      </trkpt>
      <trkpt lat="50.5846" lon="2.30968">
        <ele>56</ele>
      </trkpt>
      <trkpt lat="50.58458" lon="2.30966">
        <ele>56.1</ele>
      </trkpt>
      <trkpt lat="50.58456" lon="2.30963">
        <ele>56</ele>
      </trkpt>
      <trkpt lat="50.58455" lon="2.3096">
        <ele>55.9</ele>
      </trkpt>
      <trkpt lat="50.58454" lon="2.30957">
        <ele>55.7</ele>
      </trkpt>
      <trkpt lat="50.58452" lon="2.30954">
        <ele>55.6</ele>
      </trkpt>
      <trkpt lat="50.58451" lon="2.3095">
        <ele>55.3</ele>
      </trkpt>
      <trkpt lat="50.5845" lon="2.30947">
        <ele>55.1</ele>
      </trkpt>
      <trkpt lat="50.58448" lon="2.30941">
        <ele>54.8</ele>
      </trkpt>
      <trkpt lat="50.58447" lon="2.30938">
        <ele>54.7</ele>
      </trkpt>
      <trkpt lat="50.58445" lon="2.30936">
        <ele>54.7</ele>
      </trkpt>
      <trkpt lat="50.58443" lon="2.30934">
        <ele>54.8</ele>
      </trkpt>
      <trkpt lat="50.58441" lon="2.30932">
        <ele>54.9</ele>
      </trkpt>
      <trkpt lat="50.58439" lon="2.3093">
        <ele>55</ele>
      </trkpt>
      <trkpt lat="50.58437" lon="2.30929">
        <ele>55.1</ele>
      </trkpt>
      <trkpt lat="50.58435" lon="2.30923">
        <ele>55</ele>
      </trkpt>
      <trkpt lat="50.58434" lon="2.30917">
        <ele>54.8</ele>
      </trkpt>
      <trkpt lat="50.58434" lon="2.30911">
        <ele>54.3</ele>
      </trkpt>
      <trkpt lat="50.58434" lon="2.30906">
        <ele>53.8</ele>
      </trkpt>
      <trkpt lat="50.58434" lon="2.30899">
        <ele>53.2</ele>
      </trkpt>
      <trkpt lat="50.58435" lon="2.30896">
        <ele>52.9</ele>
      </trkpt>
      <trkpt lat="50.58437" lon="2.3089">
        <ele>52.4</ele>
      </trkpt>
      <trkpt lat="50.5844" lon="2.30885">
        <ele>52</ele>
      </trkpt>
      <trkpt lat="50.58441" lon="2.30882">
        <ele>51.9</ele>
      </trkpt>
      <trkpt lat="50.58445" lon="2.30879">
        <ele>51.7</ele>
      </trkpt>
      <trkpt lat="50.58447" lon="2.30877">
        <ele>51.9</ele>
      </trkpt>
      <trkpt lat="50.58449" lon="2.30875">
        <ele>52.1</ele>
      </trkpt>
      <trkpt lat="50.58451" lon="2.30874">
        <ele>52.3</ele>
      </trkpt>
      <trkpt lat="50.58454" lon="2.30872">
        <ele>52.6</ele>
      </trkpt>
      <trkpt lat="50.58455" lon="2.30869">
        <ele>52.7</ele>
      </trkpt>
      <trkpt lat="50.58457" lon="2.30868">
        <ele>53</ele>
      </trkpt>
      <trkpt lat="50.58459" lon="2.30866">
        <ele>53.2</ele>
      </trkpt>
      <trkpt lat="50.58461" lon="2.30863">
        <ele>53.4</ele>
      </trkpt>
      <trkpt lat="50.58463" lon="2.30861">
        <ele>53.6</ele>
      </trkpt>
      <trkpt lat="50.58464" lon="2.30858">
        <ele>53.8</ele>
      </trkpt>
      <trkpt lat="50.58467" lon="2.30856">
        <ele>54</ele>
      </trkpt>
      <trkpt lat="50.58468" lon="2.30853">
        <ele>54.2</ele>
      </trkpt>
      <trkpt lat="50.58471" lon="2.30852">
        <ele>54.5</ele>
      </trkpt>
      <trkpt lat="50.58473" lon="2.30849">
        <ele>54.7</ele>
      </trkpt>
      <trkpt lat="50.58475" lon="2.30847">
        <ele>55</ele>
      </trkpt>
      <trkpt lat="50.58477" lon="2.30845">
        <ele>55.2</ele>
      </trkpt>
      <trkpt lat="50.58478" lon="2.30842">
        <ele>55.3</ele>
      </trkpt>
      <trkpt lat="50.5848" lon="2.30839">
        <ele>55.5</ele>
      </trkpt>
      <trkpt lat="50.5848" lon="2.30836">
        <ele>55.5</ele>
      </trkpt>
      <trkpt lat="50.58481" lon="2.30832">
        <ele>55.6</ele>
      </trkpt>
      <trkpt lat="50.58482" lon="2.30826">
        <ele>55.9</ele>
      </trkpt>
      <trkpt lat="50.58484" lon="2.30823">
        <ele>56.2</ele>
      </trkpt>
      <trkpt lat="50.58487" lon="2.30818">
        <ele>56.6</ele>
      </trkpt>
      <trkpt lat="50.58488" lon="2.30815">
        <ele>56.7</ele>
      </trkpt>
      <trkpt lat="50.58489" lon="2.30812">
        <ele>56.9</ele>
      </trkpt>
      <trkpt lat="50.58492" lon="2.3081">
        <ele>57.2</ele>
      </trkpt>
      <trkpt lat="50.58495" lon="2.30808">
        <ele>57.5</ele>
      </trkpt>
      <trkpt lat="50.58497" lon="2.3081">
        <ele>57.8</ele>
      </trkpt>
      <trkpt lat="50.58498" lon="2.30814">
        <ele>58</ele>
      </trkpt>
      <trkpt lat="50.58498" lon="2.30817">
        <ele>58.1</ele>
      </trkpt>
      <trkpt lat="50.58498" lon="2.30822">
        <ele>58.3</ele>
      </trkpt>
      <trkpt lat="50.58499" lon="2.30826">
        <ele>58.6</ele>
      </trkpt>
      <trkpt lat="50.58499" lon="2.30833">
        <ele>58.8</ele>
      </trkpt>
      <trkpt lat="50.58498" lon="2.30836">
        <ele>58.7</ele>
      </trkpt>
      <trkpt lat="50.58497" lon="2.3084">
        <ele>58.5</ele>
      </trkpt>
      <trkpt lat="50.58495" lon="2.30845">
        <ele>58.2</ele>
      </trkpt>
      <trkpt lat="50.58494" lon="2.30851">
        <ele>58</ele>
      </trkpt>
      <trkpt lat="50.58493" lon="2.30854">
        <ele>57.9</ele>
      </trkpt>
      <trkpt lat="50.58492" lon="2.30858">
        <ele>57.8</ele>
      </trkpt>
      <trkpt lat="50.58491" lon="2.30862">
        <ele>57.7</ele>
      </trkpt>
      <trkpt lat="50.5849" lon="2.30866">
        <ele>57.6</ele>
      </trkpt>
      <trkpt lat="50.58489" lon="2.30869">
        <ele>57.5</ele>
      </trkpt>
      <trkpt lat="50.58488" lon="2.30876">
        <ele>57.3</ele>
      </trkpt>
      <trkpt lat="50.58486" lon="2.30877">
        <ele>56.9</ele>
      </trkpt>
      <trkpt lat="50.58483" lon="2.30879">
        <ele>56.6</ele>
      </trkpt>
      <trkpt lat="50.58481" lon="2.30879">
        <ele>56.2</ele>
      </trkpt>
      <trkpt lat="50.58478" lon="2.3088">
        <ele>55.9</ele>
      </trkpt>
      <trkpt lat="50.58476" lon="2.30882">
        <ele>55.5</ele>
      </trkpt>
      <trkpt lat="50.58474" lon="2.30885">
        <ele>55.3</ele>
      </trkpt>
      <trkpt lat="50.58472" lon="2.30887">
        <ele>55</ele>
      </trkpt>
      <trkpt lat="50.5847" lon="2.30889">
        <ele>54.7</ele>
      </trkpt>
      <trkpt lat="50.58467" lon="2.30892">
        <ele>54.6</ele>
      </trkpt>
      <trkpt lat="50.58466" lon="2.30894">
        <ele>54.5</ele>
      </trkpt>
      <trkpt lat="50.58464" lon="2.309">
        <ele>54.6</ele>
      </trkpt>
      <trkpt lat="50.58463" lon="2.30906">
        <ele>54.8</ele>
      </trkpt>
      <trkpt lat="50.58462" lon="2.30912">
        <ele>55</ele>
      </trkpt>
      <trkpt lat="50.58466" lon="2.30916">
        <ele>55.5</ele>
      </trkpt>
      <trkpt lat="50.58468" lon="2.30916">
        <ele>55.7</ele>
      </trkpt>
      <trkpt lat="50.5847" lon="2.30917">
        <ele>55.8</ele>
      </trkpt>
      <trkpt lat="50.58472" lon="2.30918">
        <ele>55.9</ele>
      </trkpt>
      <trkpt lat="50.58474" lon="2.30921">
        <ele>55.9</ele>
      </trkpt>
      <trkpt lat="50.58475" lon="2.30924">
        <ele>55.7</ele>
      </trkpt>
      <trkpt lat="50.58474" lon="2.3093">
        <ele>55.2</ele>
      </trkpt>
      <trkpt lat="50.58476" lon="2.30935">
        <ele>55.2</ele>
      </trkpt>
      <trkpt lat="50.58479" lon="2.30937">
        <ele>55.4</ele>
      </trkpt>
      <trkpt lat="50.58482" lon="2.30942">
        <ele>55.6</ele>
      </trkpt>
      <trkpt lat="50.58484" lon="2.30945">
        <ele>55.7</ele>
      </trkpt>
      <trkpt lat="50.58485" lon="2.30948">
        <ele>56</ele>
      </trkpt>
      <trkpt lat="50.58486" lon="2.30952">
        <ele>56.1</ele>
      </trkpt>
      <trkpt lat="50.58487" lon="2.30955">
        <ele>56.4</ele>
      </trkpt>
      <trkpt lat="50.5849" lon="2.30961">
        <ele>56.8</ele>
      </trkpt>
      <trkpt lat="50.58493" lon="2.30963">
        <ele>57.2</ele>
      </trkpt>
      <trkpt lat="50.58496" lon="2.30964">
        <ele>57.5</ele>
      </trkpt>
      <trkpt lat="50.58499" lon="2.30964">
        <ele>57.9</ele>
      </trkpt>
      <trkpt lat="50.58502" lon="2.30964">
        <ele>58.1</ele>
      </trkpt>
      <trkpt lat="50.58504" lon="2.30966">
        <ele>58.2</ele>
      </trkpt>
      <trkpt lat="50.58507" lon="2.30969">
        <ele>58.3</ele>
      </trkpt>
      <trkpt lat="50.5851" lon="2.3097">
        <ele>58.4</ele>
      </trkpt>
      <trkpt lat="50.58513" lon="2.30971">
        <ele>58.5</ele>
      </trkpt>
      <trkpt lat="50.58515" lon="2.30974">
        <ele>58.6</ele>
      </trkpt>
      <trkpt lat="50.58518" lon="2.30977">
        <ele>58.7</ele>
      </trkpt>
      <trkpt lat="50.58521" lon="2.3098">
        <ele>58.8</ele>
      </trkpt>
      <trkpt lat="50.58523" lon="2.30983">
        <ele>58.9</ele>
      </trkpt>
      <trkpt lat="50.58525" lon="2.30987">
        <ele>58.9</ele>
      </trkpt>
      <trkpt lat="50.58527" lon="2.3099">
        <ele>59</ele>
      </trkpt>
      <trkpt lat="50.58528" lon="2.30994">
        <ele>59</ele>
      </trkpt>
      <trkpt lat="50.5853" lon="2.30997">
        <ele>59</ele>
      </trkpt>
      <trkpt lat="50.58532" lon="2.31">
        <ele>59</ele>
      </trkpt>
      <trkpt lat="50.58535" lon="2.31002">
        <ele>59</ele>
      </trkpt>
      <trkpt lat="50.58538" lon="2.31004">
        <ele>59</ele>
      </trkpt>
      <trkpt lat="50.58541" lon="2.31006">
        <ele>59</ele>
      </trkpt>
      <trkpt lat="50.58545" lon="2.31007">
        <ele>59</ele>
      </trkpt>
      <trkpt lat="50.58548" lon="2.3101">
        <ele>59</ele>
      </trkpt>
      <trkpt lat="50.5855" lon="2.31013">
        <ele>59</ele>
      </trkpt>
      <trkpt lat="50.58552" lon="2.31017">
        <ele>59</ele>
      </trkpt>
      <trkpt lat="50.58553" lon="2.31024">
        <ele>59</ele>
      </trkpt>
      <trkpt lat="50.58555" lon="2.31029">
        <ele>59</ele>
      </trkpt>
      <trkpt lat="50.58556" lon="2.31034">
        <ele>59</ele>
      </trkpt>
      <trkpt lat="50.58557" lon="2.31037">
        <ele>59</ele>
      </trkpt>
      <trkpt lat="50.58559" lon="2.3104">
        <ele>59.1</ele>
      </trkpt>
      <trkpt lat="50.58562" lon="2.31043">
        <ele>59.2</ele>
      </trkpt>
      <trkpt lat="50.58565" lon="2.31045">
        <ele>59.3</ele>
      </trkpt>
      <trkpt lat="50.58567" lon="2.31048">
        <ele>59.4</ele>
      </trkpt>
      <trkpt lat="50.58571" lon="2.31051">
        <ele>59.5</ele>
      </trkpt>
      <trkpt lat="50.58571" lon="2.31055">
        <ele>59.6</ele>
      </trkpt>
      <trkpt lat="50.58575" lon="2.31059">
        <ele>59.6</ele>
      </trkpt>
      <trkpt lat="50.58578" lon="2.31062">
        <ele>59.7</ele>
      </trkpt>
      <trkpt lat="50.58581" lon="2.31063">
        <ele>59.7</ele>
      </trkpt>
      <trkpt lat="50.58585" lon="2.31063">
        <ele>60</ele>
      </trkpt>
      <trkpt lat="50.58589" lon="2.31065">
        <ele>60.6</ele>
      </trkpt>
      <trkpt lat="50.58593" lon="2.31065">
        <ele>61.2</ele>
      </trkpt>
      <trkpt lat="50.58597" lon="2.31067">
        <ele>61.5</ele>
      </trkpt>
      <trkpt lat="50.58601" lon="2.3107">
        <ele>61.7</ele>
      </trkpt>
      <trkpt lat="50.58606" lon="2.31074">
        <ele>61.5</ele>
      </trkpt>
      <trkpt lat="50.58612" lon="2.31077">
        <ele>61.2</ele>
      </trkpt>
      <trkpt lat="50.58614" lon="2.31074">
        <ele>61.1</ele>
      </trkpt>
      <trkpt lat="50.58617" lon="2.31071">
        <ele>60.9</ele>
      </trkpt>
      <trkpt lat="50.58622" lon="2.31073">
        <ele>59.1</ele>
      </trkpt>
      <trkpt lat="50.58623" lon="2.31069">
        <ele>59.4</ele>
      </trkpt>
      <trkpt lat="50.58622" lon="2.31063">
        <ele>61.1</ele>
      </trkpt>
      <trkpt lat="50.58621" lon="2.31058">
        <ele>62.3</ele>
      </trkpt>
      <trkpt lat="50.58619" lon="2.31054">
        <ele>63.3</ele>
      </trkpt>
      <trkpt lat="50.58618" lon="2.31048">
        <ele>63.7</ele>
      </trkpt>
      <trkpt lat="50.58619" lon="2.31045">
        <ele>63.3</ele>
      </trkpt>
      <trkpt lat="50.58616" lon="2.31039">
        <ele>63.8</ele>
      </trkpt>
      <trkpt lat="50.58618" lon="2.31036">
        <ele>63.4</ele>
      </trkpt>
      <trkpt lat="50.58616" lon="2.31031">
        <ele>63.7</ele>
      </trkpt>
      <trkpt lat="50.58614" lon="2.31027">
        <ele>64</ele>
      </trkpt>
      <trkpt lat="50.58611" lon="2.31022">
        <ele>64.4</ele>
      </trkpt>
      <trkpt lat="50.58609" lon="2.31017">
        <ele>63.6</ele>
      </trkpt>
      <trkpt lat="50.58606" lon="2.31014">
        <ele>63</ele>
      </trkpt>
      <trkpt lat="50.58605" lon="2.3101">
        <ele>62.6</ele>
      </trkpt>
      <trkpt lat="50.58604" lon="2.31005">
        <ele>62.3</ele>
      </trkpt>
      <trkpt lat="50.58603" lon="2.31001">
        <ele>62.1</ele>
      </trkpt>
      <trkpt lat="50.58599" lon="2.30998">
        <ele>61.8</ele>
      </trkpt>
      <trkpt lat="50.58597" lon="2.30993">
        <ele>61.5</ele>
      </trkpt>
      <trkpt lat="50.58593" lon="2.30989">
        <ele>61.4</ele>
      </trkpt>
      <trkpt lat="50.58593" lon="2.30985">
        <ele>61.3</ele>
      </trkpt>
      <trkpt lat="50.58591" lon="2.30981">
        <ele>61.2</ele>
      </trkpt>
      <trkpt lat="50.58587" lon="2.30977">
        <ele>61.5</ele>
      </trkpt>
      <trkpt lat="50.58583" lon="2.30975">
        <ele>62</ele>
      </trkpt>
      <trkpt lat="50.58581" lon="2.30972">
        <ele>61.7</ele>
      </trkpt>
      <trkpt lat="50.58577" lon="2.30967">
        <ele>60.8</ele>
      </trkpt>
      <trkpt lat="50.58576" lon="2.30963">
        <ele>60.2</ele>
      </trkpt>
      <trkpt lat="50.58573" lon="2.30959">
        <ele>59.7</ele>
      </trkpt>
      <trkpt lat="50.58572" lon="2.30955">
        <ele>59.3</ele>
      </trkpt>
      <trkpt lat="50.58568" lon="2.30952">
        <ele>59</ele>
      </trkpt>
      <trkpt lat="50.58567" lon="2.30948">
        <ele>58.8</ele>
      </trkpt>
      <trkpt lat="50.58565" lon="2.30944">
        <ele>58.6</ele>
      </trkpt>
      <trkpt lat="50.58564" lon="2.30941">
        <ele>58.6</ele>
      </trkpt>
      <trkpt lat="50.58561" lon="2.30937">
        <ele>58.5</ele>
      </trkpt>
      <trkpt lat="50.58558" lon="2.30933">
        <ele>58.5</ele>
      </trkpt>
      <trkpt lat="50.58556" lon="2.30929">
        <ele>58.4</ele>
      </trkpt>
      <trkpt lat="50.58556" lon="2.30925">
        <ele>58.3</ele>
      </trkpt>
      <trkpt lat="50.58554" lon="2.30922">
        <ele>58.3</ele>
      </trkpt>
      <trkpt lat="50.58551" lon="2.30919">
        <ele>58.3</ele>
      </trkpt>
      <trkpt lat="50.58551" lon="2.30915">
        <ele>58.4</ele>
      </trkpt>
      <trkpt lat="50.5855" lon="2.30911">
        <ele>58.5</ele>
      </trkpt>
      <trkpt lat="50.58548" lon="2.30908">
        <ele>58.7</ele>
      </trkpt>
      <trkpt lat="50.58548" lon="2.30904">
        <ele>58.7</ele>
      </trkpt>
      <trkpt lat="50.58548" lon="2.309">
        <ele>58.7</ele>
      </trkpt>
      <trkpt lat="50.58547" lon="2.30897">
        <ele>58.9</ele>
      </trkpt>
      <trkpt lat="50.58546" lon="2.30893">
        <ele>59</ele>
      </trkpt>
      <trkpt lat="50.58545" lon="2.3089">
        <ele>59.2</ele>
      </trkpt>
      <trkpt lat="50.58543" lon="2.30887">
        <ele>59.3</ele>
      </trkpt>
      <trkpt lat="50.58541" lon="2.30885">
        <ele>59.5</ele>
      </trkpt>
      <trkpt lat="50.58538" lon="2.30883">
        <ele>59.8</ele>
      </trkpt>
      <trkpt lat="50.58534" lon="2.30882">
        <ele>60.1</ele>
      </trkpt>
      <trkpt lat="50.58531" lon="2.30882">
        <ele>60.5</ele>
      </trkpt>
      <trkpt lat="50.58528" lon="2.30883">
        <ele>60.8</ele>
      </trkpt>
      <trkpt lat="50.58524" lon="2.30883">
        <ele>60.5</ele>
      </trkpt>
      <trkpt lat="50.5852" lon="2.30883">
        <ele>60.3</ele>
      </trkpt>
      <trkpt lat="50.58517" lon="2.30882">
        <ele>60.1</ele>
      </trkpt>
      <trkpt lat="50.58516" lon="2.30879">
        <ele>59.9</ele>
      </trkpt>
      <trkpt lat="50.58513" lon="2.30876">
        <ele>59.7</ele>
      </trkpt>
      <trkpt lat="50.58512" lon="2.30873">
        <ele>59.6</ele>
      </trkpt>
      <trkpt lat="50.58511" lon="2.3087">
        <ele>59.5</ele>
      </trkpt>
      <trkpt lat="50.58512" lon="2.30866">
        <ele>59.5</ele>
      </trkpt>
      <trkpt lat="50.58513" lon="2.30863">
        <ele>59.5</ele>
      </trkpt>
      <trkpt lat="50.58515" lon="2.30859">
        <ele>59.5</ele>
      </trkpt>
      <trkpt lat="50.58516" lon="2.30856">
        <ele>59.3</ele>
      </trkpt>
      <trkpt lat="50.58518" lon="2.30853">
        <ele>59.2</ele>
      </trkpt>
      <trkpt lat="50.58518" lon="2.30849">
        <ele>59.1</ele>
      </trkpt>
      <trkpt lat="50.58516" lon="2.30847">
        <ele>59</ele>
      </trkpt>
      <trkpt lat="50.58514" lon="2.30844">
        <ele>58.9</ele>
      </trkpt>
      <trkpt lat="50.58512" lon="2.30841">
        <ele>58.8</ele>
      </trkpt>
      <trkpt lat="50.5851" lon="2.30838">
        <ele>58.8</ele>
      </trkpt>
      <trkpt lat="50.58508" lon="2.30832">
        <ele>58.7</ele>
      </trkpt>
      <trkpt lat="50.58508" lon="2.30828">
        <ele>58.6</ele>
      </trkpt>
      <trkpt lat="50.58508" lon="2.30822">
        <ele>58.4</ele>
      </trkpt>
      <trkpt lat="50.58508" lon="2.30815">
        <ele>58.2</ele>
      </trkpt>
      <trkpt lat="50.5851" lon="2.30812">
        <ele>58.1</ele>
      </trkpt>
      <trkpt lat="50.58512" lon="2.30809">
        <ele>58.1</ele>
      </trkpt>
      <trkpt lat="50.58514" lon="2.30806">
        <ele>58</ele>
      </trkpt>
      <trkpt lat="50.58517" lon="2.30803">
        <ele>58</ele>
      </trkpt>
      <trkpt lat="50.58519" lon="2.30801">
        <ele>58</ele>
      </trkpt>
      <trkpt lat="50.58521" lon="2.30798">
        <ele>58</ele>
      </trkpt>
      <trkpt lat="50.58524" lon="2.30795">
        <ele>58</ele>
      </trkpt>
      <trkpt lat="50.58527" lon="2.30793">
        <ele>58</ele>
      </trkpt>
      <trkpt lat="50.58531" lon="2.30792">
        <ele>58.1</ele>
      </trkpt>
      <trkpt lat="50.58534" lon="2.30791">
        <ele>58.2</ele>
      </trkpt>
      <trkpt lat="50.58537" lon="2.3079">
        <ele>58.3</ele>
      </trkpt>
      <trkpt lat="50.5854" lon="2.30793">
        <ele>58.4</ele>
      </trkpt>
      <trkpt lat="50.58542" lon="2.30795">
        <ele>58.5</ele>
      </trkpt>
      <trkpt lat="50.58544" lon="2.30798">
        <ele>58.6</ele>
      </trkpt>
      <trkpt lat="50.58546" lon="2.308">
        <ele>58.7</ele>
      </trkpt>
      <trkpt lat="50.58548" lon="2.30803">
        <ele>58.7</ele>
      </trkpt>
      <trkpt lat="50.58549" lon="2.30807">
        <ele>58.8</ele>
      </trkpt>
      <trkpt lat="50.5855" lon="2.3081">
        <ele>58.8</ele>
      </trkpt>
      <trkpt lat="50.58552" lon="2.30813">
        <ele>58.9</ele>
      </trkpt>
      <trkpt lat="50.58554" lon="2.30816">
        <ele>58.9</ele>
      </trkpt>
      <trkpt lat="50.58555" lon="2.3082">
        <ele>59</ele>
      </trkpt>
      <trkpt lat="50.58556" lon="2.30823">
        <ele>59</ele>
      </trkpt>
      <trkpt lat="50.58557" lon="2.30827">
        <ele>59</ele>
      </trkpt>
      <trkpt lat="50.58556" lon="2.30831">
        <ele>59</ele>
      </trkpt>
      <trkpt lat="50.58557" lon="2.30835">
        <ele>59</ele>
      </trkpt>
      <trkpt lat="50.58557" lon="2.30838">
        <ele>58.9</ele>
      </trkpt>
      <trkpt lat="50.58559" lon="2.30842">
        <ele>58.8</ele>
      </trkpt>
      <trkpt lat="50.58561" lon="2.30845">
        <ele>58.9</ele>
      </trkpt>
      <trkpt lat="50.58565" lon="2.30846">
        <ele>59</ele>
      </trkpt>
      <trkpt lat="50.58568" lon="2.30848">
        <ele>59.2</ele>
      </trkpt>
      <trkpt lat="50.58571" lon="2.30851">
        <ele>59.3</ele>
      </trkpt>
      <trkpt lat="50.58574" lon="2.30853">
        <ele>59.4</ele>
      </trkpt>
      <trkpt lat="50.58576" lon="2.30856">
        <ele>59.6</ele>
      </trkpt>
      <trkpt lat="50.58579" lon="2.30859">
        <ele>59.7</ele>
      </trkpt>
      <trkpt lat="50.5858" lon="2.30862">
        <ele>59.7</ele>
      </trkpt>
      <trkpt lat="50.5858" lon="2.30866">
        <ele>59.4</ele>
      </trkpt>
      <trkpt lat="50.58582" lon="2.3087">
        <ele>59.3</ele>
      </trkpt>
      <trkpt lat="50.58582" lon="2.30874">
        <ele>59</ele>
      </trkpt>
      <trkpt lat="50.58584" lon="2.30878">
        <ele>58.8</ele>
      </trkpt>
      <trkpt lat="50.58586" lon="2.30881">
        <ele>58.7</ele>
      </trkpt>
      <trkpt lat="50.58589" lon="2.30885">
        <ele>58.7</ele>
      </trkpt>
      <trkpt lat="50.58592" lon="2.30888">
        <ele>58.6</ele>
      </trkpt>
      <trkpt lat="50.58594" lon="2.30892">
        <ele>58.6</ele>
      </trkpt>
      <trkpt lat="50.58596" lon="2.30895">
        <ele>58.7</ele>
      </trkpt>
      <trkpt lat="50.586" lon="2.30898">
        <ele>58.9</ele>
      </trkpt>
      <trkpt lat="50.58604" lon="2.30901">
        <ele>59</ele>
      </trkpt>
      <trkpt lat="50.58607" lon="2.30903">
        <ele>59.2</ele>
      </trkpt>
      <trkpt lat="50.58611" lon="2.30906">
        <ele>59.3</ele>
      </trkpt>
      <trkpt lat="50.58614" lon="2.3091">
        <ele>59.2</ele>
      </trkpt>
      <trkpt lat="50.58617" lon="2.30914">
        <ele>59.1</ele>
      </trkpt>
      <trkpt lat="50.58619" lon="2.30917">
        <ele>59</ele>
      </trkpt>
      <trkpt lat="50.58622" lon="2.3092">
        <ele>58.9</ele>
      </trkpt>
      <trkpt lat="50.58626" lon="2.30923">
        <ele>58.9</ele>
      </trkpt>
      <trkpt lat="50.58628" lon="2.30927">
        <ele>58.9</ele>
      </trkpt>
      <trkpt lat="50.5863" lon="2.30931">
        <ele>59</ele>
      </trkpt>
      <trkpt lat="50.58629" lon="2.30936">
        <ele>59</ele>
      </trkpt>
      <trkpt lat="50.5863" lon="2.3094">
        <ele>59.1</ele>
      </trkpt>
      <trkpt lat="50.58633" lon="2.30944">
        <ele>59.3</ele>
      </trkpt>
      <trkpt lat="50.58635" lon="2.30948">
        <ele>59</ele>
      </trkpt>
      <trkpt lat="50.58638" lon="2.30951">
        <ele>58.8</ele>
      </trkpt>
      <trkpt lat="50.5864" lon="2.30954">
        <ele>58.4</ele>
      </trkpt>
      <trkpt lat="50.58642" lon="2.30959">
        <ele>57.8</ele>
      </trkpt>
      <trkpt lat="50.58643" lon="2.30963">
        <ele>57.3</ele>
      </trkpt>
      <trkpt lat="50.58644" lon="2.30966">
        <ele>57</ele>
      </trkpt>
      <trkpt lat="50.58646" lon="2.3097">
        <ele>56.9</ele>
      </trkpt>
      <trkpt lat="50.58649" lon="2.30973">
        <ele>57.1</ele>
      </trkpt>
      <trkpt lat="50.58652" lon="2.30977">
        <ele>57.4</ele>
      </trkpt>
      <trkpt lat="50.58656" lon="2.30978">
        <ele>58</ele>
      </trkpt>
      <trkpt lat="50.5866" lon="2.30979">
        <ele>58.6</ele>
      </trkpt>
      <trkpt lat="50.58663" lon="2.3098">
        <ele>59.1</ele>
      </trkpt>
      <trkpt lat="50.58667" lon="2.30981">
        <ele>59.7</ele>
      </trkpt>
      <trkpt lat="50.58671" lon="2.30981">
        <ele>59.5</ele>
      </trkpt>
      <trkpt lat="50.58675" lon="2.30981">
        <ele>59.5</ele>
      </trkpt>
      <trkpt lat="50.58678" lon="2.30979">
        <ele>59.5</ele>
      </trkpt>
      <trkpt lat="50.58682" lon="2.30979">
        <ele>59.4</ele>
      </trkpt>
      <trkpt lat="50.58686" lon="2.30978">
        <ele>59.5</ele>
      </trkpt>
      <trkpt lat="50.5869" lon="2.30979">
        <ele>59.3</ele>
      </trkpt>
      <trkpt lat="50.58694" lon="2.30978">
        <ele>59.2</ele>
      </trkpt>
      <trkpt lat="50.58697" lon="2.30976">
        <ele>59.4</ele>
      </trkpt>
      <trkpt lat="50.58699" lon="2.30973">
        <ele>60</ele>
      </trkpt>
      <trkpt lat="50.58699" lon="2.30969">
        <ele>60.2</ele>
      </trkpt>
      <trkpt lat="50.58699" lon="2.30965">
        <ele>60.4</ele>
      </trkpt>
      <trkpt lat="50.58698" lon="2.3096">
        <ele>60.6</ele>
      </trkpt>
      <trkpt lat="50.58697" lon="2.30955">
        <ele>60.7</ele>
      </trkpt>
      <trkpt lat="50.58699" lon="2.30952">
        <ele>61</ele>
      </trkpt>
      <trkpt lat="50.58699" lon="2.30948">
        <ele>61.1</ele>
      </trkpt>
      <trkpt lat="50.587" lon="2.30944">
        <ele>61.4</ele>
      </trkpt>
      <trkpt lat="50.58699" lon="2.3094">
        <ele>61.6</ele>
      </trkpt>
      <trkpt lat="50.587" lon="2.30936">
        <ele>61.9</ele>
      </trkpt>
      <trkpt lat="50.587" lon="2.30933">
        <ele>62</ele>
      </trkpt>
      <trkpt lat="50.58699" lon="2.30929">
        <ele>62.2</ele>
      </trkpt>
      <trkpt lat="50.58697" lon="2.30925">
        <ele>62.1</ele>
      </trkpt>
      <trkpt lat="50.58696" lon="2.30921">
        <ele>62.2</ele>
      </trkpt>
      <trkpt lat="50.58694" lon="2.30917">
        <ele>61.9</ele>
      </trkpt>
      <trkpt lat="50.58692" lon="2.30913">
        <ele>62.4</ele>
      </trkpt>
      <trkpt lat="50.5869" lon="2.3091">
        <ele>62.8</ele>
      </trkpt>
      <trkpt lat="50.58687" lon="2.30906">
        <ele>63</ele>
      </trkpt>
      <trkpt lat="50.58685" lon="2.30903">
        <ele>63.3</ele>
      </trkpt>
      <trkpt lat="50.58683" lon="2.309">
        <ele>63.5</ele>
      </trkpt>
      <trkpt lat="50.58681" lon="2.30896">
        <ele>63.6</ele>
      </trkpt>
      <trkpt lat="50.58678" lon="2.30894">
        <ele>63.5</ele>
      </trkpt>
      <trkpt lat="50.58675" lon="2.30891">
        <ele>63.3</ele>
      </trkpt>
      <trkpt lat="50.58673" lon="2.30889">
        <ele>63.1</ele>
      </trkpt>
      <trkpt lat="50.58671" lon="2.30886">
        <ele>63.1</ele>
      </trkpt>
      <trkpt lat="50.58668" lon="2.30884">
        <ele>63</ele>
      </trkpt>
      <trkpt lat="50.58666" lon="2.30881">
        <ele>63</ele>
      </trkpt>
      <trkpt lat="50.58664" lon="2.30878">
        <ele>63.1</ele>
      </trkpt>
      <trkpt lat="50.58662" lon="2.30876">
        <ele>63.1</ele>
      </trkpt>
      <trkpt lat="50.5866" lon="2.30873">
        <ele>63.1</ele>
      </trkpt>
      <trkpt lat="50.58658" lon="2.3087">
        <ele>63.1</ele>
      </trkpt>
      <trkpt lat="50.58654" lon="2.30867">
        <ele>62.7</ele>
      </trkpt>
      <trkpt lat="50.58652" lon="2.30865">
        <ele>62.5</ele>
      </trkpt>
      <trkpt lat="50.58649" lon="2.30862">
        <ele>62.1</ele>
      </trkpt>
      <trkpt lat="50.58647" lon="2.30859">
        <ele>62</ele>
      </trkpt>
      <trkpt lat="50.58645" lon="2.30856">
        <ele>62.1</ele>
      </trkpt>
      <trkpt lat="50.58644" lon="2.30853">
        <ele>62.5</ele>
      </trkpt>
      <trkpt lat="50.58642" lon="2.3085">
        <ele>62.6</ele>
      </trkpt>
      <trkpt lat="50.58641" lon="2.30846">
        <ele>63</ele>
      </trkpt>
      <trkpt lat="50.58639" lon="2.30843">
        <ele>63.3</ele>
      </trkpt>
      <trkpt lat="50.58638" lon="2.3084">
        <ele>63.5</ele>
      </trkpt>
      <trkpt lat="50.58636" lon="2.30837">
        <ele>63.8</ele>
      </trkpt>
      <trkpt lat="50.58634" lon="2.30831">
        <ele>64.3</ele>
      </trkpt>
      <trkpt lat="50.58633" lon="2.30825">
        <ele>64.8</ele>
      </trkpt>
      <trkpt lat="50.58632" lon="2.30822">
        <ele>65.1</ele>
      </trkpt>
      <trkpt lat="50.5863" lon="2.30819">
        <ele>65.2</ele>
      </trkpt>
      <trkpt lat="50.58628" lon="2.30817">
        <ele>64.9</ele>
      </trkpt>
      <trkpt lat="50.58626" lon="2.30816">
        <ele>64.7</ele>
      </trkpt>
      <trkpt lat="50.58624" lon="2.30813">
        <ele>64.7</ele>
      </trkpt>
      <trkpt lat="50.58621" lon="2.30812">
        <ele>64.3</ele>
      </trkpt>
      <trkpt lat="50.58619" lon="2.30811">
        <ele>63.9</ele>
      </trkpt>
      <trkpt lat="50.58616" lon="2.3081">
        <ele>63.3</ele>
      </trkpt>
      <trkpt lat="50.58613" lon="2.30809">
        <ele>62.9</ele>
      </trkpt>
      <trkpt lat="50.5861" lon="2.30809">
        <ele>62.4</ele>
      </trkpt>
      <trkpt lat="50.58608" lon="2.30808">
        <ele>62.2</ele>
      </trkpt>
      <trkpt lat="50.58605" lon="2.30807">
        <ele>61.9</ele>
      </trkpt>
      <trkpt lat="50.58603" lon="2.30807">
        <ele>61.7</ele>
      </trkpt>
      <trkpt lat="50.586" lon="2.30806">
        <ele>61.4</ele>
      </trkpt>
      <trkpt lat="50.58598" lon="2.30806">
        <ele>61.1</ele>
      </trkpt>
      <trkpt lat="50.58595" lon="2.30806">
        <ele>60.7</ele>
      </trkpt>
      <trkpt lat="50.58593" lon="2.30805">
        <ele>60.4</ele>
      </trkpt>
      <trkpt lat="50.58591" lon="2.30804">
        <ele>60.2</ele>
      </trkpt>
      <trkpt lat="50.58588" lon="2.30804">
        <ele>59.9</ele>
      </trkpt>
      <trkpt lat="50.58584" lon="2.308">
        <ele>59.6</ele>
      </trkpt>
      <trkpt lat="50.58581" lon="2.30796">
        <ele>59.6</ele>
      </trkpt>
      <trkpt lat="50.58579" lon="2.30791">
        <ele>59.9</ele>
      </trkpt>
      <trkpt lat="50.58577" lon="2.30786">
        <ele>60.1</ele>
      </trkpt>
      <trkpt lat="50.58574" lon="2.30782">
        <ele>60.2</ele>
      </trkpt>
      <trkpt lat="50.58571" lon="2.30778">
        <ele>60.1</ele>
      </trkpt>
      <trkpt lat="50.58569" lon="2.30774">
        <ele>60.3</ele>
      </trkpt>
      <trkpt lat="50.58567" lon="2.30769">
        <ele>60.7</ele>
      </trkpt>
      <trkpt lat="50.58566" lon="2.30764">
        <ele>60.9</ele>
      </trkpt>
      <trkpt lat="50.58564" lon="2.30759">
        <ele>61.1</ele>
      </trkpt>
      <trkpt lat="50.58562" lon="2.30755">
        <ele>61.1</ele>
      </trkpt>
      <trkpt lat="50.58561" lon="2.3075">
        <ele>61.2</ele>
      </trkpt>
      <trkpt lat="50.58562" lon="2.30745">
        <ele>62.2</ele>
      </trkpt>
      <trkpt lat="50.58563" lon="2.3074">
        <ele>63.5</ele>
      </trkpt>
      <trkpt lat="50.58565" lon="2.30734">
        <ele>64.9</ele>
      </trkpt>
      <trkpt lat="50.58566" lon="2.3073">
        <ele>65.9</ele>
      </trkpt>
      <trkpt lat="50.58568" lon="2.30727">
        <ele>66.8</ele>
      </trkpt>
      <trkpt lat="50.58571" lon="2.30724">
        <ele>68</ele>
      </trkpt>
      <trkpt lat="50.58573" lon="2.30722">
        <ele>68.9</ele>
      </trkpt>
      <trkpt lat="50.58575" lon="2.3072">
        <ele>69.7</ele>
      </trkpt>
      <trkpt lat="50.58577" lon="2.30719">
        <ele>70.5</ele>
      </trkpt>
      <trkpt lat="50.5858" lon="2.30714">
        <ele>72</ele>
      </trkpt>
      <trkpt lat="50.58582" lon="2.30712">
        <ele>72.6</ele>
      </trkpt>
      <trkpt lat="50.58585" lon="2.3071">
        <ele>73.2</ele>
      </trkpt>
      <trkpt lat="50.58586" lon="2.30708">
        <ele>73.7</ele>
      </trkpt>
      <trkpt lat="50.58593" lon="2.30703">
        <ele>74.8</ele>
      </trkpt>
      <trkpt lat="50.58596" lon="2.30701">
        <ele>75.3</ele>
      </trkpt>
      <trkpt lat="50.586" lon="2.30699">
        <ele>75.7</ele>
      </trkpt>
      <trkpt lat="50.58604" lon="2.30699">
        <ele>76</ele>
      </trkpt>
      <trkpt lat="50.58607" lon="2.30699">
        <ele>76.1</ele>
      </trkpt>
      <trkpt lat="50.5861" lon="2.30702">
        <ele>75.6</ele>
      </trkpt>
      <trkpt lat="50.58612" lon="2.30703">
        <ele>75.7</ele>
      </trkpt>
      <trkpt lat="50.58615" lon="2.30707">
        <ele>75.6</ele>
      </trkpt>
      <trkpt lat="50.58618" lon="2.30711">
        <ele>75.7</ele>
      </trkpt>
      <trkpt lat="50.58621" lon="2.30715">
        <ele>75.6</ele>
      </trkpt>
      <trkpt lat="50.58622" lon="2.30719">
        <ele>75</ele>
      </trkpt>
      <trkpt lat="50.58624" lon="2.30724">
        <ele>74.6</ele>
      </trkpt>
      <trkpt lat="50.58626" lon="2.30729">
        <ele>74.5</ele>
      </trkpt>
      <trkpt lat="50.58626" lon="2.30734">
        <ele>73.9</ele>
      </trkpt>
      <trkpt lat="50.58625" lon="2.3074">
        <ele>73.1</ele>
      </trkpt>
      <trkpt lat="50.58625" lon="2.30744">
        <ele>72.7</ele>
      </trkpt>
      <trkpt lat="50.58624" lon="2.30749">
        <ele>72</ele>
      </trkpt>
      <trkpt lat="50.58623" lon="2.30752">
        <ele>71.6</ele>
      </trkpt>
      <trkpt lat="50.58622" lon="2.30759">
        <ele>71</ele>
      </trkpt>
      <trkpt lat="50.58621" lon="2.30761">
        <ele>70.6</ele>
      </trkpt>
      <trkpt lat="50.58619" lon="2.30763">
        <ele>70.2</ele>
      </trkpt>
      <trkpt lat="50.58616" lon="2.30769">
        <ele>69.5</ele>
      </trkpt>
      <trkpt lat="50.58614" lon="2.30774">
        <ele>68.8</ele>
      </trkpt>
      <trkpt lat="50.58612" lon="2.3078">
        <ele>67.7</ele>
      </trkpt>
      <trkpt lat="50.58611" lon="2.30786">
        <ele>66.5</ele>
      </trkpt>
      <trkpt lat="50.58609" lon="2.30792">
        <ele>65.1</ele>
      </trkpt>
      <trkpt lat="50.58608" lon="2.30795">
        <ele>64.3</ele>
      </trkpt>
      <trkpt lat="50.58608" lon="2.30798">
        <ele>63.7</ele>
      </trkpt>
      <trkpt lat="50.58609" lon="2.30804">
        <ele>63</ele>
      </trkpt>
      <trkpt lat="50.58612" lon="2.30806">
        <ele>63.2</ele>
      </trkpt>
      <trkpt lat="50.58615" lon="2.30806">
        <ele>63.8</ele>
      </trkpt>
      <trkpt lat="50.58617" lon="2.30805">
        <ele>64.5</ele>
      </trkpt>
      <trkpt lat="50.5862" lon="2.30803">
        <ele>65.2</ele>
      </trkpt>
      <trkpt lat="50.58622" lon="2.30801">
        <ele>65.9</ele>
      </trkpt>
      <trkpt lat="50.58623" lon="2.30796">
        <ele>66.8</ele>
      </trkpt>
      <trkpt lat="50.58624" lon="2.30793">
        <ele>67.4</ele>
      </trkpt>
      <trkpt lat="50.58624" lon="2.30789">
        <ele>67.9</ele>
      </trkpt>
      <trkpt lat="50.58625" lon="2.30784">
        <ele>68.8</ele>
      </trkpt>
      <trkpt lat="50.58625" lon="2.3078">
        <ele>69.3</ele>
      </trkpt>
      <trkpt lat="50.58625" lon="2.30775">
        <ele>69.8</ele>
      </trkpt>
      <trkpt lat="50.58627" lon="2.30772">
        <ele>70.2</ele>
      </trkpt>
      <trkpt lat="50.58629" lon="2.30766">
        <ele>70.9</ele>
      </trkpt>
      <trkpt lat="50.5863" lon="2.30764">
        <ele>71.2</ele>
      </trkpt>
      <trkpt lat="50.58634" lon="2.30759">
        <ele>71.9</ele>
      </trkpt>
      <trkpt lat="50.58636" lon="2.30756">
        <ele>72.3</ele>
      </trkpt>
      <trkpt lat="50.58638" lon="2.30754">
        <ele>72.6</ele>
      </trkpt>
      <trkpt lat="50.5864" lon="2.3075">
        <ele>73.3</ele>
      </trkpt>
      <trkpt lat="50.58642" lon="2.30746">
        <ele>74.4</ele>
      </trkpt>
      <trkpt lat="50.58645" lon="2.30741">
        <ele>75.9</ele>
      </trkpt>
      <trkpt lat="50.58646" lon="2.30738">
        <ele>76.6</ele>
      </trkpt>
      <trkpt lat="50.58649" lon="2.30733">
        <ele>78</ele>
      </trkpt>
      <trkpt lat="50.5865" lon="2.3073">
        <ele>78.8</ele>
      </trkpt>
      <trkpt lat="50.58651" lon="2.30725">
        <ele>79.8</ele>
      </trkpt>
      <trkpt lat="50.58652" lon="2.30719">
        <ele>80.9</ele>
      </trkpt>
      <trkpt lat="50.58653" lon="2.30713">
        <ele>82</ele>
      </trkpt>
      <trkpt lat="50.58655" lon="2.30708">
        <ele>83.1</ele>
      </trkpt>
      <trkpt lat="50.58658" lon="2.30705">
        <ele>84</ele>
      </trkpt>
      <trkpt lat="50.58663" lon="2.30702">
        <ele>84.8</ele>
      </trkpt>
      <trkpt lat="50.58666" lon="2.30702">
        <ele>85</ele>
      </trkpt>
      <trkpt lat="50.58667" lon="2.30708">
        <ele>84.6</ele>
      </trkpt>
      <trkpt lat="50.58667" lon="2.30711">
        <ele>84.2</ele>
      </trkpt>
      <trkpt lat="50.58669" lon="2.30716">
        <ele>83.8</ele>
      </trkpt>
      <trkpt lat="50.58671" lon="2.30719">
        <ele>83.6</ele>
      </trkpt>
      <trkpt lat="50.58673" lon="2.30725">
        <ele>83.1</ele>
      </trkpt>
      <trkpt lat="50.58674" lon="2.30727">
        <ele>82.9</ele>
      </trkpt>
      <trkpt lat="50.58677" lon="2.30729">
        <ele>82.9</ele>
      </trkpt>
      <trkpt lat="50.58678" lon="2.30732">
        <ele>82.7</ele>
      </trkpt>
      <trkpt lat="50.5868" lon="2.30734">
        <ele>82.6</ele>
      </trkpt>
      <trkpt lat="50.58681" lon="2.3074">
        <ele>82.2</ele>
      </trkpt>
      <trkpt lat="50.58683" lon="2.30746">
        <ele>81.7</ele>
      </trkpt>
      <trkpt lat="50.58685" lon="2.30748">
        <ele>81.8</ele>
      </trkpt>
      <trkpt lat="50.58687" lon="2.30748">
        <ele>82.2</ele>
      </trkpt>
      <trkpt lat="50.5869" lon="2.30747">
        <ele>82.6</ele>
      </trkpt>
      <trkpt lat="50.58693" lon="2.30745">
        <ele>83.1</ele>
      </trkpt>
      <trkpt lat="50.58696" lon="2.30746">
        <ele>83.4</ele>
      </trkpt>
      <trkpt lat="50.58698" lon="2.30745">
        <ele>83.5</ele>
      </trkpt>
      <trkpt lat="50.58702" lon="2.30744">
        <ele>83.7</ele>
      </trkpt>
      <trkpt lat="50.58704" lon="2.30742">
        <ele>83.9</ele>
      </trkpt>
      <trkpt lat="50.58707" lon="2.30741">
        <ele>84.1</ele>
      </trkpt>
      <trkpt lat="50.5871" lon="2.3074">
        <ele>84.3</ele>
      </trkpt>
      <trkpt lat="50.58713" lon="2.3074">
        <ele>84.4</ele>
      </trkpt>
      <trkpt lat="50.58715" lon="2.30741">
        <ele>84.4</ele>
      </trkpt>
      <trkpt lat="50.58718" lon="2.30743">
        <ele>84.4</ele>
      </trkpt>
      <trkpt lat="50.58722" lon="2.30743">
        <ele>84.5</ele>
      </trkpt>
      <trkpt lat="50.58726" lon="2.30744">
        <ele>84.3</ele>
      </trkpt>
      <trkpt lat="50.58739" lon="2.3074">
        <ele>84.1</ele>
      </trkpt>
      <trkpt lat="50.58739" lon="2.30734">
        <ele>84.6</ele>
      </trkpt>
      <trkpt lat="50.58741" lon="2.3073">
        <ele>84.8</ele>
      </trkpt>
      <trkpt lat="50.58742" lon="2.30726">
        <ele>85</ele>
      </trkpt>
      <trkpt lat="50.58743" lon="2.30723">
        <ele>85.2</ele>
      </trkpt>
      <trkpt lat="50.58744" lon="2.30719">
        <ele>85.4</ele>
      </trkpt>
      <trkpt lat="50.58744" lon="2.30716">
        <ele>85.6</ele>
      </trkpt>
      <trkpt lat="50.58744" lon="2.30712">
        <ele>85.9</ele>
      </trkpt>
      <trkpt lat="50.58744" lon="2.30705">
        <ele>86.3</ele>
      </trkpt>
      <trkpt lat="50.58742" lon="2.30699">
        <ele>86.7</ele>
      </trkpt>
      <trkpt lat="50.58739" lon="2.30698">
        <ele>86.8</ele>
      </trkpt>
      <trkpt lat="50.58738" lon="2.30696">
        <ele>86.9</ele>
      </trkpt>
      <trkpt lat="50.58735" lon="2.30695">
        <ele>87</ele>
      </trkpt>
      <trkpt lat="50.5873" lon="2.30696">
        <ele>86.9</ele>
      </trkpt>
      <trkpt lat="50.58727" lon="2.30696">
        <ele>86.9</ele>
      </trkpt>
      <trkpt lat="50.58724" lon="2.30695">
        <ele>87</ele>
      </trkpt>
      <trkpt lat="50.58722" lon="2.30689">
        <ele>87.4</ele>
      </trkpt>
      <trkpt lat="50.58721" lon="2.30684">
        <ele>87.7</ele>
      </trkpt>
      <trkpt lat="50.5872" lon="2.30678">
        <ele>88.1</ele>
      </trkpt>
      <trkpt lat="50.58719" lon="2.30673">
        <ele>88.6</ele>
      </trkpt>
      <trkpt lat="50.5872" lon="2.30669">
        <ele>88.8</ele>
      </trkpt>
      <trkpt lat="50.58721" lon="2.30665">
        <ele>89</ele>
      </trkpt>
      <trkpt lat="50.58721" lon="2.30663">
        <ele>89</ele>
      </trkpt>
      <trkpt lat="50.5872" lon="2.30658">
        <ele>89</ele>
      </trkpt>
      <trkpt lat="50.58721" lon="2.30655">
        <ele>89</ele>
      </trkpt>
      <trkpt lat="50.58725" lon="2.30653">
        <ele>88.7</ele>
      </trkpt>
      <trkpt lat="50.58728" lon="2.30655">
        <ele>88.5</ele>
      </trkpt>
      <trkpt lat="50.5873" lon="2.30657">
        <ele>88.3</ele>
      </trkpt>
      <trkpt lat="50.58732" lon="2.30659">
        <ele>88.3</ele>
      </trkpt>
      <trkpt lat="50.58735" lon="2.3066">
        <ele>88.1</ele>
      </trkpt>
      <trkpt lat="50.58738" lon="2.30661">
        <ele>88</ele>
      </trkpt>
      <trkpt lat="50.5874" lon="2.30663">
        <ele>88</ele>
      </trkpt>
      <trkpt lat="50.58743" lon="2.30665">
        <ele>88</ele>
      </trkpt>
      <trkpt lat="50.58745" lon="2.30668">
        <ele>88.1</ele>
      </trkpt>
      <trkpt lat="50.58747" lon="2.30669">
        <ele>88</ele>
      </trkpt>
      <trkpt lat="50.5875" lon="2.30671">
        <ele>87.7</ele>
      </trkpt>
      <trkpt lat="50.58753" lon="2.30673">
        <ele>87.2</ele>
      </trkpt>
      <trkpt lat="50.58755" lon="2.30676">
        <ele>86.7</ele>
      </trkpt>
      <trkpt lat="50.58757" lon="2.30678">
        <ele>86.3</ele>
      </trkpt>
      <trkpt lat="50.58756" lon="2.30682">
        <ele>86.2</ele>
      </trkpt>
      <trkpt lat="50.58757" lon="2.30686">
        <ele>86.1</ele>
      </trkpt>
      <trkpt lat="50.58756" lon="2.3069">
        <ele>86.1</ele>
      </trkpt>
      <trkpt lat="50.58753" lon="2.30694">
        <ele>86.5</ele>
      </trkpt>
      <trkpt lat="50.58751" lon="2.30698">
        <ele>86.5</ele>
      </trkpt>
      <trkpt lat="50.58752" lon="2.30702">
        <ele>86.1</ele>
      </trkpt>
      <trkpt lat="50.58755" lon="2.30704">
        <ele>85.4</ele>
      </trkpt>
      <trkpt lat="50.58759" lon="2.30705">
        <ele>84.6</ele>
      </trkpt>
      <trkpt lat="50.58763" lon="2.30707">
        <ele>83.8</ele>
      </trkpt>
      <trkpt lat="50.58766" lon="2.30709">
        <ele>83</ele>
      </trkpt>
      <trkpt lat="50.5877" lon="2.30709">
        <ele>82.4</ele>
      </trkpt>
      <trkpt lat="50.58775" lon="2.30708">
        <ele>81.6</ele>
      </trkpt>
      <trkpt lat="50.5878" lon="2.30705">
        <ele>81.3</ele>
      </trkpt>
      <trkpt lat="50.58781" lon="2.30701">
        <ele>81.6</ele>
      </trkpt>
      <trkpt lat="50.58784" lon="2.30697">
        <ele>81.8</ele>
      </trkpt>
      <trkpt lat="50.58784" lon="2.30694">
        <ele>82</ele>
      </trkpt>
      <trkpt lat="50.58786" lon="2.30689">
        <ele>82</ele>
      </trkpt>
      <trkpt lat="50.58786" lon="2.30685">
        <ele>82</ele>
      </trkpt>
      <trkpt lat="50.58786" lon="2.3068">
        <ele>82</ele>
      </trkpt>
      <trkpt lat="50.58784" lon="2.30677">
        <ele>82</ele>
      </trkpt>
      <trkpt lat="50.58784" lon="2.30673">
        <ele>82</ele>
      </trkpt>
      <trkpt lat="50.58781" lon="2.30671">
        <ele>82</ele>
      </trkpt>
      <trkpt lat="50.58779" lon="2.30668">
        <ele>82</ele>
      </trkpt>
      <trkpt lat="50.58774" lon="2.30668">
        <ele>82.9</ele>
      </trkpt>
      <trkpt lat="50.58772" lon="2.30665">
        <ele>83.2</ele>
      </trkpt>
      <trkpt lat="50.58771" lon="2.30662">
        <ele>83.3</ele>
      </trkpt>
      <trkpt lat="50.58769" lon="2.30659">
        <ele>83.6</ele>
      </trkpt>
      <trkpt lat="50.58768" lon="2.30656">
        <ele>83.6</ele>
      </trkpt>
      <trkpt lat="50.58766" lon="2.30653">
        <ele>83.6</ele>
      </trkpt>
      <trkpt lat="50.58765" lon="2.30651">
        <ele>83.7</ele>
      </trkpt>
      <trkpt lat="50.58765" lon="2.30647">
        <ele>83.5</ele>
      </trkpt>
      <trkpt lat="50.58764" lon="2.30643">
        <ele>83.4</ele>
      </trkpt>
      <trkpt lat="50.58762" lon="2.3064">
        <ele>83.3</ele>
      </trkpt>
      <trkpt lat="50.58758" lon="2.30639">
        <ele>83.5</ele>
      </trkpt>
      <trkpt lat="50.58757" lon="2.30633">
        <ele>83.2</ele>
      </trkpt>
      <trkpt lat="50.58755" lon="2.30631">
        <ele>83.2</ele>
      </trkpt>
      <trkpt lat="50.58754" lon="2.30628">
        <ele>83</ele>
      </trkpt>
      <trkpt lat="50.58751" lon="2.30626">
        <ele>83</ele>
      </trkpt>
      <trkpt lat="50.58749" lon="2.30624">
        <ele>83.1</ele>
      </trkpt>
      <trkpt lat="50.58747" lon="2.30621">
        <ele>83</ele>
      </trkpt>
      <trkpt lat="50.58745" lon="2.30618">
        <ele>82.9</ele>
      </trkpt>
      <trkpt lat="50.58743" lon="2.30617">
        <ele>82.9</ele>
      </trkpt>
      <trkpt lat="50.5874" lon="2.30616">
        <ele>82.9</ele>
      </trkpt>
      <trkpt lat="50.58736" lon="2.30617">
        <ele>83.4</ele>
      </trkpt>
      <trkpt lat="50.58733" lon="2.30615">
        <ele>83.2</ele>
      </trkpt>
      <trkpt lat="50.58731" lon="2.30613">
        <ele>83</ele>
      </trkpt>
      <trkpt lat="50.58729" lon="2.30611">
        <ele>82.8</ele>
      </trkpt>
      <trkpt lat="50.58729" lon="2.30607">
        <ele>82.7</ele>
      </trkpt>
      <trkpt lat="50.58728" lon="2.30605">
        <ele>82.7</ele>
      </trkpt>
      <trkpt lat="50.58725" lon="2.30604">
        <ele>82.7</ele>
      </trkpt>
      <trkpt lat="50.58722" lon="2.30604">
        <ele>82.8</ele>
      </trkpt>
      <trkpt lat="50.58718" lon="2.30605">
        <ele>83.3</ele>
      </trkpt>
      <trkpt lat="50.58695" lon="2.30581">
        <ele>82</ele>
      </trkpt>
      <trkpt lat="50.58692" lon="2.3058">
        <ele>82.2</ele>
      </trkpt>
      <trkpt lat="50.58689" lon="2.30578">
        <ele>82.4</ele>
      </trkpt>
      <trkpt lat="50.58687" lon="2.30573">
        <ele>82.5</ele>
      </trkpt>
      <trkpt lat="50.58684" lon="2.30568">
        <ele>82.5</ele>
      </trkpt>
      <trkpt lat="50.58681" lon="2.30568">
        <ele>82.6</ele>
      </trkpt>
      <trkpt lat="50.58678" lon="2.30569">
        <ele>82.8</ele>
      </trkpt>
      <trkpt lat="50.58675" lon="2.30569">
        <ele>83</ele>
      </trkpt>
      <trkpt lat="50.58672" lon="2.30569">
        <ele>83.1</ele>
      </trkpt>
      <trkpt lat="50.58669" lon="2.30569">
        <ele>83.4</ele>
      </trkpt>
      <trkpt lat="50.58666" lon="2.30569">
        <ele>83.5</ele>
      </trkpt>
      <trkpt lat="50.58663" lon="2.30572">
        <ele>84</ele>
      </trkpt>
      <trkpt lat="50.58661" lon="2.30575">
        <ele>84.5</ele>
      </trkpt>
      <trkpt lat="50.58659" lon="2.30579">
        <ele>85.1</ele>
      </trkpt>
      <trkpt lat="50.58656" lon="2.30582">
        <ele>85.6</ele>
      </trkpt>
      <trkpt lat="50.58653" lon="2.30584">
        <ele>86.2</ele>
      </trkpt>
      <trkpt lat="50.58651" lon="2.30584">
        <ele>86.2</ele>
      </trkpt>
      <trkpt lat="50.58648" lon="2.30584">
        <ele>86.5</ele>
      </trkpt>
      <trkpt lat="50.58644" lon="2.30583">
        <ele>86.6</ele>
      </trkpt>
      <trkpt lat="50.58642" lon="2.30583">
        <ele>86.7</ele>
      </trkpt>
      <trkpt lat="50.58639" lon="2.30584">
        <ele>87</ele>
      </trkpt>
      <trkpt lat="50.58637" lon="2.30585">
        <ele>87.4</ele>
      </trkpt>
      <trkpt lat="50.58634" lon="2.30587">
        <ele>87.6</ele>
      </trkpt>
      <trkpt lat="50.58632" lon="2.30589">
        <ele>87.9</ele>
      </trkpt>
      <trkpt lat="50.58629" lon="2.3059">
        <ele>88.1</ele>
      </trkpt>
      <trkpt lat="50.58627" lon="2.30593">
        <ele>88.3</ele>
      </trkpt>
      <trkpt lat="50.58625" lon="2.30592">
        <ele>88.3</ele>
      </trkpt>
      <trkpt lat="50.58622" lon="2.30592">
        <ele>88.3</ele>
      </trkpt>
      <trkpt lat="50.58614" lon="2.30586">
        <ele>88</ele>
      </trkpt>
      <trkpt lat="50.58611" lon="2.30586">
        <ele>88.1</ele>
      </trkpt>
      <trkpt lat="50.58609" lon="2.30581">
        <ele>88</ele>
      </trkpt>
      <trkpt lat="50.58607" lon="2.30576">
        <ele>88</ele>
      </trkpt>
      <trkpt lat="50.58606" lon="2.3057">
        <ele>87.8</ele>
      </trkpt>
      <trkpt lat="50.58606" lon="2.30564">
        <ele>87.6</ele>
      </trkpt>
      <trkpt lat="50.58605" lon="2.30558">
        <ele>87.4</ele>
      </trkpt>
      <trkpt lat="50.58603" lon="2.30553">
        <ele>87.2</ele>
      </trkpt>
      <trkpt lat="50.586" lon="2.30548">
        <ele>87.1</ele>
      </trkpt>
      <trkpt lat="50.58597" lon="2.30544">
        <ele>87.2</ele>
      </trkpt>
      <trkpt lat="50.58595" lon="2.30539">
        <ele>86.7</ele>
      </trkpt>
      <trkpt lat="50.58593" lon="2.30534">
        <ele>86.1</ele>
      </trkpt>
      <trkpt lat="50.5859" lon="2.30532">
        <ele>86.1</ele>
      </trkpt>
      <trkpt lat="50.58588" lon="2.3053">
        <ele>85.9</ele>
      </trkpt>
      <trkpt lat="50.5855" lon="2.30481">
        <ele>79.5</ele>
      </trkpt>
      <trkpt lat="50.58544" lon="2.30479">
        <ele>79.1</ele>
      </trkpt>
      <trkpt lat="50.58543" lon="2.30474">
        <ele>78.7</ele>
      </trkpt>
      <trkpt lat="50.58482" lon="2.30349">
        <ele>79.8</ele>
      </trkpt>
      <trkpt lat="50.58464" lon="2.30312">
        <ele>80.5</ele>
      </trkpt>
      <trkpt lat="50.58424" lon="2.30362">
        <ele>76.4</ele>
      </trkpt>
      <trkpt lat="50.58351" lon="2.30452">
        <ele>65.4</ele>
      </trkpt>
      <trkpt lat="50.58293" lon="2.30525">
        <ele>57.2</ele>
      </trkpt>
      <trkpt lat="50.58254" lon="2.30573">
        <ele>55.5</ele>
      </trkpt>
      <trkpt lat="50.58236" lon="2.30591">
        <ele>55.9</ele>
      </trkpt>
      <trkpt lat="50.58219" lon="2.30594">
        <ele>56.2</ele>
      </trkpt>
      <trkpt lat="50.582" lon="2.30585">
        <ele>57.7</ele>
      </trkpt>
      <trkpt lat="50.5819" lon="2.30575">
        <ele>57.7</ele>
      </trkpt>
      <trkpt lat="50.58169" lon="2.30539">
        <ele>57.2</ele>
      </trkpt>
      <trkpt lat="50.58163" lon="2.30546">
        <ele>58</ele>
      </trkpt>
      <trkpt lat="50.5816" lon="2.30557">
        <ele>58.8</ele>
      </trkpt>
      <trkpt lat="50.58163" lon="2.30573">
        <ele>59.7</ele>
      </trkpt>
      <trkpt lat="50.58173" lon="2.30619">
        <ele>61.9</ele>
      </trkpt>
      <trkpt lat="50.58144" lon="2.30623">
        <ele>64.5</ele>
      </trkpt>
      <trkpt lat="50.58123" lon="2.30629">
        <ele>67.8</ele>
      </trkpt>
      <trkpt lat="50.58087" lon="2.30654">
        <ele>77.8</ele>
      </trkpt>
      <trkpt lat="50.58073" lon="2.30665">
        <ele>81.4</ele>
      </trkpt>
      <trkpt lat="50.58056" lon="2.30677">
        <ele>84.3</ele>
      </trkpt>
      <trkpt lat="50.58046" lon="2.30686">
        <ele>85.7</ele>
      </trkpt>
      <trkpt lat="50.58037" lon="2.30705">
        <ele>87.2</ele>
      </trkpt>
      <trkpt lat="50.57976" lon="2.30622">
        <ele>88.9</ele>
      </trkpt>
      <trkpt lat="50.57927" lon="2.30546">
        <ele>87.296292</ele>
        <time>2023-02-10T05:15:57Z</time>
      </trkpt>
      <trkpt lat="50.5792" lon="2.30535">
        <ele>86.868418</ele>
        <time>2023-02-10T05:15:58Z</time>
      </trkpt>
      <trkpt lat="50.57906" lon="2.30525">
        <ele>86.17735</ele>
        <time>2023-02-10T05:16:01Z</time>
      </trkpt>
      <trkpt lat="50.57912" lon="2.30507">
        <ele>85.610279</ele>
        <time>2023-02-10T05:16:04Z</time>
      </trkpt>
      <trkpt lat="50.57952" lon="2.30457">
        <ele>83.319699</ele>
        <time>2023-02-10T05:16:17Z</time>
      </trkpt>
      <trkpt lat="50.57941" lon="2.30361">
        <ele>80.535348</ele>
        <time>2023-02-10T05:16:31Z</time>
      </trkpt>
      <trkpt lat="50.57937" lon="2.30282">
        <ele>77.725483</ele>
        <time>2023-02-10T05:16:42Z</time>
      </trkpt>
      <trkpt lat="50.57943" lon="2.30269">
        <ele>77.147402</ele>
        <time>2023-02-10T05:16:44Z</time>
      </trkpt>
      <trkpt lat="50.57957" lon="2.3026">
        <ele>76.235163</ele>
        <time>2023-02-10T05:16:48Z</time>
      </trkpt>
      <trkpt lat="50.58007" lon="2.30249">
        <ele>73.265667</ele>
        <time>2023-02-10T05:17:00Z</time>
      </trkpt>
      <trkpt lat="50.58017" lon="2.30244">
        <ele>72.667686</ele>
        <time>2023-02-10T05:17:02Z</time>
      </trkpt>
      <trkpt lat="50.58027" lon="2.30256">
        <ele>71.898957</ele>
        <time>2023-02-10T05:17:04Z</time>
      </trkpt>
      <trkpt lat="50.58046" lon="2.30234">
        <ele>70.508388</ele>
        <time>2023-02-10T05:17:08Z</time>
      </trkpt>
      <trkpt lat="50.58052" lon="2.3023">
        <ele>70.13437</ele>
        <time>2023-02-10T05:17:10Z</time>
      </trkpt>
      <trkpt lat="50.58055" lon="2.30227">
        <ele>69.928592</ele>
        <time>2023-02-10T05:17:11Z</time>
      </trkpt>
      <trkpt lat="50.58064" lon="2.30231">
        <ele>69.612677</ele>
        <time>2023-02-10T05:17:13Z</time>
      </trkpt>
      <trkpt lat="50.58079" lon="2.30219">
        <ele>69.910252</ele>
        <time>2023-02-10T05:17:16Z</time>
      </trkpt>
      <trkpt lat="50.58095" lon="2.3021">
        <ele>70.20614</ele>
        <time>2023-02-10T05:17:23Z</time>
      </trkpt>
      <trkpt lat="50.5812" lon="2.3018">
        <ele>70.746222</ele>
        <time>2023-02-10T05:17:32Z</time>
      </trkpt>
      <trkpt lat="50.58158" lon="2.301">
        <ele>71.856369</ele>
        <time>2023-02-10T05:17:58Z</time>
      </trkpt>
      <trkpt lat="50.58224" lon="2.3006">
        <ele>74.10518</ele>
        <time>2023-02-10T05:18:46Z</time>
      </trkpt>
      <trkpt lat="50.58313" lon="2.29984">
        <ele>80.552899</ele>
        <time>2023-02-10T05:19:54Z</time>
      </trkpt>
      <trkpt lat="50.58411" lon="2.29887">
        <ele>86.078921</ele>
        <time>2023-02-10T05:21:02Z</time>
      </trkpt>
      <trkpt lat="50.58422" lon="2.29873">
        <ele>86.556905</ele>
        <time>2023-02-10T05:21:09Z</time>
      </trkpt>
      <trkpt lat="50.58526" lon="2.29772">
        <ele>90.170757</ele>
        <time>2023-02-10T05:22:00Z</time>
      </trkpt>
      <trkpt lat="50.58524" lon="2.29766">
        <ele>90.217902</ele>
        <time>2023-02-10T05:22:02Z</time>
      </trkpt>
      <trkpt lat="50.58483" lon="2.29672">
        <ele>91.046642</ele>
        <time>2023-02-10T05:22:33Z</time>
      </trkpt>
      <trkpt lat="50.58443" lon="2.29577">
        <ele>91.875426</ele>
        <time>2023-02-10T05:23:04Z</time>
      </trkpt>
      <trkpt lat="50.58493" lon="2.29487">
        <ele>92.044031</ele>
        <time>2023-02-10T05:23:37Z</time>
      </trkpt>
      <trkpt lat="50.58507" lon="2.29489">
        <ele>92.044031</ele>
        <time>2023-02-10T05:23:43Z</time>
      </trkpt>
      <trkpt lat="50.58518" lon="2.29478">
        <ele>92.044031</ele>
        <time>2023-02-10T05:23:46Z</time>
      </trkpt>
      <trkpt lat="50.58558" lon="2.29442">
        <ele>92.044031</ele>
        <time>2023-02-10T05:23:57Z</time>
      </trkpt>
      <trkpt lat="50.58564" lon="2.29435">
        <ele>92.044031</ele>
        <time>2023-02-10T05:23:59Z</time>
      </trkpt>
    </trkseg>
  </trk>
</gpx>